BCO-DMO ERDDAP
Accessing BCO-DMO data
log in    
Brought to you by BCO-DMO    
 
 
Cruise_ID Cast_ID Station_ID UTC_Date UTC_Time time latitude longitude depth Strain_Gauge_Pressure Conductivity Salinity Temperature Potential_Temp Density Sigma_theta Oxygen_mLL Oxygen_pcnt PAR_Irradiance ISUS flag
unitless unitless unitless unitless unitless UTC degrees_north degrees_east m psi millisiemens per centimeter (mS/cm) PSU degrees Celsius degrees Celsius kilograms per cubic meter (kg/m^3) kilograms per cubic meter (kg/m^3) milliliters per liter (ml/l) unitless (percent) unitless volts unitless
SAV-15-04 1 12 03/16/2015 15:56:47 2015-03-16T15:56:47Z 31.032117 -76.343633 2.0 2.921 52.700227 36.5412 22.7349 22.7344 1025.1888 25.1799 4.7443 97.152 1417.0 -4.8674568 0.0
SAV-15-04 1 12 03/16/2015 15:56:47 2015-03-16T15:56:47Z 31.032117 -76.343633 3.0 4.381 52.705553 36.5415 22.7392 22.7386 1025.1911 25.1789 4.7534 97.346 259.74 -4.8642149 0.0
SAV-15-04 1 12 03/16/2015 15:56:47 2015-03-16T15:56:47Z 31.032117 -76.343633 4.0 5.841 52.673812 36.5436 22.7064 22.7055 1025.209 25.19 4.7443 97.105 210.45 -4.8669887 0.0
SAV-15-04 1 12 03/16/2015 15:56:47 2015-03-16T15:56:47Z 31.032117 -76.343633 5.0 7.302 52.674918 36.5394 22.712 22.7108 1025.2093 25.1853 4.7428 97.083 191.19 -4.8669928 0.0
SAV-15-04 1 12 03/16/2015 15:56:47 2015-03-16T15:56:47Z 31.032117 -76.343633 6.0 8.763 52.671156 36.5457 22.7005 22.6992 1025.2217 25.1934 4.7609 97.437 174.99 -4.8669928 0.0
SAV-15-04 1 12 03/16/2015 15:56:47 2015-03-16T15:56:47Z 31.032117 -76.343633 7.0 10.223 52.652841 36.542 22.6873 22.6857 1025.2276 25.1945 4.7503 97.195 171.27 -4.8669928 0.0
SAV-15-04 1 12 03/16/2015 15:56:47 2015-03-16T15:56:47Z 31.032117 -76.343633 8.0 11.684 52.650036 36.5421 22.6841 22.6822 1025.2342 25.1956 4.7417 97.014 157.86 -4.8209405 0.0
SAV-15-04 1 12 03/16/2015 15:56:47 2015-03-16T15:56:47Z 31.032117 -76.343633 9.0 13.144 52.648902 36.5416 22.6834 22.6815 1025.236 25.1955 4.7513 97.21 157.49 -4.8425292 0.0
SAV-15-04 1 12 03/16/2015 15:56:47 2015-03-16T15:56:47Z 31.032117 -76.343633 10.0 14.605 52.642849 36.5431 22.6752 22.673 1025.2469 25.199 4.7709 97.597 158.79 -4.8673934 0.0
SAV-15-04 1 12 03/16/2015 15:56:47 2015-03-16T15:56:47Z 31.032117 -76.343633 11.0 16.065 52.640418 36.5417 22.6742 22.6717 1025.2505 25.1984 4.7642 97.458 150.07 -4.826706 0.0
SAV-15-04 1 12 03/16/2015 15:56:47 2015-03-16T15:56:47Z 31.032117 -76.343633 12.0 17.526 52.64077 36.5415 22.6746 22.672 1025.2527 25.1981 4.7608 97.389 147.32 -4.7437354 0.0
SAV-15-04 1 12 03/16/2015 15:56:47 2015-03-16T15:56:47Z 31.032117 -76.343633 13.0 18.987 52.643729 36.5414 22.6771 22.6744 1025.255 25.1974 4.7407 96.982 151.92 -4.8799125 0.0
SAV-15-04 1 12 03/16/2015 15:56:47 2015-03-16T15:56:47Z 31.032117 -76.343633 14.0 20.447 52.642696 36.5422 22.6745 22.6714 1025.2639 25.1988 4.7667 97.51 148.58 -4.8672038 0.0
SAV-15-04 1 12 03/16/2015 15:56:47 2015-03-16T15:56:47Z 31.032117 -76.343633 15.0 21.908 52.641658 36.5417 22.6738 22.6706 1025.2665 25.1986 4.7551 97.27 146.91 -4.8669928 0.0
SAV-15-04 1 12 03/16/2015 15:56:47 2015-03-16T15:56:47Z 31.032117 -76.343633 16.0 23.368 52.641918 36.5414 22.6742 22.6708 1025.2689 25.1984 4.7495 97.156 152.66 -4.8721615 0.0
SAV-15-04 1 12 03/16/2015 15:56:47 2015-03-16T15:56:47Z 31.032117 -76.343633 17.0 24.828 52.642092 36.5412 22.674 22.6704 1025.2745 25.1983 4.7557 97.282 150.54 -4.8866131 0.0
SAV-15-04 1 12 03/16/2015 15:56:47 2015-03-16T15:56:47Z 31.032117 -76.343633 18.0 26.289 52.642467 36.5413 22.6738 22.67 1025.279 25.1985 4.7498 97.162 150.3 -4.86738 0.0
SAV-15-04 1 12 03/16/2015 15:56:47 2015-03-16T15:56:47Z 31.032117 -76.343633 19.0 27.75 52.642876 36.5416 22.6735 22.6694 1025.2837 25.1989 4.749 97.146 156.57 -4.8867617 0.0
SAV-15-04 1 12 03/16/2015 15:56:47 2015-03-16T15:56:47Z 31.032117 -76.343633 20.0 29.21 52.643279 36.5414 22.6737 22.6695 1025.2871 25.1988 4.7565 97.298 156.62 -4.8670598 0.0
SAV-15-04 1 12 03/16/2015 15:56:47 2015-03-16T15:56:47Z 31.032117 -76.343633 21.0 30.671 52.641319 36.541 22.672 22.6676 1025.2913 25.199 4.748 97.123 161.96 -4.8783016 0.0
SAV-15-04 1 12 03/16/2015 15:56:47 2015-03-16T15:56:47Z 31.032117 -76.343633 22.0 32.131 52.641335 36.5411 22.6712 22.6665 1025.2982 25.1994 4.7467 97.093 162.95 -4.8803929 0.0
SAV-15-04 1 12 03/16/2015 15:56:47 2015-03-16T15:56:47Z 31.032117 -76.343633 23.0 33.592 52.641491 36.542 22.6699 22.665 1025.3035 25.2005 4.7447 97.051 160.31 -4.8661062 0.0
SAV-15-04 1 12 03/16/2015 15:56:47 2015-03-16T15:56:47Z 31.032117 -76.343633 24.0 35.052 52.640645 36.5415 22.6695 22.6645 1025.3054 25.2002 4.7403 96.96 160.53 -4.8669928 0.0
SAV-15-04 1 12 03/16/2015 15:56:47 2015-03-16T15:56:47Z 31.032117 -76.343633 25.0 36.513 52.640565 36.5415 22.669 22.6637 1025.3107 25.2004 4.7602 97.366 175.95 -4.8820536 0.0
SAV-15-04 1 12 03/16/2015 15:56:47 2015-03-16T15:56:47Z 31.032117 -76.343633 26.0 37.974 52.641467 36.5415 22.6691 22.6635 1025.3177 25.2005 4.7514 97.186 156.7 -4.8670456 0.0
SAV-15-04 1 12 03/16/2015 15:56:47 2015-03-16T15:56:47Z 31.032117 -76.343633 27.0 39.434 52.641512 36.5414 22.6692 22.6635 1025.3191 25.2004 4.7611 97.386 150.23 -4.8669928 0.0
SAV-15-04 1 12 03/16/2015 15:56:47 2015-03-16T15:56:47Z 31.032117 -76.343633 28.0 40.895 52.641828 36.5419 22.6685 22.6627 1025.3233 25.201 4.7673 97.512 165.8 -4.6909037 0.0
SAV-15-04 1 12 03/16/2015 15:56:47 2015-03-16T15:56:47Z 31.032117 -76.343633 29.0 42.356 52.640082 36.5413 22.6669 22.6607 1025.3297 25.2012 4.7652 97.465 164.37 -4.7247358 0.0
SAV-15-04 1 12 03/16/2015 15:56:47 2015-03-16T15:56:47Z 31.032117 -76.343633 30.0 43.816 52.640573 36.5419 22.6665 22.6602 1025.333 25.2018 4.7506 97.166 154.86 -4.8321426 0.0
SAV-15-04 1 12 03/16/2015 15:56:47 2015-03-16T15:56:47Z 31.032117 -76.343633 31.0 45.277 52.640214 36.5418 22.6658 22.6593 1025.3379 25.2019 4.7262 96.665 146.26 -4.867966 0.0
SAV-15-04 1 12 03/16/2015 15:56:47 2015-03-16T15:56:47Z 31.032117 -76.343633 32.0 46.738 52.640568 36.5416 22.6658 22.659 1025.3434 25.2019 4.7465 97.08 143.03 -4.8669928 0.0
SAV-15-04 1 12 03/16/2015 15:56:47 2015-03-16T15:56:47Z 31.032117 -76.343633 33.0 48.198 52.635629 36.5375 22.6657 22.6589 1025.3434 25.1988 4.7571 97.295 142.59 -4.8669928 0.0
SAV-15-04 1 12 03/16/2015 15:56:47 2015-03-16T15:56:47Z 31.032117 -76.343633 34.0 49.659 52.6404 36.5414 22.6652 22.6582 1025.3498 25.2019 4.7193 96.524 139.01 -4.8669928 0.0
SAV-15-04 1 12 03/16/2015 15:56:47 2015-03-16T15:56:47Z 31.032117 -76.343633 35.0 51.12 52.641638 36.5422 22.6648 22.6574 1025.3583 25.2028 4.7277 96.695 134.37 -4.8669928 0.0
SAV-15-04 1 12 03/16/2015 15:56:47 2015-03-16T15:56:47Z 31.032117 -76.343633 36.0 52.581 52.641167 36.5419 22.6642 22.6565 1025.3628 25.2028 4.7357 96.856 125.21 -4.8669928 0.0
SAV-15-04 1 12 03/16/2015 15:56:47 2015-03-16T15:56:47Z 31.032117 -76.343633 37.0 54.041 52.640219 36.5417 22.6633 22.6556 1025.3655 25.2029 4.7334 96.81 121.39 -4.8669928 0.0
SAV-15-04 1 12 03/16/2015 15:56:47 2015-03-16T15:56:47Z 31.032117 -76.343633 38.0 55.502 52.640441 36.5415 22.6635 22.6556 1025.3677 25.2028 4.7153 96.439 118.36 -4.8669928 0.0
SAV-15-04 1 12 03/16/2015 15:56:47 2015-03-16T15:56:47Z 31.032117 -76.343633 39.0 56.963 52.639868 36.5422 22.6613 22.6532 1025.3766 25.204 4.7242 96.618 115.27 -4.8669928 0.0
SAV-15-04 1 12 03/16/2015 15:56:47 2015-03-16T15:56:47Z 31.032117 -76.343633 40.0 58.423 52.639457 36.5427 22.66 22.6515 1025.3819 25.2049 4.7404 96.948 109.48 -4.8669928 0.0
SAV-15-04 1 12 03/16/2015 15:56:47 2015-03-16T15:56:47Z 31.032117 -76.343633 41.0 59.884 52.639135 36.5422 22.6599 22.6513 1025.385 25.2046 4.7515 97.173 102.84 -4.8669928 0.0
SAV-15-04 1 12 03/16/2015 15:56:47 2015-03-16T15:56:47Z 31.032117 -76.343633 42.0 61.345 52.639436 36.5425 22.6596 22.6509 1025.3882 25.2049 4.7366 96.869 96.185 -4.8669928 0.0
SAV-15-04 1 12 03/16/2015 15:56:47 2015-03-16T15:56:47Z 31.032117 -76.343633 43.0 62.805 52.639745 36.5423 22.6597 22.6508 1025.3917 25.2048 4.7107 96.339 93.334 -4.8669928 0.0
SAV-15-04 1 12 03/16/2015 15:56:47 2015-03-16T15:56:47Z 31.032117 -76.343633 44.0 64.266 52.640928 36.5423 22.6603 22.6511 1025.3975 25.2046 4.7196 96.521 88.476 -4.8669928 0.0
SAV-15-04 1 12 03/16/2015 15:56:47 2015-03-16T15:56:47Z 31.032117 -76.343633 45.0 65.727 52.643664 36.5423 22.6624 22.653 1025.4015 25.2041 4.7251 96.64 81.932 -4.8669928 0.0
SAV-15-04 1 12 03/16/2015 15:56:47 2015-03-16T15:56:47Z 31.032117 -76.343633 46.0 67.188 52.646428 36.5434 22.6634 22.6538 1025.4053 25.2047 4.7015 96.158 76.501 -4.8669928 0.0
SAV-15-04 1 12 03/16/2015 15:56:47 2015-03-16T15:56:47Z 31.032117 -76.343633 47.0 68.649 52.646667 36.5439 22.6625 22.6528 1025.4101 25.2054 4.6979 96.082 74.383 -4.8669928 0.0
SAV-15-04 1 12 03/16/2015 15:56:47 2015-03-16T15:56:47Z 31.032117 -76.343633 48.0 70.109 52.642867 36.5501 22.6511 22.6412 1025.4226 25.2135 4.7076 96.267 68.523 -4.8669928 0.0
SAV-15-04 1 12 03/16/2015 15:56:47 2015-03-16T15:56:47Z 31.032117 -76.343633 49.0 71.57 52.614508 36.5536 22.6201 22.61 1025.4382 25.2251 4.7139 96.344 64.951 -4.8669928 0.0
SAV-15-04 1 12 03/16/2015 15:56:47 2015-03-16T15:56:47Z 31.032117 -76.343633 50.0 73.03 52.592974 36.5591 22.5926 22.5822 1025.458 25.2373 4.7028 96.074 61.907 -4.8669928 0.0
SAV-15-04 1 12 03/16/2015 15:56:47 2015-03-16T15:56:47Z 31.032117 -76.343633 51.0 74.492 52.585122 36.561 22.5827 22.572 1025.4666 25.2416 4.695 95.898 58.338 -4.8669928 0.0
SAV-15-04 1 12 03/16/2015 15:56:47 2015-03-16T15:56:47Z 31.032117 -76.343633 52.0 75.952 52.565871 36.5735 22.5496 22.5388 1025.4881 25.2607 4.6925 95.799 54.619 -4.8669928 0.0
SAV-15-04 1 12 03/16/2015 15:56:47 2015-03-16T15:56:47Z 31.032117 -76.343633 53.0 77.414 52.563243 36.5612 22.5615 22.5506 1025.4778 25.248 4.6461 94.864 50.848 -4.8669928 0.0
SAV-15-04 1 12 03/16/2015 15:56:47 2015-03-16T15:56:47Z 31.032117 -76.343633 54.0 78.874 52.547356 36.5728 22.532 22.5208 1025.5034 25.2653 4.6366 94.628 47.786 -4.8669928 0.0
SAV-15-04 1 12 03/16/2015 15:56:47 2015-03-16T15:56:47Z 31.032117 -76.343633 55.0 80.335 52.530017 36.5824 22.5041 22.4927 1025.5226 25.2807 4.6453 94.765 44.475 -4.8669928 0.0
SAV-15-04 1 12 03/16/2015 15:56:47 2015-03-16T15:56:47Z 31.032117 -76.343633 56.0 81.796 52.500872 36.58 22.4796 22.4681 1025.5294 25.2858 4.6502 94.821 41.054 -4.8669928 0.0
SAV-15-04 1 12 03/16/2015 15:56:47 2015-03-16T15:56:47Z 31.032117 -76.343633 57.0 83.257 52.509528 36.5769 22.4909 22.4792 1025.5278 25.2803 4.5948 93.709 39.019 -4.8669928 0.0
SAV-15-04 1 12 03/16/2015 15:56:47 2015-03-16T15:56:47Z 31.032117 -76.343633 58.0 84.717 52.40962 36.588 22.3836 22.3715 1025.5759 25.3196 4.6353 94.363 36.113 -4.8669928 0.0
SAV-15-04 1 12 03/16/2015 15:56:47 2015-03-16T15:56:47Z 31.032117 -76.343633 59.0 86.179 52.400818 36.5825 22.3817 22.3695 1025.5746 25.3159 4.6202 94.05 33.947 -4.8669928 0.0
SAV-15-04 1 12 03/16/2015 15:56:47 2015-03-16T15:56:47Z 31.032117 -76.343633 60.0 87.639 52.397644 36.5799 22.3816 22.3693 1025.5747 25.314 4.5804 93.237 31.72 -4.8669928 0.0
SAV-15-04 1 12 03/16/2015 15:56:47 2015-03-16T15:56:47Z 31.032117 -76.343633 61.0 89.1 52.380057 36.5825 22.3617 22.3493 1025.586 25.3217 4.5263 92.106 29.797 -4.8669928 0.0
SAV-15-04 1 12 03/16/2015 15:56:47 2015-03-16T15:56:47Z 31.032117 -76.343633 62.0 90.561 52.352182 36.5834 22.3339 22.321 1025.6027 25.3304 4.5506 92.555 28.685 -4.8669928 0.0
SAV-15-04 1 12 03/16/2015 15:56:47 2015-03-16T15:56:47Z 31.032117 -76.343633 63.0 92.022 52.347493 36.58 22.333 22.32 1025.6048 25.3282 4.5536 92.613 26.697 -4.8669928 0.0
SAV-15-04 1 12 03/16/2015 15:56:47 2015-03-16T15:56:47Z 31.032117 -76.343633 64.0 93.482 52.33972 36.5924 22.3108 22.2977 1025.6233 25.3439 4.5588 92.688 24.91 -4.8669928 0.0
SAV-15-04 1 12 03/16/2015 15:56:47 2015-03-16T15:56:47Z 31.032117 -76.343633 65.0 94.943 52.325421 36.5873 22.3032 22.29 1025.624 25.3423 4.557 92.637 23.262 -4.4677297 0.0
SAV-15-04 1 12 03/16/2015 15:56:47 2015-03-16T15:56:47Z 31.032117 -76.343633 66.0 96.404 52.301808 36.5986 22.2671 22.2535 1025.6506 25.3613 4.5708 92.866 22.135 -4.9265532 0.0
SAV-15-04 1 12 03/16/2015 15:56:47 2015-03-16T15:56:47Z 31.032117 -76.343633 67.0 97.865 52.283043 36.5995 22.248 22.2342 1025.6608 25.3674 4.5683 92.783 20.89 -4.8300454 0.0
SAV-15-04 1 12 03/16/2015 15:56:47 2015-03-16T15:56:47Z 31.032117 -76.343633 68.0 99.326 52.280862 36.5962 22.2496 22.2358 1025.6599 25.3645 4.5597 92.609 19.595 -4.7891839 0.0
SAV-15-04 1 12 03/16/2015 15:56:47 2015-03-16T15:56:47Z 31.032117 -76.343633 69.0 100.787 52.279646 36.5988 22.2451 22.2311 1025.6669 25.3678 4.5191 91.78 18.552 -4.8351326 0.0
SAV-15-04 1 12 03/16/2015 15:56:47 2015-03-16T15:56:47Z 31.032117 -76.343633 70.0 102.248 52.262149 36.6083 22.2168 22.2025 1025.6892 25.3831 4.5311 91.983 17.915 -4.2132763 0.0
SAV-15-04 1 12 03/16/2015 15:56:47 2015-03-16T15:56:47Z 31.032117 -76.343633 71.0 103.709 52.224967 36.6162 22.1723 22.1577 1025.7129 25.4018 4.5362 92.017 16.846 -4.6027999 0.0
SAV-15-04 1 12 03/16/2015 15:56:47 2015-03-16T15:56:47Z 31.032117 -76.343633 72.0 105.17 52.197698 36.6205 22.1414 22.1267 1025.7283 25.4138 4.5332 91.909 15.887 -4.8616657 0.0
SAV-15-04 1 12 03/16/2015 15:56:47 2015-03-16T15:56:47Z 31.032117 -76.343633 73.0 106.631 52.183951 36.6119 22.1386 22.1238 1025.7243 25.4081 4.5047 91.321 15.182 -4.7224577 0.0
SAV-15-04 1 12 03/16/2015 15:56:47 2015-03-16T15:56:47Z 31.032117 -76.343633 74.0 108.091 52.154792 36.6218 22.0986 22.0834 1025.7528 25.4271 4.5076 91.322 14.612 -4.4367713 0.0
SAV-15-04 1 12 03/16/2015 15:56:47 2015-03-16T15:56:47Z 31.032117 -76.343633 75.0 109.553 52.133411 36.6251 22.0743 22.0588 1025.7671 25.4366 4.5236 91.609 13.856 -4.0525197 0.0
SAV-15-04 1 12 03/16/2015 15:56:47 2015-03-16T15:56:47Z 31.032117 -76.343633 76.0 111.014 52.127509 36.6211 22.0732 22.0576 1025.7672 25.4339 4.5265 91.664 13.228 -4.4234656 0.0
SAV-15-04 1 12 03/16/2015 15:56:47 2015-03-16T15:56:47Z 31.032117 -76.343633 77.0 112.475 52.125498 36.6204 22.072 22.0563 1025.7689 25.4337 4.5177 91.483 12.589 -4.7900732 0.0
SAV-15-04 1 12 03/16/2015 15:56:47 2015-03-16T15:56:47Z 31.032117 -76.343633 78.0 113.936 52.131691 36.6176 22.0808 22.0651 1025.7664 25.4291 4.4689 90.508 12.058 -4.6591758 0.0
SAV-15-04 1 12 03/16/2015 15:56:47 2015-03-16T15:56:47Z 31.032117 -76.343633 79.0 115.397 52.10959 36.6197 22.0569 22.0407 1025.7831 25.4377 4.4768 90.629 11.458 -3.7803289 0.0
SAV-15-04 1 12 03/16/2015 15:56:47 2015-03-16T15:56:47Z 31.032117 -76.343633 80.0 116.857 52.103371 36.619 22.0516 22.0353 1025.7873 25.4386 4.4812 90.71 10.883 -4.6646124 0.0
SAV-15-04 1 12 03/16/2015 15:56:47 2015-03-16T15:56:47Z 31.032117 -76.343633 81.0 118.319 52.097987 36.6185 22.0468 22.0304 1025.7915 25.4396 4.482 90.719 10.449 -4.860078 0.0
SAV-15-04 1 12 03/16/2015 15:56:47 2015-03-16T15:56:47Z 31.032117 -76.343633 82.0 119.78 52.09088 36.6169 22.0416 22.025 1025.7955 25.4399 4.4742 90.552 10.11 -4.8559615 0.0
SAV-15-04 1 12 03/16/2015 15:56:47 2015-03-16T15:56:47Z 31.032117 -76.343633 83.0 121.241 52.06679 36.6194 22.0157 21.9989 1025.8099 25.4492 4.4575 90.174 9.731 -4.8378664 0.0
SAV-15-04 1 12 03/16/2015 15:56:47 2015-03-16T15:56:47Z 31.032117 -76.343633 84.0 122.702 52.034923 36.6152 21.9903 21.9732 1025.8201 25.4533 4.4734 90.453 9.2551 -4.8895021 0.0
SAV-15-04 1 12 03/16/2015 15:56:47 2015-03-16T15:56:47Z 31.032117 -76.343633 85.0 124.163 52.027174 36.6152 21.9826 21.9654 1025.8263 25.4555 4.4874 90.723 8.8274 -4.4325139 0.0
SAV-15-04 1 12 03/16/2015 15:56:47 2015-03-16T15:56:47Z 31.032117 -76.343633 86.0 125.624 52.023569 36.614 21.9805 21.9632 1025.8278 25.4552 4.4694 90.355 8.4639 -4.4481549 0.0
SAV-15-04 1 12 03/16/2015 15:56:47 2015-03-16T15:56:47Z 31.032117 -76.343633 87.0 127.085 52.021121 36.6175 21.9736 21.9561 1025.837 25.4599 4.4296 89.542 8.1234 -4.9716688 0.0
SAV-15-04 1 12 03/16/2015 15:56:47 2015-03-16T15:56:47Z 31.032117 -76.343633 88.0 128.547 52.01023 36.6233 21.9558 21.9379 1025.8543 25.4694 4.4636 90.203 7.7541 -4.7596878 0.0
SAV-15-04 1 12 03/16/2015 15:56:47 2015-03-16T15:56:47Z 31.032117 -76.343633 89.0 130.007 52.003787 36.6217 21.9513 21.9333 1025.8581 25.4695 4.4668 90.261 7.4394 -3.5568679 0.0
SAV-15-04 1 12 03/16/2015 15:56:47 2015-03-16T15:56:47Z 31.032117 -76.343633 90.0 131.468 51.999801 36.621 21.9482 21.93 1025.8606 25.4699 4.4567 90.049 7.1478 -3.9966511 0.0
SAV-15-04 1 12 03/16/2015 15:56:47 2015-03-16T15:56:47Z 31.032117 -76.343633 91.0 132.929 51.996977 36.6213 21.9449 21.9265 1025.8655 25.4711 4.441 89.728 6.8576 -4.8531171 0.0
SAV-15-04 1 12 03/16/2015 15:56:47 2015-03-16T15:56:47Z 31.032117 -76.343633 92.0 134.39 51.980784 36.6206 21.9301 21.9115 1025.8736 25.4748 4.4292 89.466 6.6236 -4.8779854 0.0
SAV-15-04 1 12 03/16/2015 15:56:47 2015-03-16T15:56:47Z 31.032117 -76.343633 93.0 135.852 51.973532 36.6188 21.925 21.9062 1025.8781 25.4749 4.4309 89.492 6.3266 -4.5852594 0.0
SAV-15-04 1 12 03/16/2015 15:56:47 2015-03-16T15:56:47Z 31.032117 -76.343633 94.0 137.313 51.958948 36.6247 21.9037 21.8847 1025.8954 25.4855 4.4436 89.716 6.0373 -4.6168811 0.0
SAV-15-04 1 12 03/16/2015 15:56:47 2015-03-16T15:56:47Z 31.032117 -76.343633 95.0 138.774 51.931628 36.6316 21.8695 21.8503 1025.9151 25.5004 4.4521 89.837 5.7741 -4.8552587 0.0
SAV-15-04 1 12 03/16/2015 15:56:47 2015-03-16T15:56:47Z 31.032117 -76.343633 96.0 140.235 51.903465 36.6257 21.8499 21.8305 1025.9193 25.5015 4.4618 89.998 5.545 -4.8669928 0.0
SAV-15-04 1 12 03/16/2015 15:56:47 2015-03-16T15:56:47Z 31.032117 -76.343633 97.0 141.696 51.895625 36.6226 21.846 21.8265 1025.92 25.5002 4.4656 90.067 5.3664 -4.7902517 0.0
SAV-15-04 1 12 03/16/2015 15:56:47 2015-03-16T15:56:47Z 31.032117 -76.343633 98.0 143.157 51.88357 36.6259 21.8301 21.8103 1025.934 25.5074 4.4743 90.22 5.17 -4.1317142 0.0
SAV-15-04 1 12 03/16/2015 15:56:47 2015-03-16T15:56:47Z 31.032117 -76.343633 99.0 144.618 51.883632 36.6265 21.8292 21.8092 1025.9384 25.508 4.4774 90.281 4.9664 -4.8355666 0.0
SAV-15-04 1 12 03/16/2015 15:56:47 2015-03-16T15:56:47Z 31.032117 -76.343633 100.0 146.079 51.882964 36.6265 21.8282 21.8081 1025.9416 25.5084 4.4827 90.386 4.7823 -4.8669928 0.0
SAV-15-04 1 12 03/16/2015 15:56:47 2015-03-16T15:56:47Z 31.032117 -76.343633 101.0 147.541 51.878809 36.6276 21.8226 21.8023 1025.9491 25.5108 4.4719 90.16 4.6214 -4.7767338 0.0
SAV-15-04 1 12 03/16/2015 15:56:47 2015-03-16T15:56:47Z 31.032117 -76.343633 102.0 149.001 51.874473 36.6271 21.8186 21.7981 1025.955 25.5117 4.4558 89.83 4.4566 -4.8681905 0.0
SAV-15-04 1 12 03/16/2015 15:56:47 2015-03-16T15:56:47Z 31.032117 -76.343633 103.0 150.463 51.875036 36.6288 21.8167 21.796 1025.9607 25.5135 4.4648 90.009 4.3059 -4.8669928 0.0
SAV-15-04 1 12 03/16/2015 15:56:47 2015-03-16T15:56:47Z 31.032117 -76.343633 104.0 151.924 51.871814 36.63 21.8119 21.791 1025.9668 25.5158 4.4473 89.648 4.159 -3.8127195 0.0
SAV-15-04 1 12 03/16/2015 15:56:47 2015-03-16T15:56:47Z 31.032117 -76.343633 105.0 153.385 51.865494 36.6295 21.8061 21.7849 1025.9735 25.5171 4.4319 89.328 4.0137 -3.7357883 0.0
SAV-15-04 1 12 03/16/2015 15:56:47 2015-03-16T15:56:47Z 31.032117 -76.343633 106.0 154.847 51.862532 36.6288 21.8038 21.7825 1025.9771 25.5173 4.426 89.205 3.8651 -4.9577806 0.0
SAV-15-04 1 12 03/16/2015 15:56:47 2015-03-16T15:56:47Z 31.032117 -76.343633 107.0 156.308 51.859339 36.6294 21.7998 21.7783 1025.9818 25.519 4.4413 89.508 3.7364 -4.36986 0.0
SAV-15-04 1 12 03/16/2015 15:56:47 2015-03-16T15:56:47Z 31.032117 -76.343633 108.0 157.769 51.847993 36.6353 21.7814 21.7596 1025.9997 25.5287 4.4693 90.046 3.5998 -4.8494167 0.0
SAV-15-04 1 12 03/16/2015 15:56:47 2015-03-16T15:56:47Z 31.032117 -76.343633 109.0 159.231 51.827776 36.6392 21.7574 21.7353 1026.0149 25.5384 4.4652 89.926 3.4484 -4.8760148 0.0
SAV-15-04 1 12 03/16/2015 15:56:47 2015-03-16T15:56:47Z 31.032117 -76.343633 110.0 160.691 51.8205 36.6368 21.7531 21.731 1026.0167 25.5378 4.4677 89.969 3.3349 -4.8669928 0.0
SAV-15-04 1 12 03/16/2015 15:56:47 2015-03-16T15:56:47Z 31.032117 -76.343633 111.0 162.152 51.819071 36.6324 21.7568 21.7347 1026.0137 25.5335 4.4528 89.673 3.2163 -4.3149181 0.0
SAV-15-04 1 12 03/16/2015 15:56:47 2015-03-16T15:56:47Z 31.032117 -76.343633 112.0 163.614 51.806967 36.6408 21.7352 21.7128 1026.0309 25.546 4.4361 89.307 3.1188 -4.4621623 0.0
SAV-15-04 1 12 03/16/2015 15:56:47 2015-03-16T15:56:47Z 31.032117 -76.343633 113.0 165.075 51.774544 36.653 21.6899 21.6672 1026.059 25.568 4.4373 89.265 3.0019 -4.5796299 0.0
SAV-15-04 1 12 03/16/2015 15:56:47 2015-03-16T15:56:47Z 31.032117 -76.343633 114.0 166.536 51.69225 36.655 21.61 21.5871 1026.0884 25.5919 4.4427 89.249 2.8821 -4.7347582 0.0
SAV-15-04 1 12 03/16/2015 15:56:47 2015-03-16T15:56:47Z 31.032117 -76.343633 115.0 167.998 51.660461 36.646 21.5903 21.5673 1026.0906 25.5906 4.45 89.36 2.7866 -4.8631788 0.0
SAV-15-04 1 12 03/16/2015 15:56:47 2015-03-16T15:56:47Z 31.032117 -76.343633 116.0 169.459 51.650772 36.6418 21.586 21.5629 1026.0908 25.5886 4.4622 89.594 2.685 -4.4319841 0.0
SAV-15-04 1 12 03/16/2015 15:56:47 2015-03-16T15:56:47Z 31.032117 -76.343633 117.0 170.92 51.618676 36.6421 21.555 21.5317 1026.1053 25.5975 4.4534 89.368 2.6016 -3.6812043 0.0
SAV-15-04 1 12 03/16/2015 15:56:47 2015-03-16T15:56:47Z 31.032117 -76.343633 118.0 172.381 51.595433 36.6394 21.5358 21.5123 1026.1141 25.601 4.4802 89.874 2.5013 -3.7015669 0.0
SAV-15-04 1 12 03/16/2015 15:56:47 2015-03-16T15:56:47Z 31.032117 -76.343633 119.0 173.842 51.575282 36.6436 21.5117 21.488 1026.1272 25.6109 4.4969 90.173 2.4152 -4.5534896 0.0
SAV-15-04 1 12 03/16/2015 15:56:47 2015-03-16T15:56:47Z 31.032117 -76.343633 120.0 175.304 51.540215 36.6462 21.4754 21.4516 1026.143 25.623 4.487 89.917 2.3384 -4.8524946 0.0
SAV-15-04 1 12 03/16/2015 15:56:47 2015-03-16T15:56:47Z 31.032117 -76.343633 121.0 176.765 51.456818 36.6468 21.3958 21.3717 1026.1727 25.6457 4.4681 89.412 2.2575 -4.4900422 0.0
SAV-15-04 1 12 03/16/2015 15:56:47 2015-03-16T15:56:47Z 31.032117 -76.343633 122.0 178.226 51.418232 36.6397 21.3675 21.3433 1026.1793 25.6481 4.4738 89.478 2.1857 -4.3349959 0.0
SAV-15-04 1 12 03/16/2015 15:56:47 2015-03-16T15:56:47Z 31.032117 -76.343633 123.0 179.687 51.391363 36.6275 21.3564 21.3321 1026.175 25.642 4.4892 89.762 2.1163 -4.2820131 0.0
SAV-15-04 1 12 03/16/2015 15:56:47 2015-03-16T15:56:47Z 31.032117 -76.343633 124.0 181.149 51.377176 36.633 21.3361 21.3116 1026.1897 25.6518 4.5419 90.783 2.0632 -4.10492 0.0
SAV-15-04 1 12 03/16/2015 15:56:47 2015-03-16T15:56:47Z 31.032117 -76.343633 125.0 182.61 51.353919 36.635 21.3112 21.2864 1026.2059 25.6603 4.5563 91.033 1.989 -4.8261269 0.0
SAV-15-04 1 12 03/16/2015 15:56:47 2015-03-16T15:56:47Z 31.032117 -76.343633 126.0 184.071 51.340842 36.643 21.2893 21.2644 1026.2211 25.6725 4.5735 91.344 1.9224 -4.8669928 0.0
SAV-15-04 1 12 03/16/2015 15:56:47 2015-03-16T15:56:47Z 31.032117 -76.343633 127.0 185.533 51.345475 36.637 21.3006 21.2756 1026.2148 25.6648 4.5398 90.688 1.8697 -4.8669928 0.0
SAV-15-04 1 12 03/16/2015 15:56:47 2015-03-16T15:56:47Z 31.032117 -76.343633 128.0 186.995 51.329302 36.6419 21.2789 21.2536 1026.2324 25.6746 4.5029 89.917 1.8288 -4.8669928 0.0
SAV-15-04 1 12 03/16/2015 15:56:47 2015-03-16T15:56:47Z 31.032117 -76.343633 129.0 188.456 51.322626 36.642 21.272 21.2466 1026.2387 25.6766 4.5171 90.192 1.7716 -4.8669928 0.0
SAV-15-04 1 12 03/16/2015 15:56:47 2015-03-16T15:56:47Z 31.032117 -76.343633 130.0 189.917 51.311368 36.6416 21.2617 21.236 1026.2442 25.6793 4.5171 90.174 1.72 -4.4693929 0.0
SAV-15-04 1 12 03/16/2015 15:56:47 2015-03-16T15:56:47Z 31.032117 -76.343633 131.0 191.379 51.300109 36.6375 21.2556 21.2298 1026.2456 25.6779 4.4958 89.735 1.6689 -4.7845396 0.0
SAV-15-04 1 12 03/16/2015 15:56:47 2015-03-16T15:56:47Z 31.032117 -76.343633 132.0 192.84 51.28852 36.6353 21.2468 21.2209 1026.2507 25.6787 4.469 89.186 1.6259 -4.520849 0.0
SAV-15-04 1 12 03/16/2015 15:56:47 2015-03-16T15:56:47Z 31.032117 -76.343633 133.0 194.302 51.274261 36.6345 21.2338 21.2075 1026.2608 25.6817 4.4898 89.58 1.5828 -4.4975131 0.0
SAV-15-04 1 12 03/16/2015 15:56:47 2015-03-16T15:56:47Z 31.032117 -76.343633 134.0 195.762 51.271819 36.633 21.2328 21.2064 1026.2637 25.6809 4.5118 90.016 1.5366 -4.8660068 0.0
SAV-15-04 1 12 03/16/2015 15:56:47 2015-03-16T15:56:47Z 31.032117 -76.343633 135.0 197.224 51.269813 36.6316 21.2323 21.2058 1026.2651 25.68 4.499 89.759 1.4993 -4.8669928 0.0
SAV-15-04 1 12 03/16/2015 15:56:47 2015-03-16T15:56:47Z 31.032117 -76.343633 136.0 198.685 51.266153 36.6324 21.2275 21.2007 1026.272 25.6821 4.488 89.532 1.4694 -4.8669928 0.0
SAV-15-04 1 12 03/16/2015 15:56:47 2015-03-16T15:56:47Z 31.032117 -76.343633 137.0 200.147 51.260019 36.6313 21.2225 21.1956 1026.2778 25.6826 4.4932 89.628 1.434 -4.8669928 0.0
SAV-15-04 1 12 03/16/2015 15:56:47 2015-03-16T15:56:47Z 31.032117 -76.343633 138.0 201.608 51.258578 36.631 21.2212 21.194 1026.2814 25.6827 4.5063 89.888 1.3902 -4.7768023 0.0
SAV-15-04 1 12 03/16/2015 15:56:47 2015-03-16T15:56:47Z 31.032117 -76.343633 139.0 203.07 51.258299 36.6311 21.2205 21.1931 1026.2857 25.6831 4.5162 90.083 1.3511 -4.735668 0.0
SAV-15-04 1 12 03/16/2015 15:56:47 2015-03-16T15:56:47Z 31.032117 -76.343633 140.0 204.531 51.256976 36.6311 21.2186 21.1911 1026.2912 25.6837 4.5264 90.284 1.3119 -4.8701235 0.0
SAV-15-04 1 12 03/16/2015 15:56:47 2015-03-16T15:56:47Z 31.032117 -76.343633 141.0 205.993 51.255059 36.6309 21.2167 21.1889 1026.2957 25.6842 4.5086 89.926 1.2755 -4.8489453 0.0
SAV-15-04 1 12 03/16/2015 15:56:47 2015-03-16T15:56:47Z 31.032117 -76.343633 142.0 207.454 51.247595 36.6331 21.2067 21.1787 1026.3048 25.6886 4.5033 89.806 1.2397 -4.3783744 0.0
SAV-15-04 1 12 03/16/2015 15:56:47 2015-03-16T15:56:47Z 31.032117 -76.343633 143.0 208.915 51.233016 36.6315 21.1944 21.1662 1026.3118 25.6908 4.5095 89.909 1.2027 -4.6555993 0.0
SAV-15-04 1 12 03/16/2015 15:56:47 2015-03-16T15:56:47Z 31.032117 -76.343633 144.0 210.377 51.229728 36.6296 21.1931 21.1648 1026.3145 25.6898 4.507 89.856 1.1676 -4.8781029 0.0
SAV-15-04 1 12 03/16/2015 15:56:47 2015-03-16T15:56:47Z 31.032117 -76.343633 145.0 211.839 51.230296 36.6295 21.1934 21.1649 1026.3181 25.6897 4.5182 90.079 1.1341 -4.2751459 0.0
SAV-15-04 1 12 03/16/2015 15:56:47 2015-03-16T15:56:47Z 31.032117 -76.343633 146.0 213.3 51.229374 36.6303 21.1911 21.1624 1026.3247 25.691 4.5207 90.125 1.1016 -4.7214373 0.0
SAV-15-04 1 12 03/16/2015 15:56:47 2015-03-16T15:56:47Z 31.032117 -76.343633 147.0 214.761 51.224352 36.6294 21.187 21.1581 1026.3303 25.6915 4.5279 90.262 1.0722 -4.8918208 0.0
SAV-15-04 1 12 03/16/2015 15:56:47 2015-03-16T15:56:47Z 31.032117 -76.343633 148.0 216.223 51.223402 36.6289 21.1864 21.1573 1026.3326 25.6913 4.5399 90.499 1.0457 -4.6410068 0.0
SAV-15-04 1 12 03/16/2015 15:56:47 2015-03-16T15:56:47Z 31.032117 -76.343633 149.0 217.684 51.21891 36.6317 21.1784 21.1492 1026.3417 25.6957 4.5309 90.309 1.0246 -4.7888596 0.0
SAV-15-04 1 12 03/16/2015 15:56:47 2015-03-16T15:56:47Z 31.032117 -76.343633 150.0 219.146 51.201202 36.6342 21.1582 21.1287 1026.356 25.7033 4.5085 89.831 0.9991 -4.9053978 0.0
SAV-15-04 1 12 03/16/2015 15:56:47 2015-03-16T15:56:47Z 31.032117 -76.343633 151.0 220.607 51.216962 36.6409 21.1648 21.1351 1026.3629 25.7066 4.523 90.135 0.9729 -4.8425788 0.0
SAV-15-04 1 12 03/16/2015 15:56:47 2015-03-16T15:56:47Z 31.032117 -76.343633 152.0 222.069 51.221243 36.6439 21.1651 21.1353 1026.3677 25.7088 4.5231 90.138 0.9498 -4.8498028 0.0
SAV-15-04 1 12 03/16/2015 15:56:47 2015-03-16T15:56:47Z 31.032117 -76.343633 153.0 223.53 51.217378 36.6448 21.1602 21.1302 1026.3732 25.7109 4.4418 88.512 0.9262 -4.6364361 0.0
SAV-15-04 1 12 03/16/2015 15:56:47 2015-03-16T15:56:47Z 31.032117 -76.343633 154.0 224.992 51.210413 36.6437 21.1542 21.124 1026.38 25.7118 4.3966 87.6 0.8986 -4.8757838 0.0
SAV-15-04 1 12 03/16/2015 15:56:47 2015-03-16T15:56:47Z 31.032117 -76.343633 155.0 226.453 51.209616 36.6443 21.1525 21.122 1026.385 25.7128 4.4148 87.961 0.8767 -4.7069881 0.0
SAV-15-04 1 12 03/16/2015 15:56:47 2015-03-16T15:56:47Z 31.032117 -76.343633 156.0 227.915 51.202679 36.645 21.1445 21.1139 1026.3931 25.7156 4.4237 88.126 0.8533 -4.4495294 0.0
SAV-15-04 1 12 03/16/2015 15:56:47 2015-03-16T15:56:47Z 31.032117 -76.343633 157.0 229.376 51.199929 36.6429 21.1441 21.1134 1026.3948 25.7141 4.4195 88.041 0.8338 -4.8302671 0.0
SAV-15-04 1 12 03/16/2015 15:56:47 2015-03-16T15:56:47Z 31.032117 -76.343633 158.0 230.838 51.192571 36.6444 21.135 21.104 1026.4031 25.7179 4.4266 88.169 0.8151 -4.8722388 0.0
SAV-15-04 1 12 03/16/2015 15:56:47 2015-03-16T15:56:47Z 31.032117 -76.343633 159.0 232.3 51.174238 36.6437 21.1181 21.0869 1026.4122 25.7219 4.4339 88.286 0.796 -4.8671873 0.0
SAV-15-04 1 12 03/16/2015 15:56:47 2015-03-16T15:56:47Z 31.032117 -76.343633 160.0 233.761 51.168116 36.643 21.1129 21.0816 1026.4158 25.7229 4.434 88.279 0.7757 -4.763593 0.0
SAV-15-04 1 12 03/16/2015 15:56:47 2015-03-16T15:56:47Z 31.032117 -76.343633 161.0 235.223 51.159603 36.6428 21.1047 21.0731 1026.4228 25.7251 4.4486 88.557 0.7569 -4.4780933 0.0
SAV-15-04 1 12 03/16/2015 15:56:47 2015-03-16T15:56:47Z 31.032117 -76.343633 162.0 236.684 51.149077 36.6474 21.0889 21.0572 1026.436 25.733 4.453 88.623 0.7379 -4.8682366 0.0
SAV-15-04 1 12 03/16/2015 15:56:47 2015-03-16T15:56:47Z 31.032117 -76.343633 163.0 238.146 51.133558 36.6562 21.0637 21.0318 1026.4538 25.7466 4.4443 88.413 0.7197 -4.5506337 0.0
SAV-15-04 1 12 03/16/2015 15:56:47 2015-03-16T15:56:47Z 31.032117 -76.343633 164.0 239.608 51.085615 36.6551 21.0195 20.9874 1026.4698 25.758 4.4198 87.855 0.7043 -4.2620314 0.0
SAV-15-04 1 12 03/16/2015 15:56:47 2015-03-16T15:56:47Z 31.032117 -76.343633 165.0 241.069 51.05597 36.6467 21.0009 20.9687 1026.473 25.7568 4.3949 87.327 0.6876 -4.1404707 0.0
SAV-15-04 1 12 03/16/2015 15:56:47 2015-03-16T15:56:47Z 31.032117 -76.343633 166.0 242.531 51.048811 36.6435 20.9975 20.9651 1026.4754 25.7553 4.4014 87.449 0.6728 -4.1354542 0.0
SAV-15-04 1 12 03/16/2015 15:56:47 2015-03-16T15:56:47Z 31.032117 -76.343633 167.0 243.992 51.04494 36.6438 20.9933 20.9607 1026.4801 25.7567 4.4172 87.757 0.6558 -4.7032274 0.0
SAV-15-04 1 12 03/16/2015 15:56:47 2015-03-16T15:56:47Z 31.032117 -76.343633 168.0 245.454 51.035389 36.6461 20.9812 20.9484 1026.4894 25.7618 4.4307 88.007 0.6403 -4.8700632 0.0
SAV-15-04 1 12 03/16/2015 15:56:47 2015-03-16T15:56:47Z 31.032117 -76.343633 169.0 246.916 51.020134 36.6469 20.9652 20.9322 1026.5015 25.7669 4.4299 87.967 0.6254 -4.8441651 0.0
SAV-15-04 1 12 03/16/2015 15:56:47 2015-03-16T15:56:47Z 31.032117 -76.343633 170.0 248.377 51.008372 36.65 20.9501 20.9168 1026.5126 25.7735 4.4242 87.83 0.6159 -4.7600352 0.0
SAV-15-04 1 12 03/16/2015 15:56:47 2015-03-16T15:56:47Z 31.032117 -76.343633 171.0 249.839 51.000824 36.647 20.9461 20.9127 1026.5149 25.7724 4.416 87.661 0.5983 -4.8481936 0.0
SAV-15-04 1 12 03/16/2015 15:56:47 2015-03-16T15:56:47Z 31.032117 -76.343633 172.0 251.301 50.993141 36.6486 20.9367 20.9032 1026.5215 25.7761 4.3848 87.029 0.5869 -4.6558897 0.0
SAV-15-04 1 12 03/16/2015 15:56:47 2015-03-16T15:56:47Z 31.032117 -76.343633 173.0 252.762 50.966031 36.6495 20.9099 20.8762 1026.5336 25.7842 4.3719 86.73 0.5742 -3.8475392 0.0
SAV-15-04 1 12 03/16/2015 15:56:47 2015-03-16T15:56:47Z 31.032117 -76.343633 174.0 254.224 50.932908 36.6631 20.8623 20.8284 1026.5631 25.8076 4.3664 86.555 0.5631 -4.6900022 0.0
SAV-15-04 1 12 03/16/2015 15:56:47 2015-03-16T15:56:47Z 31.032117 -76.343633 175.0 255.686 50.855327 36.6712 20.7794 20.7454 1026.5971 25.8365 4.372 86.539 0.551 -3.7134806 0.0
SAV-15-04 1 12 03/16/2015 15:56:47 2015-03-16T15:56:47Z 31.032117 -76.343633 176.0 257.147 50.812738 36.6596 20.7525 20.7184 1026.5984 25.835 4.342 85.898 0.5419 -4.6971374 0.0
SAV-15-04 1 12 03/16/2015 15:56:47 2015-03-16T15:56:47Z 31.032117 -76.343633 177.0 258.609 50.791182 36.6573 20.7345 20.7002 1026.6053 25.8381 4.2396 83.845 0.5317 -3.7339232 0.0
SAV-15-04 1 12 03/16/2015 15:56:47 2015-03-16T15:56:47Z 31.032117 -76.343633 178.0 260.071 50.758395 36.6594 20.7004 20.6658 1026.6242 25.8491 4.2131 83.269 0.523 -3.5881624 0.0
SAV-15-04 1 12 03/16/2015 15:56:47 2015-03-16T15:56:47Z 31.032117 -76.343633 179.0 261.533 50.731643 36.6529 20.6823 20.6476 1026.6279 25.8491 4.2296 83.566 0.5117 -3.6027055 0.0
SAV-15-04 1 12 03/16/2015 15:56:47 2015-03-16T15:56:47Z 31.032117 -76.343633 180.0 262.994 50.722216 36.6471 20.68 20.6453 1026.6261 25.8453 4.2326 83.618 0.5022 -4.603507 0.0
SAV-15-04 1 12 03/16/2015 15:56:47 2015-03-16T15:56:47Z 31.032117 -76.343633 181.0 264.456 50.706052 36.6466 20.6651 20.6301 1026.6332 25.849 4.2725 84.384 0.4945 -3.484748 0.0
SAV-15-04 1 12 03/16/2015 15:56:47 2015-03-16T15:56:47Z 31.032117 -76.343633 182.0 265.918 50.65795 36.6431 20.6229 20.5877 1026.65 25.8579 4.2895 84.654 0.4848 -4.0269586 0.0
SAV-15-04 1 12 03/16/2015 15:56:47 2015-03-16T15:56:47Z 31.032117 -76.343633 183.0 267.379 50.638952 36.637 20.6118 20.5765 1026.6516 25.8562 4.3022 84.885 0.4767 -4.2902393 0.0
SAV-15-04 1 12 03/16/2015 15:56:47 2015-03-16T15:56:47Z 31.032117 -76.343633 184.0 268.841 50.632527 36.6319 20.6114 20.576 1026.6504 25.8525 4.3267 85.364 0.4701 -4.3654002 0.0
SAV-15-04 1 12 03/16/2015 15:56:47 2015-03-16T15:56:47Z 31.032117 -76.343633 185.0 270.303 50.627521 36.6318 20.6064 20.5707 1026.6562 25.8539 4.3685 86.18 0.4634 -4.1672236 0.0
SAV-15-04 1 12 03/16/2015 15:56:47 2015-03-16T15:56:47Z 31.032117 -76.343633 186.0 271.765 50.618621 36.6293 20.6003 20.5644 1026.6615 25.8537 4.3895 86.583 0.4569 -4.4880629 0.0
SAV-15-04 1 12 03/16/2015 15:56:47 2015-03-16T15:56:47Z 31.032117 -76.343633 187.0 273.226 50.609812 36.6269 20.5944 20.5583 1026.6658 25.8534 4.3947 86.676 0.4496 -4.0015577 0.0
SAV-15-04 1 12 03/16/2015 15:56:47 2015-03-16T15:56:47Z 31.032117 -76.343633 188.0 274.688 50.603621 36.6265 20.5885 20.5523 1026.6715 25.8548 4.3916 86.606 0.4429 -3.5709128 0.0
SAV-15-04 1 12 03/16/2015 15:56:47 2015-03-16T15:56:47Z 31.032117 -76.343633 189.0 276.15 50.597482 36.6235 20.5859 20.5495 1026.6732 25.8533 4.4 86.765 0.4364 -3.3901671 0.0
SAV-15-04 1 12 03/16/2015 15:56:47 2015-03-16T15:56:47Z 31.032117 -76.343633 190.0 277.612 50.588433 36.6235 20.577 20.5404 1026.6801 25.8557 4.421 87.167 0.429 -3.9706294 0.0
SAV-15-04 1 12 03/16/2015 15:56:47 2015-03-16T15:56:47Z 31.032117 -76.343633 191.0 279.074 50.589945 36.6229 20.5787 20.542 1026.6828 25.8548 4.427 87.287 0.4228 -4.5954844 0.0
SAV-15-04 1 12 03/16/2015 15:56:47 2015-03-16T15:56:47Z 31.032117 -76.343633 192.0 280.535 50.594463 36.629 20.5753 20.5382 1026.6952 25.8605 4.4053 86.856 0.4163 -4.7232892 0.0
SAV-15-04 1 12 03/16/2015 15:56:47 2015-03-16T15:56:47Z 31.032117 -76.343633 193.0 281.997 50.564451 36.6392 20.5347 20.4975 1026.7186 25.8793 4.3971 86.636 0.4108 -4.6111457 0.0
SAV-15-04 1 12 03/16/2015 15:56:47 2015-03-16T15:56:47Z 31.032117 -76.343633 194.0 283.459 50.533299 36.6257 20.5207 20.4835 1026.7143 25.8728 4.3806 86.282 0.4055 -4.7371905 0.0
SAV-15-04 1 12 03/16/2015 15:56:47 2015-03-16T15:56:47Z 31.032117 -76.343633 195.0 284.921 50.526155 36.6233 20.5163 20.4789 1026.7177 25.8722 4.338 85.435 0.4005 -4.0947583 0.0
SAV-15-04 1 12 03/16/2015 15:56:47 2015-03-16T15:56:47Z 31.032117 -76.343633 196.0 286.383 50.52918 36.6244 20.5173 20.4796 1026.7246 25.8729 4.3682 86.032 0.3954 -4.2705181 0.0
SAV-15-04 1 12 03/16/2015 15:56:47 2015-03-16T15:56:47Z 31.032117 -76.343633 197.0 287.845 50.531764 36.6283 20.5148 20.477 1026.7325 25.8766 4.3936 86.531 0.3902 -4.5166952 0.0
SAV-15-04 1 12 03/16/2015 15:56:47 2015-03-16T15:56:47Z 31.032117 -76.343633 198.0 289.306 50.52542 36.6297 20.5069 20.4689 1026.7394 25.8798 4.3771 86.194 0.3863 -4.4326232 0.0
SAV-15-04 1 12 03/16/2015 15:56:47 2015-03-16T15:56:47Z 31.032117 -76.343633 199.0 290.768 50.519597 36.6287 20.5022 20.464 1026.7434 25.8803 4.3429 85.512 0.3812 -2.980221 0.0
SAV-15-04 1 12 03/16/2015 15:56:47 2015-03-16T15:56:47Z 31.032117 -76.343633 200.0 292.23 50.506437 36.6269 20.4916 20.4533 1026.748 25.8818 4.3115 84.876 0.3778 -3.4776259 0.0
SAV-15-04 1 12 03/16/2015 15:56:47 2015-03-16T15:56:47Z 31.032117 -76.343633 201.0 293.692 50.479762 36.6198 20.4745 20.4361 1026.749 25.881 4.3441 85.489 0.3732 -4.3386622 0.0
SAV-15-04 2 12 03/16/2015 17:50:10 2015-03-16T17:50:10Z 31.005317 -76.334083 2.0 2.922 52.993271 36.551 22.9967 22.9963 1025.1194 25.1115 4.7285 97.279 -379.4 -4.5418367 0.0
SAV-15-04 2 12 03/16/2015 17:50:10 2015-03-16T17:50:10Z 31.005317 -76.334083 3.0 4.381 52.911237 36.5754 22.89 22.8893 1025.1779 25.1611 4.7485 97.523 258.81 -4.8028964 0.0
SAV-15-04 2 12 03/16/2015 17:50:10 2015-03-16T17:50:10Z 31.005317 -76.334083 4.0 5.841 52.786211 36.5655 22.7848 22.7838 1025.2065 25.1841 4.7593 97.558 240.1 -4.7470004 0.0
SAV-15-04 2 12 03/16/2015 17:50:10 2015-03-16T17:50:10Z 31.005317 -76.334083 5.0 7.302 52.753814 36.5542 22.7679 22.7667 1025.2048 25.1804 4.7454 97.239 227.83 -4.7657247 0.0
SAV-15-04 2 12 03/16/2015 17:50:10 2015-03-16T17:50:10Z 31.005317 -76.334083 6.0 8.763 52.745525 36.5503 22.7645 22.7632 1025.2057 25.1785 4.7399 97.119 230.23 -3.9320643 0.0
SAV-15-04 2 12 03/16/2015 17:50:10 2015-03-16T17:50:10Z 31.005317 -76.334083 7.0 10.224 52.696771 36.5494 22.7192 22.7175 1025.2265 25.191 4.7353 96.948 216.97 -4.4824769 0.0
SAV-15-04 2 12 03/16/2015 17:50:10 2015-03-16T17:50:10Z 31.005317 -76.334083 8.0 11.684 52.690626 36.5472 22.716 22.7141 1025.2286 25.1902 4.7408 97.054 205.81 -4.3009352 0.0
SAV-15-04 2 12 03/16/2015 17:50:10 2015-03-16T17:50:10Z 31.005317 -76.334083 9.0 13.144 52.688698 36.546 22.7153 22.7134 1025.2299 25.1896 4.7451 97.14 201.86 -4.6127369 0.0
SAV-15-04 2 12 03/16/2015 17:50:10 2015-03-16T17:50:10Z 31.005317 -76.334083 10.0 14.605 52.683646 36.5455 22.7106 22.7084 1025.2372 25.1906 4.7446 97.12 193.47 -4.9341034 0.0
SAV-15-04 2 12 03/16/2015 17:50:10 2015-03-16T17:50:10Z 31.005317 -76.334083 11.0 16.065 52.68206 36.5455 22.7087 22.7063 1025.2416 25.1912 4.7513 97.255 192.41 -4.9002636 0.0
SAV-15-04 2 12 03/16/2015 17:50:10 2015-03-16T17:50:10Z 31.005317 -76.334083 12.0 17.526 52.67715 36.545 22.7044 22.7018 1025.2471 25.1921 4.7457 97.132 182.43 -4.9002636 0.0
SAV-15-04 2 12 03/16/2015 17:50:10 2015-03-16T17:50:10Z 31.005317 -76.334083 13.0 18.986 52.6736 36.5442 22.7015 22.6987 1025.2516 25.1924 4.73 96.805 176.91 -4.9002636 0.0
SAV-15-04 2 12 03/16/2015 17:50:10 2015-03-16T17:50:10Z 31.005317 -76.334083 14.0 20.447 52.671174 36.5436 22.6997 22.6967 1025.2544 25.1926 4.7257 96.714 174.69 -4.9002636 0.0
SAV-15-04 2 12 03/16/2015 17:50:10 2015-03-16T17:50:10Z 31.005317 -76.334083 15.0 21.907 52.66513 36.5433 22.6938 22.6906 1025.2623 25.1941 4.7333 96.861 173.99 -4.9002636 0.0
SAV-15-04 2 12 03/16/2015 17:50:10 2015-03-16T17:50:10Z 31.005317 -76.334083 16.0 23.368 52.663718 36.5424 22.6932 22.6897 1025.2654 25.1937 4.7498 97.195 169.68 -4.9002636 0.0
SAV-15-04 2 12 03/16/2015 17:50:10 2015-03-16T17:50:10Z 31.005317 -76.334083 17.0 24.828 52.662711 36.542 22.6923 22.6887 1025.2702 25.1936 4.7282 96.751 168.95 -4.9002636 0.0
SAV-15-04 2 12 03/16/2015 17:50:10 2015-03-16T17:50:10Z 31.005317 -76.334083 18.0 26.289 52.661538 36.5415 22.6914 22.6875 1025.2744 25.1937 4.7122 96.423 165.22 -4.9002636 0.0
SAV-15-04 2 12 03/16/2015 17:50:10 2015-03-16T17:50:10Z 31.005317 -76.334083 19.0 27.75 52.660825 36.5416 22.6904 22.6864 1025.2774 25.194 4.7269 96.721 164.67 -4.8089022 0.0
SAV-15-04 2 12 03/16/2015 17:50:10 2015-03-16T17:50:10Z 31.005317 -76.334083 20.0 29.21 52.659817 36.5416 22.6887 22.6843 1025.2854 25.1946 4.7301 96.784 169.12 -4.9086464 0.0
SAV-15-04 2 12 03/16/2015 17:50:10 2015-03-16T17:50:10Z 31.005317 -76.334083 21.0 30.671 52.659561 36.5415 22.6882 22.6837 1025.2892 25.1947 4.7342 96.868 164.03 -4.9002636 0.0
SAV-15-04 2 12 03/16/2015 17:50:10 2015-03-16T17:50:10Z 31.005317 -76.334083 22.0 32.132 52.659389 36.541 22.6883 22.6837 1025.2917 25.1943 4.7458 97.104 155.7 -4.9002636 0.0
SAV-15-04 2 12 03/16/2015 17:50:10 2015-03-16T17:50:10Z 31.005317 -76.334083 23.0 33.592 52.658839 36.5412 22.6874 22.6826 1025.2954 25.1948 4.7333 96.848 154.88 -4.6059009 0.0
SAV-15-04 2 12 03/16/2015 17:50:10 2015-03-16T17:50:10Z 31.005317 -76.334083 24.0 35.052 52.65799 36.5406 22.6867 22.6816 1025.3006 25.1946 4.7184 96.541 159.66 -4.0235253 0.0
SAV-15-04 2 12 03/16/2015 17:50:10 2015-03-16T17:50:10Z 31.005317 -76.334083 25.0 36.513 52.658171 36.5406 22.6862 22.6808 1025.3076 25.1949 4.7154 96.479 154.12 -4.9674814 0.0
SAV-15-04 2 12 03/16/2015 17:50:10 2015-03-16T17:50:10Z 31.005317 -76.334083 26.0 37.974 52.657379 36.5403 22.6856 22.6801 1025.3107 25.1948 4.7244 96.661 148.3 -4.8060792 0.0
SAV-15-04 2 12 03/16/2015 17:50:10 2015-03-16T17:50:10Z 31.005317 -76.334083 27.0 39.434 52.65737 36.5405 22.6851 22.6795 1025.3129 25.1952 4.7203 96.577 147.11 -4.8067639 0.0
SAV-15-04 2 12 03/16/2015 17:50:10 2015-03-16T17:50:10Z 31.005317 -76.334083 28.0 40.895 52.654791 36.5408 22.6817 22.6757 1025.3215 25.1964 4.7387 96.947 151.8 -4.3386614 0.0
SAV-15-04 2 12 03/16/2015 17:50:10 2015-03-16T17:50:10Z 31.005317 -76.334083 29.0 42.355 52.656005 36.5407 22.6824 22.6762 1025.3265 25.1963 4.7391 96.957 146.04 -4.6621716 0.0
SAV-15-04 2 12 03/16/2015 17:50:10 2015-03-16T17:50:10Z 31.005317 -76.334083 30.0 43.816 52.655392 36.5405 22.6818 22.6754 1025.3294 25.1963 4.7531 97.241 139.56 -4.8725398 0.0
SAV-15-04 2 12 03/16/2015 17:50:10 2015-03-16T17:50:10Z 31.005317 -76.334083 31.0 45.277 52.655658 36.5407 22.6816 22.6752 1025.3315 25.1965 4.7258 96.683 137.69 -4.7734597 0.0
SAV-15-04 2 12 03/16/2015 17:50:10 2015-03-16T17:50:10Z 31.005317 -76.334083 32.0 46.738 52.656206 36.5402 22.6821 22.6753 1025.3376 25.1961 4.7211 96.587 142.4 -4.5863945 0.0
SAV-15-04 2 12 03/16/2015 17:50:10 2015-03-16T17:50:10Z 31.005317 -76.334083 33.0 48.198 52.657083 36.5402 22.6823 22.6754 1025.3428 25.1961 4.7171 96.506 133.78 -4.2836575 0.0
SAV-15-04 2 12 03/16/2015 17:50:10 2015-03-16T17:50:10Z 31.005317 -76.334083 34.0 49.659 52.656734 36.5404 22.6816 22.6745 1025.3455 25.1965 4.7144 96.45 128.56 -4.1638862 0.0
SAV-15-04 2 12 03/16/2015 17:50:10 2015-03-16T17:50:10Z 31.005317 -76.334083 35.0 51.12 52.65682 36.5403 22.6815 22.6742 1025.349 25.1965 4.7392 96.958 132.29 -4.2874139 0.0
SAV-15-04 2 12 03/16/2015 17:50:10 2015-03-16T17:50:10Z 31.005317 -76.334083 36.0 52.581 52.657247 36.5404 22.6811 22.6735 1025.3558 25.1968 4.7537 97.253 128.75 -4.9232748 0.0
SAV-15-04 2 12 03/16/2015 17:50:10 2015-03-16T17:50:10Z 31.005317 -76.334083 37.0 54.041 52.657199 36.5403 22.6809 22.6732 1025.3587 25.1969 4.7436 97.046 121.82 -3.8123719 0.0
SAV-15-04 2 12 03/16/2015 17:50:10 2015-03-16T17:50:10Z 31.005317 -76.334083 38.0 55.502 52.657122 36.5404 22.6803 22.6724 1025.3624 25.1971 4.7211 96.585 125.23 -4.61018 0.0
SAV-15-04 2 12 03/16/2015 17:50:10 2015-03-16T17:50:10Z 31.005317 -76.334083 39.0 56.962 52.658221 36.5406 22.6804 22.6722 1025.3698 25.1973 4.7168 96.498 125.09 -4.8293808 0.0
SAV-15-04 2 12 03/16/2015 17:50:10 2015-03-16T17:50:10Z 31.005317 -76.334083 40.0 58.423 52.658301 36.5404 22.6804 22.672 1025.3736 25.1973 4.727 96.705 118.28 -4.8993247 0.0
SAV-15-04 2 12 03/16/2015 17:50:10 2015-03-16T17:50:10Z 31.005317 -76.334083 41.0 59.884 52.658513 36.5411 22.6795 22.671 1025.3769 25.1981 4.7284 96.733 110.69 -4.9066909 0.0
SAV-15-04 2 12 03/16/2015 17:50:10 2015-03-16T17:50:10Z 31.005317 -76.334083 42.0 61.344 52.657668 36.5403 22.6792 22.6706 1025.38 25.1976 4.7112 96.382 110.41 -4.8999396 0.0
SAV-15-04 2 12 03/16/2015 17:50:10 2015-03-16T17:50:10Z 31.005317 -76.334083 43.0 62.805 52.658244 36.5407 22.6787 22.6697 1025.3867 25.1982 4.7334 96.835 109.66 -4.5128748 0.0
SAV-15-04 2 12 03/16/2015 17:50:10 2015-03-16T17:50:10Z 31.005317 -76.334083 44.0 64.266 52.658663 36.5406 22.6789 22.6698 1025.3903 25.198 4.7387 96.944 105.52 -3.7346817 0.0
SAV-15-04 2 12 03/16/2015 17:50:10 2015-03-16T17:50:10Z 31.005317 -76.334083 45.0 65.727 52.659348 36.5407 22.6791 22.6698 1025.3939 25.1981 4.7408 96.986 100.67 -4.637625 0.0
SAV-15-04 2 12 03/16/2015 17:50:10 2015-03-16T17:50:10Z 31.005317 -76.334083 46.0 67.187 52.65978 36.5413 22.6783 22.6687 1025.3999 25.1989 4.7343 96.852 96.549 -4.3123697 0.0
SAV-15-04 2 12 03/16/2015 17:50:10 2015-03-16T17:50:10Z 31.005317 -76.334083 47.0 68.648 52.658329 36.541 22.6769 22.6672 1025.4036 25.1991 4.7296 96.754 94.646 -4.2517399 0.0
SAV-15-04 2 12 03/16/2015 17:50:10 2015-03-16T17:50:10Z 31.005317 -76.334083 48.0 70.109 52.658561 36.5409 22.6769 22.667 1025.4077 25.1991 4.7285 96.731 91.798 -4.650884 0.0
SAV-15-04 2 12 03/16/2015 17:50:10 2015-03-16T17:50:10Z 31.005317 -76.334083 49.0 71.57 52.658911 36.5406 22.677 22.6667 1025.4137 25.1989 4.7232 96.623 87.059 -4.4917704 0.0
SAV-15-04 2 12 03/16/2015 17:50:10 2015-03-16T17:50:10Z 31.005317 -76.334083 50.0 73.03 52.659438 36.5409 22.6767 22.6663 1025.418 25.1993 4.7196 96.548 82.531 -4.9461303 0.0
SAV-15-04 2 12 03/16/2015 17:50:10 2015-03-16T17:50:10Z 31.005317 -76.334083 51.0 74.491 52.659718 36.5409 22.6768 22.6662 1025.4202 25.1993 4.7277 96.715 80.834 -4.8515105 0.0
SAV-15-04 2 12 03/16/2015 17:50:10 2015-03-16T17:50:10Z 31.005317 -76.334083 52.0 75.952 52.660595 36.5413 22.6765 22.6656 1025.4273 25.1997 4.7257 96.673 78.901 -4.7967394 0.0
SAV-15-04 2 12 03/16/2015 17:50:10 2015-03-16T17:50:10Z 31.005317 -76.334083 53.0 77.413 52.660313 36.5412 22.6758 22.6647 1025.4324 25.1999 4.7156 96.466 73.909 -4.9050049 0.0
SAV-15-04 2 12 03/16/2015 17:50:10 2015-03-16T17:50:10Z 31.005317 -76.334083 54.0 78.874 52.659375 36.541 22.6749 22.6637 1025.4352 25.2001 4.7258 96.672 69.339 -4.7952794 0.0
SAV-15-04 2 12 03/16/2015 17:50:10 2015-03-16T17:50:10Z 31.005317 -76.334083 55.0 80.334 52.659419 36.5412 22.6744 22.663 1025.4387 25.2005 4.7337 96.833 66.559 -4.5240045 0.0
SAV-15-04 2 12 03/16/2015 17:50:10 2015-03-16T17:50:10Z 31.005317 -76.334083 56.0 81.795 52.660252 36.5416 22.6741 22.6624 1025.4453 25.201 4.7157 96.464 64.309 -4.5529001 0.0
SAV-15-04 2 12 03/16/2015 17:50:10 2015-03-16T17:50:10Z 31.005317 -76.334083 57.0 83.257 52.660068 36.5416 22.6736 22.6618 1025.4491 25.2011 4.6906 95.951 61.236 -4.78054 0.0
SAV-15-04 2 12 03/16/2015 17:50:10 2015-03-16T17:50:10Z 31.005317 -76.334083 58.0 84.717 52.660171 36.5415 22.6733 22.6613 1025.4538 25.2012 4.6993 96.128 57.277 -4.8992295 0.0
SAV-15-04 2 12 03/16/2015 17:50:10 2015-03-16T17:50:10Z 31.005317 -76.334083 59.0 86.178 52.659748 36.5437 22.6699 22.6576 1025.4608 25.2039 4.7328 96.808 54.043 -4.8207513 0.0
SAV-15-04 2 12 03/16/2015 17:50:10 2015-03-16T17:50:10Z 31.005317 -76.334083 60.0 87.639 52.657337 36.5437 22.6674 22.655 1025.4642 25.2046 4.7013 96.161 51.743 -4.6679489 0.0
SAV-15-04 2 12 03/16/2015 17:50:10 2015-03-16T17:50:10Z 31.005317 -76.334083 61.0 89.1 52.644378 36.5488 22.6485 22.6358 1025.4804 25.2141 4.6915 95.931 48.394 -4.8235649 0.0
SAV-15-04 2 12 03/16/2015 17:50:10 2015-03-16T17:50:10Z 31.005317 -76.334083 62.0 90.561 52.63014 36.5603 22.6212 22.6083 1025.5012 25.2306 4.7104 96.277 46.587 -4.3090296 0.0
SAV-15-04 2 12 03/16/2015 17:50:10 2015-03-16T17:50:10Z 31.005317 -76.334083 63.0 92.021 52.610939 36.5588 22.6046 22.5916 1025.5085 25.2344 4.6919 95.87 44.436 -4.4834323 0.0
SAV-15-04 2 12 03/16/2015 17:50:10 2015-03-16T17:50:10Z 31.005317 -76.334083 64.0 93.482 52.60539 36.5587 22.5992 22.586 1025.5132 25.2359 4.6537 95.081 41.161 -4.8959971 0.0
SAV-15-04 2 12 03/16/2015 17:50:10 2015-03-16T17:50:10Z 31.005317 -76.334083 65.0 94.944 52.58826 36.5788 22.5588 22.5454 1025.5447 25.2628 4.584 93.602 37.956 -4.7742889 0.0
SAV-15-04 2 12 03/16/2015 17:50:10 2015-03-16T17:50:10Z 31.005317 -76.334083 66.0 96.404 52.550775 36.5987 22.4996 22.486 1025.5822 25.295 4.5808 93.45 36.212 -4.3856797 0.0
SAV-15-04 2 12 03/16/2015 17:50:10 2015-03-16T17:50:10Z 31.005317 -76.334083 67.0 97.865 52.503751 36.5865 22.4699 22.4562 1025.5851 25.2942 4.5606 92.983 33.907 -4.4066788 0.0
SAV-15-04 2 12 03/16/2015 17:50:10 2015-03-16T17:50:10Z 31.005317 -76.334083 68.0 99.326 52.492393 36.5847 22.4611 22.4471 1025.59 25.2954 4.5645 93.048 31.499 -4.4981388 0.0
SAV-15-04 2 12 03/16/2015 17:50:10 2015-03-16T17:50:10Z 31.005317 -76.334083 69.0 100.787 52.473252 36.5865 22.4405 22.4264 1025.6025 25.3027 4.5913 93.562 29.236 -3.8213558 0.0
SAV-15-04 2 12 03/16/2015 17:50:10 2015-03-16T17:50:10Z 31.005317 -76.334083 70.0 102.248 52.439153 36.5882 22.4062 22.3918 1025.6191 25.3138 4.595 93.581 27.806 -3.5935522 0.0
SAV-15-04 2 12 03/16/2015 17:50:10 2015-03-16T17:50:10Z 31.005317 -76.334083 71.0 103.709 52.403957 36.58 22.3828 22.3683 1025.6222 25.3143 4.6062 93.765 26.285 -3.6027055 0.0
SAV-15-04 2 12 03/16/2015 17:50:10 2015-03-16T17:50:10Z 31.005317 -76.334083 72.0 105.17 52.391367 36.5783 22.3726 22.3579 1025.6282 25.316 4.6368 94.371 24.253 -4.5079598 0.0
SAV-15-04 2 12 03/16/2015 17:50:10 2015-03-16T17:50:10Z 31.005317 -76.334083 73.0 106.63 52.360659 36.5768 22.3452 22.3303 1025.6392 25.3228 4.6794 95.192 22.745 -3.9840711 0.0
SAV-15-04 2 12 03/16/2015 17:50:10 2015-03-16T17:50:10Z 31.005317 -76.334083 74.0 108.091 52.330764 36.579 22.3141 22.2989 1025.6556 25.3335 4.6705 94.959 21.554 -4.5200539 0.0
SAV-15-04 2 12 03/16/2015 17:50:10 2015-03-16T17:50:10Z 31.005317 -76.334083 75.0 109.553 52.312954 36.5728 22.3043 22.2889 1025.6587 25.3316 4.6427 94.374 20.196 -4.502588 0.0
SAV-15-04 2 12 03/16/2015 17:50:10 2015-03-16T17:50:10Z 31.005317 -76.334083 76.0 111.013 52.310671 36.5719 22.3031 22.2877 1025.66 25.3312 4.6418 94.354 18.957 -4.7689323 0.0
SAV-15-04 2 12 03/16/2015 17:50:10 2015-03-16T17:50:10Z 31.005317 -76.334083 77.0 112.475 52.257702 36.5804 22.2427 22.2269 1025.6921 25.355 4.6567 94.56 18.207 -4.3805274 0.0
SAV-15-04 2 12 03/16/2015 17:50:10 2015-03-16T17:50:10Z 31.005317 -76.334083 78.0 113.935 52.242081 36.5762 22.2327 22.2167 1025.6953 25.3547 4.6473 94.349 17.031 -4.7787387 0.0
SAV-15-04 2 12 03/16/2015 17:50:10 2015-03-16T17:50:10Z 31.005317 -76.334083 79.0 115.396 52.223597 36.5744 22.2174 22.2013 1025.7006 25.3577 4.6506 94.39 15.886 -4.6246154 0.0
SAV-15-04 2 12 03/16/2015 17:50:10 2015-03-16T17:50:10Z 31.005317 -76.334083 80.0 116.858 52.218581 36.5736 22.2133 22.1971 1025.7044 25.3583 4.6693 94.763 14.951 -4.2461618 0.0
SAV-15-04 2 12 03/16/2015 17:50:10 2015-03-16T17:50:10Z 31.005317 -76.334083 81.0 118.318 52.215987 36.5741 22.2097 22.1932 1025.7122 25.3597 4.6937 95.254 14.064 -3.9630154 0.0
SAV-15-04 2 12 03/16/2015 17:50:10 2015-03-16T17:50:10Z 31.005317 -76.334083 82.0 119.78 52.242731 36.5796 22.2278 22.2112 1025.7149 25.3588 4.6705 94.815 13.237 -2.989182 0.0
SAV-15-04 2 12 03/16/2015 17:50:10 2015-03-16T17:50:10Z 31.005317 -76.334083 83.0 121.241 52.264814 36.5872 22.2391 22.2222 1025.7207 25.3615 4.6319 94.055 12.607 -4.4047968 0.0
SAV-15-04 2 12 03/16/2015 17:50:10 2015-03-16T17:50:10Z 31.005317 -76.334083 84.0 122.702 52.373699 36.6081 22.3156 22.2985 1025.7203 25.3557 4.5627 92.785 12.112 -3.9485489 0.0
SAV-15-04 2 12 03/16/2015 17:50:10 2015-03-16T17:50:10Z 31.005317 -76.334083 85.0 124.163 52.425983 36.6395 22.3267 22.3093 1025.7458 25.3764 4.5005 91.555 11.571 -4.2963756 0.0
SAV-15-04 2 12 03/16/2015 17:50:10 2015-03-16T17:50:10Z 31.005317 -76.334083 86.0 125.624 52.407801 36.6371 22.3122 22.2948 1025.7508 25.3788 4.3982 89.45 11.1 -3.9353814 0.0
SAV-15-04 2 12 03/16/2015 17:50:10 2015-03-16T17:50:10Z 31.005317 -76.334083 87.0 127.085 52.352271 36.6401 22.2564 22.2387 1025.774 25.397 4.335 88.079 10.615 -4.0915246 0.0
SAV-15-04 2 12 03/16/2015 17:50:10 2015-03-16T17:50:10Z 31.005317 -76.334083 88.0 128.546 52.241879 36.6244 22.1714 22.1534 1025.7917 25.4093 4.3768 88.787 10.067 -2.9856977 0.0
SAV-15-04 2 12 03/16/2015 17:50:10 2015-03-16T17:50:10Z 31.005317 -76.334083 89.0 130.006 52.200433 36.6122 22.1467 22.1286 1025.7935 25.407 4.4533 90.294 9.5875 -3.9338739 0.0
SAV-15-04 2 12 03/16/2015 17:50:10 2015-03-16T17:50:10Z 31.005317 -76.334083 90.0 131.468 52.169879 36.6085 22.1221 22.1039 1025.8006 25.4112 4.52 91.604 9.2318 -4.3090867 0.0
SAV-15-04 2 12 03/16/2015 17:50:10 2015-03-16T17:50:10Z 31.005317 -76.334083 91.0 132.929 52.128888 36.6039 22.0886 22.0701 1025.8137 25.4173 4.563 92.419 8.851 -4.5751228 0.0
SAV-15-04 2 12 03/16/2015 17:50:10 2015-03-16T17:50:10Z 31.005317 -76.334083 92.0 134.39 52.121663 36.6057 22.0794 22.0607 1025.8216 25.4213 4.5669 92.484 8.4709 -4.5568169 0.0
SAV-15-04 2 12 03/16/2015 17:50:10 2015-03-16T17:50:10Z 31.005317 -76.334083 93.0 135.851 52.100371 36.6058 22.0591 22.0403 1025.8299 25.4272 4.5521 92.151 8.1043 -4.7432686 0.0
SAV-15-04 2 12 03/16/2015 17:50:10 2015-03-16T17:50:10Z 31.005317 -76.334083 94.0 137.312 52.052143 36.6007 22.0195 22.0005 1025.8418 25.4345 4.5515 92.07 7.7608 -4.9105715 0.0
SAV-15-04 2 12 03/16/2015 17:50:10 2015-03-16T17:50:10Z 31.005317 -76.334083 95.0 138.773 52.03622 36.5957 22.0102 21.991 1025.8452 25.4334 4.5873 92.777 7.406 -4.4706729 0.0
SAV-15-04 2 12 03/16/2015 17:50:10 2015-03-16T17:50:10Z 31.005317 -76.334083 96.0 140.234 52.045972 36.6071 22.0053 21.9858 1025.8604 25.4436 4.589 92.81 7.0865 -4.9169212 0.0
SAV-15-04 2 12 03/16/2015 17:50:10 2015-03-16T17:50:10Z 31.005317 -76.334083 97.0 141.696 52.015561 36.605 21.979 21.9594 1025.8692 25.4494 4.5779 92.541 6.8292 -4.5997838 0.0
SAV-15-04 2 12 03/16/2015 17:50:10 2015-03-16T17:50:10Z 31.005317 -76.334083 98.0 143.157 51.972266 36.601 21.9427 21.923 1025.8814 25.4566 4.5576 92.069 6.5533 -3.7841947 0.0
SAV-15-04 2 12 03/16/2015 17:50:10 2015-03-16T17:50:10Z 31.005317 -76.334083 99.0 144.617 51.945073 36.6005 21.9173 21.8973 1025.8943 25.4635 4.5865 92.612 6.2582 -4.9153565 0.0
SAV-15-04 2 12 03/16/2015 17:50:10 2015-03-16T17:50:10Z 31.005317 -76.334083 100.0 146.079 51.938966 36.601 21.9108 21.8906 1025.8993 25.4657 4.6154 93.183 5.9751 -4.0530127 0.0
SAV-15-04 2 12 03/16/2015 17:50:10 2015-03-16T17:50:10Z 31.005317 -76.334083 101.0 147.54 51.936169 36.6018 21.9069 21.8866 1025.9042 25.4675 4.5922 92.711 5.6439 -3.910265 0.0
SAV-15-04 2 12 03/16/2015 17:50:10 2015-03-16T17:50:10Z 31.005317 -76.334083 102.0 149.001 51.923522 36.6032 21.8927 21.8721 1025.9156 25.4727 4.5804 92.449 5.3617 -4.4926564 0.0
SAV-15-04 2 12 03/16/2015 17:50:10 2015-03-16T17:50:10Z 31.005317 -76.334083 103.0 150.462 51.907014 36.5998 21.8809 21.8602 1025.9201 25.4734 4.5885 92.592 5.1781 -3.9977356 0.0
SAV-15-04 2 12 03/16/2015 17:50:10 2015-03-16T17:50:10Z 31.005317 -76.334083 104.0 151.924 51.893063 36.5971 21.8707 21.8498 1025.9245 25.4742 4.5841 92.486 4.998 -4.20035 0.0
SAV-15-04 2 12 03/16/2015 17:50:10 2015-03-16T17:50:10Z 31.005317 -76.334083 105.0 153.385 51.877646 36.5936 21.8598 21.8387 1025.9303 25.4747 4.6061 92.908 4.7749 -4.2906056 0.0
SAV-15-04 2 12 03/16/2015 17:50:10 2015-03-16T17:50:10Z 31.005317 -76.334083 106.0 154.847 51.889692 36.5987 21.8647 21.8433 1025.9375 25.4773 4.6228 93.256 4.5615 -4.9381474 0.0
SAV-15-04 2 12 03/16/2015 17:50:10 2015-03-16T17:50:10Z 31.005317 -76.334083 107.0 156.307 51.912027 36.6101 21.8718 21.8504 1025.9467 25.484 4.6044 92.902 4.4231 -4.6347514 0.0
SAV-15-04 2 12 03/16/2015 17:50:10 2015-03-16T17:50:10Z 31.005317 -76.334083 108.0 157.769 51.927554 36.6195 21.8747 21.8529 1025.9593 25.4905 4.4959 90.723 4.2819 -3.1131547 0.0
SAV-15-04 2 12 03/16/2015 17:50:10 2015-03-16T17:50:10Z 31.005317 -76.334083 109.0 159.23 51.926789 36.6255 21.8664 21.8444 1025.9718 25.4974 4.4784 90.36 4.0785 -3.7859517 0.0
SAV-15-04 2 12 03/16/2015 17:50:10 2015-03-16T17:50:10Z 31.005317 -76.334083 110.0 160.691 51.921392 36.6259 21.8606 21.8386 1025.9759 25.4993 4.4792 90.367 3.9375 -4.3263746 0.0
SAV-15-04 2 12 03/16/2015 17:50:10 2015-03-16T17:50:10Z 31.005317 -76.334083 111.0 162.152 51.91763 36.6271 21.8554 21.8332 1025.9815 25.5018 4.474 90.254 3.8079 -4.3980463 0.0
SAV-15-04 2 12 03/16/2015 17:50:10 2015-03-16T17:50:10Z 31.005317 -76.334083 112.0 163.614 51.907359 36.6378 21.8325 21.81 1026.0028 25.5165 4.4678 90.099 3.6622 -4.0859625 0.0
SAV-15-04 2 12 03/16/2015 17:50:10 2015-03-16T17:50:10Z 31.005317 -76.334083 113.0 165.075 51.867131 36.6518 21.778 21.7553 1026.0327 25.5424 4.4662 89.987 3.5162 -4.6844062 0.0
SAV-15-04 2 12 03/16/2015 17:50:10 2015-03-16T17:50:10Z 31.005317 -76.334083 114.0 166.536 51.854459 36.6459 21.7728 21.75 1026.0327 25.5394 4.4523 89.695 3.3897 -3.8683415 0.0
SAV-15-04 2 12 03/16/2015 17:50:10 2015-03-16T17:50:10Z 31.005317 -76.334083 115.0 167.997 51.842373 36.6457 21.7613 21.7383 1026.0407 25.5426 4.4032 88.689 3.2522 -3.7004764 0.0
SAV-15-04 2 12 03/16/2015 17:50:10 2015-03-16T17:50:10Z 31.005317 -76.334083 116.0 169.459 51.836608 36.6476 21.753 21.7297 1026.0503 25.5464 4.3834 88.277 3.1091 -3.2292741 0.0
SAV-15-04 2 12 03/16/2015 17:50:10 2015-03-16T17:50:10Z 31.005317 -76.334083 117.0 170.919 51.820154 36.6517 21.7324 21.709 1026.0628 25.5554 4.3799 88.178 2.9785 -3.1533988 0.0
SAV-15-04 2 12 03/16/2015 17:50:10 2015-03-16T17:50:10Z 31.005317 -76.334083 118.0 172.381 51.8036 36.648 21.7211 21.6976 1026.066 25.5557 4.3715 87.988 2.8567 -3.4072691 0.0
SAV-15-04 2 12 03/16/2015 17:50:10 2015-03-16T17:50:10Z 31.005317 -76.334083 119.0 173.842 51.754058 36.6486 21.6735 21.6498 1026.0847 25.5696 4.4017 88.521 2.7361 -4.9765524 0.0
SAV-15-04 2 12 03/16/2015 17:50:10 2015-03-16T17:50:10Z 31.005317 -76.334083 120.0 175.303 51.73684 36.6488 21.6564 21.6324 1026.0962 25.5746 4.4102 88.666 2.6415 -3.5232327 0.0
SAV-15-04 2 12 03/16/2015 17:50:10 2015-03-16T17:50:10Z 31.005317 -76.334083 121.0 176.765 51.724749 36.6463 21.6478 21.6236 1026.1005 25.5751 4.4065 88.576 2.5676 -3.948582 0.0
SAV-15-04 2 12 03/16/2015 17:50:10 2015-03-16T17:50:10Z 31.005317 -76.334083 122.0 178.226 51.712969 36.6449 21.6381 21.6138 1026.1048 25.5768 4.4043 88.515 2.5119 -3.8159249 0.0
SAV-15-04 2 12 03/16/2015 17:50:10 2015-03-16T17:50:10Z 31.005317 -76.334083 123.0 179.688 51.677076 36.6434 21.6056 21.5811 1026.1189 25.5848 4.4249 88.878 2.4634 -4.0277351 0.0
SAV-15-04 2 12 03/16/2015 17:50:10 2015-03-16T17:50:10Z 31.005317 -76.334083 124.0 181.149 51.664071 36.6388 21.5986 21.5739 1026.1206 25.5833 4.4417 89.201 2.3762 -4.082531 0.0
SAV-15-04 2 12 03/16/2015 17:50:10 2015-03-16T17:50:10Z 31.005317 -76.334083 125.0 182.61 51.653824 36.638 21.5895 21.5647 1026.1261 25.5853 4.4541 89.435 2.2962 -3.9706889 0.0
SAV-15-04 2 12 03/16/2015 17:50:10 2015-03-16T17:50:10Z 31.005317 -76.334083 126.0 184.071 51.661989 36.6422 21.5917 21.5666 1026.1341 25.588 4.4488 89.335 2.2388 -3.9962782 0.0
SAV-15-04 2 12 03/16/2015 17:50:10 2015-03-16T17:50:10Z 31.005317 -76.334083 127.0 185.532 51.656282 36.6506 21.576 21.5507 1026.1491 25.5988 4.4378 89.095 2.1816 -4.0593163 0.0
SAV-15-04 2 12 03/16/2015 17:50:10 2015-03-16T17:50:10Z 31.005317 -76.334083 128.0 186.994 51.596082 36.6543 21.515 21.4895 1026.1732 25.6186 4.4174 88.59 2.121 -3.4842562 0.0
SAV-15-04 2 12 03/16/2015 17:50:10 2015-03-16T17:50:10Z 31.005317 -76.334083 129.0 188.455 51.539478 36.6447 21.4727 21.4471 1026.182 25.6231 4.4209 88.588 2.056 -3.7123642 0.0
SAV-15-04 2 12 03/16/2015 17:50:10 2015-03-16T17:50:10Z 31.005317 -76.334083 130.0 189.916 51.495478 36.6372 21.4397 21.4139 1026.1904 25.6267 4.4988 90.093 1.9819 -4.3056887 0.0
SAV-15-04 2 12 03/16/2015 17:50:10 2015-03-16T17:50:10Z 31.005317 -76.334083 131.0 191.378 51.488701 36.6344 21.4363 21.4104 1026.1927 25.6255 4.54 90.911 1.8912 -4.3808164 0.0
SAV-15-04 2 12 03/16/2015 17:50:10 2015-03-16T17:50:10Z 31.005317 -76.334083 132.0 192.84 51.475812 36.6339 21.4243 21.3982 1026.2005 25.6285 4.5428 90.945 1.8058 -4.1281618 0.0
SAV-15-04 2 12 03/16/2015 17:50:10 2015-03-16T17:50:10Z 31.005317 -76.334083 133.0 194.301 51.454775 36.6355 21.4022 21.3758 1026.2139 25.6359 4.5565 91.185 1.7449 -4.0825941 0.0
SAV-15-04 2 12 03/16/2015 17:50:10 2015-03-16T17:50:10Z 31.005317 -76.334083 134.0 195.762 51.436253 36.6327 21.3877 21.3612 1026.219 25.6379 4.5564 91.158 1.6989 -4.0370158 0.0
SAV-15-04 2 12 03/16/2015 17:50:10 2015-03-16T17:50:10Z 31.005317 -76.334083 135.0 197.223 51.423835 36.6308 21.378 21.3513 1026.2233 25.6392 4.5586 91.185 1.6656 -4.5631704 0.0
SAV-15-04 2 12 03/16/2015 17:50:10 2015-03-16T17:50:10Z 31.005317 -76.334083 136.0 198.685 51.387604 36.6353 21.338 21.3111 1026.2448 25.6537 4.5736 91.423 1.6443 -4.9188286 0.0
SAV-15-04 2 12 03/16/2015 17:50:10 2015-03-16T17:50:10Z 31.005317 -76.334083 137.0 200.146 51.372462 36.6275 21.3327 21.3056 1026.2438 25.6492 4.5773 91.483 1.6087 -4.4590104 0.0
SAV-15-04 2 12 03/16/2015 17:50:10 2015-03-16T17:50:10Z 31.005317 -76.334083 138.0 201.608 51.374237 36.6275 21.3341 21.3069 1026.246 25.6489 4.5579 91.099 1.5717 -4.4980468 0.0
SAV-15-04 2 12 03/16/2015 17:50:10 2015-03-16T17:50:10Z 31.005317 -76.334083 139.0 203.069 51.380862 36.6263 21.341 21.3136 1026.2495 25.6461 4.5379 90.71 1.5279 -4.9251433 0.0
SAV-15-04 2 12 03/16/2015 17:50:10 2015-03-16T17:50:10Z 31.005317 -76.334083 140.0 204.531 51.407031 36.6363 21.3534 21.3257 1026.2582 25.6505 4.5668 91.312 1.4736 -4.780852 0.0
SAV-15-04 2 12 03/16/2015 17:50:10 2015-03-16T17:50:10Z 31.005317 -76.334083 141.0 205.992 51.412919 36.6418 21.3523 21.3245 1026.2654 25.655 4.5481 90.94 1.4302 -4.0717117 0.0
SAV-15-04 2 12 03/16/2015 17:50:10 2015-03-16T17:50:10Z 31.005317 -76.334083 142.0 207.454 51.408206 36.6433 21.3457 21.3177 1026.273 25.6579 4.4571 89.111 1.3867 -4.6319027 0.0
SAV-15-04 2 12 03/16/2015 17:50:10 2015-03-16T17:50:10Z 31.005317 -76.334083 143.0 208.915 51.397755 36.6429 21.336 21.3078 1026.2796 25.6604 4.4402 88.756 1.3395 -3.6147257 0.0
SAV-15-04 2 12 03/16/2015 17:50:10 2015-03-16T17:50:10Z 31.005317 -76.334083 144.0 210.376 51.322334 36.6426 21.2648 21.2365 1026.3047 25.68 4.4398 88.636 1.2923 -3.481368 0.0
SAV-15-04 2 12 03/16/2015 17:50:10 2015-03-16T17:50:10Z 31.005317 -76.334083 145.0 211.838 51.275783 36.6255 21.2407 21.212 1026.3045 25.6736 4.4728 89.247 1.2452 -4.5801649 0.0
SAV-15-04 2 12 03/16/2015 17:50:10 2015-03-16T17:50:10Z 31.005317 -76.334083 146.0 213.299 51.274528 36.624 21.2411 21.2123 1026.3054 25.6724 4.5088 89.965 1.2051 -4.7822212 0.0
SAV-15-04 2 12 03/16/2015 17:50:10 2015-03-16T17:50:10Z 31.005317 -76.334083 147.0 214.761 51.281305 36.6232 21.248 21.2191 1026.3054 25.67 4.5541 90.881 1.1628 -4.1311689 0.0
SAV-15-04 2 12 03/16/2015 17:50:10 2015-03-16T17:50:10Z 31.005317 -76.334083 148.0 216.223 51.289194 36.6255 21.2519 21.2227 1026.3144 25.6707 4.5431 90.667 1.1245 -2.9615573 0.0
SAV-15-04 2 12 03/16/2015 17:50:10 2015-03-16T17:50:10Z 31.005317 -76.334083 149.0 217.684 51.302342 36.6304 21.2583 21.2289 1026.3197 25.6727 4.5496 90.811 1.0859 -4.2250144 0.0
SAV-15-04 2 12 03/16/2015 17:50:10 2015-03-16T17:50:10Z 31.005317 -76.334083 150.0 219.146 51.305472 36.6355 21.255 21.2255 1026.3264 25.6775 4.5166 90.15 1.0528 -4.5579821 0.0
SAV-15-04 2 12 03/16/2015 17:50:10 2015-03-16T17:50:10Z 31.005317 -76.334083 151.0 220.607 51.301931 36.6397 21.2461 21.2163 1026.3389 25.6833 4.462 89.048 1.0122 -4.7465932 0.0
SAV-15-04 2 12 03/16/2015 17:50:10 2015-03-16T17:50:10Z 31.005317 -76.334083 152.0 222.068 51.304787 36.6472 21.2396 21.2096 1026.351 25.6908 4.4517 88.836 0.9697 -4.6767444 0.0
SAV-15-04 2 12 03/16/2015 17:50:10 2015-03-16T17:50:10Z 31.005317 -76.334083 153.0 223.53 51.294895 36.6475 21.2298 21.1997 1026.356 25.6938 4.4229 88.245 0.9289 -4.1518299 0.0
SAV-15-04 2 12 03/16/2015 17:50:10 2015-03-16T17:50:10Z 31.005317 -76.334083 154.0 224.991 51.274632 36.6484 21.2091 21.1788 1026.3685 25.7002 4.3937 87.63 0.8895 -3.6950414 0.0
SAV-15-04 2 12 03/16/2015 17:50:10 2015-03-16T17:50:10Z 31.005317 -76.334083 155.0 226.453 51.265412 36.6512 21.1969 21.1664 1026.3774 25.7058 4.3996 87.732 0.8607 -2.8850501 0.0
SAV-15-04 2 12 03/16/2015 17:50:10 2015-03-16T17:50:10Z 31.005317 -76.334083 156.0 227.914 51.253045 36.6507 21.1855 21.1548 1026.384 25.7086 4.3932 87.585 0.8337 -2.5072782 0.0
SAV-15-04 2 12 03/16/2015 17:50:10 2015-03-16T17:50:10Z 31.005317 -76.334083 157.0 229.376 51.235444 36.6529 21.1659 21.135 1026.3962 25.7157 4.3853 87.398 0.8127 -4.3405605 0.0
SAV-15-04 2 12 03/16/2015 17:50:10 2015-03-16T17:50:10Z 31.005317 -76.334083 158.0 230.838 51.216033 36.6525 21.1477 21.1167 1026.4054 25.7205 4.3557 86.78 0.7923 -3.6765151 0.0
SAV-15-04 2 12 03/16/2015 17:50:10 2015-03-16T17:50:10Z 31.005317 -76.334083 159.0 232.299 51.184635 36.6515 21.1188 21.0876 1026.4173 25.7278 4.3547 86.714 0.7744 -4.0851957 0.0
SAV-15-04 2 12 03/16/2015 17:50:10 2015-03-16T17:50:10Z 31.005317 -76.334083 160.0 233.761 51.171287 36.6481 21.11 21.0787 1026.42 25.7276 4.3709 87.022 0.756 -4.4722863 0.0
SAV-15-04 2 12 03/16/2015 17:50:10 2015-03-16T17:50:10Z 31.005317 -76.334083 161.0 235.223 51.156761 36.6516 21.0914 21.0598 1026.4357 25.7355 4.4035 87.645 0.733 -4.7716786 0.0
SAV-15-04 2 12 03/16/2015 17:50:10 2015-03-16T17:50:10Z 31.005317 -76.334083 162.0 236.684 51.148936 36.6514 21.0841 21.0523 1026.4406 25.7374 4.4091 87.744 0.712 -4.1414457 0.0
SAV-15-04 2 12 03/16/2015 17:50:10 2015-03-16T17:50:10Z 31.005317 -76.334083 163.0 238.146 51.144407 36.6513 21.0797 21.0478 1026.4443 25.7386 4.3827 87.211 0.6871 -3.714468 0.0
SAV-15-04 2 12 03/16/2015 17:50:10 2015-03-16T17:50:10Z 31.005317 -76.334083 164.0 239.607 51.129521 36.6522 21.0643 21.0322 1026.4534 25.7435 4.34 86.338 0.6666 -4.680147 0.0
SAV-15-04 2 12 03/16/2015 17:50:10 2015-03-16T17:50:10Z 31.005317 -76.334083 165.0 241.069 51.103883 36.6588 21.0319 20.9996 1026.4739 25.7575 4.3306 86.103 0.6455 -4.036061 0.0
SAV-15-04 2 12 03/16/2015 17:50:10 2015-03-16T17:50:10Z 31.005317 -76.334083 166.0 242.531 51.089537 36.6573 21.0197 20.9873 1026.48 25.7597 4.3266 86.006 0.6256 -3.9132419 0.0
SAV-15-04 2 12 03/16/2015 17:50:10 2015-03-16T17:50:10Z 31.005317 -76.334083 167.0 243.992 51.079702 36.6547 21.0133 20.9807 1026.4829 25.7595 4.3123 85.709 0.609 -3.1148135 0.0
SAV-15-04 2 12 03/16/2015 17:50:10 2015-03-16T17:50:10Z 31.005317 -76.334083 168.0 245.453 51.071329 36.6543 21.0055 20.9727 1026.4885 25.7614 4.2925 85.304 0.5907 -4.1427674 0.0
SAV-15-04 2 12 03/16/2015 17:50:10 2015-03-16T17:50:10Z 31.005317 -76.334083 169.0 246.915 51.059056 36.6539 20.9937 20.9607 1026.4982 25.7645 4.2839 85.115 0.571 -3.4903383 0.0
SAV-15-04 2 12 03/16/2015 17:50:10 2015-03-16T17:50:10Z 31.005317 -76.334083 170.0 248.377 51.052368 36.6534 20.9875 20.9543 1026.5043 25.7658 4.2924 85.274 0.5532 -3.5028933 0.0
SAV-15-04 2 12 03/16/2015 17:50:10 2015-03-16T17:50:10Z 31.005317 -76.334083 171.0 249.839 51.039762 36.6553 20.9732 20.9398 1026.5129 25.7712 4.3072 85.547 0.5365 -3.0262487 0.0
SAV-15-04 2 12 03/16/2015 17:50:10 2015-03-16T17:50:10Z 31.005317 -76.334083 172.0 251.3 51.018148 36.6526 20.9557 20.9222 1026.5184 25.774 4.3119 85.612 0.5213 -3.6757131 0.0
SAV-15-04 2 12 03/16/2015 17:50:10 2015-03-16T17:50:10Z 31.005317 -76.334083 173.0 252.761 50.975887 36.6562 20.9111 20.8773 1026.5407 25.789 4.3214 85.734 0.5082 -3.9594997 0.0
SAV-15-04 2 12 03/16/2015 17:50:10 2015-03-16T17:50:10Z 31.005317 -76.334083 174.0 254.223 50.954304 36.6552 20.8914 20.8575 1026.5505 25.7937 4.3195 85.666 0.4925 -3.6162702 0.0
SAV-15-04 2 12 03/16/2015 17:50:10 2015-03-16T17:50:10Z 31.005317 -76.334083 175.0 255.685 50.948436 36.6535 20.8876 20.8535 1026.5531 25.7935 4.3153 85.574 0.4794 -2.6781702 0.0
SAV-15-04 2 12 03/16/2015 17:50:10 2015-03-16T17:50:10Z 31.005317 -76.334083 176.0 257.147 50.944007 36.6536 20.8831 20.849 1026.5566 25.7948 4.2816 84.901 0.468 -3.6153327 0.0
SAV-15-04 2 12 03/16/2015 17:50:10 2015-03-16T17:50:10Z 31.005317 -76.334083 177.0 258.608 50.913553 36.6575 20.8494 20.815 1026.575 25.807 4.2639 84.5 0.4534 -3.0923156 0.0
SAV-15-04 2 12 03/16/2015 17:50:10 2015-03-16T17:50:10Z 31.005317 -76.334083 178.0 260.07 50.893417 36.6553 20.8326 20.7981 1026.5814 25.8099 4.2682 84.558 0.439 -3.1869915 0.0
SAV-15-04 2 12 03/16/2015 17:50:10 2015-03-16T17:50:10Z 31.005317 -76.334083 179.0 261.532 50.84933 36.6601 20.785 20.7503 1026.6033 25.8267 4.2638 84.4 0.4249 -3.6801899 0.0
SAV-15-04 2 12 03/16/2015 17:50:10 2015-03-16T17:50:10Z 31.005317 -76.334083 180.0 262.994 50.827973 36.6537 20.7717 20.7367 1026.6081 25.8255 4.2463 84.031 0.4132 -3.8448652 0.0
SAV-15-04 2 12 03/16/2015 17:50:10 2015-03-16T17:50:10Z 31.005317 -76.334083 181.0 264.455 50.818965 36.6533 20.7635 20.7284 1026.6128 25.8274 4.2364 83.822 0.4006 -2.8439133 0.0
SAV-15-04 2 12 03/16/2015 17:50:10 2015-03-16T17:50:10Z 31.005317 -76.334083 182.0 265.917 50.810905 36.6524 20.7567 20.7215 1026.6166 25.8286 4.2252 83.59 0.3922 -3.399192 0.0
SAV-15-04 2 12 03/16/2015 17:50:10 2015-03-16T17:50:10Z 31.005317 -76.334083 183.0 267.379 50.790492 36.6549 20.7335 20.6979 1026.6351 25.8369 4.2523 84.092 0.3849 -3.4356306 0.0
SAV-15-04 2 12 03/16/2015 17:50:10 2015-03-16T17:50:10Z 31.005317 -76.334083 184.0 268.84 50.789421 36.6548 20.7323 20.6966 1026.6385 25.8372 4.2607 84.257 0.3763 -3.4363519 0.0
SAV-15-04 2 12 03/16/2015 17:50:10 2015-03-16T17:50:10Z 31.005317 -76.334083 185.0 270.302 50.785048 36.6542 20.7289 20.6931 1026.6399 25.8377 4.2444 83.93 0.368 -3.9236946 0.0
SAV-15-04 2 12 03/16/2015 17:50:10 2015-03-16T17:50:10Z 31.005317 -76.334083 186.0 271.764 50.771581 36.6547 20.7153 20.6795 1026.6465 25.8418 4.1905 82.844 0.3659 -3.3824577 0.0
SAV-15-04 2 12 03/16/2015 17:50:10 2015-03-16T17:50:10Z 31.005317 -76.334083 187.0 273.226 50.737007 36.6579 20.6783 20.6421 1026.6672 25.8544 4.2038 83.053 0.3598 -3.124094 0.0
SAV-15-04 2 12 03/16/2015 17:50:10 2015-03-16T17:50:10Z 31.005317 -76.334083 188.0 274.688 50.733456 36.6562 20.6766 20.6402 1026.6698 25.8536 4.1968 82.911 0.3529 -3.3074394 0.0
SAV-15-04 2 12 03/16/2015 17:50:10 2015-03-16T17:50:10Z 31.005317 -76.334083 189.0 276.149 50.731729 36.6553 20.6757 20.6392 1026.6725 25.8532 4.181 82.596 0.3465 -3.5422875 0.0
SAV-15-04 2 12 03/16/2015 17:50:10 2015-03-16T17:50:10Z 31.005317 -76.334083 190.0 277.611 50.728803 36.6557 20.6721 20.6355 1026.6773 25.8545 4.1418 81.817 0.3393 -3.389219 0.0
SAV-15-04 2 12 03/16/2015 17:50:10 2015-03-16T17:50:10Z 31.005317 -76.334083 191.0 279.073 50.701885 36.6629 20.6378 20.6008 1026.6992 25.8694 4.1596 82.121 0.3299 -1.7717233 0.0
SAV-15-04 2 12 03/16/2015 17:50:10 2015-03-16T17:50:10Z 31.005317 -76.334083 192.0 280.535 50.673093 36.6614 20.612 20.575 1026.7087 25.8752 4.1806 82.497 0.3212 -2.6850117 0.0
SAV-15-04 2 12 03/16/2015 17:50:10 2015-03-16T17:50:10Z 31.005317 -76.334083 193.0 281.996 50.653357 36.6579 20.5972 20.56 1026.7133 25.8766 4.1753 82.367 0.3127 -3.6310935 0.0
SAV-15-04 2 12 03/16/2015 17:50:10 2015-03-16T17:50:10Z 31.005317 -76.334083 194.0 283.458 50.622575 36.6595 20.5659 20.5286 1026.7277 25.8864 4.1564 81.95 0.3046 -3.5522804 0.0
SAV-15-04 2 12 03/16/2015 17:50:10 2015-03-16T17:50:10Z 31.005317 -76.334083 195.0 284.92 50.607359 36.654 20.5575 20.52 1026.7296 25.8845 4.1437 81.683 0.2969 -2.6532018 0.0
SAV-15-04 2 12 03/16/2015 17:50:10 2015-03-16T17:50:10Z 31.005317 -76.334083 196.0 286.382 50.593049 36.6552 20.542 20.5043 1026.7408 25.8896 4.1478 81.743 0.2896 -2.8250141 0.0
SAV-15-04 2 12 03/16/2015 17:50:10 2015-03-16T17:50:10Z 31.005317 -76.334083 197.0 287.844 50.57265 36.6609 20.5157 20.4779 1026.7568 25.9012 4.1531 81.812 0.2838 -3.0161606 0.0
SAV-15-04 2 12 03/16/2015 17:50:10 2015-03-16T17:50:10Z 31.005317 -76.334083 198.0 289.306 50.528298 36.6606 20.4741 20.4362 1026.7704 25.9121 4.147 81.628 0.2774 -2.7320777 0.0
SAV-15-04 2 12 03/16/2015 17:50:10 2015-03-16T17:50:10Z 31.005317 -76.334083 199.0 290.768 50.470346 36.6562 20.4239 20.3858 1026.7864 25.9224 4.1116 80.857 0.2706 -3.7117167 0.0
SAV-15-04 2 12 03/16/2015 17:50:10 2015-03-16T17:50:10Z 31.005317 -76.334083 200.0 292.23 50.434809 36.6578 20.388 20.3496 1026.8028 25.9334 4.1228 81.025 0.2651 -3.6403167 0.0
SAV-15-04 2 12 03/16/2015 17:50:10 2015-03-16T17:50:10Z 31.005317 -76.334083 201.0 293.691 50.45776 36.6409 20.4293 20.391 1026.7771 25.9093 4.1138 80.901 0.2668 -2.5837049 0.0
SAV-15-04 3 13 03/16/2015 19:54:54 2015-03-16T19:54:54Z 31.052872 -76.597728 2.0 2.921 52.921541 36.5274 22.9579 22.9575 1025.1136 25.1049 3.8968 80.101 1350.0 -3.2040218 0.0
SAV-15-04 3 13 03/16/2015 19:54:54 2015-03-16T19:54:54Z 31.052872 -76.597728 3.0 4.381 52.993858 36.5869 22.9536 22.953 1025.164 25.1514 4.956 101.901 1150.0 -5.2267858 0.0
SAV-15-04 3 13 03/16/2015 19:54:54 2015-03-16T19:54:54Z 31.052872 -76.597728 4.0 5.842 52.744552 36.5855 22.7223 22.7213 1025.2375 25.2173 4.7527 97.329 997.0 -4.7588809 0.0
SAV-15-04 3 13 03/16/2015 19:54:54 2015-03-16T19:54:54Z 31.052872 -76.597728 5.0 7.302 52.710474 36.5697 22.709 22.7078 1025.2327 25.2092 4.7424 97.087 926.0 -4.1155593 0.0
SAV-15-04 3 13 03/16/2015 19:54:54 2015-03-16T19:54:54Z 31.052872 -76.597728 6.0 8.763 52.678786 36.57 22.6786 22.6773 1025.2466 25.2182 4.7489 97.167 796.0 -4.3813602 0.0
SAV-15-04 3 13 03/16/2015 19:54:54 2015-03-16T19:54:54Z 31.052872 -76.597728 7.0 10.223 52.66249 36.5683 22.665 22.6635 1025.2534 25.2209 4.7505 97.176 784.0 -4.6549669 0.0
SAV-15-04 3 13 03/16/2015 19:54:54 2015-03-16T19:54:54Z 31.052872 -76.597728 8.0 11.683 52.643899 36.5698 22.6451 22.6432 1025.268 25.2278 4.7615 97.369 672.0 -4.9189858 0.0
SAV-15-04 3 13 03/16/2015 19:54:54 2015-03-16T19:54:54Z 31.052872 -76.597728 9.0 13.144 52.637981 36.5679 22.6417 22.6396 1025.2701 25.2274 4.7647 97.428 694.0 -4.9002636 0.0
SAV-15-04 3 13 03/16/2015 19:54:54 2015-03-16T19:54:54Z 31.052872 -76.597728 10.0 14.605 52.63767 36.5661 22.6432 22.6411 1025.2708 25.2257 4.756 97.251 667.0 -4.8043784 0.0
SAV-15-04 3 13 03/16/2015 19:54:54 2015-03-16T19:54:54Z 31.052872 -76.597728 11.0 16.065 52.639104 36.5706 22.6385 22.6361 1025.2827 25.2305 4.7391 96.901 504.0 -4.6922359 0.0
SAV-15-04 3 13 03/16/2015 19:54:54 2015-03-16T19:54:54Z 31.052872 -76.597728 12.0 17.525 52.63834 36.5721 22.6357 22.633 1025.288 25.2325 4.7499 97.117 489.0 -4.4898572 0.0
SAV-15-04 3 13 03/16/2015 19:54:54 2015-03-16T19:54:54Z 31.052872 -76.597728 13.0 18.987 52.63866 36.5718 22.636 22.6333 1025.2907 25.2322 4.7611 97.345 473.0 -4.3596724 0.0
SAV-15-04 3 13 03/16/2015 19:54:54 2015-03-16T19:54:54Z 31.052872 -76.597728 14.0 20.447 52.638696 36.5733 22.6338 22.6307 1025.2976 25.2341 4.7485 97.086 507.0 -4.3046919 0.0
SAV-15-04 3 13 03/16/2015 19:54:54 2015-03-16T19:54:54Z 31.052872 -76.597728 15.0 21.907 52.636007 36.5737 22.6305 22.6273 1025.3019 25.2354 4.7408 96.923 456.0 -4.8598773 0.0
SAV-15-04 3 13 03/16/2015 19:54:54 2015-03-16T19:54:54Z 31.052872 -76.597728 16.0 23.368 52.633838 36.5743 22.627 22.6235 1025.311 25.237 4.761 97.33 412.0 -4.7236631 0.0
SAV-15-04 3 13 03/16/2015 19:54:54 2015-03-16T19:54:54Z 31.052872 -76.597728 17.0 24.828 52.635949 36.576 22.6267 22.623 1025.3158 25.2384 4.7589 97.287 419.0 -3.9368628 0.0
SAV-15-04 3 13 03/16/2015 19:54:54 2015-03-16T19:54:54Z 31.052872 -76.597728 18.0 26.289 52.635764 36.5757 22.6266 22.6228 1025.3179 25.2383 4.7508 97.121 373.0 -4.4605337 0.0
SAV-15-04 3 13 03/16/2015 19:54:54 2015-03-16T19:54:54Z 31.052872 -76.597728 19.0 27.75 52.636548 36.576 22.6266 22.6226 1025.322 25.2385 4.7394 96.889 360.0 -4.8899954 0.0
SAV-15-04 3 13 03/16/2015 19:54:54 2015-03-16T19:54:54Z 31.052872 -76.597728 20.0 29.21 52.632062 36.5788 22.6184 22.6141 1025.3337 25.2431 4.7361 96.808 345.0 -4.9003927 0.0
SAV-15-04 3 13 03/16/2015 19:54:54 2015-03-16T19:54:54Z 31.052872 -76.597728 21.0 30.671 52.621485 36.5762 22.6112 22.6067 1025.3381 25.2433 4.7368 96.809 340.0 -4.9002636 0.0
SAV-15-04 3 13 03/16/2015 19:54:54 2015-03-16T19:54:54Z 31.052872 -76.597728 22.0 32.131 52.619045 36.5748 22.6104 22.6058 1025.3397 25.2424 4.7365 96.801 297.0 -4.9002636 0.0
SAV-15-04 3 13 03/16/2015 19:54:54 2015-03-16T19:54:54Z 31.052872 -76.597728 23.0 33.591 52.618004 36.5748 22.6091 22.6043 1025.3436 25.2428 4.7482 97.038 301.0 -4.8014389 0.0
SAV-15-04 3 13 03/16/2015 19:54:54 2015-03-16T19:54:54Z 31.052872 -76.597728 24.0 35.052 52.612848 36.5738 22.6048 22.5996 1025.3508 25.2435 4.7603 97.278 278.0 -4.5863912 0.0
SAV-15-04 3 13 03/16/2015 19:54:54 2015-03-16T19:54:54Z 31.052872 -76.597728 25.0 36.513 52.612531 36.5737 22.6042 22.5989 1025.3551 25.2436 4.7679 97.432 272.0 -4.4028345 0.0
SAV-15-04 3 13 03/16/2015 19:54:54 2015-03-16T19:54:54Z 31.052872 -76.597728 26.0 37.973 52.611515 36.5728 22.604 22.5986 1025.3571 25.243 4.7589 97.248 238.0 -4.025798 0.0
SAV-15-04 3 13 03/16/2015 19:54:54 2015-03-16T19:54:54Z 31.052872 -76.597728 27.0 39.434 52.611596 36.5727 22.6039 22.5983 1025.3609 25.2429 4.7503 97.07 234.0 -4.6983082 0.0
SAV-15-04 3 13 03/16/2015 19:54:54 2015-03-16T19:54:54Z 31.052872 -76.597728 28.0 40.895 52.612928 36.5729 22.6041 22.5981 1025.3691 25.2432 4.7499 97.065 225.0 -4.9185391 0.0
SAV-15-04 3 13 03/16/2015 19:54:54 2015-03-16T19:54:54Z 31.052872 -76.597728 29.0 42.355 52.612352 36.5727 22.6035 22.5974 1025.3722 25.2433 4.7462 96.987 206.0 -4.6987283 0.0
SAV-15-04 3 13 03/16/2015 19:54:54 2015-03-16T19:54:54Z 31.052872 -76.597728 30.0 43.816 52.611949 36.5725 22.6032 22.597 1025.3739 25.2432 4.7427 96.913 202.0 -4.4690107 0.0
SAV-15-04 3 13 03/16/2015 19:54:54 2015-03-16T19:54:54Z 31.052872 -76.597728 31.0 45.277 52.610505 36.5727 22.601 22.5945 1025.3807 25.2441 4.7366 96.786 181.0 -4.9606448 0.0
SAV-15-04 3 13 03/16/2015 19:54:54 2015-03-16T19:54:54Z 31.052872 -76.597728 32.0 46.738 52.611017 36.5733 22.6004 22.5937 1025.3859 25.2447 4.7382 96.819 175.0 -4.8527564 0.0
SAV-15-04 3 13 03/16/2015 19:54:54 2015-03-16T19:54:54Z 31.052872 -76.597728 33.0 48.198 52.609231 36.5726 22.5993 22.5924 1025.3886 25.2446 4.7343 96.736 164.0 -4.8441344 0.0
SAV-15-04 3 13 03/16/2015 19:54:54 2015-03-16T19:54:54Z 31.052872 -76.597728 34.0 49.659 52.604097 36.5726 22.594 22.5869 1025.3957 25.2461 4.7471 96.99 152.0 -4.1314183 0.0
SAV-15-04 3 13 03/16/2015 19:54:54 2015-03-16T19:54:54Z 31.052872 -76.597728 35.0 51.12 52.601871 36.5716 22.5927 22.5854 1025.3998 25.2458 4.7605 97.26 146.0 -4.7329349 0.0
SAV-15-04 3 13 03/16/2015 19:54:54 2015-03-16T19:54:54Z 31.052872 -76.597728 36.0 52.58 52.601509 36.5716 22.592 22.5846 1025.4027 25.2461 4.7368 96.775 142.0 -4.6189722 0.0
SAV-15-04 3 13 03/16/2015 19:54:54 2015-03-16T19:54:54Z 31.052872 -76.597728 37.0 54.042 52.598689 36.5721 22.5882 22.5805 1025.4105 25.2476 4.7127 96.275 131.0 -4.2728494 0.0
SAV-15-04 3 13 03/16/2015 19:54:54 2015-03-16T19:54:54Z 31.052872 -76.597728 38.0 55.502 52.598899 36.5716 22.5886 22.5806 1025.4143 25.2472 4.745 96.936 124.0 -3.8179114 0.0
SAV-15-04 3 13 03/16/2015 19:54:54 2015-03-16T19:54:54Z 31.052872 -76.597728 39.0 56.963 52.598906 36.5713 22.5886 22.5805 1025.4174 25.247 4.7399 96.831 116.0 -3.6954933 0.0
SAV-15-04 3 13 03/16/2015 19:54:54 2015-03-16T19:54:54Z 31.052872 -76.597728 40.0 58.424 52.598938 36.5713 22.5883 22.5801 1025.421 25.2471 4.7416 96.866 112.0 -3.9567446 0.0
SAV-15-04 3 13 03/16/2015 19:54:54 2015-03-16T19:54:54Z 31.052872 -76.597728 41.0 59.884 52.598562 36.5709 22.5879 22.5794 1025.4262 25.247 4.7525 97.088 101.0 -4.2730332 0.0
SAV-15-04 3 13 03/16/2015 19:54:54 2015-03-16T19:54:54Z 31.052872 -76.597728 42.0 61.345 52.599494 36.5712 22.5879 22.5792 1025.4315 25.2473 4.7232 96.488 96.7 -4.4596534 0.0
SAV-15-04 3 13 03/16/2015 19:54:54 2015-03-16T19:54:54Z 31.052872 -76.597728 43.0 62.805 52.599508 36.5712 22.5876 22.5787 1025.4349 25.2474 4.7324 96.676 94.4 -4.6906867 0.0
SAV-15-04 3 13 03/16/2015 19:54:54 2015-03-16T19:54:54Z 31.052872 -76.597728 44.0 64.266 52.60003 36.5716 22.5871 22.578 1025.4405 25.248 4.7407 96.845 86.2 -4.8476426 0.0
SAV-15-04 3 13 03/16/2015 19:54:54 2015-03-16T19:54:54Z 31.052872 -76.597728 45.0 65.727 52.598129 36.5715 22.585 22.5757 1025.4456 25.2485 4.7274 96.57 80.9 -4.893217 0.0
SAV-15-04 3 13 03/16/2015 19:54:54 2015-03-16T19:54:54Z 31.052872 -76.597728 46.0 67.188 52.597599 36.571 22.5849 22.5754 1025.4482 25.2483 4.7297 96.617 79.5 -4.0423745 0.0
SAV-15-04 3 13 03/16/2015 19:54:54 2015-03-16T19:54:54Z 31.052872 -76.597728 47.0 68.649 52.594277 36.5718 22.5804 22.5707 1025.4544 25.2502 4.7407 96.834 74.8 -4.7226463 0.0
SAV-15-04 3 13 03/16/2015 19:54:54 2015-03-16T19:54:54Z 31.052872 -76.597728 48.0 70.11 52.590156 36.572 22.5758 22.5659 1025.4607 25.2518 4.7366 96.742 70.1 -4.7038539 0.0
SAV-15-04 3 13 03/16/2015 19:54:54 2015-03-16T19:54:54Z 31.052872 -76.597728 49.0 71.57 52.587483 36.5715 22.5734 22.5631 1025.4671 25.2522 4.7314 96.632 66.9 -4.6668061 0.0
SAV-15-04 3 13 03/16/2015 19:54:54 2015-03-16T19:54:54Z 31.052872 -76.597728 50.0 73.03 52.584237 36.5727 22.5684 22.558 1025.4741 25.2546 4.7456 96.915 62.9 -4.5885735 0.0
SAV-15-04 3 13 03/16/2015 19:54:54 2015-03-16T19:54:54Z 31.052872 -76.597728 51.0 74.492 52.581682 36.5716 22.5672 22.5567 1025.4754 25.2541 4.7465 96.931 59.0 -3.6616033 0.0
SAV-15-04 3 13 03/16/2015 19:54:54 2015-03-16T19:54:54Z 31.052872 -76.597728 52.0 75.952 52.580051 36.5719 22.5649 22.5542 1025.4811 25.255 4.7357 96.706 56.5 -5.1003478 0.0
SAV-15-04 3 13 03/16/2015 19:54:54 2015-03-16T19:54:54Z 31.052872 -76.597728 53.0 77.414 52.575765 36.5716 22.5607 22.5498 1025.487 25.2561 4.7377 96.74 53.3 -4.5399288 0.0
SAV-15-04 3 13 03/16/2015 19:54:54 2015-03-16T19:54:54Z 31.052872 -76.597728 54.0 78.874 52.576139 36.5715 22.5609 22.5498 1025.4903 25.256 4.7329 96.642 50.2 -4.5950519 0.0
SAV-15-04 3 13 03/16/2015 19:54:54 2015-03-16T19:54:54Z 31.052872 -76.597728 55.0 80.335 52.575309 36.572 22.5589 22.5475 1025.4972 25.257 4.7354 96.69 47.1 -4.896134 0.0
SAV-15-04 3 13 03/16/2015 19:54:54 2015-03-16T19:54:54Z 31.052872 -76.597728 56.0 81.795 52.572852 36.5725 22.5557 22.5441 1025.5023 25.2583 4.7414 96.808 44.6 -4.8216925 0.0
SAV-15-04 3 13 03/16/2015 19:54:54 2015-03-16T19:54:54Z 31.052872 -76.597728 57.0 83.256 52.57148 36.572 22.5547 22.543 1025.5053 25.2583 4.7428 96.833 42.6 -4.795147 0.0
SAV-15-04 3 13 03/16/2015 19:54:54 2015-03-16T19:54:54Z 31.052872 -76.597728 58.0 84.718 52.571697 36.5729 22.5532 22.5411 1025.5136 25.2595 4.7349 96.67 39.6 -4.695075 0.0
SAV-15-04 3 13 03/16/2015 19:54:54 2015-03-16T19:54:54Z 31.052872 -76.597728 59.0 86.178 52.573416 36.5744 22.5526 22.5404 1025.5181 25.2609 4.7408 96.791 37.3 -4.4621688 0.0
SAV-15-04 3 13 03/16/2015 19:54:54 2015-03-16T19:54:54Z 31.052872 -76.597728 60.0 87.639 52.57448 36.5748 22.5529 22.5406 1025.5208 25.2611 4.7224 96.416 35.6 -4.7684932 0.0
SAV-15-04 3 13 03/16/2015 19:54:54 2015-03-16T19:54:54Z 31.052872 -76.597728 61.0 89.1 52.574276 36.577 22.5494 22.5367 1025.5309 25.2639 4.7279 96.524 33.2 -4.0399931 0.0
SAV-15-04 3 13 03/16/2015 19:54:54 2015-03-16T19:54:54Z 31.052872 -76.597728 62.0 90.561 52.572439 36.5764 22.5481 22.5353 1025.5336 25.2639 4.7205 96.369 31.4 -4.0636534 0.0
SAV-15-04 3 13 03/16/2015 19:54:54 2015-03-16T19:54:54Z 31.052872 -76.597728 63.0 92.022 52.573774 36.5763 22.5491 22.5362 1025.5365 25.2636 4.6868 95.683 29.7 -4.6540498 0.0
SAV-15-04 3 13 03/16/2015 19:54:54 2015-03-16T19:54:54Z 31.052872 -76.597728 64.0 93.483 52.574156 36.5789 22.5459 22.5326 1025.5459 25.2665 4.6921 95.788 27.9 -4.8305997 0.0
SAV-15-04 3 13 03/16/2015 19:54:54 2015-03-16T19:54:54Z 31.052872 -76.597728 65.0 94.944 52.566179 36.5768 22.5405 22.5271 1025.5494 25.2666 4.7049 96.038 26.1 -4.3809667 0.0
SAV-15-04 3 13 03/16/2015 19:54:54 2015-03-16T19:54:54Z 31.052872 -76.597728 66.0 96.405 52.560644 36.5762 22.5359 22.5223 1025.5528 25.2674 4.7061 96.055 24.6 -4.7950852 0.0
SAV-15-04 3 13 03/16/2015 19:54:54 2015-03-16T19:54:54Z 31.052872 -76.597728 67.0 97.866 52.542098 36.5759 22.5182 22.5044 1025.5643 25.2724 4.7003 95.907 23.1 -4.9071756 0.0
SAV-15-04 3 13 03/16/2015 19:54:54 2015-03-16T19:54:54Z 31.052872 -76.597728 68.0 99.326 52.529062 36.5731 22.5089 22.4949 1025.5698 25.2729 4.7001 95.885 21.5 -4.9002636 0.0
SAV-15-04 3 13 03/16/2015 19:54:54 2015-03-16T19:54:54Z 31.052872 -76.597728 69.0 100.787 52.509829 36.5679 22.4969 22.4827 1025.5714 25.2725 4.6895 95.645 20.3 -4.5052293 0.0
SAV-15-04 3 13 03/16/2015 19:54:54 2015-03-16T19:54:54Z 31.052872 -76.597728 70.0 102.248 52.495162 36.5706 22.4795 22.4651 1025.5833 25.2795 4.6491 94.795 19.1 -4.9598002 0.0
SAV-15-04 3 13 03/16/2015 19:54:54 2015-03-16T19:54:54Z 31.052872 -76.597728 71.0 103.709 52.443323 36.5964 22.3999 22.3853 1025.6316 25.322 4.6617 94.932 17.8 -4.9002636 0.0
SAV-15-04 3 13 03/16/2015 19:54:54 2015-03-16T19:54:54Z 31.052872 -76.597728 72.0 105.17 52.374297 36.5885 22.3444 22.3297 1025.645 25.3319 4.6404 94.402 16.8 -4.5493308 0.0
SAV-15-04 3 13 03/16/2015 19:54:54 2015-03-16T19:54:54Z 31.052872 -76.597728 73.0 106.631 52.34077 36.583 22.3194 22.3046 1025.6503 25.3348 4.5659 92.844 15.9 -4.6351683 0.0
SAV-15-04 3 13 03/16/2015 19:54:54 2015-03-16T19:54:54Z 31.052872 -76.597728 74.0 108.092 52.256241 36.5992 22.2204 22.2052 1025.6994 25.3754 4.527 91.899 14.9 -4.7707176 0.0
SAV-15-04 3 13 03/16/2015 19:54:54 2015-03-16T19:54:54Z 31.052872 -76.597728 75.0 109.553 52.211797 36.5873 22.1926 22.1773 1025.7012 25.3743 4.534 91.991 14.1 -4.582987 0.0
SAV-15-04 3 13 03/16/2015 19:54:54 2015-03-16T19:54:54Z 31.052872 -76.597728 76.0 111.014 52.192841 36.5791 22.1843 22.1689 1025.7 25.3704 4.5354 92.0 13.4 -4.4463662 0.0
SAV-15-04 3 13 03/16/2015 19:54:54 2015-03-16T19:54:54Z 31.052872 -76.597728 77.0 112.475 52.187592 36.5781 22.1802 22.1645 1025.7047 25.3709 4.5954 93.211 12.8 -4.4344735 0.0
SAV-15-04 3 13 03/16/2015 19:54:54 2015-03-16T19:54:54Z 31.052872 -76.597728 78.0 113.936 52.178293 36.575 22.1748 22.159 1025.7078 25.3701 4.6171 93.641 12.0 -4.3309363 0.0
SAV-15-04 3 13 03/16/2015 19:54:54 2015-03-16T19:54:54Z 31.052872 -76.597728 79.0 115.397 52.172697 36.5747 22.1694 22.1533 1025.7149 25.3715 4.6274 93.842 11.4 -3.9577239 0.0
SAV-15-04 3 13 03/16/2015 19:54:54 2015-03-16T19:54:54Z 31.052872 -76.597728 80.0 116.858 52.1707 36.5761 22.1653 22.149 1025.722 25.3738 4.645 94.191 11.0 -4.6076092 0.0
SAV-15-04 3 13 03/16/2015 19:54:54 2015-03-16T19:54:54Z 31.052872 -76.597728 81.0 118.319 52.167862 36.5751 22.1635 22.1471 1025.725 25.3736 4.6491 94.272 10.5 -4.0040877 0.0
SAV-15-04 3 13 03/16/2015 19:54:54 2015-03-16T19:54:54Z 31.052872 -76.597728 82.0 119.78 52.169111 36.5742 22.1654 22.1488 1025.7275 25.3725 4.6198 93.68 9.96 -4.4858543 0.0
SAV-15-04 3 13 03/16/2015 19:54:54 2015-03-16T19:54:54Z 31.052872 -76.597728 83.0 121.241 52.179064 36.5772 22.1707 22.1538 1025.7341 25.3733 4.6328 93.953 9.49 -4.7627886 0.0
SAV-15-04 3 13 03/16/2015 19:54:54 2015-03-16T19:54:54Z 31.052872 -76.597728 84.0 122.702 52.183942 36.5785 22.1733 22.1563 1025.7382 25.3735 4.6343 93.988 9.13 -4.9019622 0.0
SAV-15-04 3 13 03/16/2015 19:54:54 2015-03-16T19:54:54Z 31.052872 -76.597728 85.0 124.163 52.187976 36.5794 22.1756 22.1584 1025.742 25.3737 4.6376 94.06 8.66 -4.8949379 0.0
SAV-15-04 3 13 03/16/2015 19:54:54 2015-03-16T19:54:54Z 31.052872 -76.597728 86.0 125.624 52.197277 36.5817 22.1813 22.1639 1025.7456 25.3738 4.6174 93.66 8.19 -4.4402183 0.0
SAV-15-04 3 13 03/16/2015 19:54:54 2015-03-16T19:54:54Z 31.052872 -76.597728 87.0 127.085 52.209017 36.584 22.1887 22.1709 1025.754 25.3736 4.6117 93.559 7.82 -3.3790096 0.0
SAV-15-04 3 13 03/16/2015 19:54:54 2015-03-16T19:54:54Z 31.052872 -76.597728 88.0 128.546 52.215387 36.5861 22.1918 22.1738 1025.759 25.3744 4.6139 93.61 7.45 -3.8771175 0.0
SAV-15-04 3 13 03/16/2015 19:54:54 2015-03-16T19:54:54Z 31.052872 -76.597728 89.0 130.007 52.219767 36.5878 22.1936 22.1754 1025.7626 25.3752 4.6215 93.768 7.05 -4.9085829 0.0
SAV-15-04 3 13 03/16/2015 19:54:54 2015-03-16T19:54:54Z 31.052872 -76.597728 90.0 131.468 52.220041 36.5882 22.1932 22.175 1025.7647 25.3756 4.576 92.844 6.75 -4.0059269 0.0
SAV-15-04 3 13 03/16/2015 19:54:54 2015-03-16T19:54:54Z 31.052872 -76.597728 91.0 132.93 52.229247 36.5904 22.1985 22.1799 1025.7719 25.3759 4.5596 92.522 6.45 -4.7341442 0.0
SAV-15-04 3 13 03/16/2015 19:54:54 2015-03-16T19:54:54Z 31.052872 -76.597728 92.0 134.39 52.245719 36.5992 22.2031 22.1843 1025.7816 25.3813 4.5723 92.793 6.09 -4.9144408 0.0
SAV-15-04 3 13 03/16/2015 19:54:54 2015-03-16T19:54:54Z 31.052872 -76.597728 93.0 135.852 52.251087 36.6028 22.2035 22.1846 1025.7867 25.384 4.5638 92.622 5.8 -3.563357 0.0
SAV-15-04 3 13 03/16/2015 19:54:54 2015-03-16T19:54:54Z 31.052872 -76.597728 94.0 137.313 52.258389 36.6083 22.2035 22.1845 1025.7945 25.3882 4.5062 91.456 5.53 -3.7965958 0.0
SAV-15-04 3 13 03/16/2015 19:54:54 2015-03-16T19:54:54Z 31.052872 -76.597728 95.0 138.774 52.273033 36.6224 22.1999 22.1806 1025.8122 25.4001 4.4529 90.375 5.28 -3.4957092 0.0
SAV-15-04 3 13 03/16/2015 19:54:54 2015-03-16T19:54:54Z 31.052872 -76.597728 96.0 140.235 52.260225 36.6371 22.1701 22.1505 1025.837 25.4197 4.4325 89.922 5.01 -4.8176369 0.0
SAV-15-04 3 13 03/16/2015 19:54:54 2015-03-16T19:54:54Z 31.052872 -76.597728 97.0 141.696 52.246771 36.6341 22.1607 22.1411 1025.8403 25.4202 4.4077 89.402 4.77 -3.4755186 0.0
SAV-15-04 3 13 03/16/2015 19:54:54 2015-03-16T19:54:54Z 31.052872 -76.597728 98.0 143.157 52.243138 36.6351 22.1559 22.136 1025.8459 25.4224 4.3692 88.615 4.59 -3.0768096 0.0
SAV-15-04 3 13 03/16/2015 19:54:54 2015-03-16T19:54:54Z 31.052872 -76.597728 99.0 144.618 52.221288 36.6351 22.1347 22.1146 1025.8597 25.4284 4.3817 88.836 4.38 -3.3065115 0.0
SAV-15-04 3 13 03/16/2015 19:54:54 2015-03-16T19:54:54Z 31.052872 -76.597728 100.0 146.08 52.21811 36.6338 22.133 22.1126 1025.8627 25.4279 4.3844 88.886 4.17 -3.3830163 0.0
SAV-15-04 3 13 03/16/2015 19:54:54 2015-03-16T19:54:54Z 31.052872 -76.597728 101.0 147.541 52.214692 36.6324 22.1312 22.1108 1025.8641 25.4275 4.3764 88.721 4.0 -4.0887766 0.0
SAV-15-04 3 13 03/16/2015 19:54:54 2015-03-16T19:54:54Z 31.052872 -76.597728 102.0 149.002 52.200466 36.6357 22.1135 22.0928 1025.8766 25.4351 4.3832 88.833 3.87 -3.858627 0.0
SAV-15-04 3 13 03/16/2015 19:54:54 2015-03-16T19:54:54Z 31.052872 -76.597728 103.0 150.463 52.187657 36.6403 22.0957 22.0748 1025.89 25.4437 4.4012 89.172 3.69 -3.0310182 0.0
SAV-15-04 3 13 03/16/2015 19:54:54 2015-03-16T19:54:54Z 31.052872 -76.597728 104.0 151.924 52.199025 36.6516 22.0926 22.0716 1025.9028 25.4531 4.374 88.62 3.51 -4.3225024 0.0
SAV-15-04 3 13 03/16/2015 19:54:54 2015-03-16T19:54:54Z 31.052872 -76.597728 105.0 153.386 52.259524 36.6909 22.1022 22.0809 1025.9354 25.4804 4.332 87.805 3.35 -3.9415634 0.0
SAV-15-04 3 13 03/16/2015 19:54:54 2015-03-16T19:54:54Z 31.052872 -76.597728 106.0 154.847 52.283617 36.7095 22.1023 22.0809 1025.9529 25.4945 4.1781 84.695 3.21 -3.1053942 0.0
SAV-15-04 3 13 03/16/2015 19:54:54 2015-03-16T19:54:54Z 31.052872 -76.597728 107.0 156.308 52.253633 36.7222 22.0588 22.0372 1025.9804 25.5166 3.9968 80.965 3.08 -3.4068628 0.0
SAV-15-04 3 13 03/16/2015 19:54:54 2015-03-16T19:54:54Z 31.052872 -76.597728 108.0 157.769 52.184098 36.718 21.9985 21.9767 1025.9992 25.5304 3.966 80.251 2.96 -2.7128621 0.0
SAV-15-04 3 13 03/16/2015 19:54:54 2015-03-16T19:54:54Z 31.052872 -76.597728 109.0 159.231 52.158065 36.7107 21.9825 21.9604 1026.0013 25.5295 4.0132 81.18 2.85 -1.343652 0.0
SAV-15-04 3 13 03/16/2015 19:54:54 2015-03-16T19:54:54Z 31.052872 -76.597728 110.0 160.691 52.125113 36.7097 21.9525 21.9304 1026.0125 25.5373 4.0514 81.91 2.76 -2.8120886 0.0
SAV-15-04 3 13 03/16/2015 19:54:54 2015-03-16T19:54:54Z 31.052872 -76.597728 111.0 162.153 52.058693 36.7148 21.8838 21.8614 1026.0428 25.5605 4.0925 82.644 2.66 -2.8433625 0.0
SAV-15-04 3 13 03/16/2015 19:54:54 2015-03-16T19:54:54Z 31.052872 -76.597728 112.0 163.614 52.015122 36.7091 21.8495 21.8269 1026.0523 25.5659 4.1117 82.978 2.56 -2.8374789 0.0
SAV-15-04 3 13 03/16/2015 19:54:54 2015-03-16T19:54:54Z 31.052872 -76.597728 113.0 165.075 51.994413 36.703 21.8371 21.8144 1026.0532 25.5648 4.1274 83.271 2.46 -2.9078228 0.0
SAV-15-04 3 13 03/16/2015 19:54:54 2015-03-16T19:54:54Z 31.052872 -76.597728 114.0 166.537 51.970051 36.702 21.8148 21.7919 1026.0652 25.5704 4.1371 83.434 2.38 -2.6311993 0.0
SAV-15-04 3 13 03/16/2015 19:54:54 2015-03-16T19:54:54Z 31.052872 -76.597728 115.0 167.998 51.962681 36.7028 21.8066 21.7834 1026.0727 25.5733 4.1495 83.674 2.29 -3.30363 0.0
SAV-15-04 3 13 03/16/2015 19:54:54 2015-03-16T19:54:54Z 31.052872 -76.597728 116.0 169.459 51.962774 36.703 21.8061 21.7828 1026.0764 25.5737 4.1348 83.375 2.2 -4.2522389 0.0
SAV-15-04 3 13 03/16/2015 19:54:54 2015-03-16T19:54:54Z 31.052872 -76.597728 117.0 170.92 51.960906 36.7029 21.8042 21.7808 1026.0797 25.5742 4.1039 82.751 2.13 -3.2439442 0.0
SAV-15-04 3 13 03/16/2015 19:54:54 2015-03-16T19:54:54Z 31.052872 -76.597728 118.0 172.382 51.955379 36.7063 21.7944 21.7706 1026.0918 25.5796 4.0974 82.606 2.06 -2.7003035 0.0
SAV-15-04 3 13 03/16/2015 19:54:54 2015-03-16T19:54:54Z 31.052872 -76.597728 119.0 173.843 51.948916 36.7038 21.7908 21.767 1026.0947 25.5788 4.1058 82.77 1.98 -2.4555798 0.0
SAV-15-04 3 13 03/16/2015 19:54:54 2015-03-16T19:54:54Z 31.052872 -76.597728 120.0 175.304 51.95193 36.7056 21.7913 21.7672 1026.099 25.58 4.0945 82.542 1.91 -2.8196566 0.0
SAV-15-04 3 13 03/16/2015 19:54:54 2015-03-16T19:54:54Z 31.052872 -76.597728 121.0 176.765 51.939629 36.7094 21.7749 21.7507 1026.1112 25.5875 4.0744 82.116 1.84 -2.9081489 0.0
SAV-15-04 3 13 03/16/2015 19:54:54 2015-03-16T19:54:54Z 31.052872 -76.597728 122.0 178.227 51.857304 36.7073 21.6999 21.6755 1026.136 25.607 4.0851 82.221 1.77 -3.042539 0.0
SAV-15-04 3 13 03/16/2015 19:54:54 2015-03-16T19:54:54Z 31.052872 -76.597728 123.0 179.688 51.816883 36.6956 21.6753 21.6507 1026.1387 25.6051 4.0992 82.464 1.72 -2.9346705 0.0
SAV-15-04 3 13 03/16/2015 19:54:54 2015-03-16T19:54:54Z 31.052872 -76.597728 124.0 181.149 51.796141 36.6889 21.6634 21.6387 1026.1398 25.6034 4.1426 83.315 1.66 -2.7000303 0.0
SAV-15-04 3 13 03/16/2015 19:54:54 2015-03-16T19:54:54Z 31.052872 -76.597728 125.0 182.611 51.726327 36.6871 21.5998 21.5749 1026.1609 25.6198 4.202 84.413 1.6 -2.7680293 0.0
SAV-15-04 3 13 03/16/2015 19:54:54 2015-03-16T19:54:54Z 31.052872 -76.597728 126.0 184.072 51.658247 36.6737 21.5513 21.5262 1026.1692 25.6232 4.2511 85.319 1.54 -3.9421549 0.0
SAV-15-04 3 13 03/16/2015 19:54:54 2015-03-16T19:54:54Z 31.052872 -76.597728 127.0 185.533 51.649638 36.672 21.5448 21.5196 1026.1737 25.6237 4.3003 86.296 1.48 -3.0518823 0.0
SAV-15-04 3 13 03/16/2015 19:54:54 2015-03-16T19:54:54Z 31.052872 -76.597728 128.0 186.995 51.67775 36.6903 21.5492 21.5238 1026.1913 25.6365 4.2906 86.117 1.43 -2.9127604 0.0
SAV-15-04 3 13 03/16/2015 19:54:54 2015-03-16T19:54:54Z 31.052872 -76.597728 129.0 188.456 51.646088 36.7024 21.505 21.4793 1026.2178 25.6581 4.2349 84.939 1.38 -2.871983 0.0
SAV-15-04 3 13 03/16/2015 19:54:54 2015-03-16T19:54:54Z 31.052872 -76.597728 130.0 189.917 51.623128 36.6906 21.497 21.4712 1026.2139 25.6513 4.1526 83.271 1.34 -3.2621803 0.0
SAV-15-04 3 13 03/16/2015 19:54:54 2015-03-16T19:54:54Z 31.052872 -76.597728 131.0 191.379 51.601369 36.6905 21.4761 21.4501 1026.2255 25.6571 4.1411 83.008 1.29 -3.4835763 0.0
SAV-15-04 3 13 03/16/2015 19:54:54 2015-03-16T19:54:54Z 31.052872 -76.597728 132.0 192.84 51.567708 36.6847 21.451 21.4248 1026.2316 25.6598 4.1752 83.651 1.25 -2.4469616 0.0
SAV-15-04 3 13 03/16/2015 19:54:54 2015-03-16T19:54:54Z 31.052872 -76.597728 133.0 194.301 51.541575 36.6836 21.4275 21.4012 1026.2412 25.6655 4.2075 84.264 1.21 -3.7278559 0.0
SAV-15-04 3 13 03/16/2015 19:54:54 2015-03-16T19:54:54Z 31.052872 -76.597728 134.0 195.763 51.522024 36.6888 21.4025 21.3759 1026.2582 25.6764 4.2316 84.711 1.16 -3.0160546 0.0
SAV-15-04 3 13 03/16/2015 19:54:54 2015-03-16T19:54:54Z 31.052872 -76.597728 135.0 197.224 51.50317 36.6841 21.39 21.3633 1026.2606 25.6764 4.2206 84.469 1.12 -2.423125 0.0
SAV-15-04 3 13 03/16/2015 19:54:54 2015-03-16T19:54:54Z 31.052872 -76.597728 136.0 198.686 51.447631 36.6731 21.3502 21.3233 1026.2691 25.6791 4.2091 84.173 1.09 -3.0730729 0.0
SAV-15-04 3 13 03/16/2015 19:54:54 2015-03-16T19:54:54Z 31.052872 -76.597728 137.0 200.147 51.480875 36.6762 21.3774 21.3503 1026.2681 25.674 4.2225 84.484 1.05 -2.3548644 0.0
SAV-15-04 3 13 03/16/2015 19:54:54 2015-03-16T19:54:54Z 31.052872 -76.597728 138.0 201.608 51.493186 36.687 21.376 21.3487 1026.2802 25.6827 4.2087 84.212 1.02 -1.6283033 0.0
SAV-15-04 3 13 03/16/2015 19:54:54 2015-03-16T19:54:54Z 31.052872 -76.597728 139.0 203.07 51.37524 36.6789 21.2744 21.247 1026.3065 25.7047 4.1691 83.265 0.984 -3.0561025 0.0
SAV-15-04 3 13 03/16/2015 19:54:54 2015-03-16T19:54:54Z 31.052872 -76.597728 140.0 204.531 51.295018 36.6546 21.227 21.1995 1026.3064 25.6992 4.2724 85.242 0.952 -3.6537227 0.0
SAV-15-04 3 13 03/16/2015 19:54:54 2015-03-16T19:54:54Z 31.052872 -76.597728 141.0 205.993 51.273185 36.6453 21.2169 21.1891 1026.3068 25.6951 4.3884 87.535 0.92 -3.9634414 0.0
SAV-15-04 3 13 03/16/2015 19:54:54 2015-03-16T19:54:54Z 31.052872 -76.597728 142.0 207.454 51.281321 36.6484 21.2206 21.1927 1026.3111 25.6964 4.4312 88.398 0.891 -3.730046 0.0
SAV-15-04 3 13 03/16/2015 19:54:54 2015-03-16T19:54:54Z 31.052872 -76.597728 143.0 208.915 51.313393 36.6493 21.2491 21.2209 1026.3096 25.6893 4.3975 87.769 0.863 -3.3618963 0.0
SAV-15-04 3 13 03/16/2015 19:54:54 2015-03-16T19:54:54Z 31.052872 -76.597728 144.0 210.377 51.359738 36.6755 21.2616 21.2332 1026.3307 25.7059 4.3699 87.251 0.835 -4.4687401 0.0
SAV-15-04 3 13 03/16/2015 19:54:54 2015-03-16T19:54:54Z 31.052872 -76.597728 145.0 211.839 51.303946 36.6678 21.218 21.1896 1026.3397 25.712 4.2967 85.72 0.808 -3.1763462 0.0
SAV-15-04 3 13 03/16/2015 19:54:54 2015-03-16T19:54:54Z 31.052872 -76.597728 146.0 213.3 51.240666 36.6522 21.1762 21.1475 1026.3453 25.7118 4.2674 85.063 0.783 -1.9255008 0.0
SAV-15-04 3 13 03/16/2015 19:54:54 2015-03-16T19:54:54Z 31.052872 -76.597728 147.0 214.761 51.252531 36.6572 21.1811 21.1523 1026.3517 25.7143 4.3276 86.273 0.759 -2.2649563 0.0
SAV-15-04 3 13 03/16/2015 19:54:54 2015-03-16T19:54:54Z 31.052872 -76.597728 148.0 216.223 51.230826 36.6568 21.1609 21.1318 1026.3604 25.7196 4.3605 86.898 0.736 -3.1320023 0.0
SAV-15-04 3 13 03/16/2015 19:54:54 2015-03-16T19:54:54Z 31.052872 -76.597728 149.0 217.684 51.164453 36.6495 21.1064 21.0772 1026.3761 25.7291 4.3647 86.893 0.711 -3.4726931 0.0
SAV-15-04 3 13 03/16/2015 19:54:54 2015-03-16T19:54:54Z 31.052872 -76.597728 150.0 219.146 51.157207 36.6447 21.1049 21.0755 1026.3758 25.7259 4.384 87.273 0.691 -3.8421312 0.0
SAV-15-04 3 13 03/16/2015 19:54:54 2015-03-16T19:54:54Z 31.052872 -76.597728 151.0 220.608 51.188827 36.6486 21.1296 21.1 1026.3762 25.7221 4.4148 87.927 0.672 -3.714931 0.0
SAV-15-04 3 13 03/16/2015 19:54:54 2015-03-16T19:54:54Z 31.052872 -76.597728 152.0 222.069 51.22594 36.6728 21.1356 21.1057 1026.3999 25.739 4.3862 87.38 0.651 -3.8762739 0.0
SAV-15-04 3 13 03/16/2015 19:54:54 2015-03-16T19:54:54Z 31.052872 -76.597728 153.0 223.531 51.20047 36.6694 21.1155 21.0854 1026.4056 25.742 4.3232 86.092 0.631 -4.3566635 0.0
SAV-15-04 3 13 03/16/2015 19:54:54 2015-03-16T19:54:54Z 31.052872 -76.597728 154.0 224.992 51.180503 36.6634 21.1033 21.0732 1026.4073 25.7408 4.2565 84.742 0.614 -4.17918 0.0
SAV-15-04 3 13 03/16/2015 19:54:54 2015-03-16T19:54:54Z 31.052872 -76.597728 155.0 226.454 51.145152 36.6592 21.0743 21.0438 1026.4205 25.7456 4.3092 85.745 0.595 -3.1665897 0.0
SAV-15-04 3 13 03/16/2015 19:54:54 2015-03-16T19:54:54Z 31.052872 -76.597728 156.0 227.915 51.131275 36.6576 21.063 21.0324 1026.4242 25.7475 4.3395 86.33 0.577 -3.1916953 0.0
SAV-15-04 3 13 03/16/2015 19:54:54 2015-03-16T19:54:54Z 31.052872 -76.597728 157.0 229.377 51.124184 36.6542 21.0599 21.0293 1026.4251 25.7458 4.3481 86.493 0.559 -3.5785795 0.0
SAV-15-04 3 13 03/16/2015 19:54:54 2015-03-16T19:54:54Z 31.052872 -76.597728 158.0 230.838 51.041344 36.6477 20.9889 20.9579 1026.4476 25.7604 4.3539 86.495 0.543 -4.2356249 0.0
SAV-15-04 3 13 03/16/2015 19:54:54 2015-03-16T19:54:54Z 31.052872 -76.597728 159.0 232.3 51.01061 36.6365 20.9728 20.9417 1026.4461 25.7563 4.3948 87.276 0.528 -3.5254542 0.0
SAV-15-04 3 13 03/16/2015 19:54:54 2015-03-16T19:54:54Z 31.052872 -76.597728 160.0 233.761 51.000707 36.6314 20.9691 20.9379 1026.446 25.7535 4.5092 89.54 0.514 -3.5120051 0.0
SAV-15-04 3 13 03/16/2015 19:54:54 2015-03-16T19:54:54Z 31.052872 -76.597728 161.0 235.223 50.966533 36.636 20.9309 20.8995 1026.4672 25.7676 4.5721 90.728 0.501 -4.4529826 0.0
SAV-15-04 3 13 03/16/2015 19:54:54 2015-03-16T19:54:54Z 31.052872 -76.597728 162.0 236.685 50.898561 36.6281 20.8758 20.8443 1026.4797 25.7766 4.6053 91.292 0.489 -3.6999497 0.0
SAV-15-04 3 13 03/16/2015 19:54:54 2015-03-16T19:54:54Z 31.052872 -76.597728 163.0 238.146 50.877205 36.6188 20.8662 20.8345 1026.4787 25.7722 4.6494 92.145 0.478 -3.5343336 0.0
SAV-15-04 3 13 03/16/2015 19:54:54 2015-03-16T19:54:54Z 31.052872 -76.597728 164.0 239.608 50.857477 36.6161 20.8502 20.8183 1026.4863 25.7745 4.6696 92.517 0.467 -4.3143345 0.0
SAV-15-04 3 13 03/16/2015 19:54:54 2015-03-16T19:54:54Z 31.052872 -76.597728 165.0 241.07 50.856258 36.6164 20.8483 20.8162 1026.4908 25.7753 4.6614 92.353 0.455 -4.5208925 0.0
SAV-15-04 3 13 03/16/2015 19:54:54 2015-03-16T19:54:54Z 31.052872 -76.597728 166.0 242.531 50.856143 36.6194 20.8443 20.8121 1026.4985 25.7788 4.6316 91.757 0.444 -4.8200985 0.0
SAV-15-04 3 13 03/16/2015 19:54:54 2015-03-16T19:54:54Z 31.052872 -76.597728 167.0 243.993 50.843045 36.6209 20.8298 20.7975 1026.5073 25.7839 4.6137 91.381 0.433 -3.6044795 0.0
SAV-15-04 3 13 03/16/2015 19:54:54 2015-03-16T19:54:54Z 31.052872 -76.597728 168.0 245.455 50.805328 36.6183 20.7968 20.7642 1026.5201 25.791 4.5999 91.051 0.42 -4.048981 0.0
SAV-15-04 3 13 03/16/2015 19:54:54 2015-03-16T19:54:54Z 31.052872 -76.597728 169.0 246.916 50.78337 36.6146 20.7799 20.747 1026.5273 25.7928 4.6167 91.353 0.411 -3.5345606 0.0
SAV-15-04 3 13 03/16/2015 19:54:54 2015-03-16T19:54:54Z 31.052872 -76.597728 170.0 248.378 50.770352 36.6102 20.7723 20.7394 1026.5293 25.7916 4.629 91.583 0.401 -3.16187 0.0
SAV-15-04 3 13 03/16/2015 19:54:54 2015-03-16T19:54:54Z 31.052872 -76.597728 171.0 249.839 50.771595 36.6091 20.7745 20.7414 1026.5315 25.7902 4.6406 91.815 0.392 -3.757056 0.0
SAV-15-04 3 13 03/16/2015 19:54:54 2015-03-16T19:54:54Z 31.052872 -76.597728 172.0 251.301 50.774429 36.6097 20.7761 20.7428 1026.5357 25.7902 4.6519 92.042 0.383 -3.6521792 0.0
SAV-15-04 3 13 03/16/2015 19:54:54 2015-03-16T19:54:54Z 31.052872 -76.597728 173.0 252.763 50.775589 36.6113 20.7749 20.7414 1026.5417 25.7918 4.6495 91.991 0.374 -4.1242261 0.0
SAV-15-04 3 13 03/16/2015 19:54:54 2015-03-16T19:54:54Z 31.052872 -76.597728 174.0 254.224 50.758884 36.6183 20.7505 20.7168 1026.5589 25.8038 4.6355 91.679 0.366 -3.9188012 0.0
SAV-15-04 3 13 03/16/2015 19:54:54 2015-03-16T19:54:54Z 31.052872 -76.597728 175.0 255.686 50.724853 36.6103 20.7273 20.6934 1026.5635 25.8042 4.6154 91.24 0.357 -3.855399 0.0
SAV-15-04 3 13 03/16/2015 19:54:54 2015-03-16T19:54:54Z 31.052872 -76.597728 176.0 257.148 50.728621 36.6091 20.7318 20.6978 1026.5659 25.8021 4.636 91.652 0.35 -4.8075084 0.0
SAV-15-04 3 13 03/16/2015 19:54:54 2015-03-16T19:54:54Z 31.052872 -76.597728 177.0 258.61 50.728038 36.6108 20.7288 20.6946 1026.5718 25.8042 4.6494 91.914 0.342 -4.5768676 0.0
SAV-15-04 3 13 03/16/2015 19:54:54 2015-03-16T19:54:54Z 31.052872 -76.597728 178.0 260.071 50.714056 36.6123 20.7136 20.6792 1026.5812 25.8095 4.6134 91.177 0.336 -3.5807866 0.0
SAV-15-04 3 13 03/16/2015 19:54:54 2015-03-16T19:54:54Z 31.052872 -76.597728 179.0 261.533 50.700567 36.6096 20.7034 20.6688 1026.5876 25.8103 4.6047 90.989 0.329 -4.1373434 0.0
SAV-15-04 3 13 03/16/2015 19:54:54 2015-03-16T19:54:54Z 31.052872 -76.597728 180.0 262.995 50.697448 36.6096 20.7002 20.6655 1026.5911 25.8112 4.6065 91.018 0.322 -4.5354212 0.0
SAV-15-04 3 13 03/16/2015 19:54:54 2015-03-16T19:54:54Z 31.052872 -76.597728 181.0 264.456 50.683632 36.61 20.6863 20.6514 1026.6 25.8153 4.6169 91.2 0.315 -4.7161384 0.0
SAV-15-04 3 13 03/16/2015 19:54:54 2015-03-16T19:54:54Z 31.052872 -76.597728 182.0 265.918 50.668899 36.6078 20.6742 20.639 1026.6088 25.817 4.6152 91.148 0.309 -4.8301916 0.0
SAV-15-04 3 13 03/16/2015 19:54:54 2015-03-16T19:54:54Z 31.052872 -76.597728 183.0 267.38 50.679556 36.6121 20.6789 20.6435 1026.6145 25.8191 4.6162 91.177 0.303 -4.4963262 0.0
SAV-15-04 3 13 03/16/2015 19:54:54 2015-03-16T19:54:54Z 31.052872 -76.597728 184.0 268.841 50.686189 36.6172 20.6791 20.6436 1026.6203 25.823 4.6251 91.355 0.297 -4.8027522 0.0
SAV-15-04 3 13 03/16/2015 19:54:54 2015-03-16T19:54:54Z 31.052872 -76.597728 185.0 270.303 50.675167 36.6187 20.6665 20.6309 1026.6293 25.8275 4.6192 91.219 0.293 -4.7966969 0.0
SAV-15-04 3 13 03/16/2015 19:54:54 2015-03-16T19:54:54Z 31.052872 -76.597728 186.0 271.765 50.653077 36.6153 20.6491 20.6132 1026.6373 25.8297 4.6237 91.277 0.288 -3.6763344 0.0
SAV-15-04 3 13 03/16/2015 19:54:54 2015-03-16T19:54:54Z 31.052872 -76.597728 187.0 273.227 50.644952 36.6156 20.6406 20.6046 1026.6433 25.8323 4.6122 91.036 0.283 -4.7460279 0.0
SAV-15-04 3 13 03/16/2015 19:54:54 2015-03-16T19:54:54Z 31.052872 -76.597728 188.0 274.689 50.62345 36.6168 20.6187 20.5825 1026.6538 25.8392 4.6078 90.915 0.278 -4.36513 0.0
SAV-15-04 3 13 03/16/2015 19:54:54 2015-03-16T19:54:54Z 31.052872 -76.597728 189.0 276.151 50.609366 36.6155 20.6062 20.5697 1026.6642 25.8416 4.6086 90.909 0.274 -2.8900228 0.0
SAV-15-04 3 13 03/16/2015 19:54:54 2015-03-16T19:54:54Z 31.052872 -76.597728 190.0 277.612 50.615734 36.6146 20.6128 20.5761 1026.6656 25.8393 4.6151 91.047 0.269 -4.8728409 0.0
SAV-15-04 3 13 03/16/2015 19:54:54 2015-03-16T19:54:54Z 31.052872 -76.597728 191.0 279.074 50.62442 36.6188 20.616 20.5792 1026.6694 25.8416 4.6075 90.904 0.265 -4.7624776 0.0
SAV-15-04 3 13 03/16/2015 19:54:54 2015-03-16T19:54:54Z 31.052872 -76.597728 192.0 280.536 50.644033 36.6208 20.6318 20.5948 1026.6711 25.8389 4.5802 90.392 0.262 -3.7257206 0.0
SAV-15-04 3 13 03/16/2015 19:54:54 2015-03-16T19:54:54Z 31.052872 -76.597728 193.0 281.998 50.665991 36.6362 20.6342 20.597 1026.6867 25.8501 4.5366 89.544 0.258 -4.3978068 0.0
SAV-15-04 3 13 03/16/2015 19:54:54 2015-03-16T19:54:54Z 31.052872 -76.597728 194.0 283.46 50.634192 36.6374 20.6023 20.565 1026.7014 25.8596 4.4738 88.254 0.254 -4.3272335 0.0
SAV-15-04 3 13 03/16/2015 19:54:54 2015-03-16T19:54:54Z 31.052872 -76.597728 195.0 284.921 50.613399 36.6314 20.5893 20.5518 1026.7038 25.8586 4.4613 87.984 0.251 -3.1477509 0.0
SAV-15-04 3 13 03/16/2015 19:54:54 2015-03-16T19:54:54Z 31.052872 -76.597728 196.0 286.383 50.603071 36.6346 20.5753 20.5375 1026.7158 25.8649 4.4904 88.537 0.248 -3.3523474 0.0
SAV-15-04 3 13 03/16/2015 19:54:54 2015-03-16T19:54:54Z 31.052872 -76.597728 197.0 287.845 50.595204 36.6431 20.5575 20.5196 1026.732 25.8763 4.4908 88.521 0.244 -3.8011124 0.0
SAV-15-04 3 13 03/16/2015 19:54:54 2015-03-16T19:54:54Z 31.052872 -76.597728 198.0 289.307 50.579472 36.6396 20.5466 20.5086 1026.7347 25.8766 4.4423 87.546 0.241 -3.4877733 0.0
SAV-15-04 3 13 03/16/2015 19:54:54 2015-03-16T19:54:54Z 31.052872 -76.597728 199.0 290.769 50.530741 36.637 20.5031 20.465 1026.7491 25.8864 4.402 86.682 0.238 -4.3089705 0.0
SAV-15-04 3 13 03/16/2015 19:54:54 2015-03-16T19:54:54Z 31.052872 -76.597728 200.0 292.231 50.504554 36.6285 20.4879 20.4496 1026.7506 25.884 4.4114 86.838 0.235 -3.3700699 0.0
SAV-15-04 3 13 03/16/2015 19:54:54 2015-03-16T19:54:54Z 31.052872 -76.597728 201.0 293.692 50.485824 36.6234 20.4759 20.4375 1026.7518 25.8834 4.4334 87.25 0.233 -4.1061436 0.0
SAV-15-04 4 13 03/17/2015 11:53:17 2015-03-17T11:53:17Z 31.05692 -76.591803 3.0 4.381 52.631137 36.5376 22.6743 22.6737 1025.2076 25.1946 4.3624 89.237 54.1 -4.0507906 0.0
SAV-15-04 4 13 03/17/2015 11:53:17 2015-03-17T11:53:17Z 31.05692 -76.591803 4.0 5.841 52.638265 36.5413 22.6758 22.6749 1025.2166 25.1971 4.7928 98.045 50.7 -4.0718387 0.0
SAV-15-04 4 13 03/17/2015 11:53:17 2015-03-17T11:53:17Z 31.05692 -76.591803 5.0 7.302 52.639251 36.5408 22.6767 22.6754 1025.2237 25.1966 4.7316 96.795 43.0 -4.1784613 0.0
SAV-15-04 4 13 03/17/2015 11:53:17 2015-03-17T11:53:17Z 31.05692 -76.591803 6.0 8.763 52.639675 36.5411 22.6766 22.6753 1025.2245 25.1969 4.7151 96.456 42.0 -4.1476714 0.0
SAV-15-04 4 13 03/17/2015 11:53:17 2015-03-17T11:53:17Z 31.05692 -76.591803 7.0 10.223 52.641129 36.5411 22.6773 22.6755 1025.232 25.1968 4.7163 96.482 43.3 -4.4314506 0.0
SAV-15-04 4 13 03/17/2015 11:53:17 2015-03-17T11:53:17Z 31.05692 -76.591803 8.0 11.683 52.643595 36.5416 22.6781 22.676 1025.2407 25.197 4.7333 96.834 36.3 -5.014161 0.0
SAV-15-04 4 13 03/17/2015 11:53:17 2015-03-17T11:53:17Z 31.05692 -76.591803 9.0 13.144 52.642241 36.5406 22.678 22.6758 1025.2415 25.1963 4.7452 97.074 36.2 -3.4476056 0.0
SAV-15-04 4 13 03/17/2015 11:53:17 2015-03-17T11:53:17Z 31.05692 -76.591803 10.0 14.605 52.642878 36.541 22.678 22.6758 1025.2424 25.1966 4.743 97.029 36.0 -3.7112708 0.0
SAV-15-04 4 13 03/17/2015 11:53:17 2015-03-17T11:53:17Z 31.05692 -76.591803 11.0 16.065 52.643531 36.5412 22.678 22.6757 1025.2461 25.1968 4.6875 95.896 37.0 -2.6949814 0.0
SAV-15-04 4 13 03/17/2015 11:53:17 2015-03-17T11:53:17Z 31.05692 -76.591803 12.0 17.526 52.645138 36.5411 22.6786 22.6758 1025.2557 25.1967 4.7021 96.194 33.6 -3.76844 0.0
SAV-15-04 4 13 03/17/2015 11:53:17 2015-03-17T11:53:17Z 31.05692 -76.591803 13.0 18.986 52.645904 36.5412 22.679 22.6761 1025.258 25.1967 4.7278 96.72 31.9 -3.0190816 0.0
SAV-15-04 4 13 03/17/2015 11:53:17 2015-03-17T11:53:17Z 31.05692 -76.591803 14.0 20.447 52.646478 36.5411 22.6795 22.6765 1025.2594 25.1965 4.7403 96.977 30.7 -2.9398555 0.0
SAV-15-04 4 13 03/17/2015 11:53:17 2015-03-17T11:53:17Z 31.05692 -76.591803 15.0 21.908 52.64889 36.5415 22.681 22.6778 1025.2632 25.1964 4.7179 96.521 31.4 -4.6530209 0.0
SAV-15-04 4 13 03/17/2015 11:53:17 2015-03-17T11:53:17Z 31.05692 -76.591803 16.0 23.369 52.648725 36.5419 22.6796 22.676 1025.2718 25.1972 4.7271 96.709 28.7 -4.3013881 0.0
SAV-15-04 4 13 03/17/2015 11:53:17 2015-03-17T11:53:17Z 31.05692 -76.591803 17.0 24.828 52.64949 36.542 22.6797 22.676 1025.2764 25.1974 4.7368 96.906 27.2 -4.7141358 0.0
SAV-15-04 4 13 03/17/2015 11:53:17 2015-03-17T11:53:17Z 31.05692 -76.591803 18.0 26.289 52.649041 36.5414 22.6796 22.6757 1025.2793 25.1969 4.7435 97.044 26.3 -4.8934186 0.0
SAV-15-04 4 13 03/17/2015 11:53:17 2015-03-17T11:53:17Z 31.05692 -76.591803 19.0 27.75 52.648893 36.5414 22.6794 22.6754 1025.2814 25.197 4.7368 96.906 25.7 -3.9156327 0.0
SAV-15-04 4 13 03/17/2015 11:53:17 2015-03-17T11:53:17Z 31.05692 -76.591803 20.0 29.21 52.650311 36.5412 22.6805 22.6763 1025.2854 25.1966 4.702 96.195 25.2 -2.9459193 0.0
SAV-15-04 4 13 03/17/2015 11:53:17 2015-03-17T11:53:17Z 31.05692 -76.591803 21.0 30.671 52.652033 36.5419 22.6804 22.6757 1025.295 25.1973 4.7089 96.338 23.8 -3.7761604 0.0
SAV-15-04 4 13 03/17/2015 11:53:17 2015-03-17T11:53:17Z 31.05692 -76.591803 22.0 32.131 52.651668 36.541 22.6809 22.6761 1025.2966 25.1965 4.7217 96.598 22.6 -3.9015753 0.0
SAV-15-04 4 13 03/17/2015 11:53:17 2015-03-17T11:53:17Z 31.05692 -76.591803 23.0 33.592 52.65202 36.541 22.6812 22.6764 1025.297 25.1965 4.7227 96.621 21.3 -4.1544991 0.0
SAV-15-04 4 13 03/17/2015 11:53:17 2015-03-17T11:53:17Z 31.05692 -76.591803 24.0 35.053 52.65434 36.5418 22.6815 22.6763 1025.3059 25.1971 4.7093 96.348 21.2 -4.584849 0.0
SAV-15-04 4 13 03/17/2015 11:53:17 2015-03-17T11:53:17Z 31.05692 -76.591803 25.0 36.513 52.654889 36.5417 22.6816 22.6761 1025.3123 25.197 4.7188 96.543 20.1 -4.1457166 0.0
SAV-15-04 4 13 03/17/2015 11:53:17 2015-03-17T11:53:17Z 31.05692 -76.591803 26.0 37.974 52.654865 36.5414 22.6815 22.6758 1025.3165 25.1969 4.7226 96.62 18.8 -4.1184017 0.0
SAV-15-04 4 13 03/17/2015 11:53:17 2015-03-17T11:53:17Z 31.05692 -76.591803 27.0 39.434 52.65511 36.5415 22.6815 22.6758 1025.3176 25.197 4.7358 96.888 17.8 -3.7458196 0.0
SAV-15-04 4 13 03/17/2015 11:53:17 2015-03-17T11:53:17Z 31.05692 -76.591803 28.0 40.895 52.655905 36.5419 22.6817 22.6759 1025.3188 25.1972 4.7174 96.513 17.6 -3.583064 0.0
SAV-15-04 4 13 03/17/2015 11:53:17 2015-03-17T11:53:17Z 31.05692 -76.591803 29.0 42.355 52.657486 36.5419 22.6823 22.676 1025.3285 25.1972 4.7069 96.298 16.8 -3.7733435 0.0
SAV-15-04 4 13 03/17/2015 11:53:17 2015-03-17T11:53:17Z 31.05692 -76.591803 30.0 43.816 52.656346 36.5416 22.6816 22.6753 1025.328 25.1972 4.7087 96.335 15.8 -3.7142668 0.0
SAV-15-04 4 13 03/17/2015 11:53:17 2015-03-17T11:53:17Z 31.05692 -76.591803 31.0 45.277 52.658366 36.5422 22.6819 22.6753 1025.3372 25.1976 4.6958 96.071 15.2 -4.8406631 0.0
SAV-15-04 4 13 03/17/2015 11:53:17 2015-03-17T11:53:17Z 31.05692 -76.591803 32.0 46.738 52.659951 36.542 22.6831 22.6762 1025.3421 25.1972 4.6896 95.945 14.5 -2.4978567 0.0
SAV-15-04 4 13 03/17/2015 11:53:17 2015-03-17T11:53:17Z 31.05692 -76.591803 33.0 48.199 52.659574 36.542 22.6823 22.6753 1025.3455 25.1975 4.6925 96.004 13.9 -2.5935955 0.0
SAV-15-04 4 13 03/17/2015 11:53:17 2015-03-17T11:53:17Z 31.05692 -76.591803 34.0 49.659 52.659398 36.5421 22.682 22.6748 1025.3477 25.1977 4.6905 95.964 13.2 -4.2226905 0.0
SAV-15-04 4 13 03/17/2015 11:53:17 2015-03-17T11:53:17Z 31.05692 -76.591803 35.0 51.12 52.658485 36.5418 22.6812 22.6739 1025.3506 25.1978 4.7008 96.173 12.4 -3.939431 0.0
SAV-15-04 4 13 03/17/2015 11:53:17 2015-03-17T11:53:17Z 31.05692 -76.591803 36.0 52.58 52.65953 36.542 22.6813 22.6738 1025.3562 25.198 4.7278 96.725 11.7 -3.8886759 0.0
SAV-15-04 4 13 03/17/2015 11:53:17 2015-03-17T11:53:17Z 31.05692 -76.591803 37.0 54.041 52.659981 36.5422 22.6812 22.6735 1025.3597 25.1982 4.7314 96.799 11.3 -3.0229306 0.0
SAV-15-04 4 13 03/17/2015 11:53:17 2015-03-17T11:53:17Z 31.05692 -76.591803 38.0 55.502 52.659538 36.544 22.678 22.67 1025.3692 25.2005 4.7198 96.556 10.7 -3.8628674 0.0
SAV-15-04 4 13 03/17/2015 11:53:17 2015-03-17T11:53:17Z 31.05692 -76.591803 39.0 56.963 52.658873 36.5434 22.6778 22.6696 1025.3721 25.2002 4.721 96.58 10.2 -4.7924659 0.0
SAV-15-04 4 13 03/17/2015 11:53:17 2015-03-17T11:53:17Z 31.05692 -76.591803 40.0 58.424 52.657138 36.5435 22.6757 22.6673 1025.3759 25.201 4.7245 96.648 9.57 -4.8039483 0.0
SAV-15-04 4 13 03/17/2015 11:53:17 2015-03-17T11:53:17Z 31.05692 -76.591803 41.0 59.884 52.657133 36.5436 22.675 22.6664 1025.3826 25.2013 4.7156 96.465 9.2 -4.3572943 0.0
SAV-15-04 4 13 03/17/2015 11:53:17 2015-03-17T11:53:17Z 31.05692 -76.591803 42.0 61.345 52.65724 36.5445 22.6735 22.6645 1025.3896 25.2025 4.7099 96.348 8.8 -4.6835527 0.0
SAV-15-04 4 13 03/17/2015 11:53:17 2015-03-17T11:53:17Z 31.05692 -76.591803 43.0 62.805 52.656762 36.5437 22.6737 22.6646 1025.392 25.2018 4.7146 96.444 8.38 -4.8214501 0.0
SAV-15-04 4 13 03/17/2015 11:53:17 2015-03-17T11:53:17Z 31.05692 -76.591803 44.0 64.266 52.656779 36.5436 22.6736 22.6644 1025.3939 25.2019 4.7212 96.577 7.95 -4.507832 0.0
SAV-15-04 4 13 03/17/2015 11:53:17 2015-03-17T11:53:17Z 31.05692 -76.591803 45.0 65.727 52.657517 36.544 22.6735 22.6642 1025.3973 25.2023 4.6888 95.916 7.63 -4.2152293 0.0
SAV-15-04 4 13 03/17/2015 11:53:17 2015-03-17T11:53:17Z 31.05692 -76.591803 46.0 67.188 52.658783 36.5445 22.6733 22.6636 1025.4061 25.2028 4.7094 96.336 7.21 -4.130539 0.0
SAV-15-04 4 13 03/17/2015 11:53:17 2015-03-17T11:53:17Z 31.05692 -76.591803 47.0 68.649 52.658468 36.5442 22.673 22.6632 1025.4094 25.2027 4.7201 96.555 6.82 -3.8550084 0.0
SAV-15-04 4 13 03/17/2015 11:53:17 2015-03-17T11:53:17Z 31.05692 -76.591803 48.0 70.11 52.658844 36.5445 22.6728 22.6628 1025.4119 25.203 4.722 96.593 6.45 -3.769653 0.0
SAV-15-04 4 13 03/17/2015 11:53:17 2015-03-17T11:53:17Z 31.05692 -76.591803 49.0 71.57 52.656971 36.5458 22.6689 22.6587 1025.4201 25.2052 4.6902 95.938 6.16 -4.2405125 0.0
SAV-15-04 4 13 03/17/2015 11:53:17 2015-03-17T11:53:17Z 31.05692 -76.591803 50.0 73.031 52.646919 36.5526 22.6508 22.6403 1025.4361 25.2156 4.6908 95.922 5.85 -4.0270925 0.0
SAV-15-04 4 13 03/17/2015 11:53:17 2015-03-17T11:53:17Z 31.05692 -76.591803 51.0 74.491 52.63663 36.5522 22.6415 22.6308 1025.441 25.218 4.6954 96.001 5.56 -3.6563464 0.0
SAV-15-04 4 13 03/17/2015 11:53:17 2015-03-17T11:53:17Z 31.05692 -76.591803 52.0 75.952 52.630104 36.5543 22.6326 22.6219 1025.4479 25.2223 4.6905 95.887 5.3 -4.5111429 0.0
SAV-15-04 4 13 03/17/2015 11:53:17 2015-03-17T11:53:17Z 31.05692 -76.591803 53.0 77.413 52.598064 36.5743 22.5782 22.5671 1025.486 25.2531 4.7019 96.039 5.01 -3.5178277 0.0
SAV-15-04 4 13 03/17/2015 11:53:17 2015-03-17T11:53:17Z 31.05692 -76.591803 54.0 78.874 52.548137 36.5637 22.5439 22.5326 1025.4911 25.255 4.7054 96.048 4.72 -4.0475587 0.0
SAV-15-04 4 13 03/17/2015 11:53:17 2015-03-17T11:53:17Z 31.05692 -76.591803 55.0 80.336 52.541192 36.5605 22.541 22.5296 1025.4921 25.2534 4.6935 95.798 4.45 -3.7530086 0.0
SAV-15-04 4 13 03/17/2015 11:53:17 2015-03-17T11:53:17Z 31.05692 -76.591803 56.0 81.795 52.525355 36.5657 22.5192 22.5076 1025.5097 25.2637 4.675 95.387 4.16 -5.1400399 0.0
SAV-15-04 4 13 03/17/2015 11:53:17 2015-03-17T11:53:17Z 31.05692 -76.591803 57.0 83.256 52.506346 36.5666 22.5 22.4881 1025.52 25.27 4.6636 95.122 3.91 -4.8656335 0.0
SAV-15-04 4 13 03/17/2015 11:53:17 2015-03-17T11:53:17Z 31.05692 -76.591803 58.0 84.717 52.48676 36.5646 22.4838 22.4718 1025.5264 25.2731 4.6705 95.234 3.69 -4.1430373 0.0
SAV-15-04 4 13 03/17/2015 11:53:17 2015-03-17T11:53:17Z 31.05692 -76.591803 59.0 86.179 52.472001 36.5655 22.4685 22.4564 1025.5347 25.2782 4.6744 95.289 3.48 -3.8217506 0.0
SAV-15-04 4 13 03/17/2015 11:53:17 2015-03-17T11:53:17Z 31.05692 -76.591803 60.0 87.639 52.457488 36.5641 22.4563 22.4439 1025.5418 25.2807 4.6646 95.069 3.29 -4.2301077 0.0
SAV-15-04 4 13 03/17/2015 11:53:17 2015-03-17T11:53:17Z 31.05692 -76.591803 61.0 89.1 52.449059 36.5649 22.4469 22.4343 1025.5512 25.284 4.6478 94.709 3.09 -4.2727099 0.0
SAV-15-04 4 13 03/17/2015 11:53:17 2015-03-17T11:53:17Z 31.05692 -76.591803 62.0 90.561 52.443946 36.5635 22.4434 22.4305 1025.5551 25.2841 4.6459 94.665 2.9 -4.1434121 0.0
SAV-15-04 4 13 03/17/2015 11:53:17 2015-03-17T11:53:17Z 31.05692 -76.591803 63.0 92.022 52.441419 36.5636 22.4406 22.4277 1025.5583 25.285 4.6353 94.446 2.74 -3.8161148 0.0
SAV-15-04 4 13 03/17/2015 11:53:17 2015-03-17T11:53:17Z 31.05692 -76.591803 64.0 93.483 52.437267 36.5642 22.4356 22.4224 1025.5656 25.2869 4.6236 94.198 2.59 -3.8558728 0.0
SAV-15-04 4 13 03/17/2015 11:53:17 2015-03-17T11:53:17Z 31.05692 -76.591803 65.0 94.944 52.425266 36.5674 22.4198 22.4064 1025.5791 25.2939 4.6266 94.236 2.45 -3.954338 0.0
SAV-15-04 4 13 03/17/2015 11:53:17 2015-03-17T11:53:17Z 31.05692 -76.591803 66.0 96.405 52.417303 36.5664 22.4133 22.3997 1025.5831 25.2951 4.6278 94.248 2.31 -4.7917008 0.0
SAV-15-04 4 13 03/17/2015 11:53:17 2015-03-17T11:53:17Z 31.05692 -76.591803 67.0 97.866 52.411725 36.5668 22.4074 22.3937 1025.5876 25.2971 4.6286 94.255 2.18 -3.4307802 0.0
SAV-15-04 4 13 03/17/2015 11:53:17 2015-03-17T11:53:17Z 31.05692 -76.591803 68.0 99.327 52.39937 36.5688 22.393 22.379 1025.5982 25.3028 4.5973 93.594 2.07 -4.4024078 0.0
SAV-15-04 4 13 03/17/2015 11:53:17 2015-03-17T11:53:17Z 31.05692 -76.591803 69.0 100.787 52.378837 36.5735 22.3675 22.3533 1025.6162 25.3138 4.5941 93.491 1.96 -3.5781994 0.0
SAV-15-04 4 13 03/17/2015 11:53:17 2015-03-17T11:53:17Z 31.05692 -76.591803 70.0 102.248 52.362735 36.5727 22.3532 22.3388 1025.6224 25.3172 4.5932 93.448 1.85 -4.2461995 0.0
SAV-15-04 4 13 03/17/2015 11:53:17 2015-03-17T11:53:17Z 31.05692 -76.591803 71.0 103.709 52.333542 36.5758 22.3219 22.3075 1025.6363 25.3285 4.5718 92.963 1.76 -3.3296948 0.0
SAV-15-04 4 13 03/17/2015 11:53:17 2015-03-17T11:53:17Z 31.05692 -76.591803 72.0 105.17 52.281882 36.5879 22.2587 22.2439 1025.6699 25.3558 4.5438 92.298 1.68 -3.1616976 0.0
SAV-15-04 4 13 03/17/2015 11:53:17 2015-03-17T11:53:17Z 31.05692 -76.591803 73.0 106.631 52.215554 36.5918 22.1915 22.1766 1025.6978 25.3779 4.5423 92.16 1.6 -3.1701861 0.0
SAV-15-04 4 13 03/17/2015 11:53:17 2015-03-17T11:53:17Z 31.05692 -76.591803 74.0 108.093 52.161727 36.5981 22.1333 22.1182 1025.7226 25.3993 4.5358 91.937 1.53 -3.4659794 0.0
SAV-15-04 4 13 03/17/2015 11:53:17 2015-03-17T11:53:17Z 31.05692 -76.591803 75.0 109.553 52.131259 36.5918 22.1121 22.0969 1025.726 25.4005 4.5221 91.622 1.46 -4.162418 0.0
SAV-15-04 4 13 03/17/2015 11:53:17 2015-03-17T11:53:17Z 31.05692 -76.591803 76.0 111.014 52.081499 36.5892 22.0682 22.0528 1025.7408 25.411 4.4969 91.04 1.4 -4.2577893 0.0
SAV-15-04 4 13 03/17/2015 11:53:17 2015-03-17T11:53:17Z 31.05692 -76.591803 77.0 112.475 52.062808 36.589 22.0506 22.035 1025.7501 25.4159 4.5077 91.23 1.34 -2.8463439 0.0
SAV-15-04 4 13 03/17/2015 11:53:17 2015-03-17T11:53:17Z 31.05692 -76.591803 78.0 113.936 51.992839 36.6031 21.9675 21.9516 1025.7928 25.4502 4.5312 91.579 1.28 -3.1050883 0.0
SAV-15-04 4 13 03/17/2015 11:53:17 2015-03-17T11:53:17Z 31.05692 -76.591803 79.0 115.397 51.95893 36.5976 21.9419 21.9258 1025.7998 25.4532 4.5265 91.439 1.23 -3.4357678 0.0
SAV-15-04 4 13 03/17/2015 11:53:17 2015-03-17T11:53:17Z 31.05692 -76.591803 80.0 116.858 51.950396 36.5917 21.9407 21.9246 1025.7975 25.4491 4.5229 91.36 1.18 -3.5860312 0.0
SAV-15-04 4 13 03/17/2015 11:53:17 2015-03-17T11:53:17Z 31.05692 -76.591803 81.0 118.319 51.945248 36.589 21.9388 21.9225 1025.7987 25.4476 4.507 91.034 1.14 -3.1520245 0.0
SAV-15-04 4 13 03/17/2015 11:53:17 2015-03-17T11:53:17Z 31.05692 -76.591803 82.0 119.78 51.939581 36.5883 21.9335 21.9169 1025.8072 25.4487 4.5181 91.25 1.1 -4.3170062 0.0
SAV-15-04 4 13 03/17/2015 11:53:17 2015-03-17T11:53:17Z 31.05692 -76.591803 83.0 121.241 51.934031 36.5892 21.927 21.9102 1025.8131 25.4513 4.5335 91.551 1.05 -4.3124421 0.0
SAV-15-04 4 13 03/17/2015 11:53:17 2015-03-17T11:53:17Z 31.05692 -76.591803 84.0 122.703 51.930243 36.5877 21.9249 21.908 1025.8157 25.4507 4.5381 91.639 1.01 -4.1778403 0.0
SAV-15-04 4 13 03/17/2015 11:53:17 2015-03-17T11:53:17Z 31.05692 -76.591803 85.0 124.163 51.924298 36.587 21.9198 21.9027 1025.8199 25.4517 4.5307 91.482 0.976 -3.7915646 0.0
SAV-15-04 4 13 03/17/2015 11:53:17 2015-03-17T11:53:17Z 31.05692 -76.591803 86.0 125.624 51.914312 36.5913 21.9046 21.887 1025.8365 25.4594 4.5284 91.413 0.938 -3.618204 0.0
SAV-15-04 4 13 03/17/2015 11:53:17 2015-03-17T11:53:17Z 31.05692 -76.591803 87.0 127.085 51.906556 36.5938 21.8939 21.8761 1025.8461 25.4644 4.5371 91.573 0.9 -4.2790796 0.0
SAV-15-04 4 13 03/17/2015 11:53:17 2015-03-17T11:53:17Z 31.05692 -76.591803 88.0 128.547 51.905679 36.5911 21.896 21.8781 1025.846 25.4618 4.5443 91.719 0.866 -4.629132 0.0
SAV-15-04 4 13 03/17/2015 11:53:17 2015-03-17T11:53:17Z 31.05692 -76.591803 89.0 130.008 51.895158 36.5962 21.88 21.8621 1025.8559 25.4701 4.5256 91.318 0.837 -4.0590486 0.0
SAV-15-04 4 13 03/17/2015 11:53:17 2015-03-17T11:53:17Z 31.05692 -76.591803 90.0 131.468 51.864671 36.6013 21.8447 21.8264 1025.878 25.484 4.5133 91.015 0.813 -3.6268224 0.0
SAV-15-04 4 13 03/17/2015 11:53:17 2015-03-17T11:53:17Z 31.05692 -76.591803 91.0 132.93 51.847749 36.6066 21.8219 21.8034 1025.894 25.4946 4.5189 91.097 0.786 -3.8657275 0.0
SAV-15-04 4 13 03/17/2015 11:53:17 2015-03-17T11:53:17Z 31.05692 -76.591803 92.0 134.392 51.832472 36.6003 21.8148 21.7962 1025.8941 25.4917 4.5402 91.51 0.752 -4.2265315 0.0
SAV-15-04 4 13 03/17/2015 11:53:17 2015-03-17T11:53:17Z 31.05692 -76.591803 93.0 135.852 51.833923 36.5966 21.8205 21.8018 1025.8906 25.4874 4.5319 91.351 0.724 -3.8503372 0.0
SAV-15-04 4 13 03/17/2015 11:53:17 2015-03-17T11:53:17Z 31.05692 -76.591803 94.0 137.313 51.822252 36.6074 21.7964 21.7775 1025.9096 25.5024 4.5118 90.911 0.702 -3.1946798 0.0
SAV-15-04 4 13 03/17/2015 11:53:17 2015-03-17T11:53:17Z 31.05692 -76.591803 95.0 138.774 51.746418 36.6203 21.7093 21.69 1025.9529 25.5368 4.5414 91.372 0.671 -3.7410111 0.0
SAV-15-04 4 13 03/17/2015 11:53:17 2015-03-17T11:53:17Z 31.05692 -76.591803 96.0 140.235 51.717614 36.603 21.7023 21.683 1025.945 25.5256 4.5519 91.564 0.65 -3.6122152 0.0
SAV-15-04 4 13 03/17/2015 11:53:17 2015-03-17T11:53:17Z 31.05692 -76.591803 97.0 141.696 51.707741 36.5972 21.6997 21.6802 1025.9436 25.5219 4.5621 91.762 0.629 -3.4062696 0.0
SAV-15-04 4 13 03/17/2015 11:53:17 2015-03-17T11:53:17Z 31.05692 -76.591803 98.0 143.158 51.702075 36.5961 21.6954 21.6758 1025.9469 25.5223 4.5623 91.759 0.61 -3.9507539 0.0
SAV-15-04 4 13 03/17/2015 11:53:17 2015-03-17T11:53:17Z 31.05692 -76.591803 99.0 144.618 51.689308 36.5968 21.682 21.6622 1025.9572 25.5266 4.584 92.173 0.592 -4.1360532 0.0
SAV-15-04 4 13 03/17/2015 11:53:17 2015-03-17T11:53:17Z 31.05692 -76.591803 100.0 146.08 51.657358 36.6038 21.6434 21.6234 1025.9779 25.5428 4.5914 92.261 0.571 -4.3066737 0.0
SAV-15-04 4 13 03/17/2015 11:53:17 2015-03-17T11:53:17Z 31.05692 -76.591803 101.0 147.541 51.615346 36.5939 21.6152 21.595 1025.9828 25.5432 4.5945 92.273 0.553 -3.4942386 0.0
SAV-15-04 4 13 03/17/2015 11:53:17 2015-03-17T11:53:17Z 31.05692 -76.591803 102.0 149.002 51.605795 36.5897 21.6107 21.5903 1025.9854 25.5413 4.5858 92.09 0.534 -4.2475861 0.0
SAV-15-04 4 13 03/17/2015 11:53:17 2015-03-17T11:53:17Z 31.05692 -76.591803 103.0 150.463 51.600487 36.5904 21.6046 21.5841 1025.9905 25.5437 4.6089 92.543 0.518 -3.4079663 0.0
SAV-15-04 4 13 03/17/2015 11:53:17 2015-03-17T11:53:17Z 31.05692 -76.591803 104.0 151.924 51.585965 36.5875 21.594 21.5734 1025.9948 25.5444 4.5952 92.249 0.502 -3.312885 0.0
SAV-15-04 4 13 03/17/2015 11:53:17 2015-03-17T11:53:17Z 31.05692 -76.591803 105.0 153.386 51.581577 36.5857 21.5914 21.5703 1026.0009 25.5439 4.5907 92.154 0.486 -2.8286753 0.0
SAV-15-04 4 13 03/17/2015 11:53:17 2015-03-17T11:53:17Z 31.05692 -76.591803 106.0 154.847 51.583067 36.5861 21.5917 21.5705 1026.0074 25.5441 4.5941 92.222 0.471 -3.0985586 0.0
SAV-15-04 4 13 03/17/2015 11:53:17 2015-03-17T11:53:17Z 31.05692 -76.591803 107.0 156.308 51.581931 36.5911 21.5844 21.5629 1026.0174 25.55 4.6031 92.394 0.457 -3.1340435 0.0
SAV-15-04 4 13 03/17/2015 11:53:17 2015-03-17T11:53:17Z 31.05692 -76.591803 108.0 157.769 51.570858 36.5919 21.5728 21.5513 1026.0237 25.5539 4.6149 92.61 0.444 -3.1050994 0.0
SAV-15-04 4 13 03/17/2015 11:53:17 2015-03-17T11:53:17Z 31.05692 -76.591803 109.0 159.23 51.553091 36.5887 21.5597 21.538 1026.0274 25.5552 4.618 92.651 0.431 -3.9886409 0.0
SAV-15-04 4 13 03/17/2015 11:53:17 2015-03-17T11:53:17Z 31.05692 -76.591803 110.0 160.691 51.539177 36.5876 21.5474 21.5255 1026.0352 25.5578 4.6117 92.504 0.421 -4.2887335 0.0
SAV-15-04 4 13 03/17/2015 11:53:17 2015-03-17T11:53:17Z 31.05692 -76.591803 111.0 162.153 51.520895 36.5863 21.5312 21.509 1026.0448 25.5614 4.6068 92.379 0.409 -3.6925028 0.0
SAV-15-04 4 13 03/17/2015 11:53:17 2015-03-17T11:53:17Z 31.05692 -76.591803 112.0 163.614 51.516698 36.5832 21.5304 21.5081 1026.0465 25.5594 4.6089 92.417 0.397 -3.60364 0.0
SAV-15-04 4 13 03/17/2015 11:53:17 2015-03-17T11:53:17Z 31.05692 -76.591803 113.0 165.075 51.516934 36.5829 21.5307 21.5082 1026.0496 25.5591 4.6092 92.423 0.386 -3.5744575 0.0
SAV-15-04 4 13 03/17/2015 11:53:17 2015-03-17T11:53:17Z 31.05692 -76.591803 114.0 166.537 51.513776 36.5837 21.5265 21.5039 1026.0548 25.5609 4.626 92.754 0.376 -4.0205133 0.0
SAV-15-04 4 13 03/17/2015 11:53:17 2015-03-17T11:53:17Z 31.05692 -76.591803 115.0 167.998 51.50343 36.5846 21.515 21.492 1026.0662 25.5649 4.6482 93.179 0.366 -4.1372322 0.0
SAV-15-04 4 13 03/17/2015 11:53:17 2015-03-17T11:53:17Z 31.05692 -76.591803 116.0 169.459 51.499072 36.588 21.5063 21.4831 1026.0767 25.57 4.6512 93.228 0.355 -4.070434 0.0
SAV-15-04 4 13 03/17/2015 11:53:17 2015-03-17T11:53:17Z 31.05692 -76.591803 117.0 170.92 51.492094 36.5923 21.4944 21.4711 1026.0868 25.5766 4.6437 93.059 0.345 -3.9016255 0.0
SAV-15-04 4 13 03/17/2015 11:53:17 2015-03-17T11:53:17Z 31.05692 -76.591803 118.0 172.382 51.481393 36.587 21.4904 21.467 1026.0857 25.5737 4.6457 93.09 0.336 -3.8773434 0.0
SAV-15-04 4 13 03/17/2015 11:53:17 2015-03-17T11:53:17Z 31.05692 -76.591803 119.0 173.843 51.476294 36.5868 21.4856 21.4621 1026.0896 25.5749 4.6471 93.11 0.329 -3.5092107 0.0
SAV-15-04 4 13 03/17/2015 11:53:17 2015-03-17T11:53:17Z 31.05692 -76.591803 120.0 175.304 51.462703 36.593 21.4646 21.4406 1026.1103 25.5856 4.659 93.317 0.321 -3.2511997 0.0
SAV-15-04 4 13 03/17/2015 11:53:17 2015-03-17T11:53:17Z 31.05692 -76.591803 121.0 176.766 51.447622 36.5915 21.4516 21.4274 1026.1182 25.5881 4.671 93.535 0.312 -3.2699983 0.0
SAV-15-04 4 13 03/17/2015 11:53:17 2015-03-17T11:53:17Z 31.05692 -76.591803 122.0 178.227 51.444709 36.5902 21.4503 21.426 1026.1193 25.5875 4.6808 93.729 0.304 -4.1606096 0.0
SAV-15-04 4 13 03/17/2015 11:53:17 2015-03-17T11:53:17Z 31.05692 -76.591803 123.0 179.688 51.445939 36.5896 21.4521 21.4277 1026.1188 25.5866 4.6414 92.943 0.298 -4.3864747 0.0
SAV-15-04 4 13 03/17/2015 11:53:17 2015-03-17T11:53:17Z 31.05692 -76.591803 124.0 181.149 51.440271 36.5973 21.4368 21.412 1026.1391 25.5968 4.6187 92.468 0.293 -3.5033034 0.0
SAV-15-04 4 13 03/17/2015 11:53:17 2015-03-17T11:53:17Z 31.05692 -76.591803 125.0 182.61 51.435634 36.5993 21.4298 21.4048 1026.1459 25.6003 4.6249 92.579 0.285 -3.536164 0.0
SAV-15-04 4 13 03/17/2015 11:53:17 2015-03-17T11:53:17Z 31.05692 -76.591803 126.0 184.072 51.432794 36.5982 21.4282 21.4032 1026.1473 25.5999 4.6295 92.669 0.277 -3.2694425 0.0
SAV-15-04 4 13 03/17/2015 11:53:17 2015-03-17T11:53:17Z 31.05692 -76.591803 127.0 185.533 51.43251 36.5979 21.428 21.4029 1026.1494 25.5998 4.5876 91.831 0.273 -3.9184851 0.0
SAV-15-04 4 13 03/17/2015 11:53:17 2015-03-17T11:53:17Z 31.05692 -76.591803 128.0 186.995 51.423782 36.6051 21.4107 21.3853 1026.1671 25.6102 4.5659 91.371 0.268 -3.2883171 0.0
SAV-15-04 4 13 03/17/2015 11:53:17 2015-03-17T11:53:17Z 31.05692 -76.591803 129.0 188.456 51.410785 36.6108 21.3915 21.3659 1026.1805 25.6198 4.5786 91.598 0.262 -3.2071358 0.0
SAV-15-04 4 13 03/17/2015 11:53:17 2015-03-17T11:53:17Z 31.05692 -76.591803 130.0 189.918 51.38636 36.6204 21.3569 21.3312 1026.2011 25.6368 4.5914 91.802 0.257 -3.2225516 0.0
SAV-15-04 4 13 03/17/2015 11:53:17 2015-03-17T11:53:17Z 31.05692 -76.591803 131.0 191.379 51.292699 36.6256 21.2625 21.2366 1026.2362 25.6669 4.5797 91.416 0.252 -3.3741504 0.0
SAV-15-04 4 13 03/17/2015 11:53:17 2015-03-17T11:53:17Z 31.05692 -76.591803 132.0 192.84 51.254808 36.6144 21.2396 21.2136 1026.2375 25.6647 4.5683 91.145 0.247 -3.6981246 0.0
SAV-15-04 4 13 03/17/2015 11:53:17 2015-03-17T11:53:17Z 31.05692 -76.591803 133.0 194.301 51.224848 36.6135 21.2121 21.1859 1026.2485 25.6717 4.5829 91.391 0.243 -3.4226839 0.0
SAV-15-04 4 13 03/17/2015 11:53:17 2015-03-17T11:53:17Z 31.05692 -76.591803 134.0 195.763 51.193144 36.6248 21.1686 21.1423 1026.274 25.6923 4.6116 91.897 0.238 -3.9521461 0.0
SAV-15-04 4 13 03/17/2015 11:53:17 2015-03-17T11:53:17Z 31.05692 -76.591803 135.0 197.224 51.109334 36.6155 21.1001 21.0736 1026.2915 25.7042 4.6411 92.367 0.235 -3.090866 0.0
SAV-15-04 4 13 03/17/2015 11:53:17 2015-03-17T11:53:17Z 31.05692 -76.591803 136.0 198.686 51.101899 36.6099 21.0991 21.0724 1026.2928 25.7002 4.659 92.719 0.23 -3.5954661 0.0
SAV-15-04 4 13 03/17/2015 11:53:17 2015-03-17T11:53:17Z 31.05692 -76.591803 137.0 200.147 51.099775 36.6095 21.0972 21.0703 1026.2964 25.7005 4.6801 93.136 0.227 -4.0902874 0.0
SAV-15-04 4 13 03/17/2015 11:53:17 2015-03-17T11:53:17Z 31.05692 -76.591803 138.0 201.608 51.095384 36.6086 21.094 21.067 1026.2986 25.7008 4.6773 93.074 0.223 -3.8139376 0.0
SAV-15-04 4 13 03/17/2015 11:53:17 2015-03-17T11:53:17Z 31.05692 -76.591803 139.0 203.07 51.080029 36.6073 21.0806 21.0534 1026.3066 25.7034 4.6437 92.381 0.22 -4.263531 0.0
SAV-15-04 4 13 03/17/2015 11:53:17 2015-03-17T11:53:17Z 31.05692 -76.591803 140.0 204.531 51.072512 36.6069 21.0732 21.0458 1026.3151 25.7053 4.6691 92.875 0.216 -3.236122 0.0
SAV-15-04 4 13 03/17/2015 11:53:17 2015-03-17T11:53:17Z 31.05692 -76.591803 141.0 205.993 51.066979 36.6061 21.0686 21.0408 1026.3202 25.706 4.6782 93.046 0.213 -3.2699983 0.0
SAV-15-04 4 13 03/17/2015 11:53:17 2015-03-17T11:53:17Z 31.05692 -76.591803 142.0 207.454 51.066822 36.6054 21.0689 21.041 1026.3226 25.7054 4.6818 93.119 0.21 -3.3471973 0.0
SAV-15-04 4 13 03/17/2015 11:53:17 2015-03-17T11:53:17Z 31.05692 -76.591803 143.0 208.916 51.066075 36.6058 21.0676 21.0397 1026.3256 25.7061 4.6647 92.777 0.207 -3.4355078 0.0
SAV-15-04 4 13 03/17/2015 11:53:17 2015-03-17T11:53:17Z 31.05692 -76.591803 144.0 210.377 51.062668 36.6068 21.0623 21.0339 1026.337 25.7084 4.6711 92.895 0.204 -2.6591721 0.0
SAV-15-04 4 13 03/17/2015 11:53:17 2015-03-17T11:53:17Z 31.05692 -76.591803 145.0 211.839 51.057815 36.6079 21.0561 21.0276 1026.3428 25.711 4.6776 93.017 0.202 -4.7896088 0.0
SAV-15-04 4 13 03/17/2015 11:53:17 2015-03-17T11:53:17Z 31.05692 -76.591803 146.0 213.3 51.053962 36.6063 21.0542 21.0255 1026.3448 25.7103 4.6819 93.098 0.199 -4.7788779 0.0
SAV-15-04 4 13 03/17/2015 11:53:17 2015-03-17T11:53:17Z 31.05692 -76.591803 147.0 214.762 51.0532 36.6055 21.0541 21.0254 1026.3466 25.7098 4.6696 92.852 0.197 -4.1053012 0.0
SAV-15-04 4 13 03/17/2015 11:53:17 2015-03-17T11:53:17Z 31.05692 -76.591803 148.0 216.223 51.050918 36.6056 21.0513 21.0224 1026.3529 25.7107 4.6652 92.759 0.195 -3.8496921 0.0
SAV-15-04 4 13 03/17/2015 11:53:17 2015-03-17T11:53:17Z 31.05692 -76.591803 149.0 217.685 51.047938 36.6063 21.0471 21.0179 1026.3599 25.7125 4.6667 92.783 0.192 -2.9740439 0.0
SAV-15-04 4 13 03/17/2015 11:53:17 2015-03-17T11:53:17Z 31.05692 -76.591803 150.0 219.146 51.039365 36.6083 21.0363 21.0069 1026.3691 25.717 4.658 92.593 0.19 -2.7126551 0.0
SAV-15-04 4 13 03/17/2015 11:53:17 2015-03-17T11:53:17Z 31.05692 -76.591803 151.0 220.608 51.028179 36.6088 21.0247 20.9951 1026.3778 25.7206 4.6582 92.578 0.188 -3.0588553 0.0
SAV-15-04 4 13 03/17/2015 11:53:17 2015-03-17T11:53:17Z 31.05692 -76.591803 152.0 222.069 51.021629 36.6067 21.0207 20.991 1026.3803 25.7202 4.6681 92.766 0.186 -3.7272107 0.0
SAV-15-04 4 13 03/17/2015 11:53:17 2015-03-17T11:53:17Z 31.05692 -76.591803 153.0 223.531 51.019515 36.6062 21.019 20.9892 1026.3829 25.7203 4.673 92.863 0.185 -3.591764 0.0
SAV-15-04 4 13 03/17/2015 11:53:17 2015-03-17T11:53:17Z 31.05692 -76.591803 154.0 224.992 51.016632 36.6074 21.0142 20.9841 1026.3921 25.7226 4.6759 92.911 0.183 -4.296964 0.0
SAV-15-04 4 13 03/17/2015 11:53:17 2015-03-17T11:53:17Z 31.05692 -76.591803 155.0 226.454 51.017013 36.608 21.0135 20.9832 1026.397 25.7233 4.6648 92.689 0.182 -4.3183996 0.0
SAV-15-04 4 13 03/17/2015 11:53:17 2015-03-17T11:53:17Z 31.05692 -76.591803 156.0 227.915 51.009775 36.6098 21.0042 20.9737 1026.4053 25.7272 4.6841 93.059 0.18 -3.6643465 0.0
SAV-15-04 4 13 03/17/2015 11:53:17 2015-03-17T11:53:17Z 31.05692 -76.591803 157.0 229.377 51.003406 36.6068 21.0013 20.9706 1026.4074 25.7259 4.6842 93.055 0.178 -3.439688 0.0
SAV-15-04 4 13 03/17/2015 11:53:17 2015-03-17T11:53:17Z 31.05692 -76.591803 158.0 230.839 51.002196 36.6071 20.9996 20.9688 1026.4109 25.7265 4.6701 92.773 0.177 -3.402032 0.0
SAV-15-04 4 13 03/17/2015 11:53:17 2015-03-17T11:53:17Z 31.05692 -76.591803 159.0 232.3 50.998641 36.6093 20.9931 20.962 1026.4205 25.7301 4.6695 92.751 0.175 -3.8876531 0.0
SAV-15-04 4 13 03/17/2015 11:53:17 2015-03-17T11:53:17Z 31.05692 -76.591803 160.0 233.761 50.989974 36.6092 20.9845 20.9532 1026.4282 25.7323 4.6825 92.994 0.174 -3.7227093 0.0
SAV-15-04 4 13 03/17/2015 11:53:17 2015-03-17T11:53:17Z 31.05692 -76.591803 161.0 235.223 50.987976 36.6091 20.9823 20.9508 1026.4329 25.733 4.6884 93.108 0.172 -3.5532757 0.0
SAV-15-04 4 13 03/17/2015 11:53:17 2015-03-17T11:53:17Z 31.05692 -76.591803 162.0 236.685 50.983497 36.6082 20.9788 20.9472 1026.4365 25.7333 4.689 93.114 0.171 -2.9805571 0.0
SAV-15-04 4 13 03/17/2015 11:53:17 2015-03-17T11:53:17Z 31.05692 -76.591803 163.0 238.147 50.979235 36.6085 20.9742 20.9425 1026.4409 25.7348 4.663 92.589 0.17 -3.5943445 0.0
SAV-15-04 4 13 03/17/2015 11:53:17 2015-03-17T11:53:17Z 31.05692 -76.591803 164.0 239.608 50.974131 36.6091 20.9681 20.936 1026.4498 25.737 4.6788 92.892 0.169 -3.4040993 0.0
SAV-15-04 4 13 03/17/2015 11:53:17 2015-03-17T11:53:17Z 31.05692 -76.591803 165.0 241.07 50.971363 36.6093 20.9646 20.9323 1026.4564 25.7382 4.6898 93.106 0.168 -2.8148776 0.0
SAV-15-04 4 13 03/17/2015 11:53:17 2015-03-17T11:53:17Z 31.05692 -76.591803 166.0 242.531 50.970066 36.6085 20.964 20.9316 1026.4594 25.7378 4.6947 93.203 0.167 -4.4013659 0.0
SAV-15-04 4 13 03/17/2015 11:53:17 2015-03-17T11:53:17Z 31.05692 -76.591803 167.0 243.993 50.970613 36.6088 20.9639 20.9313 1026.4622 25.7381 4.6922 93.153 0.166 -3.8743354 0.0
SAV-15-04 4 13 03/17/2015 11:53:17 2015-03-17T11:53:17Z 31.05692 -76.591803 168.0 245.455 50.970685 36.609 20.9635 20.9308 1026.4658 25.7384 4.6743 92.797 0.165 -3.5195214 0.0
SAV-15-04 4 13 03/17/2015 11:53:17 2015-03-17T11:53:17Z 31.05692 -76.591803 169.0 246.916 50.969748 36.6095 20.9614 20.9283 1026.474 25.7394 4.6848 93.001 0.164 -3.5762057 0.0
SAV-15-04 4 13 03/17/2015 11:53:17 2015-03-17T11:53:17Z 31.05692 -76.591803 170.0 248.378 50.967448 36.6108 20.9571 20.9238 1026.4809 25.7417 4.6901 93.1 0.163 -3.5402343 0.0
SAV-15-04 4 13 03/17/2015 11:53:17 2015-03-17T11:53:17Z 31.05692 -76.591803 171.0 249.839 50.965888 36.6104 20.9558 20.9223 1026.4849 25.7418 4.6974 93.243 0.162 -3.3881485 0.0
SAV-15-04 4 13 03/17/2015 11:53:17 2015-03-17T11:53:17Z 31.05692 -76.591803 172.0 251.301 50.966941 36.6111 20.9557 20.9222 1026.4878 25.7423 4.6952 93.2 0.161 -3.9211687 0.0
SAV-15-04 4 13 03/17/2015 11:53:17 2015-03-17T11:53:17Z 31.05692 -76.591803 173.0 252.763 50.966222 36.6107 20.9551 20.9214 1026.4918 25.7423 4.6739 92.775 0.161 -4.3189357 0.0
SAV-15-04 4 13 03/17/2015 11:53:17 2015-03-17T11:53:17Z 31.05692 -76.591803 174.0 254.225 50.967924 36.6117 20.9548 20.9207 1026.5005 25.7432 4.6666 92.63 0.16 -3.4309425 0.0
SAV-15-04 4 13 03/17/2015 11:53:17 2015-03-17T11:53:17Z 31.05692 -76.591803 175.0 255.686 50.969856 36.6121 20.9557 20.9216 1026.5043 25.7433 4.663 92.562 0.159 -3.3983045 0.0
SAV-15-04 4 13 03/17/2015 11:53:17 2015-03-17T11:53:17Z 31.05692 -76.591803 176.0 257.148 50.974639 36.6138 20.9581 20.9237 1026.5073 25.744 4.6552 92.41 0.158 -3.0202516 0.0
SAV-15-04 4 13 03/17/2015 11:53:17 2015-03-17T11:53:17Z 31.05692 -76.591803 177.0 258.609 51.002128 36.6218 20.9744 20.9399 1026.5119 25.7457 4.6308 91.957 0.158 -3.5660885 0.0
SAV-15-04 4 13 03/17/2015 11:53:17 2015-03-17T11:53:17Z 31.05692 -76.591803 178.0 260.071 51.047176 36.6512 20.9819 20.9471 1026.5386 25.7661 4.5513 90.406 0.157 -3.9074661 0.0
SAV-15-04 4 13 03/17/2015 11:53:17 2015-03-17T11:53:17Z 31.05692 -76.591803 179.0 261.533 51.038126 36.6704 20.9505 20.9154 1026.5681 25.7894 4.4635 88.622 0.156 -3.8136393 0.0
SAV-15-04 4 13 03/17/2015 11:53:17 2015-03-17T11:53:17Z 31.05692 -76.591803 180.0 262.994 51.013352 36.6726 20.9241 20.889 1026.5815 25.7983 4.3887 87.099 0.156 -3.0408513 0.0
SAV-15-04 4 13 03/17/2015 11:53:17 2015-03-17T11:53:17Z 31.05692 -76.591803 181.0 264.456 50.996578 36.6689 20.9126 20.8773 1026.5837 25.7987 4.3118 85.553 0.155 -2.6605947 0.0
SAV-15-04 4 13 03/17/2015 11:53:17 2015-03-17T11:53:17Z 31.05692 -76.591803 182.0 265.918 50.988322 36.6677 20.9059 20.8705 1026.5874 25.7996 4.2084 83.49 0.155 -2.8420679 0.0
SAV-15-04 4 13 03/17/2015 11:53:17 2015-03-17T11:53:17Z 31.05692 -76.591803 183.0 267.38 50.943696 36.6856 20.8424 20.8068 1026.6257 25.8307 4.2163 83.559 0.154 -3.0542394 0.0
SAV-15-04 4 13 03/17/2015 11:53:17 2015-03-17T11:53:17Z 31.05692 -76.591803 184.0 268.842 50.888515 36.6776 20.7993 20.7635 1026.6365 25.8364 4.2248 83.658 0.153 -3.0535293 0.0
SAV-15-04 4 13 03/17/2015 11:53:17 2015-03-17T11:53:17Z 31.05692 -76.591803 185.0 270.303 50.849798 36.6728 20.7681 20.7322 1026.6451 25.8413 4.2298 83.708 0.153 -2.734999 0.0
SAV-15-04 4 13 03/17/2015 11:53:17 2015-03-17T11:53:17Z 31.05692 -76.591803 186.0 271.765 50.843298 36.6661 20.7696 20.7335 1026.6417 25.8358 4.2221 83.556 0.152 -2.595875 0.0
SAV-15-04 4 13 03/17/2015 11:53:17 2015-03-17T11:53:17Z 31.05692 -76.591803 187.0 273.227 50.867119 36.6726 20.784 20.7477 1026.6479 25.8368 4.2073 83.287 0.152 -2.0157067 0.0
SAV-15-04 4 13 03/17/2015 11:53:17 2015-03-17T11:53:17Z 31.05692 -76.591803 188.0 274.689 50.906582 36.6922 20.7978 20.7612 1026.6649 25.8481 4.1865 82.905 0.152 -1.8509401 0.0
SAV-15-04 4 13 03/17/2015 11:53:17 2015-03-17T11:53:17Z 31.05692 -76.591803 189.0 276.15 50.902315 36.6956 20.7894 20.7528 1026.6732 25.853 4.1529 82.23 0.151 -2.4681739 0.0
SAV-15-04 4 13 03/17/2015 11:53:17 2015-03-17T11:53:17Z 31.05692 -76.591803 190.0 277.612 50.89147 36.6949 20.7797 20.7429 1026.6788 25.8552 4.1034 81.234 0.151 -2.188737 0.0
SAV-15-04 4 13 03/17/2015 11:53:17 2015-03-17T11:53:17Z 31.05692 -76.591803 191.0 279.074 50.87326 36.6958 20.7611 20.7242 1026.6886 25.861 4.0606 80.36 0.151 -1.4903742 0.0
SAV-15-04 4 13 03/17/2015 11:53:17 2015-03-17T11:53:17Z 31.05692 -76.591803 192.0 280.536 50.8091 36.6929 20.7036 20.6665 1026.7078 25.8744 4.0813 80.686 0.15 -3.6600107 0.0
SAV-15-04 4 13 03/17/2015 11:53:17 2015-03-17T11:53:17Z 31.05692 -76.591803 193.0 281.997 50.716158 36.6942 20.6141 20.5768 1026.7384 25.8998 4.1177 81.274 0.15 -3.1673271 0.0
SAV-15-04 4 13 03/17/2015 11:53:17 2015-03-17T11:53:17Z 31.05692 -76.591803 194.0 283.46 50.65636 36.6698 20.5855 20.548 1026.7331 25.889 4.1427 81.715 0.15 -3.4647017 0.0
SAV-15-04 4 13 03/17/2015 11:53:17 2015-03-17T11:53:17Z 31.05692 -76.591803 195.0 284.921 50.633271 36.6728 20.5599 20.5223 1026.7456 25.8982 4.1719 82.253 0.149 -2.922452 0.0
SAV-15-04 4 13 03/17/2015 11:53:17 2015-03-17T11:53:17Z 31.05692 -76.591803 196.0 286.383 50.617163 36.6621 20.5569 20.5193 1026.7402 25.8909 4.205 82.896 0.149 -2.8701819 0.0
SAV-15-04 4 13 03/17/2015 11:53:17 2015-03-17T11:53:17Z 31.05692 -76.591803 197.0 287.845 50.58033 36.6747 20.5069 20.4689 1026.7723 25.914 4.2129 82.983 0.149 -1.7151689 0.0
SAV-15-04 4 13 03/17/2015 11:53:17 2015-03-17T11:53:17Z 31.05692 -76.591803 198.0 289.307 50.511079 36.6635 20.454 20.416 1026.782 25.9198 4.2186 83.009 0.148 -1.6561958 0.0
SAV-15-04 4 13 03/17/2015 11:53:17 2015-03-17T11:53:17Z 31.05692 -76.591803 199.0 290.769 50.479414 36.6508 20.4386 20.4004 1026.7789 25.9143 4.2125 82.86 0.148 -2.446544 0.0
SAV-15-04 4 13 03/17/2015 11:53:17 2015-03-17T11:53:17Z 31.05692 -76.591803 200.0 292.23 50.462811 36.647 20.4271 20.3889 1026.7814 25.9146 4.2081 82.755 0.148 -2.3309594 0.0
SAV-15-04 4 13 03/17/2015 11:53:17 2015-03-17T11:53:17Z 31.05692 -76.591803 201.0 293.692 50.410604 36.6275 20.4004 20.3622 1026.7734 25.9069 4.2477 83.484 0.149 -3.1485014 0.0
SAV-15-04 5 14 03/17/2015 15:30:57 2015-03-17T15:30:57Z 31.075522 -76.849018 2.0 2.921 53.107529 36.6865 22.9407 22.9403 1025.2393 25.2306 4.3239 88.937 1590.0 -4.4011168 0.0
SAV-15-04 5 14 03/17/2015 15:30:57 2015-03-17T15:30:57Z 31.075522 -76.849018 3.0 4.381 53.049292 36.6471 22.9329 22.9323 1025.2179 25.2031 4.9147 101.056 1240.0 -4.0209592 0.0
SAV-15-04 5 14 03/17/2015 15:30:57 2015-03-17T15:30:57Z 31.075522 -76.849018 4.0 5.841 53.070793 36.6596 22.9377 22.9368 1025.2293 25.2113 4.7075 96.808 1130.0 -4.1712059 0.0
SAV-15-04 5 14 03/17/2015 15:30:57 2015-03-17T15:30:57Z 31.075522 -76.849018 5.0 7.302 53.069947 36.661 22.9345 22.9332 1025.2398 25.2134 4.7269 97.201 1110.0 -4.6947993 0.0
SAV-15-04 5 14 03/17/2015 15:30:57 2015-03-17T15:30:57Z 31.075522 -76.849018 6.0 8.763 53.065424 36.6607 22.9305 22.9292 1025.2423 25.2143 4.7147 96.946 1480.0 -4.3544779 0.0
SAV-15-04 5 14 03/17/2015 15:30:57 2015-03-17T15:30:57Z 31.075522 -76.849018 7.0 10.223 53.062391 36.6597 22.9284 22.9269 1025.2461 25.2142 4.7191 97.032 680.0 -2.9866128 0.0
SAV-15-04 5 14 03/17/2015 15:30:57 2015-03-17T15:30:57Z 31.075522 -76.849018 8.0 11.683 53.060394 36.6591 22.9267 22.9248 1025.2526 25.2144 4.7336 97.326 886.0 -3.6030849 0.0
SAV-15-04 5 14 03/17/2015 15:30:57 2015-03-17T15:30:57Z 31.075522 -76.849018 9.0 13.144 53.057091 36.6594 22.9232 22.9213 1025.2552 25.2156 4.7101 96.837 894.0 -4.3627174 0.0
SAV-15-04 5 14 03/17/2015 15:30:57 2015-03-17T15:30:57Z 31.075522 -76.849018 10.0 14.605 53.051143 36.6594 22.9169 22.9146 1025.2647 25.2175 4.6997 96.613 805.0 -4.1104432 0.0
SAV-15-04 5 14 03/17/2015 15:30:57 2015-03-17T15:30:57Z 31.075522 -76.849018 11.0 16.065 53.048462 36.6587 22.9148 22.9122 1025.2697 25.2177 4.7065 96.748 586.0 -3.5266702 0.0
SAV-15-04 5 14 03/17/2015 15:30:57 2015-03-17T15:30:57Z 31.075522 -76.849018 12.0 17.526 53.047842 36.6584 22.9144 22.9118 1025.2713 25.2176 4.7092 96.804 746.0 -4.6567928 0.0
SAV-15-04 5 14 03/17/2015 15:30:57 2015-03-17T15:30:57Z 31.075522 -76.849018 13.0 18.987 53.050178 36.6582 22.9165 22.9137 1025.2742 25.2169 4.7118 96.86 727.0 -4.464549 0.0
SAV-15-04 5 14 03/17/2015 15:30:57 2015-03-17T15:30:57Z 31.075522 -76.849018 14.0 20.447 53.050055 36.6581 22.9158 22.9128 1025.2802 25.2171 4.7021 96.658 574.0 -4.9150421 0.0
SAV-15-04 5 14 03/17/2015 15:30:57 2015-03-17T15:30:57Z 31.075522 -76.849018 15.0 21.907 53.051567 36.6588 22.9159 22.9126 1025.2857 25.2177 4.7004 96.626 544.0 -4.8931494 0.0
SAV-15-04 5 14 03/17/2015 15:30:57 2015-03-17T15:30:57Z 31.075522 -76.849018 16.0 23.368 53.049667 36.6586 22.9141 22.9107 1025.2892 25.2181 4.7154 96.931 560.0 -4.8946825 0.0
SAV-15-04 5 14 03/17/2015 15:30:57 2015-03-17T15:30:57Z 31.075522 -76.849018 17.0 24.829 53.049315 36.6578 22.9144 22.9108 1025.2921 25.2175 4.7175 96.973 564.0 -4.454555 0.0
SAV-15-04 5 14 03/17/2015 15:30:57 2015-03-17T15:30:57Z 31.075522 -76.849018 18.0 26.289 53.044158 36.6604 22.9058 22.9019 1025.3033 25.222 4.7122 96.85 542.0 -4.4491921 0.0
SAV-15-04 5 14 03/17/2015 15:30:57 2015-03-17T15:30:57Z 31.075522 -76.849018 19.0 27.75 53.032003 36.6586 22.8964 22.8923 1025.308 25.2234 4.7082 96.752 513.0 -4.9145119 0.0
SAV-15-04 5 14 03/17/2015 15:30:57 2015-03-17T15:30:57Z 31.075522 -76.849018 20.0 29.21 53.035565 36.6564 22.9021 22.8979 1025.3074 25.2201 4.7102 96.802 504.0 -4.417388 0.0
SAV-15-04 5 14 03/17/2015 15:30:57 2015-03-17T15:30:57Z 31.075522 -76.849018 21.0 30.671 53.040935 36.6575 22.905 22.9005 1025.3144 25.2202 4.7194 96.996 482.0 -4.9412244 0.0
SAV-15-04 5 14 03/17/2015 15:30:57 2015-03-17T15:30:57Z 31.075522 -76.849018 22.0 32.131 53.040145 36.6574 22.9041 22.8994 1025.3178 25.2204 4.71 96.801 485.0 -4.900296 0.0
SAV-15-04 5 14 03/17/2015 15:30:57 2015-03-17T15:30:57Z 31.075522 -76.849018 23.0 33.592 53.040676 36.6567 22.9051 22.9003 1025.3201 25.2197 4.7235 97.082 433.0 -4.9055398 0.0
SAV-15-04 5 14 03/17/2015 15:30:57 2015-03-17T15:30:57Z 31.075522 -76.849018 24.0 35.052 53.037304 36.6588 22.899 22.8939 1025.3291 25.2231 4.7169 96.937 419.0 -4.7807676 0.0
SAV-15-04 5 14 03/17/2015 15:30:57 2015-03-17T15:30:57Z 31.075522 -76.849018 25.0 36.513 53.031229 36.6554 22.897 22.8917 1025.3309 25.2212 4.7039 96.663 416.0 -4.2985468 0.0
SAV-15-04 5 14 03/17/2015 15:30:57 2015-03-17T15:30:57Z 31.075522 -76.849018 26.0 37.973 53.031171 36.6575 22.894 22.8885 1025.3379 25.2237 4.6951 96.477 390.0 -4.1805009 0.0
SAV-15-04 5 14 03/17/2015 15:30:57 2015-03-17T15:30:57Z 31.075522 -76.849018 27.0 39.434 53.026331 36.6559 22.891 22.8854 1025.3411 25.2234 4.7173 96.929 386.0 -4.3848725 0.0
SAV-15-04 5 14 03/17/2015 15:30:57 2015-03-17T15:30:57Z 31.075522 -76.849018 28.0 40.895 53.026854 36.6564 22.8905 22.8846 1025.3471 25.2239 4.7263 97.112 369.0 -4.47232 0.0
SAV-15-04 5 14 03/17/2015 15:30:57 2015-03-17T15:30:57Z 31.075522 -76.849018 29.0 42.356 53.026914 36.6552 22.8915 22.8854 1025.3504 25.2229 4.7079 96.735 339.0 -4.7279662 0.0
SAV-15-04 5 14 03/17/2015 15:30:57 2015-03-17T15:30:57Z 31.075522 -76.849018 30.0 43.816 53.027157 36.6556 22.8909 22.8846 1025.3541 25.2234 4.7048 96.672 354.0 -4.6748036 0.0
SAV-15-04 5 14 03/17/2015 15:30:57 2015-03-17T15:30:57Z 31.075522 -76.849018 31.0 45.277 53.016148 36.6558 22.88 22.8736 1025.3618 25.2267 4.7112 96.785 340.0 -4.0943696 0.0
SAV-15-04 5 14 03/17/2015 15:30:57 2015-03-17T15:30:57Z 31.075522 -76.849018 32.0 46.738 53.015036 36.6543 22.8802 22.8734 1025.3674 25.2256 4.7312 97.195 314.0 -4.5408155 0.0
SAV-15-04 5 14 03/17/2015 15:30:57 2015-03-17T15:30:57Z 31.075522 -76.849018 33.0 48.199 53.014068 36.6549 22.8784 22.8714 1025.3709 25.2266 4.7071 96.697 287.0 -4.5990445 0.0
SAV-15-04 5 14 03/17/2015 15:30:57 2015-03-17T15:30:57Z 31.075522 -76.849018 34.0 49.659 53.010978 36.6541 22.876 22.8689 1025.375 25.2268 4.7085 96.722 303.0 -4.910657 0.0
SAV-15-04 5 14 03/17/2015 15:30:57 2015-03-17T15:30:57Z 31.075522 -76.849018 35.0 51.12 53.004113 36.6571 22.8652 22.8578 1025.3881 25.2323 4.7191 96.922 279.0 -4.8897644 0.0
SAV-15-04 5 14 03/17/2015 15:30:57 2015-03-17T15:30:57Z 31.075522 -76.849018 36.0 52.58 52.993861 36.6529 22.8603 22.8526 1025.3908 25.2305 4.7244 97.02 259.0 -4.8997357 0.0
SAV-15-04 5 14 03/17/2015 15:30:57 2015-03-17T15:30:57Z 31.075522 -76.849018 37.0 54.041 52.991621 36.6535 22.8572 22.8495 1025.3946 25.232 4.7272 97.073 259.0 -4.7571052 0.0
SAV-15-04 5 14 03/17/2015 15:30:57 2015-03-17T15:30:57Z 31.075522 -76.849018 38.0 55.502 52.985575 36.6516 22.8537 22.8458 1025.3966 25.2316 4.714 96.795 247.0 -4.6203609 0.0
SAV-15-04 5 14 03/17/2015 15:30:57 2015-03-17T15:30:57Z 31.075522 -76.849018 39.0 56.963 52.983202 36.6525 22.8498 22.8416 1025.4047 25.2335 4.7268 97.053 236.0 -4.612027 0.0
SAV-15-04 5 14 03/17/2015 15:30:57 2015-03-17T15:30:57Z 31.075522 -76.849018 40.0 58.424 52.97074 36.654 22.8359 22.8275 1025.415 25.2387 4.7239 96.971 239.0 -4.4589578 0.0
SAV-15-04 5 14 03/17/2015 15:30:57 2015-03-17T15:30:57Z 31.075522 -76.849018 41.0 59.884 52.9533 36.6512 22.8226 22.814 1025.4209 25.2405 4.7223 96.913 210.0 -4.6242646 0.0
SAV-15-04 5 14 03/17/2015 15:30:57 2015-03-17T15:30:57Z 31.075522 -76.849018 42.0 61.345 52.949834 36.6481 22.8228 22.814 1025.4222 25.2381 4.728 97.028 191.0 -4.3069919 0.0
SAV-15-04 5 14 03/17/2015 15:30:57 2015-03-17T15:30:57Z 31.075522 -76.849018 43.0 62.806 52.948046 36.6493 22.8194 22.8105 1025.427 25.24 4.7275 97.012 198.0 -4.1145513 0.0
SAV-15-04 5 14 03/17/2015 15:30:57 2015-03-17T15:30:57Z 31.075522 -76.849018 44.0 64.266 52.940816 36.6481 22.8136 22.8043 1025.4329 25.2409 4.7121 96.687 206.0 -4.7769858 0.0
SAV-15-04 5 14 03/17/2015 15:30:57 2015-03-17T15:30:57Z 31.075522 -76.849018 45.0 65.727 52.937185 36.6518 22.8052 22.7957 1025.4445 25.2462 4.7241 96.92 179.0 -4.0911666 0.0
SAV-15-04 5 14 03/17/2015 15:30:57 2015-03-17T15:30:57Z 31.075522 -76.849018 46.0 67.188 52.912012 36.651 22.7824 22.7727 1025.4546 25.2522 4.7318 97.039 176.0 -4.6787175 0.0
SAV-15-04 5 14 03/17/2015 15:30:57 2015-03-17T15:30:57Z 31.075522 -76.849018 47.0 68.649 52.89478 36.6459 22.772 22.7622 1025.4571 25.2514 4.7367 97.119 170.0 -4.7326099 0.0
SAV-15-04 5 14 03/17/2015 15:30:57 2015-03-17T15:30:57Z 31.075522 -76.849018 48.0 70.11 52.881247 36.6441 22.7613 22.7513 1025.4614 25.2532 4.7245 96.85 165.0 -4.1491432 0.0
SAV-15-04 5 14 03/17/2015 15:30:57 2015-03-17T15:30:57Z 31.075522 -76.849018 49.0 71.57 52.864422 36.6463 22.7422 22.7318 1025.4771 25.2605 4.7416 97.169 154.0 -4.4679377 0.0
SAV-15-04 5 14 03/17/2015 15:30:57 2015-03-17T15:30:57Z 31.075522 -76.849018 50.0 73.031 52.818437 36.6525 22.6917 22.6812 1025.5 25.2797 4.7524 97.307 147.0 -4.4847188 0.0
SAV-15-04 5 14 03/17/2015 15:30:57 2015-03-17T15:30:57Z 31.075522 -76.849018 51.0 74.491 52.787634 36.638 22.6801 22.6695 1025.4946 25.2721 4.742 97.067 144.0 -4.4197167 0.0
SAV-15-04 5 14 03/17/2015 15:30:57 2015-03-17T15:30:57Z 31.075522 -76.849018 52.0 75.952 52.727018 36.6487 22.6104 22.5996 1025.5269 25.3003 4.7381 96.875 143.0 -4.2193615 0.0
SAV-15-04 5 14 03/17/2015 15:30:57 2015-03-17T15:30:57Z 31.075522 -76.849018 53.0 77.414 52.604219 36.6461 22.4985 22.4875 1025.5623 25.3305 4.7531 96.99 128.0 -4.1059982 0.0
SAV-15-04 5 14 03/17/2015 15:30:57 2015-03-17T15:30:57Z 31.075522 -76.849018 54.0 78.874 52.482702 36.6346 22.3987 22.3876 1025.5844 25.3503 4.7565 96.883 126.0 -4.1872669 0.0
SAV-15-04 5 14 03/17/2015 15:30:57 2015-03-17T15:30:57Z 31.075522 -76.849018 55.0 80.335 52.225113 36.6406 22.1504 22.1391 1025.6663 25.4257 4.7697 96.73 122.0 -5.0587807 0.0
SAV-15-04 5 14 03/17/2015 15:30:57 2015-03-17T15:30:57Z 31.075522 -76.849018 56.0 81.796 52.080713 36.5987 22.0644 22.0529 1025.6645 25.4183 4.7824 96.817 110.0 -4.9002636 0.0
SAV-15-04 5 14 03/17/2015 15:30:57 2015-03-17T15:30:57Z 31.075522 -76.849018 57.0 83.256 52.070948 36.5892 22.066 22.0542 1025.6618 25.4107 4.7823 96.812 105.0 -4.9002636 0.0
SAV-15-04 5 14 03/17/2015 15:30:57 2015-03-17T15:30:57Z 31.075522 -76.849018 58.0 84.717 52.053064 36.5897 22.0482 22.0364 1025.6716 25.416 4.8019 97.18 102.0 -4.5274815 0.0
SAV-15-04 5 14 03/17/2015 15:30:57 2015-03-17T15:30:57Z 31.075522 -76.849018 59.0 86.178 52.037231 36.5849 22.039 22.027 1025.6726 25.415 4.8097 97.319 100.0 -4.134449 0.0
SAV-15-04 5 14 03/17/2015 15:30:57 2015-03-17T15:30:57Z 31.075522 -76.849018 60.0 87.64 52.024966 36.5789 22.0343 22.0222 1025.672 25.4118 4.7955 97.021 94.6 -3.6057027 0.0
SAV-15-04 5 14 03/17/2015 15:30:57 2015-03-17T15:30:57Z 31.075522 -76.849018 61.0 89.1 52.001281 36.5836 22.0058 21.9933 1025.6917 25.4236 4.792 96.903 88.5 -2.9565705 0.0
SAV-15-04 5 14 03/17/2015 15:30:57 2015-03-17T15:30:57Z 31.075522 -76.849018 62.0 90.561 51.984677 36.58 21.9942 21.9816 1025.6954 25.4241 4.7939 96.92 84.0 -3.9345271 0.0
SAV-15-04 5 14 03/17/2015 15:30:57 2015-03-17T15:30:57Z 31.075522 -76.849018 63.0 92.022 51.977161 36.5779 21.9894 21.9766 1025.6973 25.424 4.7927 96.886 79.1 -4.6336871 0.0
SAV-15-04 5 14 03/17/2015 15:30:57 2015-03-17T15:30:57Z 31.075522 -76.849018 64.0 93.483 51.965897 36.5778 21.9784 21.9654 1025.7068 25.427 4.7917 96.847 76.3 -4.9018259 0.0
SAV-15-04 5 14 03/17/2015 15:30:57 2015-03-17T15:30:57Z 31.075522 -76.849018 65.0 94.944 51.947536 36.583 21.9543 21.9411 1025.7238 25.4379 4.7947 96.869 70.6 -4.8240735 0.0
SAV-15-04 5 14 03/17/2015 15:30:57 2015-03-17T15:30:57Z 31.075522 -76.849018 66.0 96.405 51.939539 36.5817 21.948 21.9345 1025.7288 25.4387 4.7998 96.96 65.3 -4.865722 0.0
SAV-15-04 5 14 03/17/2015 15:30:57 2015-03-17T15:30:57Z 31.075522 -76.849018 67.0 97.866 51.923653 36.5847 21.9293 21.9158 1025.7391 25.4463 4.8051 97.038 61.7 -4.8972051 0.0
SAV-15-04 5 14 03/17/2015 15:30:57 2015-03-17T15:30:57Z 31.075522 -76.849018 68.0 99.326 51.899246 36.5817 21.9098 21.8961 1025.7453 25.4495 4.7925 96.747 59.0 -4.3850733 0.0
SAV-15-04 5 14 03/17/2015 15:30:57 2015-03-17T15:30:57Z 31.075522 -76.849018 69.0 100.787 51.881318 36.5812 21.8932 21.8793 1025.7532 25.4539 4.7652 96.168 57.4 -4.1304152 0.0
SAV-15-04 5 14 03/17/2015 15:30:57 2015-03-17T15:30:57Z 31.075522 -76.849018 70.0 102.249 51.910194 36.5973 21.9004 21.8862 1025.7713 25.4643 4.7705 96.296 53.0 -3.1331534 0.0
SAV-15-04 5 14 03/17/2015 15:30:57 2015-03-17T15:30:57Z 31.075522 -76.849018 71.0 103.71 51.947588 36.614 21.9154 21.901 1025.7836 25.4727 4.7677 96.273 49.0 -4.1990516 0.0
SAV-15-04 5 14 03/17/2015 15:30:57 2015-03-17T15:30:57Z 31.075522 -76.849018 72.0 105.17 51.979952 36.631 21.9254 21.9108 1025.7967 25.4829 4.7275 95.49 45.7 -4.8570521 0.0
SAV-15-04 5 14 03/17/2015 15:30:57 2015-03-17T15:30:57Z 31.075522 -76.849018 73.0 106.631 51.983896 36.6497 21.9067 21.892 1025.8195 25.5024 4.5907 92.705 43.7 -4.8593743 0.0
SAV-15-04 5 14 03/17/2015 15:30:57 2015-03-17T15:30:57Z 31.075522 -76.849018 74.0 108.092 51.942738 36.6473 21.8706 21.8557 1025.8321 25.5108 4.4142 89.083 40.8 -4.1389672 0.0
SAV-15-04 5 14 03/17/2015 15:30:57 2015-03-17T15:30:57Z 31.075522 -76.849018 75.0 109.554 51.941144 36.6501 21.8651 21.8498 1025.8441 25.5146 4.3798 88.38 37.5 -2.7796668 0.0
SAV-15-04 5 14 03/17/2015 15:30:57 2015-03-17T15:30:57Z 31.075522 -76.849018 76.0 111.014 51.950942 36.6504 21.8735 21.8581 1025.8456 25.5125 4.3982 88.767 35.7 -2.9482635 0.0
SAV-15-04 5 14 03/17/2015 15:30:57 2015-03-17T15:30:57Z 31.075522 -76.849018 77.0 112.475 51.9665 36.6576 21.8795 21.864 1025.8506 25.5163 4.4023 88.863 34.4 -3.2177621 0.0
SAV-15-04 5 14 03/17/2015 15:30:57 2015-03-17T15:30:57Z 31.075522 -76.849018 78.0 113.936 51.974208 36.67 21.8717 21.856 1025.8661 25.528 4.3314 87.426 33.4 -4.4229128 0.0
SAV-15-04 5 14 03/17/2015 15:30:57 2015-03-17T15:30:57Z 31.075522 -76.849018 79.0 115.397 51.880055 36.6856 21.7645 21.7484 1025.9166 25.5701 4.3031 86.696 31.2 -3.9091131 0.0
SAV-15-04 5 14 03/17/2015 15:30:57 2015-03-17T15:30:57Z 31.075522 -76.849018 80.0 116.858 51.842177 36.6689 21.7483 21.7322 1025.9119 25.5619 4.2958 86.517 29.7 -3.1671858 0.0
SAV-15-04 5 14 03/17/2015 15:30:57 2015-03-17T15:30:57Z 31.075522 -76.849018 81.0 118.319 51.826552 36.6608 21.743 21.7268 1025.9091 25.5572 4.304 86.669 28.6 -2.704814 0.0
SAV-15-04 5 14 03/17/2015 15:30:57 2015-03-17T15:30:57Z 31.075522 -76.849018 82.0 119.78 51.774531 36.6596 21.6953 21.6789 1025.9257 25.5698 4.3698 87.92 27.4 -3.2212706 0.0
SAV-15-04 5 14 03/17/2015 15:30:57 2015-03-17T15:30:57Z 31.075522 -76.849018 83.0 121.242 51.763313 36.6574 21.6867 21.67 1025.9338 25.5706 4.4017 88.547 26.1 -2.7273793 0.0
SAV-15-04 5 14 03/17/2015 15:30:57 2015-03-17T15:30:57Z 31.075522 -76.849018 84.0 122.702 51.753551 36.6561 21.6788 21.662 1025.9377 25.5718 4.4109 88.719 25.1 -3.5747786 0.0
SAV-15-04 5 14 03/17/2015 15:30:57 2015-03-17T15:30:57Z 31.075522 -76.849018 85.0 124.164 51.744887 36.6546 21.6722 21.6553 1025.9411 25.5726 4.4131 88.752 24.2 -3.6249656 0.0
SAV-15-04 5 14 03/17/2015 15:30:57 2015-03-17T15:30:57Z 31.075522 -76.849018 86.0 125.625 51.724598 36.6568 21.65 21.6328 1025.9554 25.5806 4.3738 87.928 23.3 -1.5615534 0.0
SAV-15-04 5 14 03/17/2015 15:30:57 2015-03-17T15:30:57Z 31.075522 -76.849018 87.0 127.085 51.687348 36.6561 21.6154 21.598 1025.9696 25.5898 4.3823 88.043 22.4 -3.643248 0.0
SAV-15-04 5 14 03/17/2015 15:30:57 2015-03-17T15:30:57Z 31.075522 -76.849018 88.0 128.546 51.658773 36.6727 21.5688 21.5512 1025.9991 25.6155 4.4112 88.559 21.3 -4.1961241 0.0
SAV-15-04 5 14 03/17/2015 15:30:57 2015-03-17T15:30:57Z 31.075522 -76.849018 89.0 130.008 51.626881 36.6598 21.5537 21.536 1025.9964 25.6099 4.4321 88.948 20.4 -3.8937642 0.0
SAV-15-04 5 14 03/17/2015 15:30:57 2015-03-17T15:30:57Z 31.075522 -76.849018 90.0 131.469 51.589031 36.6565 21.5218 21.5039 1026.0068 25.6163 4.4155 88.564 20.0 -3.5196184 0.0
SAV-15-04 5 14 03/17/2015 15:30:57 2015-03-17T15:30:57Z 31.075522 -76.849018 91.0 132.929 51.531769 36.6487 21.4765 21.4582 1026.0216 25.6231 4.4225 88.628 19.3 -3.2180445 0.0
SAV-15-04 5 14 03/17/2015 15:30:57 2015-03-17T15:30:57Z 31.075522 -76.849018 92.0 134.391 51.501009 36.6486 21.4474 21.4289 1026.0337 25.6311 4.4391 88.914 18.4 -2.5890755 0.0
SAV-15-04 5 14 03/17/2015 15:30:57 2015-03-17T15:30:57Z 31.075522 -76.849018 93.0 135.852 51.471651 36.6416 21.4277 21.4093 1026.0364 25.6313 4.4663 89.425 17.7 -2.7743866 0.0
SAV-15-04 5 14 03/17/2015 15:30:57 2015-03-17T15:30:57Z 31.075522 -76.849018 94.0 137.313 51.452645 36.6375 21.4145 21.396 1026.0391 25.6318 4.5024 90.124 17.2 -3.3910837 0.0
SAV-15-04 5 14 03/17/2015 15:30:57 2015-03-17T15:30:57Z 31.075522 -76.849018 95.0 138.775 51.409823 36.6403 21.3704 21.3514 1026.0611 25.6463 4.5045 90.096 16.5 -4.2181207 0.0
SAV-15-04 5 14 03/17/2015 15:30:57 2015-03-17T15:30:57Z 31.075522 -76.849018 96.0 140.235 51.362468 36.6332 21.3337 21.3147 1026.071 25.6511 4.5194 90.332 15.8 -3.917852 0.0
SAV-15-04 5 14 03/17/2015 15:30:57 2015-03-17T15:30:57Z 31.075522 -76.849018 97.0 141.696 51.346283 36.6253 21.3275 21.3083 1026.069 25.6469 4.5375 90.679 15.3 -4.8407972 0.0
SAV-15-04 5 14 03/17/2015 15:30:57 2015-03-17T15:30:57Z 31.075522 -76.849018 98.0 143.157 51.323236 36.6256 21.3051 21.2858 1026.0796 25.6533 4.5842 91.576 14.8 -4.8943933 0.0
SAV-15-04 5 14 03/17/2015 15:30:57 2015-03-17T15:30:57Z 31.075522 -76.849018 99.0 144.619 51.280317 36.6162 21.2753 21.2557 1026.0859 25.6545 4.6275 92.386 14.2 -4.5192888 0.0
SAV-15-04 5 14 03/17/2015 15:30:57 2015-03-17T15:30:57Z 31.075522 -76.849018 100.0 146.08 51.268426 36.6138 21.2666 21.247 1026.0891 25.6551 4.6588 92.995 13.7 -4.741344 0.0
SAV-15-04 5 14 03/17/2015 15:30:57 2015-03-17T15:30:57Z 31.075522 -76.849018 101.0 147.541 51.245528 36.6089 21.2504 21.2306 1026.0943 25.6559 4.6888 93.564 13.3 -3.7101444 0.0
SAV-15-04 5 14 03/17/2015 15:30:57 2015-03-17T15:30:57Z 31.075522 -76.849018 102.0 149.002 51.241054 36.6072 21.2477 21.2277 1026.0983 25.6554 4.6997 93.776 12.7 -3.9239317 0.0
SAV-15-04 5 14 03/17/2015 15:30:57 2015-03-17T15:30:57Z 31.075522 -76.849018 103.0 150.463 51.237337 36.6084 21.2422 21.2218 1026.108 25.6579 4.7204 94.18 12.2 -4.6382861 0.0
SAV-15-04 5 14 03/17/2015 15:30:57 2015-03-17T15:30:57Z 31.075522 -76.849018 104.0 151.925 51.232643 36.6088 21.2368 21.2162 1026.1145 25.6598 4.7384 94.53 11.7 -4.8784763 0.0
SAV-15-04 5 14 03/17/2015 15:30:57 2015-03-17T15:30:57Z 31.075522 -76.849018 105.0 153.386 51.229471 36.6082 21.2344 21.2136 1026.1175 25.66 4.7491 94.74 11.2 -4.9002636 0.0
SAV-15-04 5 14 03/17/2015 15:30:57 2015-03-17T15:30:57Z 31.075522 -76.849018 106.0 154.847 51.226508 36.6077 21.232 21.2111 1026.1195 25.6603 4.7263 94.28 10.9 -3.7489838 0.0
SAV-15-04 5 14 03/17/2015 15:30:57 2015-03-17T15:30:57Z 31.075522 -76.849018 107.0 156.308 51.225764 36.6104 21.227 21.2057 1026.134 25.6639 4.7254 94.257 10.4 -4.0295597 0.0
SAV-15-04 5 14 03/17/2015 15:30:57 2015-03-17T15:30:57Z 31.075522 -76.849018 108.0 157.77 51.228827 36.6198 21.2186 21.1971 1026.1466 25.6734 4.7424 94.587 10.1 -4.2035376 0.0
SAV-15-04 5 14 03/17/2015 15:30:57 2015-03-17T15:30:57Z 31.075522 -76.849018 109.0 159.231 51.218107 36.616 21.2128 21.1913 1026.1467 25.6721 4.7471 94.668 9.67 -4.2015784 0.0
SAV-15-04 5 14 03/17/2015 15:30:57 2015-03-17T15:30:57Z 31.075522 -76.849018 110.0 160.692 51.207237 36.6178 21.2004 21.1788 1026.1531 25.6769 4.6501 92.714 9.26 -4.3167209 0.0
SAV-15-04 5 14 03/17/2015 15:30:57 2015-03-17T15:30:57Z 31.075522 -76.849018 111.0 162.153 51.16435 36.6248 21.151 21.129 1026.1814 25.6959 4.6408 92.451 8.89 -4.6966977 0.0
SAV-15-04 5 14 03/17/2015 15:30:57 2015-03-17T15:30:57Z 31.075522 -76.849018 112.0 163.614 51.138863 36.6219 21.1299 21.1078 1026.1895 25.6996 4.6431 92.46 8.55 -4.2039291 0.0
SAV-15-04 5 14 03/17/2015 15:30:57 2015-03-17T15:30:57Z 31.075522 -76.849018 113.0 165.076 51.136234 36.6196 21.13 21.1078 1026.1899 25.6978 4.6445 92.487 8.22 -3.5986887 0.0
SAV-15-04 5 14 03/17/2015 15:30:57 2015-03-17T15:30:57Z 31.075522 -76.849018 114.0 166.537 51.138985 36.6172 21.1353 21.113 1026.1877 25.6946 4.6285 92.176 7.95 -3.6728815 0.0
SAV-15-04 5 14 03/17/2015 15:30:57 2015-03-17T15:30:57Z 31.075522 -76.849018 115.0 167.998 51.222467 36.6456 21.1796 21.1569 1026.2066 25.7042 4.6287 92.269 7.66 -3.9305759 0.0
SAV-15-04 5 14 03/17/2015 15:30:57 2015-03-17T15:30:57Z 31.075522 -76.849018 116.0 169.459 51.193773 36.6605 21.135 21.1122 1026.2331 25.7279 4.6229 92.087 7.38 -4.0563984 0.0
SAV-15-04 5 14 03/17/2015 15:30:57 2015-03-17T15:30:57Z 31.075522 -76.849018 117.0 170.92 51.166595 36.6501 21.1214 21.0984 1026.2322 25.7236 4.5657 90.919 7.1 -4.8174781 0.0
SAV-15-04 5 14 03/17/2015 15:30:57 2015-03-17T15:30:57Z 31.075522 -76.849018 118.0 172.382 51.151089 36.6474 21.1097 21.0866 1026.2361 25.7249 4.4929 89.451 6.85 -4.283265 0.0
SAV-15-04 5 14 03/17/2015 15:30:57 2015-03-17T15:30:57Z 31.075522 -76.849018 119.0 173.843 51.155732 36.6498 21.1104 21.087 1026.2451 25.7266 4.4804 89.204 6.61 -4.2979267 0.0
SAV-15-04 5 14 03/17/2015 15:30:57 2015-03-17T15:30:57Z 31.075522 -76.849018 120.0 175.304 51.148778 36.6647 21.086 21.0624 1026.2688 25.7448 4.5022 89.606 6.35 -3.6716898 0.0
SAV-15-04 5 14 03/17/2015 15:30:57 2015-03-17T15:30:57Z 31.075522 -76.849018 121.0 176.765 51.092582 36.662 21.036 21.0122 1026.2842 25.7565 4.5199 89.877 6.11 -3.3816546 0.0
SAV-15-04 5 14 03/17/2015 15:30:57 2015-03-17T15:30:57Z 31.075522 -76.849018 122.0 178.227 51.058999 36.6476 21.0209 20.9971 1026.2799 25.7497 4.5323 90.091 5.87 -3.3146049 0.0
SAV-15-04 5 14 03/17/2015 15:30:57 2015-03-17T15:30:57Z 31.075522 -76.849018 123.0 179.688 51.042357 36.6421 21.0115 20.9875 1026.2809 25.7481 4.5601 90.625 5.7 -3.631719 0.0
SAV-15-04 5 14 03/17/2015 15:30:57 2015-03-17T15:30:57Z 31.075522 -76.849018 124.0 181.15 51.00679 36.64 20.9796 20.9553 1026.2965 25.7554 4.5879 91.123 5.54 -3.8445292 0.0
SAV-15-04 5 14 03/17/2015 15:30:57 2015-03-17T15:30:57Z 31.075522 -76.849018 125.0 182.611 50.988558 36.6335 20.9696 20.9451 1026.2983 25.7532 4.5953 91.252 5.36 -4.4874952 0.0
SAV-15-04 5 14 03/17/2015 15:30:57 2015-03-17T15:30:57Z 31.075522 -76.849018 126.0 184.072 50.981314 36.6313 20.9652 20.9406 1026.3001 25.7527 4.603 91.395 5.18 -4.1863175 0.0
SAV-15-04 5 14 03/17/2015 15:30:57 2015-03-17T15:30:57Z 31.075522 -76.849018 127.0 185.534 50.958273 36.6284 20.9466 20.9219 1026.3059 25.7556 4.6471 92.239 5.02 -4.8602279 0.0
SAV-15-04 5 14 03/17/2015 15:30:57 2015-03-17T15:30:57Z 31.075522 -76.849018 128.0 186.995 50.93641 36.6236 20.9308 20.9058 1026.3143 25.7564 4.6695 92.655 4.86 -4.1745462 0.0
SAV-15-04 5 14 03/17/2015 15:30:57 2015-03-17T15:30:57Z 31.075522 -76.849018 129.0 188.456 50.932901 36.6222 20.9288 20.9035 1026.3183 25.7559 4.6854 92.966 4.71 -4.1944889 0.0
SAV-15-04 5 14 03/17/2015 15:30:57 2015-03-17T15:30:57Z 31.075522 -76.849018 130.0 189.918 50.931599 36.6213 20.9283 20.9029 1026.3211 25.7554 4.6891 93.039 4.56 -4.2455767 0.0
SAV-15-04 5 14 03/17/2015 15:30:57 2015-03-17T15:30:57Z 31.075522 -76.849018 131.0 191.379 50.931221 36.6222 20.9266 20.9011 1026.3242 25.7566 4.6919 93.091 4.42 -3.535073 0.0
SAV-15-04 5 14 03/17/2015 15:30:57 2015-03-17T15:30:57Z 31.075522 -76.849018 132.0 192.84 50.90159 36.6284 20.8905 20.8646 1026.3496 25.7713 4.6997 93.19 4.31 -4.1025376 0.0
SAV-15-04 5 14 03/17/2015 15:30:57 2015-03-17T15:30:57Z 31.075522 -76.849018 133.0 194.302 50.883902 36.6201 20.883 20.857 1026.3491 25.7671 4.6917 93.013 4.17 -4.3886697 0.0
SAV-15-04 5 14 03/17/2015 15:30:57 2015-03-17T15:30:57Z 31.075522 -76.849018 134.0 195.764 50.877423 36.6179 20.8794 20.8532 1026.3503 25.7664 4.695 93.073 4.03 -4.367932 0.0
SAV-15-04 5 14 03/17/2015 15:30:57 2015-03-17T15:30:57Z 31.075522 -76.849018 135.0 197.225 50.875301 36.6157 20.8798 20.8536 1026.3497 25.7646 4.6722 92.62 3.89 -4.268713 0.0
SAV-15-04 5 14 03/17/2015 15:30:57 2015-03-17T15:30:57Z 31.075522 -76.849018 136.0 198.686 50.860756 36.6144 20.8669 20.8402 1026.3606 25.7673 4.6735 92.623 3.76 -4.9162828 0.0
SAV-15-04 5 14 03/17/2015 15:30:57 2015-03-17T15:30:57Z 31.075522 -76.849018 137.0 200.148 50.85785 36.6142 20.8639 20.8372 1026.365 25.768 4.6864 92.873 3.63 -4.7125944 0.0
SAV-15-04 5 14 03/17/2015 15:30:57 2015-03-17T15:30:57Z 31.075522 -76.849018 138.0 201.609 50.860207 36.6147 20.8652 20.8384 1026.3687 25.768 4.6947 93.041 3.53 -4.6331206 0.0
SAV-15-04 5 14 03/17/2015 15:30:57 2015-03-17T15:30:57Z 31.075522 -76.849018 139.0 203.07 50.864214 36.6173 20.8659 20.8389 1026.373 25.7698 4.6853 92.857 3.42 -4.5730708 0.0
SAV-15-04 5 14 03/17/2015 15:30:57 2015-03-17T15:30:57Z 31.075522 -76.849018 140.0 204.532 50.866668 36.6169 20.8681 20.8409 1026.3761 25.769 4.6202 91.569 3.33 -3.4832521 0.0
SAV-15-04 5 14 03/17/2015 15:30:57 2015-03-17T15:30:57Z 31.075522 -76.849018 141.0 205.993 50.877308 36.6252 20.8677 20.8402 1026.3905 25.7755 4.6156 91.482 3.21 -4.0109884 0.0
SAV-15-04 5 14 03/17/2015 15:30:57 2015-03-17T15:30:57Z 31.075522 -76.849018 142.0 207.455 50.867384 36.6276 20.8554 20.8277 1026.3986 25.7808 4.6037 91.227 3.1 -4.4644014 0.0
SAV-15-04 5 14 03/17/2015 15:30:57 2015-03-17T15:30:57Z 31.075522 -76.849018 143.0 208.916 50.871755 36.6298 20.8567 20.8289 1026.402 25.7821 4.5626 90.416 3.0 -3.853115 0.0
SAV-15-04 5 14 03/17/2015 15:30:57 2015-03-17T15:30:57Z 31.075522 -76.849018 144.0 210.378 50.874736 36.6347 20.8533 20.8253 1026.4117 25.7868 4.5894 90.943 2.9 -3.0881187 0.0
SAV-15-04 5 14 03/17/2015 15:30:57 2015-03-17T15:30:57Z 31.075522 -76.849018 145.0 211.839 50.864404 36.6337 20.8442 20.8159 1026.4203 25.7886 4.7021 93.162 2.81 -4.168536 0.0
SAV-15-04 5 14 03/17/2015 15:30:57 2015-03-17T15:30:57Z 31.075522 -76.849018 146.0 213.3 50.846693 36.6382 20.8217 20.7932 1026.4348 25.7982 4.7446 93.969 2.72 -3.8060898 0.0
SAV-15-04 5 14 03/17/2015 15:30:57 2015-03-17T15:30:57Z 31.075522 -76.849018 147.0 214.762 50.826384 36.6291 20.8129 20.7843 1026.4331 25.7937 4.7739 94.527 2.63 -3.7354969 0.0
SAV-15-04 5 14 03/17/2015 15:30:57 2015-03-17T15:30:57Z 31.075522 -76.849018 148.0 216.223 50.821538 36.6265 20.8111 20.7824 1026.4338 25.7923 4.7741 94.527 2.55 -4.1900704 0.0
SAV-15-04 5 14 03/17/2015 15:30:57 2015-03-17T15:30:57Z 31.075522 -76.849018 149.0 217.685 50.816395 36.6248 20.8076 20.7787 1026.4395 25.792 4.7484 94.012 2.48 -2.9559173 0.0
SAV-15-04 5 14 03/17/2015 15:30:57 2015-03-17T15:30:57Z 31.075522 -76.849018 150.0 219.146 50.81436 36.6243 20.8058 20.7767 1026.4446 25.7922 4.7437 93.915 2.39 -3.9938082 0.0
SAV-15-04 5 14 03/17/2015 15:30:57 2015-03-17T15:30:57Z 31.075522 -76.849018 151.0 220.609 50.81328 36.6242 20.8045 20.7752 1026.4488 25.7925 4.7404 93.849 2.31 -4.6300077 0.0
SAV-15-04 5 14 03/17/2015 15:30:57 2015-03-17T15:30:57Z 31.075522 -76.849018 152.0 222.069 50.807935 36.6259 20.797 20.7674 1026.4577 25.7959 4.7415 93.857 2.23 -4.9142132 0.0
SAV-15-04 5 14 03/17/2015 15:30:57 2015-03-17T15:30:57Z 31.075522 -76.849018 153.0 223.531 50.796253 36.6234 20.7886 20.7589 1026.4616 25.7963 4.7399 93.811 2.16 -4.5757899 0.0
SAV-15-04 5 14 03/17/2015 15:30:57 2015-03-17T15:30:57Z 31.075522 -76.849018 154.0 224.993 50.792396 36.6232 20.7849 20.7551 1026.4648 25.7972 4.739 93.787 2.09 -4.2840838 0.0
SAV-15-04 5 14 03/17/2015 15:30:57 2015-03-17T15:30:57Z 31.075522 -76.849018 155.0 226.454 50.761728 36.6298 20.7477 20.7176 1026.4876 25.8124 4.7275 93.5 2.03 -4.473747 0.0
SAV-15-04 5 14 03/17/2015 15:30:57 2015-03-17T15:30:57Z 31.075522 -76.849018 156.0 227.916 50.735727 36.6204 20.7336 20.7033 1026.4889 25.8091 4.73 93.522 1.96 -4.1287593 0.0
SAV-15-04 5 14 03/17/2015 15:30:57 2015-03-17T15:30:57Z 31.075522 -76.849018 157.0 229.377 50.732875 36.6171 20.7345 20.704 1026.4893 25.8064 4.7329 93.579 1.9 -4.0803274 0.0
SAV-15-04 5 14 03/17/2015 15:30:57 2015-03-17T15:30:57Z 31.075522 -76.849018 158.0 230.839 50.73424 36.6181 20.7344 20.7039 1026.4918 25.8072 4.7035 92.996 1.83 -4.2412359 0.0
SAV-15-04 5 14 03/17/2015 15:30:57 2015-03-17T15:30:57Z 31.075522 -76.849018 159.0 232.301 50.731085 36.6187 20.7297 20.6987 1026.5042 25.8091 4.6757 92.44 1.77 -4.470001 0.0
SAV-15-04 5 14 03/17/2015 15:30:57 2015-03-17T15:30:57Z 31.075522 -76.849018 160.0 233.762 50.728568 36.6227 20.7223 20.6911 1026.5134 25.8142 4.6727 92.371 1.71 -4.2472969 0.0
SAV-15-04 5 14 03/17/2015 15:30:57 2015-03-17T15:30:57Z 31.075522 -76.849018 161.0 235.224 50.71456 36.6223 20.7094 20.6781 1026.5186 25.8174 4.6808 92.508 1.65 -4.4794802 0.0
SAV-15-04 5 14 03/17/2015 15:30:57 2015-03-17T15:30:57Z 31.075522 -76.849018 162.0 236.685 50.711433 36.619 20.7102 20.6789 1026.5166 25.8147 4.6666 92.227 1.6 -4.5903965 0.0
SAV-15-04 5 14 03/17/2015 15:30:57 2015-03-17T15:30:57Z 31.075522 -76.849018 163.0 238.147 50.669333 36.6202 20.6684 20.6369 1026.5363 25.827 4.6672 92.171 1.55 -4.8768035 0.0
SAV-15-04 5 14 03/17/2015 15:30:57 2015-03-17T15:30:57Z 31.075522 -76.849018 164.0 239.609 50.646261 36.6151 20.652 20.6203 1026.5422 25.8277 4.6727 92.25 1.5 -4.9002636 0.0
SAV-15-04 5 14 03/17/2015 15:30:57 2015-03-17T15:30:57Z 31.075522 -76.849018 165.0 241.07 50.635657 36.6153 20.6413 20.6093 1026.5498 25.8308 4.6868 92.51 1.45 -4.4083742 0.0
SAV-15-04 5 14 03/17/2015 15:30:57 2015-03-17T15:30:57Z 31.075522 -76.849018 166.0 242.532 50.623076 36.6151 20.6296 20.5976 1026.5549 25.8338 4.6926 92.603 1.4 -3.5245473 0.0
SAV-15-04 5 14 03/17/2015 15:30:57 2015-03-17T15:30:57Z 31.075522 -76.849018 167.0 243.993 50.610915 36.6134 20.6199 20.5878 1026.5579 25.8351 4.6936 92.606 1.36 -4.1759056 0.0
SAV-15-04 5 14 03/17/2015 15:30:57 2015-03-17T15:30:57Z 31.075522 -76.849018 168.0 245.455 50.585892 36.6155 20.5926 20.56 1026.5793 25.8443 4.6979 92.646 1.32 -4.9045471 0.0
SAV-15-04 5 14 03/17/2015 15:30:57 2015-03-17T15:30:57Z 31.075522 -76.849018 169.0 246.917 50.577999 36.6156 20.5846 20.5518 1026.5858 25.8467 4.7062 92.798 1.27 -4.8824493 0.0
SAV-15-04 5 14 03/17/2015 15:30:57 2015-03-17T15:30:57Z 31.075522 -76.849018 170.0 248.378 50.565974 36.6114 20.5779 20.545 1026.5866 25.8452 4.713 92.92 1.24 -4.5361062 0.0
SAV-15-04 5 14 03/17/2015 15:30:57 2015-03-17T15:30:57Z 31.075522 -76.849018 171.0 249.84 50.571531 36.6094 20.5857 20.5529 1026.5816 25.8416 4.702 92.714 1.2 -3.8914889 0.0
SAV-15-04 5 14 03/17/2015 15:30:57 2015-03-17T15:30:57Z 31.075522 -76.849018 172.0 251.302 50.552687 36.6112 20.5649 20.5317 1026.5978 25.8487 4.713 92.896 1.15 -4.6004862 0.0
SAV-15-04 5 14 03/17/2015 15:30:57 2015-03-17T15:30:57Z 31.075522 -76.849018 173.0 252.764 50.532877 36.6146 20.5419 20.5085 1026.611 25.8575 4.7201 92.998 1.11 -3.678211 0.0
SAV-15-04 5 14 03/17/2015 15:30:57 2015-03-17T15:30:57Z 31.075522 -76.849018 174.0 254.225 50.510856 36.6086 20.5275 20.494 1026.6147 25.8569 4.7304 93.175 1.09 -3.6359762 0.0
SAV-15-04 5 14 03/17/2015 15:30:57 2015-03-17T15:30:57Z 31.075522 -76.849018 175.0 255.686 50.507124 36.607 20.5257 20.4921 1026.6166 25.8561 4.7304 93.171 1.05 -3.9004493 0.0
SAV-15-04 5 14 03/17/2015 15:30:57 2015-03-17T15:30:57Z 31.075522 -76.849018 176.0 257.148 50.501861 36.6068 20.5206 20.4869 1026.6201 25.8575 4.7202 92.961 1.02 -4.7502335 0.0
SAV-15-04 5 14 03/17/2015 15:30:57 2015-03-17T15:30:57Z 31.075522 -76.849018 177.0 258.61 50.495298 36.609 20.5111 20.477 1026.6329 25.8618 4.7234 93.009 0.99 -4.138862 0.0
SAV-15-04 5 14 03/17/2015 15:30:57 2015-03-17T15:30:57Z 31.075522 -76.849018 178.0 260.072 50.490826 36.6065 20.5096 20.4753 1026.6341 25.8603 4.7237 93.012 0.96 -4.5068056 0.0
SAV-15-04 5 14 03/17/2015 15:30:57 2015-03-17T15:30:57Z 31.075522 -76.849018 179.0 261.533 50.489796 36.6076 20.507 20.4726 1026.6389 25.8619 4.7072 92.682 0.928 -4.4951849 0.0
SAV-15-04 5 14 03/17/2015 15:30:57 2015-03-17T15:30:57Z 31.075522 -76.849018 180.0 262.995 50.480794 36.6095 20.4958 20.4613 1026.6474 25.8664 4.6989 92.503 0.901 -2.9951775 0.0
SAV-15-04 5 14 03/17/2015 15:30:57 2015-03-17T15:30:57Z 31.075522 -76.849018 181.0 264.457 50.463404 36.6103 20.4781 20.4434 1026.6576 25.8719 4.7069 92.629 0.874 -3.7571565 0.0
SAV-15-04 5 14 03/17/2015 15:30:57 2015-03-17T15:30:57Z 31.075522 -76.849018 182.0 265.919 50.449276 36.6095 20.465 20.43 1026.6677 25.8748 4.6987 92.446 0.847 -4.1865496 0.0
SAV-15-04 5 14 03/17/2015 15:30:57 2015-03-17T15:30:57Z 31.075522 -76.849018 183.0 267.38 50.442593 36.6083 20.4596 20.4244 1026.6722 25.8755 4.6965 92.392 0.819 -4.0520833 0.0
SAV-15-04 5 14 03/17/2015 15:30:57 2015-03-17T15:30:57Z 31.075522 -76.849018 184.0 268.842 50.432789 36.6082 20.4502 20.4149 1026.6775 25.8779 4.6938 92.324 0.794 -3.2875617 0.0
SAV-15-04 5 14 03/17/2015 15:30:57 2015-03-17T15:30:57Z 31.075522 -76.849018 185.0 270.304 50.418976 36.6063 20.4391 20.4037 1026.6815 25.8795 4.6836 92.104 0.774 -4.0628301 0.0
SAV-15-04 5 14 03/17/2015 15:30:57 2015-03-17T15:30:57Z 31.075522 -76.849018 186.0 271.766 50.39974 36.6088 20.4173 20.3816 1026.6979 25.8874 4.6935 92.265 0.751 -4.8443309 0.0
SAV-15-04 5 14 03/17/2015 15:30:57 2015-03-17T15:30:57Z 31.075522 -76.849018 187.0 273.227 50.390959 36.607 20.4106 20.3747 1026.7031 25.8879 4.7058 92.493 0.73 -4.6441249 0.0
SAV-15-04 5 14 03/17/2015 15:30:57 2015-03-17T15:30:57Z 31.075522 -76.849018 188.0 274.689 50.38859 36.6076 20.4074 20.3713 1026.7072 25.8892 4.7122 92.615 0.708 -3.8201053 0.0
SAV-15-04 5 14 03/17/2015 15:30:57 2015-03-17T15:30:57Z 31.075522 -76.849018 189.0 276.151 50.384982 36.6067 20.4048 20.3687 1026.7091 25.8892 4.688 92.133 0.688 -3.6057898 0.0
SAV-15-04 5 14 03/17/2015 15:30:57 2015-03-17T15:30:57Z 31.075522 -76.849018 190.0 277.613 50.378789 36.6077 20.3973 20.361 1026.7167 25.8921 4.6688 91.744 0.671 -3.6163012 0.0
SAV-15-04 5 14 03/17/2015 15:30:57 2015-03-17T15:30:57Z 31.075522 -76.849018 191.0 279.075 50.369954 36.6081 20.388 20.3514 1026.7252 25.8949 4.6981 92.304 0.651 -3.416 0.0
SAV-15-04 5 14 03/17/2015 15:30:57 2015-03-17T15:30:57Z 31.075522 -76.849018 192.0 280.537 50.36163 36.6084 20.3793 20.3426 1026.7318 25.8976 4.6879 92.091 0.633 -4.7468464 0.0
SAV-15-04 5 14 03/17/2015 15:30:57 2015-03-17T15:30:57Z 31.075522 -76.849018 193.0 281.998 50.352818 36.6061 20.3732 20.3363 1026.736 25.8975 4.6573 91.477 0.616 -4.5674677 0.0
SAV-15-04 5 14 03/17/2015 15:30:57 2015-03-17T15:30:57Z 31.075522 -76.849018 194.0 283.46 50.349197 36.6051 20.3707 20.3336 1026.7392 25.8975 4.6582 91.489 0.599 -3.7735937 0.0
SAV-15-04 5 14 03/17/2015 15:30:57 2015-03-17T15:30:57Z 31.075522 -76.849018 195.0 284.922 50.339749 36.6078 20.3581 20.3208 1026.7507 25.9029 4.676 91.82 0.583 -3.7508786 0.0
SAV-15-04 5 14 03/17/2015 15:30:57 2015-03-17T15:30:57Z 31.075522 -76.849018 196.0 286.383 50.322993 36.6075 20.342 20.3044 1026.7616 25.9071 4.6777 91.828 0.566 -4.0030363 0.0
SAV-15-04 5 14 03/17/2015 15:30:57 2015-03-17T15:30:57Z 31.075522 -76.849018 197.0 287.846 50.320706 36.6106 20.336 20.2983 1026.7683 25.9111 4.6783 91.829 0.552 -3.9683655 0.0
SAV-15-04 5 14 03/17/2015 15:30:57 2015-03-17T15:30:57Z 31.075522 -76.849018 198.0 289.307 50.312018 36.6075 20.3311 20.2934 1026.7689 25.9101 4.6597 91.456 0.538 -3.5681551 0.0
SAV-15-04 5 14 03/17/2015 15:30:57 2015-03-17T15:30:57Z 31.075522 -76.849018 199.0 290.769 50.302772 36.6087 20.3203 20.2822 1026.7802 25.914 4.6495 91.238 0.524 -4.2393398 0.0
SAV-15-04 5 14 03/17/2015 15:30:57 2015-03-17T15:30:57Z 31.075522 -76.849018 200.0 292.231 50.276813 36.6166 20.2863 20.2481 1026.7993 25.9292 4.6607 91.405 0.511 -4.7196835 0.0
SAV-15-04 5 14 03/17/2015 15:30:57 2015-03-17T15:30:57Z 31.075522 -76.849018 201.0 293.693 50.246876 36.6076 20.2681 20.2298 1026.8005 25.9272 4.6554 91.266 0.497 -4.4976937 0.0
SAV-15-04 5 14 03/17/2015 15:30:57 2015-03-17T15:30:57Z 31.075522 -76.849018 202.0 295.155 50.234064 36.6008 20.2638 20.2255 1026.7968 25.9232 4.6639 91.423 0.487 -3.955585 0.0
SAV-15-04 5 14 03/17/2015 15:30:57 2015-03-17T15:30:57Z 31.075522 -76.849018 203.0 296.618 50.227848 36.599 20.2598 20.2214 1026.7985 25.9229 4.6772 91.674 0.477 -4.8226025 0.0
SAV-15-04 6 14 03/17/2015 16:32:44 2015-03-17T16:32:44Z 31.083748 -76.817971 2.0 2.921 53.03721 36.6302 22.9426 22.9422 1025.1957 25.1874 4.3946 90.366 1340.0 -2.4309612 0.0
SAV-15-04 6 14 03/17/2015 16:32:44 2015-03-17T16:32:44Z 31.083748 -76.817971 3.0 4.381 53.059985 36.6438 22.9472 22.9466 1025.208 25.1965 4.32 88.846 1620.0 -5.6261957 0.0
SAV-15-04 6 14 03/17/2015 16:32:44 2015-03-17T16:32:44Z 31.083748 -76.817971 4.0 5.842 53.086707 36.6701 22.9398 22.9388 1025.2391 25.2186 4.713 96.931 1250.0 -4.9060282 0.0
SAV-15-04 6 14 03/17/2015 16:32:44 2015-03-17T16:32:44Z 31.083748 -76.817971 5.0 7.302 53.087092 36.6689 22.941 22.9398 1025.2432 25.2175 4.7162 96.997 1330.0 -4.916545 0.0
SAV-15-04 6 14 03/17/2015 16:32:44 2015-03-17T16:32:44Z 31.083748 -76.817971 6.0 8.763 53.084711 36.6697 22.9374 22.9359 1025.2492 25.2192 4.7244 97.162 857.0 -4.8927127 0.0
SAV-15-04 6 14 03/17/2015 16:32:44 2015-03-17T16:32:44Z 31.083748 -76.817971 7.0 10.224 53.085025 36.6692 22.9382 22.9366 1025.2506 25.2186 4.7177 97.024 845.0 -4.9076673 0.0
SAV-15-04 6 14 03/17/2015 16:32:44 2015-03-17T16:32:44Z 31.083748 -76.817971 8.0 11.684 53.083682 36.669 22.9364 22.9346 1025.258 25.219 4.7004 96.665 821.0 -4.8985044 0.0
SAV-15-04 6 14 03/17/2015 16:32:44 2015-03-17T16:32:44Z 31.083748 -76.817971 9.0 13.144 53.085404 36.6681 22.9386 22.9365 1025.2616 25.2178 4.697 96.599 991.0 -4.916798 0.0
SAV-15-04 6 14 03/17/2015 16:32:44 2015-03-17T16:32:44Z 31.083748 -76.817971 10.0 14.605 53.086863 36.6694 22.9381 22.9359 1025.266 25.219 4.7047 96.757 649.0 -4.9013246 0.0
SAV-15-04 6 14 03/17/2015 16:32:44 2015-03-17T16:32:44Z 31.083748 -76.817971 11.0 16.065 53.086212 36.669 22.9377 22.9354 1025.268 25.2189 4.7034 96.729 777.0 -4.4760941 0.0
SAV-15-04 6 14 03/17/2015 16:32:44 2015-03-17T16:32:44Z 31.083748 -76.817971 12.0 17.526 53.08615 36.6703 22.9355 22.9328 1025.2772 25.2205 4.7163 96.991 682.0 -3.7814266 0.0
SAV-15-04 6 14 03/17/2015 16:32:44 2015-03-17T16:32:44Z 31.083748 -76.817971 13.0 18.986 53.081348 36.6715 22.9292 22.9263 1025.2842 25.2233 4.73 97.264 691.0 -4.4574339 0.0
SAV-15-04 6 14 03/17/2015 16:32:44 2015-03-17T16:32:44Z 31.083748 -76.817971 14.0 20.447 53.07469 36.6696 22.925 22.922 1025.2867 25.2232 4.7335 97.327 686.0 -4.8738439 0.0
SAV-15-04 6 14 03/17/2015 16:32:44 2015-03-17T16:32:44Z 31.083748 -76.817971 15.0 21.908 53.063858 36.6712 22.9127 22.9095 1025.2945 25.228 4.7015 96.649 675.0 -3.6403501 0.0
SAV-15-04 6 14 03/17/2015 16:32:44 2015-03-17T16:32:44Z 31.083748 -76.817971 16.0 23.368 53.06458 36.6668 22.9181 22.9147 1025.2949 25.2232 4.7087 96.804 605.0 -4.1118336 0.0
SAV-15-04 6 14 03/17/2015 16:32:44 2015-03-17T16:32:44Z 31.083748 -76.817971 17.0 24.828 53.062515 36.6722 22.9091 22.9053 1025.3084 25.23 4.7155 96.931 645.0 -4.434152 0.0
SAV-15-04 6 14 03/17/2015 16:32:44 2015-03-17T16:32:44Z 31.083748 -76.817971 18.0 26.288 53.058294 36.6682 22.9096 22.9056 1025.309 25.2269 4.7239 97.103 586.0 -4.4971383 0.0
SAV-15-04 6 14 03/17/2015 16:32:44 2015-03-17T16:32:44Z 31.083748 -76.817971 19.0 27.75 53.058933 36.6683 22.9099 22.9059 1025.3107 25.2268 4.7145 96.909 588.0 -4.7461998 0.0
SAV-15-04 6 14 03/17/2015 16:32:44 2015-03-17T16:32:44Z 31.083748 -76.817971 20.0 29.21 53.060451 36.6684 22.9106 22.9062 1025.3171 25.2268 4.702 96.655 528.0 -4.9046683 0.0
SAV-15-04 6 14 03/17/2015 16:32:44 2015-03-17T16:32:44Z 31.083748 -76.817971 21.0 30.67 53.05894 36.6675 22.91 22.9054 1025.3203 25.2263 4.7085 96.787 494.0 -4.649262 0.0
SAV-15-04 6 14 03/17/2015 16:32:44 2015-03-17T16:32:44Z 31.083748 -76.817971 22.0 32.131 53.060372 36.6682 22.91 22.9054 1025.324 25.227 4.7186 96.995 512.0 -4.5106803 0.0
SAV-15-04 6 14 03/17/2015 16:32:44 2015-03-17T16:32:44Z 31.083748 -76.817971 23.0 33.592 53.06113 36.6684 22.91 22.905 1025.3298 25.2272 4.7225 97.075 527.0 -4.7518678 0.0
SAV-15-04 6 14 03/17/2015 16:32:44 2015-03-17T16:32:44Z 31.083748 -76.817971 24.0 35.052 53.059566 36.6693 22.9071 22.902 1025.3349 25.2288 4.7377 97.383 459.0 -4.8385135 0.0
SAV-15-04 6 14 03/17/2015 16:32:44 2015-03-17T16:32:44Z 31.083748 -76.817971 25.0 36.513 53.052287 36.6684 22.901 22.8957 1025.3398 25.2299 4.7275 97.162 450.0 -4.7885103 0.0
SAV-15-04 6 14 03/17/2015 16:32:44 2015-03-17T16:32:44Z 31.083748 -76.817971 26.0 37.974 53.050477 36.668 22.8993 22.8937 1025.3463 25.2301 4.7275 97.16 471.0 -4.7342357 0.0
SAV-15-04 6 14 03/17/2015 16:32:44 2015-03-17T16:32:44Z 31.083748 -76.817971 27.0 39.434 53.050881 36.6677 22.8996 22.8939 1025.3496 25.2299 4.7304 97.219 449.0 -4.8897587 0.0
SAV-15-04 6 14 03/17/2015 16:32:44 2015-03-17T16:32:44Z 31.083748 -76.817971 28.0 40.895 53.049261 36.6674 22.8982 22.8923 1025.3532 25.2301 4.7202 97.008 386.0 -3.831123 0.0
SAV-15-04 6 14 03/17/2015 16:32:44 2015-03-17T16:32:44Z 31.083748 -76.817971 29.0 42.355 53.049053 36.6673 22.8977 22.8916 1025.3573 25.2302 4.7084 96.763 402.0 -4.6114209 0.0
SAV-15-04 6 14 03/17/2015 16:32:44 2015-03-17T16:32:44Z 31.083748 -76.817971 30.0 43.816 53.051435 36.6674 22.8994 22.8931 1025.3614 25.2299 4.7187 96.979 386.0 -4.8020015 0.0
SAV-15-04 6 14 03/17/2015 16:32:44 2015-03-17T16:32:44Z 31.083748 -76.817971 31.0 45.277 53.047706 36.6668 22.8961 22.8895 1025.3675 25.2304 4.7214 97.027 352.0 -4.5509828 0.0
SAV-15-04 6 14 03/17/2015 16:32:44 2015-03-17T16:32:44Z 31.083748 -76.817971 32.0 46.738 53.048622 36.6666 22.8966 22.8898 1025.3721 25.2302 4.7111 96.816 334.0 -4.5784789 0.0
SAV-15-04 6 14 03/17/2015 16:32:44 2015-03-17T16:32:44Z 31.083748 -76.817971 33.0 48.198 53.049231 36.6662 22.8973 22.8902 1025.3762 25.2298 4.7077 96.748 318.0 -4.9275772 0.0
SAV-15-04 6 14 03/17/2015 16:32:44 2015-03-17T16:32:44Z 31.083748 -76.817971 34.0 49.659 53.049066 36.6667 22.8964 22.8893 1025.3785 25.2304 4.7089 96.771 324.0 -4.5641804 0.0
SAV-15-04 6 14 03/17/2015 16:32:44 2015-03-17T16:32:44Z 31.083748 -76.817971 35.0 51.119 53.046502 36.6675 22.8922 22.8847 1025.3895 25.2324 4.7121 96.83 312.0 -4.773372 0.0
SAV-15-04 6 14 03/17/2015 16:32:44 2015-03-17T16:32:44Z 31.083748 -76.817971 36.0 52.58 53.044164 36.667 22.8901 22.8823 1025.3944 25.2327 4.7159 96.905 315.0 -4.7700244 0.0
SAV-15-04 6 14 03/17/2015 16:32:44 2015-03-17T16:32:44Z 31.083748 -76.817971 37.0 54.042 53.043551 36.6661 22.8904 22.8826 1025.3952 25.2319 4.7267 97.127 302.0 -4.6421743 0.0
SAV-15-04 6 14 03/17/2015 16:32:44 2015-03-17T16:32:44Z 31.083748 -76.817971 38.0 55.502 53.043521 36.6658 22.8908 22.8829 1025.3957 25.2316 4.7132 96.85 271.0 -4.0490131 0.0
SAV-15-04 6 14 03/17/2015 16:32:44 2015-03-17T16:32:44Z 31.083748 -76.817971 39.0 56.962 53.043215 36.6664 22.8886 22.8802 1025.4087 25.2328 4.7095 96.771 288.0 -5.0706454 0.0
SAV-15-04 6 14 03/17/2015 16:32:44 2015-03-17T16:32:44Z 31.083748 -76.817971 40.0 58.424 53.043274 36.6663 22.8886 22.8802 1025.4101 25.2328 4.7182 96.948 267.0 -4.9002636 0.0
SAV-15-04 6 14 03/17/2015 16:32:44 2015-03-17T16:32:44Z 31.083748 -76.817971 41.0 59.885 53.043008 36.6658 22.8888 22.8802 1025.4119 25.2324 4.7227 97.043 237.0 -4.9002636 0.0
SAV-15-04 6 14 03/17/2015 16:32:44 2015-03-17T16:32:44Z 31.083748 -76.817971 42.0 61.345 53.043466 36.6661 22.8885 22.8798 1025.4147 25.2327 4.6957 96.487 239.0 -4.4606106 0.0
SAV-15-04 6 14 03/17/2015 16:32:44 2015-03-17T16:32:44Z 31.083748 -76.817971 43.0 62.805 53.044225 36.6667 22.8879 22.8788 1025.4226 25.2335 4.7211 97.009 237.0 -2.6923123 0.0
SAV-15-04 6 14 03/17/2015 16:32:44 2015-03-17T16:32:44Z 31.083748 -76.817971 44.0 64.266 53.043532 36.6679 22.8853 22.876 1025.429 25.2352 4.7321 97.229 226.0 -3.6023635 0.0
SAV-15-04 6 14 03/17/2015 16:32:44 2015-03-17T16:32:44Z 31.083748 -76.817971 45.0 65.727 53.043006 36.6674 22.8851 22.8756 1025.4322 25.2349 4.722 97.023 203.0 -4.2906838 0.0
SAV-15-04 6 14 03/17/2015 16:32:44 2015-03-17T16:32:44Z 31.083748 -76.817971 46.0 67.188 53.042936 36.6668 22.8854 22.8758 1025.4349 25.2345 4.7163 96.906 193.0 -4.5951394 0.0
SAV-15-04 6 14 03/17/2015 16:32:44 2015-03-17T16:32:44Z 31.083748 -76.817971 47.0 68.648 53.043015 36.6668 22.8852 22.8754 1025.439 25.2345 4.7041 96.654 200.0 -4.4233832 0.0
SAV-15-04 6 14 03/17/2015 16:32:44 2015-03-17T16:32:44Z 31.083748 -76.817971 48.0 70.11 53.043857 36.6675 22.8847 22.8747 1025.4435 25.2353 4.7058 96.689 195.0 -4.4828193 0.0
SAV-15-04 6 14 03/17/2015 16:32:44 2015-03-17T16:32:44Z 31.083748 -76.817971 49.0 71.57 53.042514 36.6669 22.8835 22.8732 1025.4505 25.2352 4.7212 97.003 171.0 -4.9586077 0.0
SAV-15-04 6 14 03/17/2015 16:32:44 2015-03-17T16:32:44Z 31.083748 -76.817971 50.0 73.031 53.040069 36.6688 22.8784 22.8679 1025.4591 25.2382 4.7091 96.746 170.0 -4.9002636 0.0
SAV-15-04 6 14 03/17/2015 16:32:44 2015-03-17T16:32:44Z 31.083748 -76.817971 51.0 74.492 53.039792 36.6669 22.8801 22.8694 1025.4599 25.2364 4.6986 96.533 171.0 -4.9002636 0.0
SAV-15-04 6 14 03/17/2015 16:32:44 2015-03-17T16:32:44Z 31.083748 -76.817971 52.0 75.952 53.037489 36.6677 22.8769 22.8661 1025.463 25.238 4.7027 96.611 164.0 -4.7160871 0.0
SAV-15-04 6 14 03/17/2015 16:32:44 2015-03-17T16:32:44Z 31.083748 -76.817971 53.0 77.414 52.982002 36.6921 22.7955 22.7843 1025.5129 25.2801 4.7305 97.059 150.0 -3.8821641 0.0
SAV-15-04 6 14 03/17/2015 16:32:44 2015-03-17T16:32:44Z 31.083748 -76.817971 54.0 78.874 52.83743 36.7227 22.6242 22.6129 1025.5902 25.3527 4.7526 97.238 146.0 -4.7567349 0.0
SAV-15-04 6 14 03/17/2015 16:32:44 2015-03-17T16:32:44Z 31.083748 -76.817971 55.0 80.335 52.636382 36.6841 22.4826 22.4713 1025.6041 25.364 4.7555 97.033 143.0 -4.382075 0.0
SAV-15-04 6 14 03/17/2015 16:32:44 2015-03-17T16:32:44Z 31.083748 -76.817971 56.0 81.796 52.487449 36.6879 22.3389 22.3275 1025.6515 25.408 4.7381 96.436 139.0 -4.5891597 0.0
SAV-15-04 6 14 03/17/2015 16:32:44 2015-03-17T16:32:44Z 31.083748 -76.817971 57.0 83.257 52.274173 36.6866 22.141 22.1293 1025.7136 25.4634 4.7533 96.407 129.0 -4.7161739 0.0
SAV-15-04 6 14 03/17/2015 16:32:44 2015-03-17T16:32:44Z 31.083748 -76.817971 58.0 84.718 52.028848 36.6243 21.9849 21.9731 1025.7141 25.4602 4.786 96.767 125.0 -4.2249142 0.0
SAV-15-04 6 14 03/17/2015 16:32:44 2015-03-17T16:32:44Z 31.083748 -76.817971 59.0 86.179 52.000564 36.6026 21.9837 21.9718 1025.7014 25.4441 4.7602 96.233 120.0 -3.9505039 0.0
SAV-15-04 6 14 03/17/2015 16:32:44 2015-03-17T16:32:44Z 31.083748 -76.817971 60.0 87.64 51.984543 36.5952 21.977 21.9649 1025.7014 25.4404 4.7699 96.415 111.0 -4.5410575 0.0
SAV-15-04 6 14 03/17/2015 16:32:44 2015-03-17T16:32:44Z 31.083748 -76.817971 61.0 89.1 51.964113 36.5952 21.9576 21.9452 1025.7117 25.4459 4.8011 97.01 107.0 -4.1951227 0.0
SAV-15-04 6 14 03/17/2015 16:32:44 2015-03-17T16:32:44Z 31.083748 -76.817971 62.0 90.561 51.912837 36.5953 21.9085 21.8958 1025.7333 25.46 4.8011 96.927 99.9 -3.9965259 0.0
SAV-15-04 6 14 03/17/2015 16:32:44 2015-03-17T16:32:44Z 31.083748 -76.817971 63.0 92.022 51.886289 36.5972 21.8812 21.8684 1025.7455 25.4691 4.8032 96.923 91.7 -4.0645125 0.0
SAV-15-04 6 14 03/17/2015 16:32:44 2015-03-17T16:32:44Z 31.083748 -76.817971 64.0 93.483 51.870613 36.588 21.8771 21.8642 1025.7417 25.4633 4.7905 96.654 85.9 -4.2736565 0.0
SAV-15-04 6 14 03/17/2015 16:32:44 2015-03-17T16:32:44Z 31.083748 -76.817971 65.0 94.944 51.853142 36.5894 21.8587 21.8457 1025.752 25.4696 4.7729 96.269 88.4 -5.042959 0.0
SAV-15-04 6 14 03/17/2015 16:32:44 2015-03-17T16:32:44Z 31.083748 -76.817971 66.0 96.405 51.844243 36.5868 21.8527 21.8393 1025.7595 25.4694 4.7653 96.104 77.6 -4.9002636 0.0
SAV-15-04 6 14 03/17/2015 16:32:44 2015-03-17T16:32:44Z 31.083748 -76.817971 67.0 97.866 51.83729 36.5881 21.8444 21.8308 1025.7658 25.4728 4.7654 96.093 70.6 -4.1058648 0.0
SAV-15-04 6 14 03/17/2015 16:32:44 2015-03-17T16:32:44Z 31.083748 -76.817971 68.0 99.327 51.829566 36.5903 21.8344 21.8207 1025.7729 25.4773 4.7699 96.168 68.0 -3.7062264 0.0
SAV-15-04 6 14 03/17/2015 16:32:44 2015-03-17T16:32:44Z 31.083748 -76.817971 69.0 100.788 51.788559 36.5908 21.7948 21.781 1025.7889 25.4888 4.7718 96.139 67.9 -4.4561809 0.0
SAV-15-04 6 14 03/17/2015 16:32:44 2015-03-17T16:32:44Z 31.083748 -76.817971 70.0 102.248 51.754506 36.5955 21.7567 21.7426 1025.81 25.5032 4.7744 96.13 61.0 -4.7770887 0.0
SAV-15-04 6 14 03/17/2015 16:32:44 2015-03-17T16:32:44Z 31.083748 -76.817971 71.0 103.71 51.725892 36.595 21.7301 21.7158 1025.8214 25.5103 4.7807 96.21 57.0 -4.7096419 0.0
SAV-15-04 6 14 03/17/2015 16:32:44 2015-03-17T16:32:44Z 31.083748 -76.817971 72.0 105.17 51.719078 36.5897 21.7296 21.7151 1025.821 25.5065 4.7878 96.348 54.6 -4.3401243 0.0
SAV-15-04 6 14 03/17/2015 16:32:44 2015-03-17T16:32:44Z 31.083748 -76.817971 73.0 106.631 51.718379 36.59 21.7283 21.7137 1025.8241 25.5071 4.7764 96.117 51.9 -4.6354868 0.0
SAV-15-04 6 14 03/17/2015 16:32:44 2015-03-17T16:32:44Z 31.083748 -76.817971 74.0 108.092 51.708052 36.5892 21.7192 21.7044 1025.8303 25.5091 4.7089 94.743 49.6 -4.281352 0.0
SAV-15-04 6 14 03/17/2015 16:32:44 2015-03-17T16:32:44Z 31.083748 -76.817971 75.0 109.554 51.693598 36.5955 21.6974 21.6822 1025.8497 25.5201 4.7263 95.06 46.7 -3.6677971 0.0
SAV-15-04 6 14 03/17/2015 16:32:44 2015-03-17T16:32:44Z 31.083748 -76.817971 76.0 111.014 51.67825 36.5959 21.6821 21.6666 1025.8597 25.5247 4.7502 95.514 43.3 -3.6997599 0.0
SAV-15-04 6 14 03/17/2015 16:32:44 2015-03-17T16:32:44Z 31.083748 -76.817971 77.0 112.475 51.674632 36.5957 21.6786 21.663 1025.863 25.5257 4.7472 95.447 41.0 -4.1974598 0.0
SAV-15-04 6 14 03/17/2015 16:32:44 2015-03-17T16:32:44Z 31.083748 -76.817971 78.0 113.936 51.673176 36.5954 21.6775 21.6619 1025.8643 25.5256 4.7037 94.572 38.8 -4.5580147 0.0
SAV-15-04 6 14 03/17/2015 16:32:44 2015-03-17T16:32:44Z 31.083748 -76.817971 79.0 115.397 51.661945 36.5989 21.6624 21.6466 1025.8756 25.5327 4.6352 93.17 38.1 -4.2272786 0.0
SAV-15-04 6 14 03/17/2015 16:32:44 2015-03-17T16:32:44Z 31.083748 -76.817971 80.0 116.859 51.663433 36.6079 21.6525 21.6364 1025.8931 25.5424 4.6683 93.825 35.9 -4.6769101 0.0
SAV-15-04 6 14 03/17/2015 16:32:44 2015-03-17T16:32:44Z 31.083748 -76.817971 81.0 118.319 51.665157 36.6118 21.6491 21.6327 1025.9018 25.5463 4.6714 93.884 33.8 -4.8921241 0.0
SAV-15-04 6 14 03/17/2015 16:32:44 2015-03-17T16:32:44Z 31.083748 -76.817971 82.0 119.78 51.668907 36.6147 21.6488 21.6323 1025.9075 25.5486 4.6564 93.583 31.7 -4.4105302 0.0
SAV-15-04 6 14 03/17/2015 16:32:44 2015-03-17T16:32:44Z 31.083748 -76.817971 83.0 121.241 51.672545 36.6164 21.6501 21.6335 1025.9099 25.5496 4.617 92.796 30.4 -4.4216525 0.0
SAV-15-04 6 14 03/17/2015 16:32:44 2015-03-17T16:32:44Z 31.083748 -76.817971 84.0 122.702 51.706162 36.631 21.664 21.6472 1025.9214 25.5569 4.4816 90.103 30.1 -4.6585807 0.0
SAV-15-04 6 14 03/17/2015 16:32:44 2015-03-17T16:32:44Z 31.083748 -76.817971 85.0 124.164 51.732279 36.6376 21.6801 21.663 1025.9288 25.5575 4.4645 89.79 28.6 -4.7001726 0.0
SAV-15-04 6 14 03/17/2015 16:32:44 2015-03-17T16:32:44Z 31.083748 -76.817971 86.0 125.625 51.74621 36.6461 21.6829 21.6656 1025.9376 25.5632 4.4581 89.669 26.8 -3.1634153 0.0
SAV-15-04 6 14 03/17/2015 16:32:44 2015-03-17T16:32:44Z 31.083748 -76.817971 87.0 127.085 51.739418 36.6527 21.6683 21.6509 1025.9512 25.5724 4.4179 88.841 25.4 -2.9540496 0.0
SAV-15-04 6 14 03/17/2015 16:32:44 2015-03-17T16:32:44Z 31.083748 -76.817971 88.0 128.547 51.742705 36.6586 21.6639 21.6462 1025.9626 25.5782 4.3851 88.178 24.7 -3.5529676 0.0
SAV-15-04 6 14 03/17/2015 16:32:44 2015-03-17T16:32:44Z 31.083748 -76.817971 89.0 130.007 51.745338 36.6621 21.662 21.6443 1025.9681 25.5814 4.3764 88.002 24.0 -3.3460173 0.0
SAV-15-04 6 14 03/17/2015 16:32:44 2015-03-17T16:32:44Z 31.083748 -76.817971 90.0 131.469 51.734965 36.6685 21.6445 21.6265 1025.9813 25.5912 4.3234 86.911 23.0 -2.8942492 0.0
SAV-15-04 6 14 03/17/2015 16:32:44 2015-03-17T16:32:44Z 31.083748 -76.817971 91.0 132.93 51.690762 36.6799 21.5889 21.5706 1026.0139 25.6155 4.3025 86.411 21.8 -3.694968 0.0
SAV-15-04 6 14 03/17/2015 16:32:44 2015-03-17T16:32:44Z 31.083748 -76.817971 92.0 134.391 51.655635 36.6744 21.5622 21.5438 1026.0201 25.6188 4.3083 86.484 20.8 -3.3949008 0.0
SAV-15-04 6 14 03/17/2015 16:32:44 2015-03-17T16:32:44Z 31.083748 -76.817971 93.0 135.852 51.636697 36.6686 21.5509 21.5324 1026.0213 25.6176 4.3112 86.522 20.0 -3.2320766 0.0
SAV-15-04 6 14 03/17/2015 16:32:44 2015-03-17T16:32:44Z 31.083748 -76.817971 94.0 137.313 51.566103 36.6716 21.4808 21.4621 1026.0482 25.6395 4.3317 86.827 19.5 -3.8907954 0.0
SAV-15-04 6 14 03/17/2015 16:32:44 2015-03-17T16:32:44Z 31.083748 -76.817971 95.0 138.774 51.456101 36.6463 21.4068 21.3879 1026.0547 25.6408 4.3657 87.38 18.8 -3.8051367 0.0
SAV-15-04 6 14 03/17/2015 16:32:44 2015-03-17T16:32:44Z 31.083748 -76.817971 96.0 140.235 51.430968 36.637 21.3937 21.3747 1026.0548 25.6374 4.4383 88.806 18.0 -3.6264925 0.0
SAV-15-04 6 14 03/17/2015 16:32:44 2015-03-17T16:32:44Z 31.083748 -76.817971 97.0 141.696 51.40244 36.6344 21.3696 21.3504 1026.0636 25.6421 4.541 90.822 17.3 -3.7076119 0.0
SAV-15-04 6 14 03/17/2015 16:32:44 2015-03-17T16:32:44Z 31.083748 -76.817971 98.0 143.157 51.355605 36.6242 21.3372 21.3178 1026.0695 25.6434 4.5879 91.702 16.7 -4.1902085 0.0
SAV-15-04 6 14 03/17/2015 16:32:44 2015-03-17T16:32:44Z 31.083748 -76.817971 99.0 144.619 51.333106 36.6183 21.3225 21.3029 1026.0736 25.643 4.6271 92.457 16.2 -4.5605522 0.0
SAV-15-04 6 14 03/17/2015 16:32:44 2015-03-17T16:32:44Z 31.083748 -76.817971 100.0 146.08 51.305716 36.6147 21.3004 21.2806 1026.0827 25.6465 4.6696 93.268 15.4 -4.0642817 0.0
SAV-15-04 6 14 03/17/2015 16:32:44 2015-03-17T16:32:44Z 31.083748 -76.817971 101.0 147.541 51.291121 36.6073 21.295 21.275 1026.0824 25.6424 4.6812 93.487 14.7 -3.8139022 0.0
SAV-15-04 6 14 03/17/2015 16:32:44 2015-03-17T16:32:44Z 31.083748 -76.817971 102.0 149.003 51.290259 36.6057 21.2958 21.2757 1026.0837 25.641 4.6976 93.814 14.1 -3.8761688 0.0
SAV-15-04 6 14 03/17/2015 16:32:44 2015-03-17T16:32:44Z 31.083748 -76.817971 103.0 150.464 51.301591 36.608 21.3032 21.2828 1026.0888 25.6408 4.7373 94.62 13.8 -4.3709606 0.0
SAV-15-04 6 14 03/17/2015 16:32:44 2015-03-17T16:32:44Z 31.083748 -76.817971 104.0 151.925 51.304533 36.6097 21.3037 21.2832 1026.0933 25.642 4.718 94.237 13.3 -4.7030137 0.0
SAV-15-04 6 14 03/17/2015 16:32:44 2015-03-17T16:32:44Z 31.083748 -76.817971 105.0 153.386 51.305492 36.6142 21.2987 21.2779 1026.1042 25.6468 4.6569 93.011 12.7 -4.1500643 0.0
SAV-15-04 6 14 03/17/2015 16:32:44 2015-03-17T16:32:44Z 31.083748 -76.817971 106.0 154.847 51.28623 36.6178 21.276 21.2549 1026.1186 25.6559 4.6322 92.483 12.0 -4.472911 0.0
SAV-15-04 6 14 03/17/2015 16:32:44 2015-03-17T16:32:44Z 31.083748 -76.817971 107.0 156.308 51.271108 36.6118 21.2685 21.2474 1026.1187 25.6534 4.6427 92.675 11.5 -4.7751443 0.0
SAV-15-04 6 14 03/17/2015 16:32:44 2015-03-17T16:32:44Z 31.083748 -76.817971 108.0 157.77 51.26311 36.6121 21.2602 21.2389 1026.1248 25.656 4.6519 92.845 11.2 -4.6292788 0.0
SAV-15-04 6 14 03/17/2015 16:32:44 2015-03-17T16:32:44Z 31.083748 -76.817971 109.0 159.231 51.245922 36.6146 21.2405 21.2189 1026.1388 25.6634 4.6807 93.389 10.9 -4.1797125 0.0
SAV-15-04 6 14 03/17/2015 16:32:44 2015-03-17T16:32:44Z 31.083748 -76.817971 110.0 160.692 51.240108 36.6126 21.2371 21.2153 1026.142 25.6629 4.6823 93.415 10.3 -3.9088808 0.0
SAV-15-04 6 14 03/17/2015 16:32:44 2015-03-17T16:32:44Z 31.083748 -76.817971 111.0 162.153 51.237719 36.6112 21.2362 21.2144 1026.1436 25.6621 4.6873 93.512 9.81 -4.573202 0.0
SAV-15-04 6 14 03/17/2015 16:32:44 2015-03-17T16:32:44Z 31.083748 -76.817971 112.0 163.615 51.22906 36.6127 21.2258 21.2038 1026.1525 25.6662 4.6614 92.98 9.48 -3.6458224 0.0
SAV-15-04 6 14 03/17/2015 16:32:44 2015-03-17T16:32:44Z 31.083748 -76.817971 113.0 165.076 51.220488 36.6143 21.2153 21.1929 1026.1627 25.6704 4.6537 92.808 9.13 -4.5250244 0.0
SAV-15-04 6 14 03/17/2015 16:32:44 2015-03-17T16:32:44Z 31.083748 -76.817971 114.0 166.537 51.213983 36.6142 21.2089 21.1864 1026.1687 25.6721 4.6533 92.789 8.78 -4.8019511 0.0
SAV-15-04 6 14 03/17/2015 16:32:44 2015-03-17T16:32:44Z 31.083748 -76.817971 115.0 167.998 51.209694 36.6136 21.2051 21.1825 1026.1734 25.6727 4.6494 92.705 8.41 -3.9138197 0.0
SAV-15-04 6 14 03/17/2015 16:32:44 2015-03-17T16:32:44Z 31.083748 -76.817971 116.0 169.459 51.208111 36.6121 21.2051 21.1823 1026.1751 25.6717 4.6516 92.749 8.05 -4.5064766 0.0
SAV-15-04 6 14 03/17/2015 16:32:44 2015-03-17T16:32:44Z 31.083748 -76.817971 117.0 170.921 51.197279 36.6142 21.1922 21.1692 1026.1841 25.6768 4.6272 92.242 7.8 -4.6350557 0.0
SAV-15-04 6 14 03/17/2015 16:32:44 2015-03-17T16:32:44Z 31.083748 -76.817971 118.0 172.382 51.172291 36.6186 21.1628 21.1394 1026.2037 25.6884 4.6365 92.381 7.51 -4.2916456 0.0
SAV-15-04 6 14 03/17/2015 16:32:44 2015-03-17T16:32:44Z 31.083748 -76.817971 119.0 173.843 51.157986 36.6125 21.156 21.1326 1026.2047 25.6856 4.6579 92.792 7.24 -4.3333516 0.0
SAV-15-04 6 14 03/17/2015 16:32:44 2015-03-17T16:32:44Z 31.083748 -76.817971 120.0 175.304 51.156111 36.6124 21.154 21.1304 1026.2087 25.6862 4.6708 93.047 6.95 -4.3926809 0.0
SAV-15-04 6 14 03/17/2015 16:32:44 2015-03-17T16:32:44Z 31.083748 -76.817971 121.0 176.766 51.153629 36.6107 21.1534 21.1296 1026.2106 25.6851 4.6825 93.278 6.66 -3.7613669 0.0
SAV-15-04 6 14 03/17/2015 16:32:44 2015-03-17T16:32:44Z 31.083748 -76.817971 122.0 178.227 51.152315 36.6087 21.1542 21.1303 1026.2122 25.6834 4.6717 93.063 6.42 -3.2315741 0.0
SAV-15-04 6 14 03/17/2015 16:32:44 2015-03-17T16:32:44Z 31.083748 -76.817971 123.0 179.688 51.192732 36.6216 21.1764 21.1521 1026.2239 25.6872 4.6634 92.942 6.19 -4.2928512 0.0
SAV-15-04 6 14 03/17/2015 16:32:44 2015-03-17T16:32:44Z 31.083748 -76.817971 124.0 181.15 51.19284 36.6314 21.1646 21.1401 1026.2392 25.698 4.6597 92.854 5.94 -4.8623159 0.0
SAV-15-04 6 14 03/17/2015 16:32:44 2015-03-17T16:32:44Z 31.083748 -76.817971 125.0 182.611 51.188721 36.6318 21.16 21.1353 1026.2432 25.6996 4.6451 92.555 5.71 -4.9002636 0.0
SAV-15-04 6 14 03/17/2015 16:32:44 2015-03-17T16:32:44Z 31.083748 -76.817971 126.0 184.072 51.185543 36.6313 21.1574 21.1327 1026.2458 25.6999 4.5948 91.549 5.48 -4.7397306 0.0
SAV-15-04 6 14 03/17/2015 16:32:44 2015-03-17T16:32:44Z 31.083748 -76.817971 127.0 185.534 51.194884 36.639 21.1561 21.131 1026.2624 25.7063 4.5797 91.249 5.25 -4.5462276 0.0
SAV-15-04 6 14 03/17/2015 16:32:44 2015-03-17T16:32:44Z 31.083748 -76.817971 128.0 186.995 51.203498 36.6501 21.1511 21.1258 1026.2747 25.7162 4.6041 91.734 5.05 -4.3284474 0.0
SAV-15-04 6 14 03/17/2015 16:32:44 2015-03-17T16:32:44Z 31.083748 -76.817971 129.0 188.457 51.187476 36.6484 21.1378 21.1125 1026.2789 25.7186 4.593 91.49 4.84 -3.9419804 0.0
SAV-15-04 6 14 03/17/2015 16:32:44 2015-03-17T16:32:44Z 31.083748 -76.817971 130.0 189.918 51.169455 36.6466 21.1227 21.0973 1026.2843 25.7213 4.4936 89.484 4.69 -3.7492135 0.0
SAV-15-04 6 14 03/17/2015 16:32:44 2015-03-17T16:32:44Z 31.083748 -76.817971 131.0 191.379 51.13632 36.6464 21.0909 21.065 1026.3029 25.73 4.4839 89.239 4.49 -4.1467707 0.0
SAV-15-04 6 14 03/17/2015 16:32:44 2015-03-17T16:32:44Z 31.083748 -76.817971 132.0 192.841 51.128747 36.6457 21.0843 21.0584 1026.3066 25.7314 4.5098 89.745 4.33 -4.4428464 0.0
SAV-15-04 6 14 03/17/2015 16:32:44 2015-03-17T16:32:44Z 31.083748 -76.817971 133.0 194.302 51.126021 36.6434 21.0842 21.0582 1026.3068 25.7297 4.5174 89.894 4.18 -4.5491517 0.0
SAV-15-04 6 14 03/17/2015 16:32:44 2015-03-17T16:32:44Z 31.083748 -76.817971 134.0 195.763 51.119999 36.6485 21.0722 21.046 1026.3182 25.7369 4.5059 89.649 4.06 -4.1327256 0.0
SAV-15-04 6 14 03/17/2015 16:32:44 2015-03-17T16:32:44Z 31.083748 -76.817971 135.0 197.225 51.085086 36.6529 21.0339 21.0075 1026.3369 25.7508 4.5178 89.826 3.94 -4.7883102 0.0
SAV-15-04 6 14 03/17/2015 16:32:44 2015-03-17T16:32:44Z 31.083748 -76.817971 136.0 198.686 51.066524 36.6481 21.0215 20.9949 1026.3414 25.7506 4.4942 89.334 3.81 -4.6234272 0.0
SAV-15-04 6 14 03/17/2015 16:32:44 2015-03-17T16:32:44Z 31.083748 -76.817971 137.0 200.148 51.049957 36.6462 21.0076 20.9809 1026.3487 25.753 4.5062 89.551 3.69 -4.9112314 0.0
SAV-15-04 6 14 03/17/2015 16:32:44 2015-03-17T16:32:44Z 31.083748 -76.817971 138.0 201.609 51.033055 36.6448 20.993 20.966 1026.3562 25.7561 4.536 90.118 3.58 -3.3662087 0.0
SAV-15-04 6 14 03/17/2015 16:32:44 2015-03-17T16:32:44Z 31.083748 -76.817971 139.0 203.07 51.023213 36.6399 20.989 20.9618 1026.3579 25.7534 4.5573 90.532 3.47 -4.4574855 0.0
SAV-15-04 6 14 03/17/2015 16:32:44 2015-03-17T16:32:44Z 31.083748 -76.817971 140.0 204.532 51.021764 36.6389 20.9884 20.9611 1026.3605 25.7529 4.5764 90.909 3.36 -4.823519 0.0
SAV-15-04 6 14 03/17/2015 16:32:44 2015-03-17T16:32:44Z 31.083748 -76.817971 141.0 205.994 51.01598 36.64 20.9813 20.9538 1026.367 25.7558 4.5519 90.411 3.28 -4.150319 0.0
SAV-15-04 6 14 03/17/2015 16:32:44 2015-03-17T16:32:44Z 31.083748 -76.817971 142.0 207.456 50.98721 36.6416 20.9515 20.9235 1026.3869 25.7652 4.5741 90.805 3.17 -3.6241598 0.0
SAV-15-04 6 14 03/17/2015 16:32:44 2015-03-17T16:32:44Z 31.083748 -76.817971 143.0 208.917 50.97038 36.6372 20.9404 20.9124 1026.3899 25.7649 4.5954 91.207 3.07 -4.365808 0.0
SAV-15-04 6 14 03/17/2015 16:32:44 2015-03-17T16:32:44Z 31.083748 -76.817971 144.0 210.377 50.962997 36.6321 20.9393 20.9112 1026.3872 25.7614 4.6121 91.534 2.96 -4.1376648 0.0
SAV-15-04 6 14 03/17/2015 16:32:44 2015-03-17T16:32:44Z 31.083748 -76.817971 145.0 211.839 50.974915 36.6358 20.9461 20.9179 1026.3901 25.7623 4.5924 91.157 2.87 -3.753891 0.0
SAV-15-04 6 14 03/17/2015 16:32:44 2015-03-17T16:32:44Z 31.083748 -76.817971 146.0 213.301 50.923326 36.6307 20.9026 20.874 1026.4074 25.7704 4.6004 91.24 2.77 -2.5820345 0.0
SAV-15-04 6 14 03/17/2015 16:32:44 2015-03-17T16:32:44Z 31.083748 -76.817971 147.0 214.762 50.920421 36.6288 20.9018 20.8732 1026.4077 25.7693 4.6215 91.657 2.69 -5.0320846 0.0
SAV-15-04 6 14 03/17/2015 16:32:44 2015-03-17T16:32:44Z 31.083748 -76.817971 148.0 216.224 50.91532 36.6274 20.8983 20.8696 1026.4113 25.7691 4.647 92.157 2.61 -3.9162712 0.0
SAV-15-04 6 14 03/17/2015 16:32:44 2015-03-17T16:32:44Z 31.083748 -76.817971 149.0 217.685 50.909623 36.6254 20.8947 20.8657 1026.4166 25.7687 4.6654 92.515 2.53 -4.6201494 0.0
SAV-15-04 6 14 03/17/2015 16:32:44 2015-03-17T16:32:44Z 31.083748 -76.817971 150.0 219.147 50.910223 36.625 20.8954 20.8662 1026.4192 25.7683 4.6755 92.717 2.45 -4.5344067 0.0
SAV-15-04 6 14 03/17/2015 16:32:44 2015-03-17T16:32:44Z 31.083748 -76.817971 151.0 220.608 50.90901 36.6255 20.8933 20.8639 1026.4248 25.7693 4.6705 92.613 2.38 -4.5285942 0.0
SAV-15-04 6 14 03/17/2015 16:32:44 2015-03-17T16:32:44Z 31.083748 -76.817971 152.0 222.07 50.895887 36.6289 20.8763 20.8467 1026.4388 25.7765 4.658 92.338 2.3 -4.5081425 0.0
SAV-15-04 6 14 03/17/2015 16:32:44 2015-03-17T16:32:44Z 31.083748 -76.817971 153.0 223.531 50.885751 36.625 20.871 20.8412 1026.4405 25.7751 4.6735 92.636 2.23 -3.3883519 0.0
SAV-15-04 6 14 03/17/2015 16:32:44 2015-03-17T16:32:44Z 31.083748 -76.817971 154.0 224.993 50.883701 36.6246 20.8693 20.8394 1026.4427 25.7753 4.6715 92.591 2.17 -3.6873609 0.0
SAV-15-04 6 14 03/17/2015 16:32:44 2015-03-17T16:32:44Z 31.083748 -76.817971 155.0 226.454 50.878676 36.6248 20.8636 20.8333 1026.4525 25.7771 4.6515 92.187 2.1 -3.387836 0.0
SAV-15-04 6 14 03/17/2015 16:32:44 2015-03-17T16:32:44Z 31.083748 -76.817971 156.0 227.916 50.877556 36.6248 20.8621 20.8316 1026.4574 25.7776 4.6466 92.087 2.02 -3.336275 0.0
SAV-15-04 6 14 03/17/2015 16:32:44 2015-03-17T16:32:44Z 31.083748 -76.817971 157.0 229.377 50.874065 36.6274 20.8555 20.8249 1026.4643 25.7814 4.6449 92.045 1.96 -2.7789921 0.0
SAV-15-04 6 14 03/17/2015 16:32:44 2015-03-17T16:32:44Z 31.083748 -76.817971 158.0 230.839 50.870693 36.6252 20.8547 20.824 1026.4651 25.7799 4.6227 91.601 1.91 -3.033548 0.0
SAV-15-04 6 14 03/17/2015 16:32:44 2015-03-17T16:32:44Z 31.083748 -76.817971 159.0 232.3 50.859404 36.6275 20.8409 20.81 1026.4748 25.7855 4.6028 91.186 1.85 -3.7272229 0.0
SAV-15-04 6 14 03/17/2015 16:32:44 2015-03-17T16:32:44Z 31.083748 -76.817971 160.0 233.762 50.830674 36.6317 20.8081 20.7769 1026.4958 25.7977 4.6373 91.816 1.79 -3.9464114 0.0
SAV-15-04 6 14 03/17/2015 16:32:44 2015-03-17T16:32:44Z 31.083748 -76.817971 161.0 235.224 50.80359 36.6229 20.7925 20.7611 1026.4975 25.7953 4.6451 91.941 1.74 -4.3046646 0.0
SAV-15-04 6 14 03/17/2015 16:32:44 2015-03-17T16:32:44Z 31.083748 -76.817971 162.0 236.685 50.796855 36.6227 20.786 20.7546 1026.5014 25.797 4.6517 92.061 1.69 -4.1618807 0.0
SAV-15-04 6 14 03/17/2015 16:32:44 2015-03-17T16:32:44Z 31.083748 -76.817971 163.0 238.147 50.794089 36.6183 20.7885 20.757 1026.4987 25.793 4.6308 91.649 1.64 -3.9323787 0.0
SAV-15-04 6 14 03/17/2015 16:32:44 2015-03-17T16:32:44Z 31.083748 -76.817971 164.0 239.609 50.784433 36.6184 20.7783 20.7462 1026.5122 25.7959 4.6636 92.28 1.59 -4.246249 0.0
SAV-15-04 6 14 03/17/2015 16:32:44 2015-03-17T16:32:44Z 31.083748 -76.817971 165.0 241.07 50.781352 36.6177 20.7758 20.7436 1026.5166 25.7961 4.6748 92.498 1.55 -4.1797963 0.0
SAV-15-04 6 14 03/17/2015 16:32:44 2015-03-17T16:32:44Z 31.083748 -76.817971 166.0 242.532 50.779201 36.6168 20.7746 20.7423 1026.5187 25.7958 4.6833 92.665 1.5 -4.1683077 0.0
SAV-15-04 6 14 03/17/2015 16:32:44 2015-03-17T16:32:44Z 31.083748 -76.817971 167.0 243.994 50.777992 36.617 20.773 20.7407 1026.5212 25.7963 4.6788 92.571 1.45 -4.206415 0.0
SAV-15-04 6 14 03/17/2015 16:32:44 2015-03-17T16:32:44Z 31.083748 -76.817971 168.0 245.455 50.777952 36.617 20.7726 20.7402 1026.5239 25.7965 4.6686 92.37 1.41 -3.8828066 0.0
SAV-15-04 6 14 03/17/2015 16:32:44 2015-03-17T16:32:44Z 31.083748 -76.817971 169.0 246.917 50.77134 36.6171 20.7654 20.7326 1026.5349 25.7987 4.6897 92.775 1.37 -4.1303321 0.0
SAV-15-04 6 14 03/17/2015 16:32:44 2015-03-17T16:32:44Z 31.083748 -76.817971 170.0 248.378 50.770911 36.6188 20.7627 20.7297 1026.5406 25.8007 4.7015 93.006 1.32 -4.1037578 0.0
SAV-15-04 6 14 03/17/2015 16:32:44 2015-03-17T16:32:44Z 31.083748 -76.817971 171.0 249.84 50.765178 36.6179 20.758 20.7249 1026.5441 25.8014 4.6895 92.76 1.29 -4.0682723 0.0
SAV-15-04 6 14 03/17/2015 16:32:44 2015-03-17T16:32:44Z 31.083748 -76.817971 172.0 251.302 50.764698 36.6178 20.7574 20.7241 1026.5472 25.8015 4.6698 92.368 1.25 -4.314832 0.0
SAV-15-04 6 14 03/17/2015 16:32:44 2015-03-17T16:32:44Z 31.083748 -76.817971 173.0 252.763 50.765212 36.6197 20.7553 20.7218 1026.5538 25.8036 4.6641 92.254 1.21 -4.1565104 0.0
SAV-15-04 6 14 03/17/2015 16:32:44 2015-03-17T16:32:44Z 31.083748 -76.817971 174.0 254.225 50.764528 36.6204 20.7532 20.7194 1026.5612 25.8048 4.6545 92.061 1.18 -4.1754724 0.0
SAV-15-04 6 14 03/17/2015 16:32:44 2015-03-17T16:32:44Z 31.083748 -76.817971 175.0 255.687 50.766394 36.6213 20.7533 20.7193 1026.568 25.8055 4.6402 91.779 1.14 -4.1424041 0.0
SAV-15-04 6 14 03/17/2015 16:32:44 2015-03-17T16:32:44Z 31.083748 -76.817971 176.0 257.148 50.770079 36.6285 20.7482 20.7141 1026.5774 25.8124 4.6435 91.838 1.11 -4.0995835 0.0
SAV-15-04 6 14 03/17/2015 16:32:44 2015-03-17T16:32:44Z 31.083748 -76.817971 177.0 258.61 50.767779 36.6303 20.7437 20.7095 1026.5818 25.815 4.5647 90.275 1.08 -3.9731854 0.0
SAV-15-04 6 14 03/17/2015 16:32:44 2015-03-17T16:32:44Z 31.083748 -76.817971 178.0 260.071 50.746363 36.6427 20.7082 20.6736 1026.6107 25.8343 4.5157 89.254 1.04 -4.8228149 0.0
SAV-15-04 6 14 03/17/2015 16:32:44 2015-03-17T16:32:44Z 31.083748 -76.817971 179.0 261.533 50.709961 36.6507 20.6643 20.6296 1026.6328 25.8522 4.5055 88.986 1.01 -3.6294271 0.0
SAV-15-04 6 14 03/17/2015 16:32:44 2015-03-17T16:32:44Z 31.083748 -76.817971 180.0 262.995 50.674235 36.6432 20.639 20.6042 1026.6365 25.8535 4.4886 88.609 0.975 -3.3708495 0.0
SAV-15-04 6 14 03/17/2015 16:32:44 2015-03-17T16:32:44Z 31.083748 -76.817971 181.0 264.457 50.667975 36.6362 20.6412 20.6063 1026.6319 25.8475 4.3923 86.707 0.945 -3.7248306 0.0
SAV-15-04 6 14 03/17/2015 16:32:44 2015-03-17T16:32:44Z 31.083748 -76.817971 182.0 265.919 50.607093 36.6393 20.5793 20.5441 1026.6605 25.8668 4.3758 86.287 0.915 -3.6206501 0.0
SAV-15-04 6 14 03/17/2015 16:32:44 2015-03-17T16:32:44Z 31.083748 -76.817971 183.0 267.38 50.585235 36.6424 20.5548 20.5195 1026.6725 25.8757 4.3971 86.67 0.884 -3.1541949 0.0
SAV-15-04 6 14 03/17/2015 16:32:44 2015-03-17T16:32:44Z 31.083748 -76.817971 184.0 268.842 50.524916 36.6289 20.5134 20.478 1026.6755 25.8766 4.4072 86.797 0.855 -3.1387931 0.0
SAV-15-04 6 14 03/17/2015 16:32:44 2015-03-17T16:32:44Z 31.083748 -76.817971 185.0 270.304 50.495394 36.6209 20.4944 20.4589 1026.6783 25.8757 4.461 87.821 0.831 -3.4489575 0.0
SAV-15-04 6 14 03/17/2015 16:32:44 2015-03-17T16:32:44Z 31.083748 -76.817971 186.0 271.766 50.468434 36.6129 20.4777 20.4421 1026.6813 25.8742 4.5815 90.163 0.804 -4.2071663 0.0
SAV-15-04 6 14 03/17/2015 16:32:44 2015-03-17T16:32:44Z 31.083748 -76.817971 187.0 273.227 50.447651 36.6128 20.4576 20.4217 1026.6928 25.8796 4.6667 91.807 0.779 -4.7849378 0.0
SAV-15-04 6 14 03/17/2015 16:32:44 2015-03-17T16:32:44Z 31.083748 -76.817971 188.0 274.689 50.439457 36.6154 20.4463 20.4101 1026.7041 25.8847 4.677 91.99 0.754 -3.3017672 0.0
SAV-15-04 6 14 03/17/2015 16:32:44 2015-03-17T16:32:44Z 31.083748 -76.817971 189.0 276.151 50.422655 36.6113 20.435 20.3987 1026.7057 25.8846 4.6905 92.235 0.734 -3.2563314 0.0
SAV-15-04 6 14 03/17/2015 16:32:44 2015-03-17T16:32:44Z 31.083748 -76.817971 190.0 277.613 50.418592 36.6088 20.4338 20.3974 1026.707 25.8831 4.6579 91.591 0.713 -4.1897955 0.0
SAV-15-04 6 14 03/17/2015 16:32:44 2015-03-17T16:32:44Z 31.083748 -76.817971 191.0 279.075 50.409317 36.6121 20.4204 20.3837 1026.7215 25.8893 4.6524 91.463 0.691 -4.1795514 0.0
SAV-15-04 6 14 03/17/2015 16:32:44 2015-03-17T16:32:44Z 31.083748 -76.817971 192.0 280.537 50.396802 36.6089 20.4121 20.3753 1026.7232 25.8891 4.6501 91.402 0.67 -4.322202 0.0
SAV-15-04 6 14 03/17/2015 16:32:44 2015-03-17T16:32:44Z 31.083748 -76.817971 193.0 281.998 50.392284 36.6065 20.4102 20.3734 1026.7248 25.8878 4.6403 91.204 0.652 -3.2330359 0.0
SAV-15-04 6 14 03/17/2015 16:32:44 2015-03-17T16:32:44Z 31.083748 -76.817971 194.0 283.46 50.394698 36.606 20.4122 20.3749 1026.7328 25.8871 4.6574 91.543 0.634 -2.9745449 0.0
SAV-15-04 6 14 03/17/2015 16:32:44 2015-03-17T16:32:44Z 31.083748 -76.817971 195.0 284.922 50.400392 36.6086 20.4143 20.3768 1026.7384 25.8885 4.6722 91.84 0.616 -2.9866542 0.0
SAV-15-04 6 14 03/17/2015 16:32:44 2015-03-17T16:32:44Z 31.083748 -76.817971 196.0 286.384 50.400743 36.6103 20.4124 20.3748 1026.7422 25.8904 4.6752 91.897 0.598 -3.9840735 0.0
SAV-15-04 6 14 03/17/2015 16:32:44 2015-03-17T16:32:44Z 31.083748 -76.817971 197.0 287.846 50.396547 36.6116 20.4067 20.3691 1026.7465 25.8929 4.6038 90.485 0.584 -4.0746767 0.0
SAV-15-04 6 14 03/17/2015 16:32:44 2015-03-17T16:32:44Z 31.083748 -76.817971 198.0 289.308 50.374265 36.6175 20.378 20.34 1026.7678 25.9052 4.6054 90.472 0.567 -3.8570556 0.0
SAV-15-04 6 14 03/17/2015 16:32:44 2015-03-17T16:32:44Z 31.083748 -76.817971 199.0 290.769 50.362217 36.6235 20.3593 20.3211 1026.7817 25.9149 4.6058 90.453 0.553 -3.6794068 0.0
SAV-15-04 6 14 03/17/2015 16:32:44 2015-03-17T16:32:44Z 31.083748 -76.817971 200.0 292.232 50.343564 36.6223 20.3428 20.3046 1026.7876 25.9184 4.5928 90.169 0.535 -3.7404765 0.0
SAV-15-04 6 14 03/17/2015 16:32:44 2015-03-17T16:32:44Z 31.083748 -76.817971 201.0 293.693 50.343008 36.614 20.3519 20.3138 1026.7776 25.9096 4.5473 89.286 0.521 -4.219095 0.0
SAV-15-04 7 2 03/19/2015 13:18:33 2015-03-19T13:18:33Z 31.403267 -80.86558 2.0 2.921 43.101623 35.6324 14.4894 14.4891 1026.5816 26.5714 4.7268 82.514 48.7 -2.651134 0.0
SAV-15-04 7 2 03/19/2015 13:18:33 2015-03-19T13:18:33Z 31.403267 -80.86558 3.0 4.381 42.889675 35.4386 14.4867 14.4863 1026.4342 26.4223 6.1693 107.572 38.2 0.4440411 0.0
SAV-15-04 7 2 03/19/2015 13:18:33 2015-03-19T13:18:33Z 31.403267 -80.86558 4.0 5.842 42.94293 35.4888 14.4849 14.4843 1026.4812 26.4616 5.8052 101.244 30.4 -0.3767843 0.0
SAV-15-04 7 2 03/19/2015 13:18:33 2015-03-19T13:18:33Z 31.403267 -80.86558 5.0 7.303 42.943986 35.4893 14.4851 14.4843 1026.4858 26.4619 5.816 101.432 25.2 -1.6784235 0.0
SAV-15-04 7 2 03/19/2015 13:18:33 2015-03-19T13:18:33Z 31.403267 -80.86558 6.0 8.763 42.949062 35.4935 14.485 14.484 1026.4947 26.4653 5.8109 101.346 20.9 -1.8288884 0.0
SAV-15-04 7 2 03/19/2015 13:18:33 2015-03-19T13:18:33Z 31.403267 -80.86558 7.0 10.223 42.950101 35.4942 14.485 14.4839 1026.4983 26.4658 5.8041 101.227 17.6 -0.5524453 0.0
SAV-15-04 7 2 03/19/2015 13:18:33 2015-03-19T13:18:33Z 31.403267 -80.86558 8.0 11.684 42.947672 35.4954 14.4806 14.4793 1026.5065 26.4677 5.793 101.026 15.0 -1.2298787 0.0
SAV-15-04 7 2 03/19/2015 13:18:33 2015-03-19T13:18:33Z 31.403267 -80.86558 9.0 13.145 42.946709 35.4951 14.4796 14.4782 1026.5097 26.4678 5.8019 101.178 12.5 -1.9118822 0.0
SAV-15-04 7 2 03/19/2015 13:18:33 2015-03-19T13:18:33Z 31.403267 -80.86558 10.0 14.605 42.944786 35.4969 14.4753 14.4738 1026.5157 26.4701 5.8044 101.214 10.6 0.9210405 0.0
SAV-15-04 7 2 03/19/2015 13:18:33 2015-03-19T13:18:33Z 31.403267 -80.86558 11.0 16.066 42.94653 35.4996 14.4735 14.4718 1026.5242 26.4725 5.7987 101.114 9.23 -0.5246996 0.0
SAV-15-04 7 2 03/19/2015 13:18:33 2015-03-19T13:18:33Z 31.403267 -80.86558 12.0 17.526 42.950194 35.5021 14.474 14.4722 1026.5303 26.4744 5.8006 101.148 7.72 -0.9524347 0.0
SAV-15-04 7 2 03/19/2015 13:18:33 2015-03-19T13:18:33Z 31.403267 -80.86558 13.0 18.987 42.955094 35.5055 14.475 14.473 1026.5359 26.4768 5.8082 101.286 6.79 -0.1334421 0.0
SAV-15-04 7 2 03/19/2015 13:18:33 2015-03-19T13:18:33Z 31.403267 -80.86558 14.0 20.447 42.965255 35.5121 14.4773 14.4751 1026.5469 26.4816 5.8017 101.18 5.74 0.3846161 0.0
SAV-15-04 7 2 03/19/2015 13:18:33 2015-03-19T13:18:33Z 31.403267 -80.86558 15.0 21.908 42.969317 35.5152 14.4777 14.4755 1026.5519 26.4839 5.7918 101.011 4.94 -0.977419 0.0
SAV-15-04 7 2 03/19/2015 13:18:33 2015-03-19T13:18:33Z 31.403267 -80.86558 16.0 23.369 42.982197 35.524 14.4806 14.4781 1026.5645 26.49 5.7795 100.807 4.3 -0.4660673 0.0
SAV-15-04 7 2 03/19/2015 13:18:33 2015-03-19T13:18:33Z 31.403267 -80.86558 17.0 24.829 42.980185 35.5223 14.4801 14.4776 1026.5658 26.4888 5.7948 101.072 3.67 -0.4375133 0.0
SAV-15-04 7 2 03/19/2015 13:18:33 2015-03-19T13:18:33Z 31.403267 -80.86558 18.0 26.29 42.986171 35.5264 14.4814 14.4787 1026.5717 26.4918 5.7933 101.051 2.99 -2.9969873 0.0
SAV-15-04 7 2 03/19/2015 13:18:33 2015-03-19T13:18:33Z 31.403267 -80.86558 19.0 27.75 42.988335 35.5275 14.482 14.4793 1026.5752 26.4925 5.797 101.118 2.38 -2.1836606 0.0
SAV-15-04 8 2 03/19/2015 14:05:30 2015-03-19T14:05:30Z 31.399274 -80.861951 2.0 2.921 43.074417 35.5794 14.5196 14.5192 1026.5351 26.5239 4.4043 76.912 115.0 -5.1071636 0.0
SAV-15-04 8 2 03/19/2015 14:05:30 2015-03-19T14:05:30Z 31.399274 -80.861951 3.0 4.381 42.846302 35.3869 14.4995 14.4991 1026.3911 26.3796 6.1469 107.174 91.6 -3.7263381 0.0
SAV-15-04 8 2 03/19/2015 14:05:30 2015-03-19T14:05:30Z 31.399274 -80.861951 4.0 5.842 42.905382 35.4527 14.4865 14.4858 1026.4534 26.4333 5.7864 100.895 72.1 -4.4646612 0.0
SAV-15-04 8 2 03/19/2015 14:05:30 2015-03-19T14:05:30Z 31.399274 -80.861951 5.0 7.303 42.905346 35.4551 14.4833 14.4825 1026.4598 26.4359 5.8072 101.254 63.6 -3.3691462 0.0
SAV-15-04 8 2 03/19/2015 14:05:30 2015-03-19T14:05:30Z 31.399274 -80.861951 6.0 8.763 42.908787 35.4668 14.4735 14.4725 1026.4763 26.4471 5.8228 101.514 51.1 -3.6226624 0.0
SAV-15-04 8 2 03/19/2015 14:05:30 2015-03-19T14:05:30Z 31.399274 -80.861951 7.0 10.223 42.909742 35.4675 14.4733 14.4722 1026.4809 26.4477 5.8147 101.371 43.0 -3.7299215 0.0
SAV-15-04 8 2 03/19/2015 14:05:30 2015-03-19T14:05:30Z 31.399274 -80.861951 8.0 11.684 42.911936 35.47 14.4724 14.4711 1026.4873 26.4498 5.8093 101.277 35.9 -4.2046936 0.0
SAV-15-04 8 2 03/19/2015 14:05:30 2015-03-19T14:05:30Z 31.399274 -80.861951 9.0 13.145 42.910933 35.4681 14.4729 14.4714 1026.4912 26.4483 5.8038 101.181 30.5 -3.5736109 0.0
SAV-15-04 8 2 03/19/2015 14:05:30 2015-03-19T14:05:30Z 31.399274 -80.861951 10.0 14.606 42.913723 35.4706 14.4724 14.4709 1026.4979 26.4504 5.8056 101.214 26.5 -3.188568 0.0
SAV-15-04 8 2 03/19/2015 14:05:30 2015-03-19T14:05:30Z 31.399274 -80.861951 11.0 16.066 42.918432 35.4755 14.4715 14.4698 1026.5051 26.4544 5.8014 101.142 22.6 -3.2982174 0.0
SAV-15-04 8 2 03/19/2015 14:05:30 2015-03-19T14:05:30Z 31.399274 -80.861951 12.0 17.526 42.922815 35.4789 14.4718 14.47 1026.5121 26.457 5.7806 100.781 19.3 -4.5877048 0.0
SAV-15-04 8 2 03/19/2015 14:05:30 2015-03-19T14:05:30Z 31.399274 -80.861951 13.0 18.986 42.944588 35.4983 14.4719 14.4698 1026.534 26.472 5.8073 101.258 16.5 -4.0311769 0.0
SAV-15-04 8 2 03/19/2015 14:05:30 2015-03-19T14:05:30Z 31.399274 -80.861951 14.0 20.447 42.94837 35.5014 14.4722 14.47 1026.5387 26.4743 5.8093 101.297 14.2 -4.1063489 0.0
SAV-15-04 8 2 03/19/2015 14:05:30 2015-03-19T14:05:30Z 31.399274 -80.861951 15.0 21.908 42.938359 35.4908 14.4731 14.4709 1026.5342 26.466 5.7978 101.091 12.2 -4.4721822 0.0
SAV-15-04 8 2 03/19/2015 14:05:30 2015-03-19T14:05:30Z 31.399274 -80.861951 16.0 23.369 42.949278 35.5008 14.4727 14.4702 1026.5479 26.4738 5.8028 101.184 10.4 -4.180342 0.0
SAV-15-04 8 2 03/19/2015 14:05:30 2015-03-19T14:05:30Z 31.399274 -80.861951 17.0 24.83 42.953427 35.504 14.4729 14.4703 1026.5542 26.4763 5.805 101.225 8.8 -3.8069123 0.0
SAV-15-04 8 2 03/19/2015 14:05:30 2015-03-19T14:05:30Z 31.399274 -80.861951 18.0 26.29 42.954394 35.5044 14.4731 14.4704 1026.5579 26.4766 5.8014 101.162 7.63 -4.1166405 0.0
SAV-15-04 8 2 03/19/2015 14:05:30 2015-03-19T14:05:30Z 31.399274 -80.861951 19.0 27.751 42.957271 35.5064 14.4737 14.4709 1026.5611 26.478 5.7905 100.974 6.07 -4.0150871 0.0
SAV-15-04 9 3 03/19/2015 17:56:09 2015-03-19T17:56:09Z 31.372463 -80.630661 2.0 2.921 46.234057 36.4415 16.6991 16.6988 1026.7015 26.6932 4.8527 88.903 445.0 -3.3575848 0.0
SAV-15-04 9 3 03/19/2015 17:56:09 2015-03-19T17:56:09Z 31.372463 -80.630661 3.0 4.381 46.128506 36.3506 16.6959 16.6954 1026.6366 26.6242 5.7324 104.965 304.0 -5.3294717 0.0
SAV-15-04 9 3 03/19/2015 17:56:09 2015-03-19T17:56:09Z 31.372463 -80.630661 4.0 5.842 46.164604 36.386 16.6914 16.6906 1026.673 26.6525 5.4599 99.982 288.0 -4.9567881 0.0
SAV-15-04 9 3 03/19/2015 17:56:09 2015-03-19T17:56:09Z 31.372463 -80.630661 5.0 7.303 46.158527 36.387 16.6838 16.6828 1026.6808 26.6551 5.4614 99.996 241.0 -4.9021489 0.0
SAV-15-04 9 3 03/19/2015 17:56:09 2015-03-19T17:56:09Z 31.372463 -80.630661 6.0 8.763 46.151681 36.3864 16.6777 16.6767 1026.6831 26.6561 5.4404 99.601 233.0 -4.9183522 0.0
SAV-15-04 9 3 03/19/2015 17:56:09 2015-03-19T17:56:09Z 31.372463 -80.630661 7.0 10.224 46.146625 36.3882 16.6699 16.6685 1026.6961 26.6594 5.4269 99.339 211.0 -4.922689 0.0
SAV-15-04 9 3 03/19/2015 17:56:09 2015-03-19T17:56:09Z 31.372463 -80.630661 8.0 11.684 46.144908 36.3863 16.6701 16.6687 1026.6959 26.6579 5.4308 99.41 186.0 -4.9002136 0.0
SAV-15-04 9 3 03/19/2015 17:56:09 2015-03-19T17:56:09Z 31.372463 -80.630661 9.0 13.145 46.14765 36.3866 16.6721 16.6706 1026.6983 26.6577 5.4466 99.703 167.0 -4.921197 0.0
SAV-15-04 9 3 03/19/2015 17:56:09 2015-03-19T17:56:09Z 31.372463 -80.630661 10.0 14.605 46.146891 36.3869 16.6704 16.6686 1026.7057 26.6584 5.4534 99.824 153.0 -4.9015611 0.0
SAV-15-04 9 3 03/19/2015 17:56:09 2015-03-19T17:56:09Z 31.372463 -80.630661 11.0 16.066 46.146298 36.3864 16.6701 16.6683 1026.7075 26.6581 5.4475 99.714 139.0 -4.783121 0.0
SAV-15-04 9 3 03/19/2015 17:56:09 2015-03-19T17:56:09Z 31.372463 -80.630661 12.0 17.526 46.146101 36.3868 16.6689 16.6668 1026.7145 26.6588 5.4461 99.688 125.0 -4.8287673 0.0
SAV-15-04 9 3 03/19/2015 17:56:09 2015-03-19T17:56:09Z 31.372463 -80.630661 13.0 18.986 46.146459 36.3869 16.6687 16.6664 1026.7191 26.6589 5.4385 99.547 115.0 -4.876975 0.0
SAV-15-04 9 3 03/19/2015 17:56:09 2015-03-19T17:56:09Z 31.372463 -80.630661 14.0 20.447 46.147453 36.3871 16.6691 16.6668 1026.7222 26.659 5.4412 99.599 106.0 -4.4315659 0.0
SAV-15-04 9 3 03/19/2015 17:56:09 2015-03-19T17:56:09Z 31.372463 -80.630661 15.0 21.908 46.148666 36.3871 16.6697 16.6672 1026.727 26.659 5.4465 99.696 93.8 -4.8611957 0.0
SAV-15-04 9 3 03/19/2015 17:56:09 2015-03-19T17:56:09Z 31.372463 -80.630661 16.0 23.369 46.148519 36.3876 16.6687 16.666 1026.7317 26.6596 5.4555 99.86 87.9 -4.852243 0.0
SAV-15-04 9 3 03/19/2015 17:56:09 2015-03-19T17:56:09Z 31.372463 -80.630661 17.0 24.829 46.149456 36.3865 16.6701 16.6671 1026.7379 26.6585 5.4645 100.027 80.0 -4.901469 0.0
SAV-15-04 9 3 03/19/2015 17:56:09 2015-03-19T17:56:09Z 31.372463 -80.630661 18.0 26.29 46.149837 36.3869 16.6698 16.6668 1026.7398 26.6589 5.4523 99.803 74.0 -4.7324778 0.0
SAV-15-04 9 3 03/19/2015 17:56:09 2015-03-19T17:56:09Z 31.372463 -80.630661 19.0 27.75 46.149808 36.3871 16.6692 16.666 1026.744 26.6592 5.448 99.723 66.9 -4.6065305 0.0
SAV-15-04 9 3 03/19/2015 17:56:09 2015-03-19T17:56:09Z 31.372463 -80.630661 20.0 29.211 46.150537 36.3872 16.6691 16.6657 1026.751 26.6593 5.4369 99.519 61.4 -4.0368982 0.0
SAV-15-04 9 3 03/19/2015 17:56:09 2015-03-19T17:56:09Z 31.372463 -80.630661 21.0 30.671 46.150359 36.3857 16.6701 16.6665 1026.7542 26.658 5.4259 99.32 55.7 -4.8401021 0.0
SAV-15-04 9 3 03/19/2015 17:56:09 2015-03-19T17:56:09Z 31.372463 -80.630661 22.0 32.132 46.152 36.3867 16.6704 16.6667 1026.7571 26.6586 5.4294 99.385 51.3 -4.4971271 0.0
SAV-15-04 9 3 03/19/2015 17:56:09 2015-03-19T17:56:09Z 31.372463 -80.630661 23.0 33.593 46.155377 36.3863 16.6735 16.6696 1026.7622 26.6577 5.4544 99.847 46.3 -4.9629744 0.0
SAV-15-04 9 3 03/19/2015 17:56:09 2015-03-19T17:56:09Z 31.372463 -80.630661 24.0 35.053 46.155029 36.3865 16.6729 16.6691 1026.7619 26.658 5.4417 99.615 41.6 -4.6964361 0.0
SAV-15-04 10 3 03/19/2015 18:39:33 2015-03-19T18:39:33Z 31.369758 -80.632743 2.0 2.921 46.11053 36.3666 16.6612 16.6609 1026.6536 26.6446 5.4532 99.791 260.0 -4.1439593 0.0
SAV-15-04 10 3 03/19/2015 18:39:33 2015-03-19T18:39:33Z 31.369758 -80.632743 3.0 4.381 46.104545 36.3661 16.6557 16.6552 1026.6578 26.6456 5.446 99.647 216.0 -4.4589261 0.0
SAV-15-04 10 3 03/19/2015 18:39:33 2015-03-19T18:39:33Z 31.369758 -80.632743 4.0 5.842 46.095273 36.3702 16.6414 16.6407 1026.671 26.6522 5.467 100.007 193.0 -4.7247326 0.0
SAV-15-04 10 3 03/19/2015 18:39:33 2015-03-19T18:39:33Z 31.369758 -80.632743 5.0 7.303 46.076242 36.3705 16.6221 16.6211 1026.6813 26.6571 5.4476 99.615 168.0 -3.9999244 0.0
SAV-15-04 10 3 03/19/2015 18:39:33 2015-03-19T18:39:33Z 31.369758 -80.632743 6.0 8.763 46.077308 36.3703 16.623 16.622 1026.6846 26.6567 5.4436 99.545 158.0 -4.9467171 0.0
SAV-15-04 10 3 03/19/2015 18:39:33 2015-03-19T18:39:33Z 31.369758 -80.632743 7.0 10.223 46.075525 36.3704 16.6206 16.6195 1026.6898 26.6574 5.4571 99.786 136.0 -4.8958221 0.0
SAV-15-04 10 3 03/19/2015 18:39:33 2015-03-19T18:39:33Z 31.369758 -80.632743 8.0 11.684 46.075678 36.3701 16.6207 16.6193 1026.6938 26.6572 5.4518 99.69 122.0 -4.1725184 0.0
SAV-15-04 10 3 03/19/2015 18:39:33 2015-03-19T18:39:33Z 31.369758 -80.632743 9.0 13.145 46.077521 36.3708 16.621 16.6194 1026.7013 26.6577 5.4629 99.893 109.0 -4.967284 0.0
SAV-15-04 10 3 03/19/2015 18:39:33 2015-03-19T18:39:33Z 31.369758 -80.632743 10.0 14.605 46.076951 36.3699 16.6211 16.6194 1026.7035 26.657 5.4656 99.941 95.4 -4.0163358 0.0
SAV-15-04 10 3 03/19/2015 18:39:33 2015-03-19T18:39:33Z 31.369758 -80.632743 11.0 16.065 46.077708 36.3701 16.6214 16.6196 1026.7067 26.6571 5.4398 99.472 88.5 -4.7556519 0.0
SAV-15-04 10 3 03/19/2015 18:39:33 2015-03-19T18:39:33Z 31.369758 -80.632743 12.0 17.526 46.078487 36.3701 16.6215 16.6194 1026.713 26.6571 5.4541 99.732 82.4 -4.0613519 0.0
SAV-15-04 10 3 03/19/2015 18:39:33 2015-03-19T18:39:33Z 31.369758 -80.632743 13.0 18.987 46.078521 36.37 16.6213 16.6191 1026.7154 26.6572 5.4421 99.514 74.2 -4.2031241 0.0
SAV-15-04 10 3 03/19/2015 18:39:33 2015-03-19T18:39:33Z 31.369758 -80.632743 14.0 20.447 46.079105 36.37 16.6214 16.619 1026.7212 26.6572 5.4444 99.554 66.8 -3.0399028 0.0
SAV-15-04 10 3 03/19/2015 18:39:33 2015-03-19T18:39:33Z 31.369758 -80.632743 15.0 21.908 46.080177 36.3704 16.6215 16.6189 1026.7267 26.6575 5.4483 99.627 61.5 -4.5162197 0.0
SAV-15-04 10 3 03/19/2015 18:39:33 2015-03-19T18:39:33Z 31.369758 -80.632743 16.0 23.369 46.080298 36.37 16.6217 16.6189 1026.7296 26.6572 5.4556 99.759 56.2 -4.4672057 0.0
SAV-15-04 10 3 03/19/2015 18:39:33 2015-03-19T18:39:33Z 31.369758 -80.632743 17.0 24.829 46.081049 36.3701 16.622 16.6191 1026.7331 26.6572 5.4497 99.654 51.3 -4.423713 0.0
SAV-15-04 10 3 03/19/2015 18:39:33 2015-03-19T18:39:33Z 31.369758 -80.632743 18.0 26.29 46.079472 36.3697 16.6203 16.6173 1026.7384 26.6573 5.4567 99.777 47.0 -4.099546 0.0
SAV-15-04 10 3 03/19/2015 18:39:33 2015-03-19T18:39:33Z 31.369758 -80.632743 19.0 27.75 46.078029 36.3684 16.6197 16.6165 1026.7437 26.6565 5.4537 99.721 42.4 -4.1015217 0.0
SAV-15-04 10 3 03/19/2015 18:39:33 2015-03-19T18:39:33Z 31.369758 -80.632743 20.0 29.211 46.077481 36.3684 16.619 16.6157 1026.7459 26.6567 5.4604 99.841 39.4 -4.1726184 0.0
SAV-15-04 10 3 03/19/2015 18:39:33 2015-03-19T18:39:33Z 31.369758 -80.632743 21.0 30.671 46.07574 36.3676 16.6175 16.6139 1026.7517 26.6565 5.4613 99.855 35.6 -4.5791185 0.0
SAV-15-04 10 3 03/19/2015 18:39:33 2015-03-19T18:39:33Z 31.369758 -80.632743 22.0 32.132 46.074349 36.3669 16.6168 16.6132 1026.7534 26.6561 5.4505 99.656 32.0 -4.3523117 0.0
SAV-15-04 10 3 03/19/2015 18:39:33 2015-03-19T18:39:33Z 31.369758 -80.632743 23.0 33.593 46.073759 36.366 16.617 16.6133 1026.755 26.6554 5.4609 99.845 28.6 -4.6803393 0.0
SAV-15-04 11 8 03/20/2015 12:07:01 2015-03-20T12:07:01Z 31.282869 -79.357446 2.0 2.921 54.890428 36.3989 24.9435 24.943 1024.4269 24.4163 4.5455 96.614 53.2 -0.7942898 0.0
SAV-15-04 11 8 03/20/2015 12:07:01 2015-03-20T12:07:01Z 31.282869 -79.357446 3.0 4.381 54.889769 36.4015 24.9396 24.939 1024.4312 24.4195 4.53 96.28 32.7 -5.3671835 0.0
SAV-15-04 11 8 03/20/2015 12:07:01 2015-03-20T12:07:01Z 31.282869 -79.357446 4.0 5.842 54.927157 36.4013 24.9736 24.9725 1024.4308 24.4091 4.5494 96.746 28.1 -4.5282195 0.0
SAV-15-04 11 8 03/20/2015 12:07:01 2015-03-20T12:07:01Z 31.282869 -79.357446 5.0 7.303 54.930474 36.4039 24.9732 24.9719 1024.4357 24.4113 4.5446 96.647 26.4 -3.9823565 0.0
SAV-15-04 11 8 03/20/2015 12:07:01 2015-03-20T12:07:01Z 31.282869 -79.357446 6.0 8.763 54.938631 36.4048 24.9791 24.9777 1024.4385 24.4103 4.5381 96.519 24.1 -3.6013201 0.0
SAV-15-04 11 8 03/20/2015 12:07:01 2015-03-20T12:07:01Z 31.282869 -79.357446 7.0 10.223 54.943678 36.4076 24.9799 24.9782 1024.4452 24.4121 4.5303 96.355 21.4 -4.1231427 0.0
SAV-15-04 11 8 03/20/2015 12:07:01 2015-03-20T12:07:01Z 31.282869 -79.357446 8.0 11.684 54.941451 36.4062 24.9792 24.9774 1024.4477 24.4114 4.538 96.517 20.7 -4.7026553 0.0
SAV-15-04 11 8 03/20/2015 12:07:01 2015-03-20T12:07:01Z 31.282869 -79.357446 9.0 13.144 54.94865 36.4077 24.9834 24.9812 1024.4541 24.4113 4.5495 96.77 21.1 -4.1031587 0.0
SAV-15-04 11 8 03/20/2015 12:07:01 2015-03-20T12:07:01Z 31.282869 -79.357446 10.0 14.605 54.958529 36.4108 24.9883 24.986 1024.4591 24.4122 4.5403 96.583 19.1 -3.7090389 0.0
SAV-15-04 11 8 03/20/2015 12:07:01 2015-03-20T12:07:01Z 31.282869 -79.357446 11.0 16.066 54.962681 36.4132 24.9889 24.9864 1024.4637 24.4139 4.5432 96.646 18.6 -4.5938675 0.0
SAV-15-04 11 8 03/20/2015 12:07:01 2015-03-20T12:07:01Z 31.282869 -79.357446 12.0 17.526 54.963357 36.4133 24.9891 24.9864 1024.4673 24.4139 4.5441 96.667 17.8 -4.4961421 0.0
SAV-15-04 11 8 03/20/2015 12:07:01 2015-03-20T12:07:01Z 31.282869 -79.357446 13.0 18.987 54.964837 36.4135 24.9898 24.9868 1024.4717 24.414 4.5429 96.642 16.6 -4.1697157 0.0
SAV-15-04 11 8 03/20/2015 12:07:01 2015-03-20T12:07:01Z 31.282869 -79.357446 14.0 20.447 54.968135 36.4149 24.9905 24.9873 1024.4788 24.4149 4.5419 96.624 15.8 -4.1042852 0.0
SAV-15-04 11 8 03/20/2015 12:07:01 2015-03-20T12:07:01Z 31.282869 -79.357446 15.0 21.908 54.970426 36.4153 24.9916 24.9881 1024.484 24.415 4.5469 96.732 15.7 -3.3183386 0.0
SAV-15-04 11 8 03/20/2015 12:07:01 2015-03-20T12:07:01Z 31.282869 -79.357446 16.0 23.368 54.971114 36.4155 24.9918 24.9881 1024.4873 24.4151 4.5534 96.871 15.6 -3.0466411 0.0
SAV-15-04 11 8 03/20/2015 12:07:01 2015-03-20T12:07:01Z 31.282869 -79.357446 17.0 24.829 54.972406 36.4158 24.9922 24.9883 1024.4909 24.4153 4.5369 96.52 15.2 -4.2938949 0.0
SAV-15-04 11 8 03/20/2015 12:07:01 2015-03-20T12:07:01Z 31.282869 -79.357446 18.0 26.29 54.973492 36.4162 24.9923 24.9882 1024.4952 24.4156 4.5322 96.421 14.2 -4.0328416 0.0
SAV-15-04 11 8 03/20/2015 12:07:01 2015-03-20T12:07:01Z 31.282869 -79.357446 19.0 27.75 54.974638 36.4163 24.9929 24.9886 1024.499 24.4155 4.5247 96.261 13.8 -4.0350407 0.0
SAV-15-04 11 8 03/20/2015 12:07:01 2015-03-20T12:07:01Z 31.282869 -79.357446 20.0 29.211 54.976705 36.4166 24.994 24.9894 1024.5043 24.4155 4.5322 96.424 13.6 -4.2136205 0.0
SAV-15-04 11 8 03/20/2015 12:07:01 2015-03-20T12:07:01Z 31.282869 -79.357446 21.0 30.671 54.979111 36.4167 24.9953 24.9904 1024.5109 24.4153 4.5449 96.696 13.4 -4.8646154 0.0
SAV-15-04 11 8 03/20/2015 12:07:01 2015-03-20T12:07:01Z 31.282869 -79.357446 22.0 32.132 54.982498 36.4183 24.9961 24.991 1024.5163 24.4164 4.5562 96.938 12.7 -4.9000672 0.0
SAV-15-04 11 8 03/20/2015 12:07:01 2015-03-20T12:07:01Z 31.282869 -79.357446 23.0 33.592 54.98349 36.4182 24.9968 24.9915 1024.5195 24.4161 4.556 96.937 11.9 -4.6936651 0.0
SAV-15-04 11 8 03/20/2015 12:07:01 2015-03-20T12:07:01Z 31.282869 -79.357446 24.0 35.053 54.98386 36.418 24.9972 24.9917 1024.5216 24.4159 4.5392 96.578 11.1 -4.6674241 0.0
SAV-15-04 11 8 03/20/2015 12:07:01 2015-03-20T12:07:01Z 31.282869 -79.357446 25.0 36.514 54.983079 36.4172 24.9972 24.9916 1024.5238 24.4153 4.536 96.51 11.3 -4.4883185 0.0
SAV-15-04 11 8 03/20/2015 12:07:01 2015-03-20T12:07:01Z 31.282869 -79.357446 26.0 37.974 54.987618 36.4194 24.9978 24.9918 1024.5344 24.4169 4.553 96.874 10.9 -4.9412705 0.0
SAV-15-04 11 8 03/20/2015 12:07:01 2015-03-20T12:07:01Z 31.282869 -79.357446 27.0 39.435 54.988003 36.4189 24.9986 24.9924 1024.5368 24.4163 4.5595 97.012 10.3 -4.8884981 0.0
SAV-15-04 11 8 03/20/2015 12:07:01 2015-03-20T12:07:01Z 31.282869 -79.357446 28.0 40.896 54.988972 36.4191 24.9989 24.9925 1024.5397 24.4165 4.5452 96.709 9.96 -4.7567433 0.0
SAV-15-04 11 8 03/20/2015 12:07:01 2015-03-20T12:07:01Z 31.282869 -79.357446 29.0 42.357 54.990009 36.4194 24.9991 24.9925 1024.5443 24.4167 4.5346 96.484 9.57 -4.5226561 0.0
SAV-15-04 11 8 03/20/2015 12:07:01 2015-03-20T12:07:01Z 31.282869 -79.357446 30.0 43.817 54.990588 36.4194 24.9992 24.9923 1024.5491 24.4167 4.5288 96.361 9.1 -4.4060909 0.0
SAV-15-04 11 8 03/20/2015 12:07:01 2015-03-20T12:07:01Z 31.282869 -79.357446 31.0 45.278 54.992503 36.42 24.9998 24.9928 1024.5534 24.417 4.5134 96.036 8.68 -3.2928538 0.0
SAV-15-04 11 8 03/20/2015 12:07:01 2015-03-20T12:07:01Z 31.282869 -79.357446 32.0 46.739 54.992485 36.4197 24.9999 24.9927 1024.5558 24.4168 4.515 96.068 8.38 -3.7120298 0.0
SAV-15-04 11 8 03/20/2015 12:07:01 2015-03-20T12:07:01Z 31.282869 -79.357446 33.0 48.199 54.993165 36.4199 25.0 24.9926 1024.5602 24.417 4.5259 96.301 8.18 -4.8181559 0.0
SAV-15-04 11 8 03/20/2015 12:07:01 2015-03-20T12:07:01Z 31.282869 -79.357446 34.0 49.66 54.995762 36.4216 24.9996 24.9918 1024.5689 24.4185 4.5203 96.183 7.76 -4.322573 0.0
SAV-15-04 11 8 03/20/2015 12:07:01 2015-03-20T12:07:01Z 31.282869 -79.357446 35.0 51.12 54.99706 36.4218 25.0001 24.9921 1024.5727 24.4186 4.5146 96.061 7.37 -2.8850869 0.0
SAV-15-04 11 8 03/20/2015 12:07:01 2015-03-20T12:07:01Z 31.282869 -79.357446 36.0 52.581 54.998154 36.4222 25.0002 24.992 1024.5767 24.419 4.5227 96.234 7.06 -2.8707496 0.0
SAV-15-04 11 8 03/20/2015 12:07:01 2015-03-20T12:07:01Z 31.282869 -79.357446 37.0 54.042 54.998742 36.4221 25.0005 24.9922 1024.5809 24.4188 4.5242 96.266 6.79 -3.5441241 0.0
SAV-15-04 11 8 03/20/2015 12:07:01 2015-03-20T12:07:01Z 31.282869 -79.357446 38.0 55.502 54.999193 36.4219 25.0007 24.9923 1024.5845 24.4187 4.5326 96.447 6.56 -3.6461092 0.0
SAV-15-04 11 8 03/20/2015 12:07:01 2015-03-20T12:07:01Z 31.282869 -79.357446 39.0 56.963 54.999659 36.4219 25.0008 24.9921 1024.5885 24.4187 4.516 96.093 6.32 -3.420171 0.0
SAV-15-04 11 8 03/20/2015 12:07:01 2015-03-20T12:07:01Z 31.282869 -79.357446 40.0 58.424 55.002282 36.4226 25.002 24.993 1024.5931 24.419 4.5009 95.774 6.07 -4.5135247 0.0
SAV-15-04 11 8 03/20/2015 12:07:01 2015-03-20T12:07:01Z 31.282869 -79.357446 41.0 59.885 55.003565 36.4231 25.002 24.9929 1024.5978 24.4194 4.5086 95.937 5.79 -4.6991926 0.0
SAV-15-04 11 8 03/20/2015 12:07:01 2015-03-20T12:07:01Z 31.282869 -79.357446 42.0 61.346 55.005156 36.424 25.002 24.9926 1024.6031 24.4202 4.5184 96.148 5.56 -3.1581302 0.0
SAV-15-04 11 8 03/20/2015 12:07:01 2015-03-20T12:07:01Z 31.282869 -79.357446 43.0 62.806 55.005132 36.4241 25.0015 24.9919 1024.6073 24.4204 4.5201 96.182 5.32 -2.6893529 0.0
SAV-15-04 11 8 03/20/2015 12:07:01 2015-03-20T12:07:01Z 31.282869 -79.357446 44.0 64.267 55.00642 36.4253 25.0008 24.991 1024.6125 24.4216 4.5105 95.978 5.1 -4.3445379 0.0
SAV-15-04 11 8 03/20/2015 12:07:01 2015-03-20T12:07:01Z 31.282869 -79.357446 45.0 65.729 55.008825 36.4265 25.001 24.991 1024.6183 24.4225 4.5197 96.174 4.85 -4.8128145 0.0
SAV-15-04 11 8 03/20/2015 12:07:01 2015-03-20T12:07:01Z 31.282869 -79.357446 46.0 67.189 55.010318 36.4313 24.9961 24.9858 1024.6279 24.4278 4.5186 96.147 4.66 -4.2311273 0.0
SAV-15-04 11 8 03/20/2015 12:07:01 2015-03-20T12:07:01Z 31.282869 -79.357446 47.0 68.65 55.010532 36.4337 24.9929 24.9824 1024.6349 24.4306 4.5122 96.004 4.48 -3.7796696 0.0
SAV-15-04 11 8 03/20/2015 12:07:01 2015-03-20T12:07:01Z 31.282869 -79.357446 48.0 70.111 55.019294 36.4385 24.9948 24.984 1024.6423 24.4337 4.5109 95.984 4.29 -3.6720617 0.0
SAV-15-04 11 8 03/20/2015 12:07:01 2015-03-20T12:07:01Z 31.282869 -79.357446 49.0 71.571 55.029469 36.4458 24.9947 24.9837 1024.6528 24.4393 4.5031 95.822 4.09 -3.813749 0.0
SAV-15-04 11 8 03/20/2015 12:07:01 2015-03-20T12:07:01Z 31.282869 -79.357446 50.0 73.032 55.035625 36.454 24.9898 24.9786 1024.6641 24.4471 4.5043 95.843 3.9 -4.0903948 0.0
SAV-15-04 11 8 03/20/2015 12:07:01 2015-03-20T12:07:01Z 31.282869 -79.357446 51.0 74.493 55.043228 36.4629 24.9854 24.9741 1024.6758 24.4552 4.4906 95.55 3.7 -4.4825406 0.0
SAV-15-04 11 8 03/20/2015 12:07:01 2015-03-20T12:07:01Z 31.282869 -79.357446 52.0 75.954 55.0514 36.4735 24.9794 24.9678 1024.6905 24.4652 4.4937 95.612 3.52 -3.2422638 0.0
SAV-15-04 11 8 03/20/2015 12:07:01 2015-03-20T12:07:01Z 31.282869 -79.357446 53.0 77.415 55.057754 36.4868 24.9683 24.9565 1024.7096 24.4787 4.4871 95.46 3.34 -4.1327363 0.0
SAV-15-04 11 8 03/20/2015 12:07:01 2015-03-20T12:07:01Z 31.282869 -79.357446 54.0 78.876 55.066534 36.4922 24.9693 24.9573 1024.7175 24.4826 4.4915 95.56 3.15 -3.5411048 0.0
SAV-15-04 11 8 03/20/2015 12:07:01 2015-03-20T12:07:01Z 31.282869 -79.357446 55.0 80.337 55.138019 36.5308 24.9875 24.9753 1024.7434 24.5062 4.4843 95.457 2.99 -3.6686038 0.0
SAV-15-04 11 8 03/20/2015 12:07:01 2015-03-20T12:07:01Z 31.282869 -79.357446 56.0 81.797 55.15561 36.5403 24.9915 24.9791 1024.7539 24.5123 4.4441 94.612 2.82 -3.8228592 0.0
SAV-15-04 11 8 03/20/2015 12:07:01 2015-03-20T12:07:01Z 31.282869 -79.357446 57.0 83.258 55.197217 36.5564 25.0094 24.9967 1024.7668 24.519 4.4175 94.082 2.65 -3.8025045 0.0
SAV-15-04 11 8 03/20/2015 12:07:01 2015-03-20T12:07:01Z 31.282869 -79.357446 58.0 84.719 55.219104 36.5657 25.0177 25.0048 1024.7751 24.5236 4.4187 94.127 2.48 -3.9993194 0.0
SAV-15-04 11 8 03/20/2015 12:07:01 2015-03-20T12:07:01Z 31.282869 -79.357446 59.0 86.18 55.221997 36.5665 25.0191 25.006 1024.7786 24.5238 4.4186 94.127 2.33 -4.2455087 0.0
SAV-15-04 11 8 03/20/2015 12:07:01 2015-03-20T12:07:01Z 31.282869 -79.357446 60.0 87.641 55.229931 36.5679 25.0244 25.011 1024.7828 24.5233 4.4111 93.977 2.21 -4.5484251 0.0
SAV-15-04 11 8 03/20/2015 12:07:01 2015-03-20T12:07:01Z 31.282869 -79.357446 61.0 89.102 55.238252 36.5715 25.027 25.0133 1024.7905 24.5254 4.4133 94.028 2.08 -4.3922006 0.0
SAV-15-04 11 8 03/20/2015 12:07:01 2015-03-20T12:07:01Z 31.282869 -79.357446 62.0 90.562 55.251328 36.5726 25.0372 25.0234 1024.7921 24.5231 4.4261 94.32 1.94 -3.8863465 0.0
SAV-15-04 11 8 03/20/2015 12:07:01 2015-03-20T12:07:01Z 31.282869 -79.357446 63.0 92.023 55.272005 36.582 25.0444 25.0304 1024.8 24.5281 4.409 93.97 1.82 -4.7086026 0.0
SAV-15-04 11 8 03/20/2015 12:07:01 2015-03-20T12:07:01Z 31.282869 -79.357446 64.0 93.485 55.283621 36.5887 25.0466 25.0325 1024.8071 24.5325 4.4232 94.28 1.72 -4.6257724 0.0
SAV-15-04 11 8 03/20/2015 12:07:01 2015-03-20T12:07:01Z 31.282869 -79.357446 65.0 94.946 55.302505 36.5994 25.0499 25.0354 1024.8226 24.5397 4.4445 94.745 1.62 -4.9166204 0.0
SAV-15-04 11 8 03/20/2015 12:07:01 2015-03-20T12:07:01Z 31.282869 -79.357446 66.0 96.406 55.305175 36.603 25.0476 25.0328 1024.8306 24.5433 4.458 95.032 1.52 -4.7504263 0.0
SAV-15-04 11 8 03/20/2015 12:07:01 2015-03-20T12:07:01Z 31.282869 -79.357446 67.0 97.867 55.305572 36.6058 25.0441 25.0291 1024.8377 24.5465 4.4547 94.959 1.42 -4.638686 0.0
SAV-15-04 11 8 03/20/2015 12:07:01 2015-03-20T12:07:01Z 31.282869 -79.357446 68.0 99.328 55.304616 36.6066 25.042 25.0268 1024.8417 24.5479 4.4272 94.368 1.34 -3.4698616 0.0
SAV-15-04 11 8 03/20/2015 12:07:01 2015-03-20T12:07:01Z 31.282869 -79.357446 69.0 100.789 55.301151 36.6069 25.0382 25.0229 1024.8452 24.5492 4.4117 94.032 1.27 -4.2836087 0.0
SAV-15-04 11 8 03/20/2015 12:07:01 2015-03-20T12:07:01Z 31.282869 -79.357446 70.0 102.25 55.290377 36.6078 25.0266 25.011 1024.8562 24.5536 4.4035 93.84 1.21 -3.8309888 0.0
SAV-15-04 11 8 03/20/2015 12:07:01 2015-03-20T12:07:01Z 31.282869 -79.357446 71.0 103.711 55.270548 36.6073 25.0084 24.9925 1024.8673 24.5588 4.4182 94.123 1.13 -3.2591272 0.0
SAV-15-04 11 8 03/20/2015 12:07:01 2015-03-20T12:07:01Z 31.282869 -79.357446 72.0 105.172 55.252547 36.6013 24.9988 24.9826 1024.8705 24.5573 4.4355 94.473 1.06 -3.3278987 0.0
SAV-15-04 11 8 03/20/2015 12:07:01 2015-03-20T12:07:01Z 31.282869 -79.357446 73.0 106.633 55.247752 36.5995 24.9963 24.98 1024.8727 24.5567 4.4337 94.431 1.01 -3.6812498 0.0
SAV-15-04 11 8 03/20/2015 12:07:01 2015-03-20T12:07:01Z 31.282869 -79.357446 74.0 108.094 55.243328 36.5975 24.9945 24.9781 1024.8741 24.5558 4.405 93.815 0.951 -4.3652401 0.0
SAV-15-04 11 8 03/20/2015 12:07:01 2015-03-20T12:07:01Z 31.282869 -79.357446 75.0 109.555 55.232356 36.5974 24.984 24.9674 1024.8818 24.559 4.4081 93.865 0.898 -4.6325251 0.0
SAV-15-04 11 8 03/20/2015 12:07:01 2015-03-20T12:07:01Z 31.282869 -79.357446 76.0 111.016 55.211838 36.5933 24.9697 24.9528 1024.8888 24.5604 4.4257 94.213 0.848 -4.9018181 0.0
SAV-15-04 11 8 03/20/2015 12:07:01 2015-03-20T12:07:01Z 31.282869 -79.357446 77.0 112.477 55.19865 36.5889 24.9626 24.9455 1024.8909 24.5593 4.4316 94.326 0.801 -4.7077475 0.0
SAV-15-04 11 8 03/20/2015 12:07:01 2015-03-20T12:07:01Z 31.282869 -79.357446 78.0 113.938 55.192167 36.5887 24.9565 24.9392 1024.8967 24.561 4.3885 93.397 0.756 -4.2124426 0.0
SAV-15-04 11 8 03/20/2015 12:07:01 2015-03-20T12:07:01Z 31.282869 -79.357446 79.0 115.399 55.181542 36.588 24.9471 24.9296 1024.9041 24.5634 4.3646 92.875 0.712 -4.467314 0.0
SAV-15-04 11 8 03/20/2015 12:07:01 2015-03-20T12:07:01Z 31.282869 -79.357446 80.0 116.86 55.20306 36.5939 24.9592 24.9415 1024.9094 24.5643 4.3696 93.004 0.673 -4.5880731 0.0
SAV-15-04 11 8 03/20/2015 12:07:01 2015-03-20T12:07:01Z 31.282869 -79.357446 81.0 118.321 55.25758 36.6123 24.9863 24.9684 1024.9195 24.57 4.3657 92.973 0.638 -4.2743545 0.0
SAV-15-04 11 8 03/20/2015 12:07:01 2015-03-20T12:07:01Z 31.282869 -79.357446 82.0 119.782 55.289197 36.6341 24.9882 24.9699 1024.94 24.586 4.3534 92.725 0.608 -3.8254369 0.0
SAV-15-04 11 8 03/20/2015 12:07:01 2015-03-20T12:07:01Z 31.282869 -79.357446 83.0 121.244 55.301433 36.64 24.9917 24.9733 1024.9478 24.5894 4.3323 92.284 0.58 -3.3721221 0.0
SAV-15-04 11 8 03/20/2015 12:07:01 2015-03-20T12:07:01Z 31.282869 -79.357446 84.0 122.704 55.319769 36.6522 24.9932 24.9745 1024.9606 24.5983 4.3288 92.218 0.552 -3.3699872 0.0
SAV-15-04 11 8 03/20/2015 12:07:01 2015-03-20T12:07:01Z 31.282869 -79.357446 85.0 124.166 55.297945 36.6518 24.9734 24.9546 1024.9692 24.6041 4.3076 91.737 0.528 -4.197753 0.0
SAV-15-04 11 8 03/20/2015 12:07:01 2015-03-20T12:07:01Z 31.282869 -79.357446 86.0 125.626 55.217346 36.6518 24.8987 24.8798 1024.9963 24.627 4.3151 91.778 0.504 -4.5958018 0.0
SAV-15-04 11 8 03/20/2015 12:07:01 2015-03-20T12:07:01Z 31.282869 -79.357446 87.0 127.088 55.194579 36.6604 24.8665 24.8472 1025.0208 24.6434 4.3195 91.828 0.48 -4.7165171 0.0
SAV-15-04 11 8 03/20/2015 12:07:01 2015-03-20T12:07:01Z 31.282869 -79.357446 88.0 128.549 55.214573 36.6725 24.8696 24.8501 1025.0322 24.6517 4.3199 91.847 0.46 -4.5750536 0.0
SAV-15-04 11 8 03/20/2015 12:07:01 2015-03-20T12:07:01Z 31.282869 -79.357446 89.0 130.01 55.225059 36.679 24.8711 24.8514 1025.0392 24.6561 4.3167 91.784 0.436 -4.5761953 0.0
SAV-15-04 11 8 03/20/2015 12:07:01 2015-03-20T12:07:01Z 31.282869 -79.357446 90.0 131.471 55.208432 36.6927 24.8386 24.8188 1025.0637 24.6765 4.303 91.449 0.422 -3.9614672 0.0
SAV-15-04 11 8 03/20/2015 12:07:01 2015-03-20T12:07:01Z 31.282869 -79.357446 91.0 132.932 55.062453 36.7124 24.6796 24.6596 1025.1333 24.7398 4.2827 90.782 0.404 -4.2876869 0.0
SAV-15-04 11 8 03/20/2015 12:07:01 2015-03-20T12:07:01Z 31.282869 -79.357446 92.0 134.393 54.832342 36.7275 24.449 24.429 1025.2171 24.8211 4.2828 90.438 0.387 -4.0019811 0.0
SAV-15-04 11 8 03/20/2015 12:07:01 2015-03-20T12:07:01Z 31.282869 -79.357446 93.0 135.854 54.474529 36.6592 24.2018 24.1817 1025.2438 24.8435 4.2713 89.778 0.373 -3.469201 0.0
SAV-15-04 11 8 03/20/2015 12:07:01 2015-03-20T12:07:01Z 31.282869 -79.357446 94.0 137.315 53.847656 36.5392 23.7664 23.7461 1025.2929 24.8827 4.303 89.709 0.355 -4.2840187 0.0
SAV-15-04 11 8 03/20/2015 12:07:01 2015-03-20T12:07:01Z 31.282869 -79.357446 95.0 138.777 53.724376 36.5073 23.6902 23.6698 1025.2946 24.8811 4.3257 90.045 0.34 -3.0997325 0.0
SAV-15-04 11 8 03/20/2015 12:07:01 2015-03-20T12:07:01Z 31.282869 -79.357446 96.0 140.237 53.636617 36.4728 23.6504 23.6299 1025.2819 24.8666 4.3638 90.76 0.328 -2.970165 0.0
SAV-15-04 11 8 03/20/2015 12:07:01 2015-03-20T12:07:01Z 31.282869 -79.357446 97.0 141.699 53.710818 36.4784 23.7125 23.6919 1025.2696 24.8526 4.4449 92.548 0.315 -3.8206764 0.0
SAV-15-04 11 8 03/20/2015 12:07:01 2015-03-20T12:07:01Z 31.282869 -79.357446 98.0 143.16 53.454471 36.4746 23.4777 23.4569 1025.3444 24.919 4.5233 93.799 0.306 -4.4188601 0.0
SAV-15-04 11 8 03/20/2015 12:07:01 2015-03-20T12:07:01Z 31.282869 -79.357446 99.0 144.621 53.408958 36.4673 23.4436 23.4226 1025.3537 24.9235 4.5381 94.044 0.296 -3.4696988 0.0
SAV-15-04 11 8 03/20/2015 12:07:01 2015-03-20T12:07:01Z 31.282869 -79.357446 100.0 146.082 53.38166 36.479 23.4037 23.3825 1025.3781 24.9442 4.5487 94.205 0.287 -3.1791413 0.0
SAV-15-04 11 8 03/20/2015 12:07:01 2015-03-20T12:07:01Z 31.282869 -79.357446 101.0 147.544 53.311575 36.5211 23.2873 23.2661 1025.4472 25.0102 4.5519 94.104 0.278 -2.7313179 0.0
SAV-15-04 11 8 03/20/2015 12:07:01 2015-03-20T12:07:01Z 31.282869 -79.357446 102.0 149.005 53.212814 36.491 23.2312 23.2098 1025.4448 25.0038 4.5289 93.521 0.269 -3.8195396 0.0
SAV-15-04 11 8 03/20/2015 12:07:01 2015-03-20T12:07:01Z 31.282869 -79.357446 103.0 150.466 53.164152 36.4864 23.191 23.1694 1025.4568 25.0122 4.4822 92.49 0.262 -3.475441 0.0
SAV-15-04 11 8 03/20/2015 12:07:01 2015-03-20T12:07:01Z 31.282869 -79.357446 104.0 151.927 53.125661 36.4774 23.1657 23.1439 1025.4608 25.0127 4.455 91.884 0.255 -3.3480398 0.0
SAV-15-04 11 8 03/20/2015 12:07:01 2015-03-20T12:07:01Z 31.282869 -79.357446 105.0 153.389 53.083769 36.473 23.1312 23.1091 1025.4747 25.0196 4.4832 92.407 0.249 -3.9721611 0.0
SAV-15-04 11 8 03/20/2015 12:07:01 2015-03-20T12:07:01Z 31.282869 -79.357446 106.0 154.85 53.098049 36.4718 23.1455 23.1231 1025.4751 25.0145 4.4913 92.596 0.244 -4.8517594 0.0
SAV-15-04 11 8 03/20/2015 12:07:01 2015-03-20T12:07:01Z 31.282869 -79.357446 107.0 156.311 53.132802 36.4841 23.1627 23.1401 1025.4841 25.0189 4.4918 92.641 0.237 -4.3941486 0.0
SAV-15-04 11 8 03/20/2015 12:07:01 2015-03-20T12:07:01Z 31.282869 -79.357446 108.0 157.771 53.159434 36.4947 23.1743 23.1516 1025.4923 25.0236 4.4923 92.676 0.231 -4.2670821 0.0
SAV-15-04 11 8 03/20/2015 12:07:01 2015-03-20T12:07:01Z 31.282869 -79.357446 109.0 159.233 53.173128 36.5004 23.1798 23.1568 1025.4987 25.0265 4.4572 91.964 0.227 -4.2681199 0.0
SAV-15-04 11 8 03/20/2015 12:07:01 2015-03-20T12:07:01Z 31.282869 -79.357446 110.0 160.695 53.20244 36.5079 23.1978 23.1746 1025.5028 25.0269 4.4289 91.413 0.222 -4.1331986 0.0
SAV-15-04 11 8 03/20/2015 12:07:01 2015-03-20T12:07:01Z 31.282869 -79.357446 111.0 162.156 53.235711 36.524 23.2092 23.1859 1025.5138 25.0359 4.4112 91.073 0.218 -3.3545337 0.0
SAV-15-04 11 8 03/20/2015 12:07:01 2015-03-20T12:07:01Z 31.282869 -79.357446 112.0 163.616 53.318869 36.5282 23.281 23.2575 1025.5011 25.0182 4.3637 90.208 0.214 -3.3423471 0.0
SAV-15-04 11 8 03/20/2015 12:07:01 2015-03-20T12:07:01Z 31.282869 -79.357446 113.0 165.078 53.616323 36.5802 23.4942 23.4701 1025.4846 24.9952 4.3537 90.362 0.21 -3.7247612 0.0
SAV-15-04 11 8 03/20/2015 12:07:01 2015-03-20T12:07:01Z 31.282869 -79.357446 114.0 166.54 53.866396 36.6635 23.6252 23.6009 1025.5122 25.0198 4.3249 90.009 0.206 -3.4701048 0.0
SAV-15-04 11 8 03/20/2015 12:07:01 2015-03-20T12:07:01Z 31.282869 -79.357446 115.0 168.001 54.045107 36.7326 23.7069 23.6824 1025.5443 25.0481 4.2447 88.5 0.203 -4.5657665 0.0
SAV-15-04 11 8 03/20/2015 12:07:01 2015-03-20T12:07:01Z 31.282869 -79.357446 116.0 169.462 54.110626 36.7858 23.7027 23.6779 1025.5916 25.0899 4.1542 86.635 0.2 -3.8759593 0.0
SAV-15-04 11 8 03/20/2015 12:07:01 2015-03-20T12:07:01Z 31.282869 -79.357446 117.0 170.923 54.059228 36.8427 23.5866 23.5617 1025.6727 25.1674 4.0945 85.247 0.198 -2.93421 0.0
SAV-15-04 11 8 03/20/2015 12:07:01 2015-03-20T12:07:01Z 31.282869 -79.357446 118.0 172.385 53.913224 36.8253 23.4724 23.4474 1025.6962 25.1879 4.0593 84.339 0.195 -2.8914124 0.0
SAV-15-04 11 8 03/20/2015 12:07:01 2015-03-20T12:07:01Z 31.282869 -79.357446 119.0 173.846 53.858539 36.8238 23.4234 23.3984 1025.7125 25.201 3.9725 82.464 0.193 -3.3469525 0.0
SAV-15-04 11 8 03/20/2015 12:07:01 2015-03-20T12:07:01Z 31.282869 -79.357446 120.0 175.307 53.680309 36.848 23.2287 23.2033 1025.7987 25.2767 4.0026 82.821 0.191 -3.0530888 0.0
SAV-15-04 11 8 03/20/2015 12:07:01 2015-03-20T12:07:01Z 31.282869 -79.357446 121.0 176.769 53.606441 36.8591 23.1467 23.121 1025.8359 25.3092 4.0189 83.044 0.188 -2.1057121 0.0
SAV-15-04 11 8 03/20/2015 12:07:01 2015-03-20T12:07:01Z 31.282869 -79.357446 122.0 178.23 53.544308 36.8459 23.1046 23.0789 1025.8422 25.3114 4.0226 83.054 0.187 -2.2488969 0.0
SAV-15-04 11 8 03/20/2015 12:07:01 2015-03-20T12:07:01Z 31.282869 -79.357446 123.0 179.692 53.501453 36.8492 23.0609 23.0351 1025.8598 25.3266 4.0189 82.916 0.184 -2.3052048 0.0
SAV-15-04 11 8 03/20/2015 12:07:01 2015-03-20T12:07:01Z 31.282869 -79.357446 124.0 181.153 53.455644 36.8223 23.0504 23.0245 1025.8434 25.3093 3.98 82.086 0.183 -2.2736215 0.0
SAV-15-04 11 8 03/20/2015 12:07:01 2015-03-20T12:07:01Z 31.282869 -79.357446 125.0 182.614 53.424593 36.8335 23.0079 22.982 1025.8676 25.3301 3.9023 80.427 0.182 -2.713284 0.0
SAV-15-04 11 8 03/20/2015 12:07:01 2015-03-20T12:07:01Z 31.282869 -79.357446 126.0 184.076 53.172433 36.8583 22.7441 22.7178 1025.9724 25.4256 3.9332 80.704 0.181 -2.0243983 0.0
SAV-15-04 11 8 03/20/2015 12:07:01 2015-03-20T12:07:01Z 31.282869 -79.357446 127.0 185.537 53.072497 36.8416 22.6708 22.6444 1025.9858 25.4339 3.9267 80.459 0.179 -1.971105 0.0
SAV-15-04 11 8 03/20/2015 12:07:01 2015-03-20T12:07:01Z 31.282869 -79.357446 128.0 186.998 53.021016 36.843 22.6209 22.5943 1026.006 25.4495 3.9213 80.281 0.177 -1.9482282 0.0
SAV-15-04 11 8 03/20/2015 12:07:01 2015-03-20T12:07:01Z 31.282869 -79.357446 129.0 188.459 52.957956 36.8645 22.5366 22.51 1026.0503 25.4901 3.907 79.88 0.176 -2.3217092 0.0
SAV-15-04 11 8 03/20/2015 12:07:01 2015-03-20T12:07:01Z 31.282869 -79.357446 130.0 189.921 52.884908 36.8375 22.5005 22.4738 1026.0427 25.4799 3.8828 79.322 0.174 -2.3051474 0.0
SAV-15-04 11 8 03/20/2015 12:07:01 2015-03-20T12:07:01Z 31.282869 -79.357446 131.0 191.382 52.881545 36.8291 22.5072 22.4804 1026.0362 25.4716 3.7713 77.05 0.173 -1.5633944 0.0
SAV-15-04 11 8 03/20/2015 12:07:01 2015-03-20T12:07:01Z 31.282869 -79.357446 132.0 192.844 52.723205 36.8426 22.3436 22.3165 1026.1004 25.5287 3.7258 75.908 0.173 -2.0752827 0.0
SAV-15-04 11 8 03/20/2015 12:07:01 2015-03-20T12:07:01Z 31.282869 -79.357446 133.0 194.305 52.657964 36.8323 22.2946 22.2673 1026.1119 25.535 3.724 75.801 0.171 -1.9659969 0.0
SAV-15-04 11 8 03/20/2015 12:07:01 2015-03-20T12:07:01Z 31.282869 -79.357446 134.0 195.767 52.578193 36.8317 22.2208 22.1935 1026.1361 25.5555 3.7012 75.238 0.17 -1.3146472 0.0
SAV-15-04 11 8 03/20/2015 12:07:01 2015-03-20T12:07:01Z 31.282869 -79.357446 135.0 197.228 52.451971 36.8159 22.1215 22.0941 1026.1563 25.5717 3.6841 74.754 0.169 -1.5032161 0.0
SAV-15-04 11 8 03/20/2015 12:07:01 2015-03-20T12:07:01Z 31.282869 -79.357446 136.0 198.69 52.31392 36.8219 21.9856 21.958 1026.2042 25.6147 3.7304 75.514 0.168 -1.3739831 0.0
SAV-15-04 11 8 03/20/2015 12:07:01 2015-03-20T12:07:01Z 31.282869 -79.357446 137.0 200.151 51.960798 36.8032 21.6776 21.6501 1026.2826 25.6871 3.8138 76.772 0.168 -1.4863379 0.0
SAV-15-04 11 8 03/20/2015 12:07:01 2015-03-20T12:07:01Z 31.282869 -79.357446 138.0 201.612 51.694886 36.7313 21.5129 21.4854 1026.2784 25.6784 3.8679 77.6 0.167 -2.1581033 0.0
SAV-15-04 11 8 03/20/2015 12:07:01 2015-03-20T12:07:01Z 31.282869 -79.357446 139.0 203.074 51.581591 36.6694 21.479 21.4513 1026.2436 25.6407 3.9272 78.715 0.165 -2.3772446 0.0
SAV-15-04 11 8 03/20/2015 12:07:01 2015-03-20T12:07:01Z 31.282869 -79.357446 140.0 204.535 51.662856 36.6642 21.5609 21.5331 1026.2192 25.614 4.0351 80.995 0.165 -2.4512426 0.0
SAV-15-04 11 8 03/20/2015 12:07:01 2015-03-20T12:07:01Z 31.282869 -79.357446 141.0 205.997 51.808012 36.7123 21.6396 21.6114 1026.2417 25.6288 4.0449 81.328 0.164 -1.3828414 0.0
SAV-15-04 11 8 03/20/2015 12:07:01 2015-03-20T12:07:01Z 31.282869 -79.357446 142.0 207.458 51.864065 36.7362 21.6635 21.635 1026.2587 25.6404 4.0162 80.796 0.164 -1.3178939 0.0
SAV-15-04 11 8 03/20/2015 12:07:01 2015-03-20T12:07:01Z 31.282869 -79.357446 143.0 208.919 51.867152 36.7517 21.6478 21.6191 1026.2798 25.6566 3.9533 79.515 0.163 -1.3385759 0.0
SAV-15-04 11 8 03/20/2015 12:07:01 2015-03-20T12:07:01Z 31.282869 -79.357446 144.0 210.381 51.87708 36.7474 21.6616 21.6326 1026.2773 25.6496 3.8913 78.285 0.162 -1.3549877 0.0
SAV-15-04 11 8 03/20/2015 12:07:01 2015-03-20T12:07:01Z 31.282869 -79.357446 145.0 211.843 51.896483 36.7632 21.6611 21.6319 1026.2926 25.6618 3.8438 77.337 0.161 -1.3745918 0.0
SAV-15-04 11 8 03/20/2015 12:07:01 2015-03-20T12:07:01Z 31.282869 -79.357446 146.0 213.304 51.885085 36.7773 21.6337 21.6046 1026.3126 25.6801 3.8131 76.687 0.16 -1.0134253 0.0
SAV-15-04 11 8 03/20/2015 12:07:01 2015-03-20T12:07:01Z 31.282869 -79.357446 147.0 214.766 51.818853 36.7606 21.5912 21.562 1026.3135 25.6793 3.7358 75.069 0.161 -2.2986382 0.0
SAV-15-04 11 8 03/20/2015 12:07:01 2015-03-20T12:07:01Z 31.282869 -79.357446 148.0 216.227 51.497396 36.7319 21.3231 21.2937 1026.3753 25.7321 3.7857 75.696 0.16 -1.1867386 0.0
SAV-15-04 11 8 03/20/2015 12:07:01 2015-03-20T12:07:01Z 31.282869 -79.357446 149.0 217.689 51.380194 36.7449 21.1975 21.168 1026.4268 25.7767 3.8048 75.912 0.16 -0.8164474 0.0
SAV-15-04 11 8 03/20/2015 12:07:01 2015-03-20T12:07:01Z 31.282869 -79.357446 150.0 219.15 51.236623 36.6871 21.1297 21.1 1026.4067 25.7514 3.8109 75.917 0.159 -0.8079649 0.0
SAV-15-04 11 8 03/20/2015 12:07:01 2015-03-20T12:07:01Z 31.282869 -79.357446 151.0 220.611 51.243085 36.6882 21.1339 21.1042 1026.4108 25.7512 3.8127 75.959 0.159 -2.1158577 0.0
SAV-15-04 11 8 03/20/2015 12:07:01 2015-03-20T12:07:01Z 31.282869 -79.357446 152.0 222.073 51.236341 36.7472 21.0587 21.0287 1026.4803 25.8168 3.8286 76.199 0.158 -2.0753714 0.0
SAV-15-04 11 8 03/20/2015 12:07:01 2015-03-20T12:07:01Z 31.282869 -79.357446 153.0 223.535 51.180187 36.6989 21.062 21.0321 1026.4429 25.7791 3.832 76.25 0.157 -1.7929183 0.0
SAV-15-04 11 8 03/20/2015 12:07:01 2015-03-20T12:07:01Z 31.282869 -79.357446 154.0 224.997 51.198447 36.6753 21.1065 21.0764 1026.4145 25.7489 3.726 74.191 0.157 -0.3860719 0.0
SAV-15-04 11 8 03/20/2015 12:07:01 2015-03-20T12:07:01Z 31.282869 -79.357446 155.0 226.459 51.022039 36.6906 20.9222 20.8919 1026.4847 25.8112 3.7295 74.021 0.157 0.8026836 0.0
SAV-15-04 11 8 03/20/2015 12:07:01 2015-03-20T12:07:01Z 31.282869 -79.357446 156.0 227.92 50.97895 36.6787 20.8952 20.8648 1026.4866 25.8096 3.7051 73.496 0.157 0.8881475 0.0
SAV-15-04 11 8 03/20/2015 12:07:01 2015-03-20T12:07:01Z 31.282869 -79.357446 157.0 229.381 51.01082 36.67 20.9345 20.9038 1026.476 25.7923 3.6871 73.185 0.156 0.3907926 0.0
SAV-15-04 11 8 03/20/2015 12:07:01 2015-03-20T12:07:01Z 31.282869 -79.357446 158.0 230.843 51.104557 36.744 20.9361 20.9051 1026.5383 25.8483 3.7002 73.481 0.156 0.1513311 0.0
SAV-15-04 11 8 03/20/2015 12:07:01 2015-03-20T12:07:01Z 31.282869 -79.357446 159.0 232.304 50.959251 36.7351 20.8096 20.7786 1026.5698 25.8761 3.703 73.365 0.156 0.3439221 0.0
SAV-15-04 11 8 03/20/2015 12:07:01 2015-03-20T12:07:01Z 31.282869 -79.357446 160.0 233.766 50.879815 36.6847 20.7931 20.762 1026.5384 25.8422 3.6582 72.435 0.155 0.4130876 0.0
SAV-15-04 11 8 03/20/2015 12:07:01 2015-03-20T12:07:01Z 31.282869 -79.357446 161.0 235.228 50.865597 36.6749 20.7908 20.7597 1026.5337 25.8354 3.6018 71.31 0.155 0.5346186 0.0
SAV-15-04 11 8 03/20/2015 12:07:01 2015-03-20T12:07:01Z 31.282869 -79.357446 162.0 236.689 50.875046 36.672 20.8028 20.7715 1026.5314 25.8299 3.6298 71.879 0.155 0.0642008 0.0
SAV-15-04 11 8 03/20/2015 12:07:01 2015-03-20T12:07:01Z 31.282869 -79.357446 163.0 238.151 50.906714 36.6788 20.8237 20.7919 1026.5411 25.8296 3.6427 72.164 0.155 0.6890787 0.0
SAV-15-04 11 8 03/20/2015 12:07:01 2015-03-20T12:07:01Z 31.282869 -79.357446 164.0 239.612 50.914458 36.761 20.7353 20.7033 1026.6332 25.9164 3.6483 72.196 0.155 0.8553219 0.0
SAV-15-04 11 8 03/20/2015 12:07:01 2015-03-20T12:07:01Z 31.282869 -79.357446 165.0 241.074 50.825205 36.7368 20.679 20.6469 1026.6344 25.9132 3.6456 72.057 0.154 1.4975192 0.0
SAV-15-04 11 8 03/20/2015 12:07:01 2015-03-20T12:07:01Z 31.282869 -79.357446 166.0 242.536 50.790616 36.7322 20.6514 20.6192 1026.6429 25.9172 3.6132 71.379 0.155 2.1400636 0.0
SAV-15-04 11 8 03/20/2015 12:07:01 2015-03-20T12:07:01Z 31.282869 -79.357446 167.0 243.998 50.760614 36.74 20.614 20.5816 1026.6614 25.9333 3.5544 70.174 0.153 2.0735757 0.0
SAV-15-04 11 8 03/20/2015 12:07:01 2015-03-20T12:07:01Z 31.282869 -79.357446 168.0 245.459 50.780134 36.7174 20.6584 20.626 1026.6325 25.9041 3.3892 66.957 0.153 1.770232 0.0
SAV-15-04 11 8 03/20/2015 12:07:01 2015-03-20T12:07:01Z 31.282869 -79.357446 169.0 246.92 50.638846 36.7439 20.4941 20.4616 1026.7042 25.9689 3.3281 65.565 0.153 1.4262551 0.0
SAV-15-04 11 8 03/20/2015 12:07:01 2015-03-20T12:07:01Z 31.282869 -79.357446 170.0 248.382 50.529861 36.7194 20.4194 20.3867 1026.7107 25.9703 3.3538 65.974 0.153 1.1239461 0.0
SAV-15-04 11 8 03/20/2015 12:07:01 2015-03-20T12:07:01Z 31.282869 -79.357446 171.0 249.844 50.48657 36.7332 20.3622 20.3295 1026.7404 25.9963 3.3355 65.55 0.153 1.1626352 0.0
SAV-15-04 11 8 03/20/2015 12:07:01 2015-03-20T12:07:01Z 31.282869 -79.357446 172.0 251.306 50.393063 36.7314 20.2758 20.243 1026.7669 26.0182 3.2897 64.549 0.153 2.4356567 0.0
SAV-15-04 11 8 03/20/2015 12:07:01 2015-03-20T12:07:01Z 31.282869 -79.357446 173.0 252.768 50.326407 36.7243 20.2206 20.1876 1026.7811 26.0276 3.2509 63.722 0.153 2.6453769 0.0
SAV-15-04 11 8 03/20/2015 12:07:01 2015-03-20T12:07:01Z 31.282869 -79.357446 174.0 254.229 50.242411 36.7473 20.1146 20.0815 1026.832 26.0735 3.2468 63.527 0.152 1.5145273 0.0
SAV-15-04 11 8 03/20/2015 12:07:01 2015-03-20T12:07:01Z 31.282869 -79.357446 175.0 255.691 50.115087 36.7141 20.0322 19.9991 1026.8317 26.0701 3.251 63.5 0.152 2.0351228 0.0
SAV-15-04 11 8 03/20/2015 12:07:01 2015-03-20T12:07:01Z 31.282869 -79.357446 176.0 257.153 50.075545 36.6971 20.014 19.9808 1026.8271 26.062 3.2459 63.374 0.152 2.51576 0.0
SAV-15-04 11 8 03/20/2015 12:07:01 2015-03-20T12:07:01Z 31.282869 -79.357446 177.0 258.614 49.962524 36.7122 19.8893 19.8559 1026.878 26.1067 3.2376 63.073 0.152 2.8935286 0.0
SAV-15-04 11 8 03/20/2015 12:07:01 2015-03-20T12:07:01Z 31.282869 -79.357446 178.0 260.076 49.864446 36.6797 19.8333 19.7998 1026.8722 26.0967 3.2462 63.164 0.152 2.2008899 0.0
SAV-15-04 11 8 03/20/2015 12:07:01 2015-03-20T12:07:01Z 31.282869 -79.357446 179.0 261.538 49.835794 36.6731 19.8133 19.7797 1026.8763 26.097 3.2447 63.111 0.152 3.457136 0.0
SAV-15-04 11 8 03/20/2015 12:07:01 2015-03-20T12:07:01Z 31.282869 -79.357446 180.0 263.0 49.783576 36.6715 19.7653 19.7316 1026.892 26.1086 3.2447 63.055 0.152 3.6752646 0.0
SAV-15-04 11 8 03/20/2015 12:07:01 2015-03-20T12:07:01Z 31.282869 -79.357446 181.0 264.461 49.668255 36.6808 19.6448 19.6109 1026.9382 26.1475 3.2396 62.82 0.152 3.5873591 0.0
SAV-15-04 11 8 03/20/2015 12:07:01 2015-03-20T12:07:01Z 31.282869 -79.357446 182.0 265.923 49.539694 36.6557 19.551 19.5171 1026.9496 26.1529 3.2362 62.637 0.152 2.9378306 0.0
SAV-15-04 11 8 03/20/2015 12:07:01 2015-03-20T12:07:01Z 31.282869 -79.357446 183.0 267.385 49.435999 36.6507 19.4579 19.4239 1026.9742 26.1734 3.2445 62.688 0.151 2.7739003 0.0
SAV-15-04 11 8 03/20/2015 12:07:01 2015-03-20T12:07:01Z 31.282869 -79.357446 184.0 268.847 49.3799 36.6232 19.4356 19.4015 1026.9623 26.1583 3.2357 62.481 0.151 2.6799608 0.0
SAV-15-04 11 8 03/20/2015 12:07:01 2015-03-20T12:07:01Z 31.282869 -79.357446 185.0 270.308 49.379776 36.62 19.439 19.4048 1026.9607 26.155 3.2162 62.108 0.151 3.0453286 0.0
SAV-15-04 11 8 03/20/2015 12:07:01 2015-03-20T12:07:01Z 31.282869 -79.357446 186.0 271.771 49.432494 36.6092 19.501 19.4666 1026.9396 26.1306 3.226 62.365 0.152 3.8634772 0.0
SAV-15-04 11 8 03/20/2015 12:07:01 2015-03-20T12:07:01Z 31.282869 -79.357446 187.0 273.232 49.409594 36.6251 19.4601 19.4253 1026.9732 26.1535 3.2386 62.566 0.151 3.1254773 0.0
SAV-15-04 11 8 03/20/2015 12:07:01 2015-03-20T12:07:01Z 31.282869 -79.357446 188.0 274.694 49.400396 36.6216 19.455 19.42 1026.9763 26.1522 3.2483 62.747 0.151 3.1187657 0.0
SAV-15-04 11 8 03/20/2015 12:07:01 2015-03-20T12:07:01Z 31.282869 -79.357446 189.0 276.156 49.413061 36.628 19.4594 19.4243 1026.9832 26.156 3.2548 62.88 0.151 2.360143 0.0
SAV-15-04 11 8 03/20/2015 12:07:01 2015-03-20T12:07:01Z 31.282869 -79.357446 190.0 277.617 49.416216 36.6251 19.4654 19.4302 1026.9816 26.1523 3.2602 62.991 0.151 2.3527535 0.0
SAV-15-04 11 8 03/20/2015 12:07:01 2015-03-20T12:07:01Z 31.282869 -79.357446 191.0 279.079 49.42485 36.626 19.4725 19.4372 1026.9821 26.1511 3.2562 62.921 0.151 3.1316998 0.0
SAV-15-04 11 8 03/20/2015 12:07:01 2015-03-20T12:07:01Z 31.282869 -79.357446 192.0 280.541 49.426296 36.6282 19.4706 19.435 1026.9907 26.1534 3.2734 63.252 0.151 2.8744161 0.0
SAV-15-04 11 8 03/20/2015 12:07:01 2015-03-20T12:07:01Z 31.282869 -79.357446 193.0 282.003 49.412229 36.6402 19.4431 19.4073 1027.0128 26.1698 3.277 63.294 0.151 2.81016 0.0
SAV-15-04 11 8 03/20/2015 12:07:01 2015-03-20T12:07:01Z 31.282869 -79.357446 194.0 283.465 49.373986 36.6335 19.414 19.378 1027.0197 26.1723 3.2798 63.313 0.151 3.3099032 0.0
SAV-15-04 11 8 03/20/2015 12:07:01 2015-03-20T12:07:01Z 31.282869 -79.357446 195.0 284.927 49.357248 36.627 19.4051 19.369 1027.021 26.1697 3.2774 63.252 0.151 3.2452728 0.0
SAV-15-04 11 8 03/20/2015 12:07:01 2015-03-20T12:07:01Z 31.282869 -79.357446 196.0 286.388 49.350855 36.628 19.3975 19.3612 1027.0277 26.1725 3.2725 63.149 0.151 2.9435019 0.0
SAV-15-04 11 8 03/20/2015 12:07:01 2015-03-20T12:07:01Z 31.282869 -79.357446 197.0 287.851 49.310349 36.6328 19.3533 19.317 1027.046 26.1876 3.2719 63.088 0.151 3.9621882 0.0
SAV-15-04 11 8 03/20/2015 12:07:01 2015-03-20T12:07:01Z 31.282869 -79.357446 198.0 289.312 49.249056 36.6234 19.3052 19.2688 1027.0557 26.1931 3.2826 63.236 0.151 3.720791 0.0
SAV-15-04 11 8 03/20/2015 12:07:01 2015-03-20T12:07:01Z 31.282869 -79.357446 199.0 290.774 49.198654 36.6186 19.2625 19.2259 1027.0674 26.2005 3.2882 63.291 0.151 3.1530964 0.0
SAV-15-04 11 8 03/20/2015 12:07:01 2015-03-20T12:07:01Z 31.282869 -79.357446 200.0 292.236 49.138679 36.6146 19.2091 19.1723 1027.0864 26.2114 3.2983 63.423 0.151 3.456333 0.0
SAV-15-04 11 8 03/20/2015 12:07:01 2015-03-20T12:07:01Z 31.282869 -79.357446 201.0 293.698 49.107882 36.6118 19.1826 19.1457 1027.0955 26.2161 3.3057 63.531 0.151 3.6306859 0.0
SAV-15-04 11 8 03/20/2015 12:07:01 2015-03-20T12:07:01Z 31.282869 -79.357446 202.0 295.159 49.0984 36.6074 19.1784 19.1413 1027.0948 26.2139 3.3071 63.552 0.151 2.5257169 0.0
SAV-15-04 11 8 03/20/2015 12:07:01 2015-03-20T12:07:01Z 31.282869 -79.357446 203.0 296.622 49.10892 36.5897 19.2087 19.1717 1027.0714 26.1924 3.3257 63.939 0.152 3.0852218 0.0
SAV-15-04 12 8 03/20/2015 13:03:18 2015-03-20T13:03:18Z 31.275817 -79.356792 2.0 2.921 54.383722 36.0462 24.9116 24.9112 1024.168 24.1592 3.0097 63.797 236.0 -3.5247236 0.0
SAV-15-04 12 8 03/20/2015 13:03:18 2015-03-20T13:03:18Z 31.275817 -79.356792 3.0 4.381 55.112613 36.5723 24.9342 24.9335 1024.563 24.5503 4.8805 103.8 197.0 -5.0097564 0.0
SAV-15-04 12 8 03/20/2015 13:03:18 2015-03-20T13:03:18Z 31.275817 -79.356792 4.0 5.842 54.907025 36.4035 24.9523 24.9513 1024.4369 24.4172 4.5192 96.072 152.0 -4.8965396 0.0
SAV-15-04 12 8 03/20/2015 13:03:18 2015-03-20T13:03:18Z 31.275817 -79.356792 5.0 7.303 54.917082 36.4029 24.962 24.9609 1024.4368 24.4139 4.525 96.212 136.0 -4.9031343 0.0
SAV-15-04 12 8 03/20/2015 13:03:18 2015-03-20T13:03:18Z 31.275817 -79.356792 6.0 8.763 54.93958 36.4152 24.9669 24.9652 1024.4533 24.4219 4.557 96.907 139.0 -4.9001339 0.0
SAV-15-04 12 8 03/20/2015 13:03:18 2015-03-20T13:03:18Z 31.275817 -79.356792 7.0 10.224 54.933245 36.399 24.9806 24.9787 1024.4423 24.4054 4.5611 97.007 126.0 -4.9002636 0.0
SAV-15-04 12 8 03/20/2015 13:03:18 2015-03-20T13:03:18Z 31.275817 -79.356792 8.0 11.684 54.970987 36.4179 24.9917 24.9896 1024.457 24.4165 4.5593 96.997 117.0 -4.9002636 0.0
SAV-15-04 12 8 03/20/2015 13:03:18 2015-03-20T13:03:18Z 31.275817 -79.356792 9.0 13.145 54.966089 36.4119 24.9943 24.9921 1024.4546 24.4111 4.5609 97.032 108.0 -4.4816578 0.0
SAV-15-04 12 8 03/20/2015 13:03:18 2015-03-20T13:03:18Z 31.275817 -79.356792 10.0 14.605 54.985397 36.4189 25.0033 25.001 1024.459 24.4138 4.532 96.435 104.0 -4.3576726 0.0
SAV-15-04 12 8 03/20/2015 13:03:18 2015-03-20T13:03:18Z 31.275817 -79.356792 11.0 16.066 54.983966 36.4185 25.0022 24.9998 1024.4622 24.4138 4.5206 96.191 93.3 -4.911338 0.0
SAV-15-04 12 8 03/20/2015 13:03:18 2015-03-20T13:03:18Z 31.275817 -79.356792 12.0 17.526 55.001406 36.4246 25.0101 25.0073 1024.4717 24.4161 4.5207 96.209 89.1 -4.9007015 0.0
SAV-15-04 12 8 03/20/2015 13:03:18 2015-03-20T13:03:18Z 31.275817 -79.356792 13.0 18.987 55.002246 36.4249 25.0098 25.0066 1024.479 24.4165 4.5367 96.549 87.3 -4.9002636 0.0
SAV-15-04 12 8 03/20/2015 13:03:18 2015-03-20T13:03:18Z 31.275817 -79.356792 14.0 20.447 55.004084 36.4253 25.0106 25.0072 1024.4834 24.4167 4.5468 96.765 85.5 -4.9002636 0.0
SAV-15-04 12 8 03/20/2015 13:03:18 2015-03-20T13:03:18Z 31.275817 -79.356792 15.0 21.908 55.00501 36.4254 25.0112 25.0076 1024.4857 24.4166 4.5497 96.828 80.6 -4.9002636 0.0
SAV-15-04 12 8 03/20/2015 13:03:18 2015-03-20T13:03:18Z 31.275817 -79.356792 16.0 23.368 55.006258 36.4259 25.0115 25.0079 1024.4875 24.4169 4.5174 96.142 79.1 -4.9002636 0.0
SAV-15-04 12 8 03/20/2015 13:03:18 2015-03-20T13:03:18Z 31.275817 -79.356792 17.0 24.829 55.007222 36.4261 25.0117 25.0078 1024.4927 24.4171 4.5093 95.97 84.2 -4.9002636 0.0
SAV-15-04 12 8 03/20/2015 13:03:18 2015-03-20T13:03:18Z 31.275817 -79.356792 18.0 26.29 55.014642 36.4286 25.0148 25.0105 1024.5009 24.4182 4.5515 96.875 77.4 -4.9002636 0.0
SAV-15-04 12 8 03/20/2015 13:03:18 2015-03-20T13:03:18Z 31.275817 -79.356792 19.0 27.751 55.015941 36.4293 25.0149 25.0105 1024.5044 24.4186 4.5616 97.09 72.3 -4.9002636 0.0
SAV-15-04 12 8 03/20/2015 13:03:18 2015-03-20T13:03:18Z 31.275817 -79.356792 20.0 29.211 55.015476 36.4289 25.0148 25.0102 1024.5064 24.4184 4.5284 96.384 67.4 -4.9002636 0.0
SAV-15-04 12 8 03/20/2015 13:03:18 2015-03-20T13:03:18Z 31.275817 -79.356792 21.0 30.672 55.017363 36.4294 25.0154 25.0107 1024.5109 24.4187 4.5106 96.005 68.5 -4.9002636 0.0
SAV-15-04 12 8 03/20/2015 13:03:18 2015-03-20T13:03:18Z 31.275817 -79.356792 22.0 32.132 55.022732 36.4309 25.0179 25.0128 1024.5176 24.4192 4.5366 96.565 69.0 -4.9002636 0.0
SAV-15-04 12 8 03/20/2015 13:03:18 2015-03-20T13:03:18Z 31.275817 -79.356792 23.0 33.592 55.025929 36.4325 25.0184 25.0131 1024.5233 24.4203 4.5441 96.725 66.3 -4.9002636 0.0
SAV-15-04 12 8 03/20/2015 13:03:18 2015-03-20T13:03:18Z 31.275817 -79.356792 24.0 35.053 55.028658 36.4341 25.0187 25.0132 1024.5277 24.4214 4.5343 96.518 62.4 -4.9002636 0.0
SAV-15-04 12 8 03/20/2015 13:03:18 2015-03-20T13:03:18Z 31.275817 -79.356792 25.0 36.514 55.028886 36.4338 25.0189 25.0132 1024.5315 24.4212 4.5117 96.038 58.0 -4.9002636 0.0
SAV-15-04 12 8 03/20/2015 13:03:18 2015-03-20T13:03:18Z 31.275817 -79.356792 26.0 37.975 55.029969 36.4335 25.0197 25.0138 1024.5354 24.4209 4.5039 95.872 55.0 -4.4289551 0.0
SAV-15-04 12 8 03/20/2015 13:03:18 2015-03-20T13:03:18Z 31.275817 -79.356792 27.0 39.435 55.033829 36.4354 25.0206 25.0145 1024.5405 24.4221 4.5138 96.086 54.0 -4.4634528 0.0
SAV-15-04 12 8 03/20/2015 13:03:18 2015-03-20T13:03:18Z 31.275817 -79.356792 28.0 40.896 55.040995 36.4393 25.0219 25.0156 1024.5478 24.4247 4.5151 96.117 53.1 -4.9119994 0.0
SAV-15-04 12 8 03/20/2015 13:03:18 2015-03-20T13:03:18Z 31.275817 -79.356792 29.0 42.356 55.047493 36.4418 25.0245 25.0179 1024.5534 24.4258 4.5121 96.059 51.1 -4.9002636 0.0
SAV-15-04 12 8 03/20/2015 13:03:18 2015-03-20T13:03:18Z 31.275817 -79.356792 30.0 43.817 55.051463 36.4464 25.0221 25.0153 1024.5613 24.4302 4.5035 95.876 48.1 -4.9002636 0.0
SAV-15-04 12 8 03/20/2015 13:03:18 2015-03-20T13:03:18Z 31.275817 -79.356792 31.0 45.277 55.052785 36.4537 25.0139 25.0069 1024.5738 24.4383 4.516 96.131 44.7 -4.9002636 0.0
SAV-15-04 12 8 03/20/2015 13:03:18 2015-03-20T13:03:18Z 31.275817 -79.356792 32.0 46.739 55.055215 36.4562 25.0126 25.0054 1024.5803 24.4406 4.5099 96.0 42.7 -4.9002636 0.0
SAV-15-04 12 8 03/20/2015 13:03:18 2015-03-20T13:03:18Z 31.275817 -79.356792 33.0 48.199 55.049462 36.4669 24.9936 24.9862 1024.5994 24.4545 4.5181 96.151 41.5 -4.8235531 0.0
SAV-15-04 12 8 03/20/2015 13:03:18 2015-03-20T13:03:18Z 31.275817 -79.356792 34.0 49.66 55.027078 36.47 24.9685 24.9608 1024.615 24.4647 4.5117 95.975 39.7 -4.2275264 0.0
SAV-15-04 12 8 03/20/2015 13:03:18 2015-03-20T13:03:18Z 31.275817 -79.356792 35.0 51.121 55.050103 36.4869 24.9685 24.9606 1024.6317 24.4775 4.5101 95.951 37.5 -4.2794666 0.0
SAV-15-04 12 8 03/20/2015 13:03:18 2015-03-20T13:03:18Z 31.275817 -79.356792 36.0 52.581 55.089896 36.5126 24.9733 24.9652 1024.6527 24.4955 4.4938 95.625 35.0 -4.4270942 0.0
SAV-15-04 12 8 03/20/2015 13:03:18 2015-03-20T13:03:18Z 31.275817 -79.356792 37.0 54.042 55.111529 36.5258 24.9766 24.9684 1024.6649 24.5046 4.4516 94.741 32.6 -4.8367961 0.0
SAV-15-04 12 8 03/20/2015 13:03:18 2015-03-20T13:03:18Z 31.275817 -79.356792 38.0 55.502 55.204143 36.5707 25.0061 24.9976 1024.6953 24.5296 4.4011 93.736 30.4 -4.8674092 0.0
SAV-15-04 12 8 03/20/2015 13:03:18 2015-03-20T13:03:18Z 31.275817 -79.356792 39.0 56.963 55.222951 36.582 25.0089 25.0001 1024.7088 24.5374 4.4066 93.864 28.3 -4.899605 0.0
SAV-15-04 12 8 03/20/2015 13:03:18 2015-03-20T13:03:18Z 31.275817 -79.356792 40.0 58.424 55.226869 36.5846 25.009 25.0 1024.7142 24.5394 4.4173 94.093 26.4 -4.9002636 0.0
SAV-15-04 12 8 03/20/2015 13:03:18 2015-03-20T13:03:18Z 31.275817 -79.356792 41.0 59.885 55.228664 36.5856 25.0092 25.0 1024.7181 24.5401 4.3989 93.702 24.6 -4.0466792 0.0
SAV-15-04 12 8 03/20/2015 13:03:18 2015-03-20T13:03:18Z 31.275817 -79.356792 42.0 61.346 55.231228 36.587 25.0093 24.9999 1024.723 24.5412 4.3936 93.59 22.9 -4.056313 0.0
SAV-15-04 12 8 03/20/2015 13:03:18 2015-03-20T13:03:18Z 31.275817 -79.356792 43.0 62.807 55.236114 36.5904 25.0092 24.9995 1024.7309 24.5439 4.3965 93.654 21.4 -3.4249236 0.0
SAV-15-04 12 8 03/20/2015 13:03:18 2015-03-20T13:03:18Z 31.275817 -79.356792 44.0 64.267 55.241242 36.5939 25.009 24.9991 1024.74 24.5467 4.3998 93.726 19.9 -2.8257736 0.0
SAV-15-04 12 8 03/20/2015 13:03:18 2015-03-20T13:03:18Z 31.275817 -79.356792 45.0 65.728 55.241985 36.5965 25.006 24.9959 1024.7472 24.5496 4.4114 93.968 18.7 -5.0148627 0.0
SAV-15-04 12 8 03/20/2015 13:03:18 2015-03-20T13:03:18Z 31.275817 -79.356792 46.0 67.189 55.24223 36.6004 25.0012 24.9909 1024.7543 24.554 4.4076 93.883 17.5 -4.9002636 0.0
SAV-15-04 12 8 03/20/2015 13:03:18 2015-03-20T13:03:18Z 31.275817 -79.356792 47.0 68.65 55.241764 36.6003 25.0006 24.9902 1024.7571 24.5542 4.3915 93.539 16.5 -4.9002636 0.0
SAV-15-04 12 8 03/20/2015 13:03:18 2015-03-20T13:03:18Z 31.275817 -79.356792 48.0 70.11 55.243233 36.6025 24.9989 24.9881 1024.7641 24.5565 4.3802 93.296 15.4 -4.320286 0.0
SAV-15-04 12 8 03/20/2015 13:03:18 2015-03-20T13:03:18Z 31.275817 -79.356792 49.0 71.571 55.237586 36.6037 24.9914 24.9804 1024.7745 24.5598 4.4006 93.719 14.3 -4.8322616 0.0
SAV-15-04 12 8 03/20/2015 13:03:18 2015-03-20T13:03:18Z 31.275817 -79.356792 50.0 73.032 55.233461 36.6041 24.9867 24.9755 1024.7808 24.5616 4.4145 94.008 13.3 -4.9070927 0.0
SAV-15-04 12 8 03/20/2015 13:03:18 2015-03-20T13:03:18Z 31.275817 -79.356792 51.0 74.493 55.230534 36.6036 24.9844 24.973 1024.784 24.562 4.4154 94.023 12.4 -4.0696438 0.0
SAV-15-04 12 8 03/20/2015 13:03:18 2015-03-20T13:03:18Z 31.275817 -79.356792 52.0 75.954 55.230177 36.6029 24.9848 24.9733 1024.7849 24.5613 4.3997 93.69 11.6 -4.173485 0.0
SAV-15-04 12 8 03/20/2015 13:03:18 2015-03-20T13:03:18Z 31.275817 -79.356792 53.0 77.415 55.233111 36.6042 24.985 24.9731 1024.7945 24.5625 4.3763 93.192 10.9 -4.2962771 0.0
SAV-15-04 12 8 03/20/2015 13:03:18 2015-03-20T13:03:18Z 31.275817 -79.356792 54.0 78.876 55.248381 36.608 24.9939 24.9817 1024.8003 24.5627 4.3951 93.608 10.2 -4.1520624 0.0
SAV-15-04 12 8 03/20/2015 13:03:18 2015-03-20T13:03:18Z 31.275817 -79.356792 55.0 80.337 55.256754 36.6137 24.9942 24.9817 1024.8082 24.567 4.4007 93.731 9.52 -4.0715971 0.0
SAV-15-04 12 8 03/20/2015 13:03:18 2015-03-20T13:03:18Z 31.275817 -79.356792 56.0 81.797 55.253575 36.613 24.992 24.9794 1024.811 24.5671 4.3946 93.597 8.87 -3.9058613 0.0
SAV-15-04 12 8 03/20/2015 13:03:18 2015-03-20T13:03:18Z 31.275817 -79.356792 57.0 83.258 55.257839 36.6129 24.9958 24.9831 1024.8123 24.5659 4.3799 93.289 8.35 -3.8791301 0.0
SAV-15-04 12 8 03/20/2015 13:03:18 2015-03-20T13:03:18Z 31.275817 -79.356792 58.0 84.719 55.264065 36.6159 24.9976 24.9847 1024.817 24.5677 4.3736 93.161 7.85 -4.5074216 0.0
SAV-15-04 12 8 03/20/2015 13:03:18 2015-03-20T13:03:18Z 31.275817 -79.356792 59.0 86.18 55.267373 36.6248 24.989 24.9759 1024.8324 24.5772 4.3933 93.57 7.38 -4.9565525 0.0
SAV-15-04 12 8 03/20/2015 13:03:18 2015-03-20T13:03:18Z 31.275817 -79.356792 60.0 87.641 55.23994 36.6239 24.9643 24.9509 1024.8443 24.5842 4.39 93.462 6.88 -4.3257742 0.0
SAV-15-04 12 8 03/20/2015 13:03:18 2015-03-20T13:03:18Z 31.275817 -79.356792 61.0 89.102 55.232464 36.6206 24.9613 24.9477 1024.8459 24.5826 4.3955 93.571 6.41 -4.3141326 0.0
SAV-15-04 12 8 03/20/2015 13:03:18 2015-03-20T13:03:18Z 31.275817 -79.356792 62.0 90.562 55.213743 36.621 24.9429 24.9291 1024.8576 24.5886 4.4011 93.662 5.95 -4.0117704 0.0
SAV-15-04 12 8 03/20/2015 13:03:18 2015-03-20T13:03:18Z 31.275817 -79.356792 63.0 92.023 55.172955 36.6155 24.9116 24.8974 1024.8692 24.5941 4.4009 93.605 5.57 -3.8798602 0.0
SAV-15-04 12 8 03/20/2015 13:03:18 2015-03-20T13:03:18Z 31.275817 -79.356792 64.0 93.485 55.157775 36.6091 24.9051 24.8908 1024.8698 24.5913 4.3882 93.321 5.23 -4.1508687 0.0
SAV-15-04 12 8 03/20/2015 13:03:18 2015-03-20T13:03:18Z 31.275817 -79.356792 65.0 94.946 55.1522 36.6083 24.9007 24.8863 1024.8728 24.592 4.3877 93.303 4.9 -4.3515203 0.0
SAV-15-04 12 8 03/20/2015 13:03:18 2015-03-20T13:03:18Z 31.275817 -79.356792 66.0 96.406 55.151993 36.6083 24.9004 24.8858 1024.8755 24.5922 4.3626 92.769 4.63 -4.6789302 0.0
SAV-15-04 12 8 03/20/2015 13:03:18 2015-03-20T13:03:18Z 31.275817 -79.356792 67.0 97.867 55.121742 36.6239 24.8524 24.8374 1024.9113 24.6188 4.3871 93.222 4.3 -4.5001466 0.0
SAV-15-04 12 8 03/20/2015 13:03:18 2015-03-20T13:03:18Z 31.275817 -79.356792 68.0 99.329 55.119282 36.6249 24.8485 24.8334 1024.9173 24.6208 4.3787 93.038 4.02 -4.7526649 0.0
SAV-15-04 12 8 03/20/2015 13:03:18 2015-03-20T13:03:18Z 31.275817 -79.356792 69.0 100.789 55.153187 36.6359 24.8659 24.8505 1024.9235 24.6239 4.3751 92.996 3.78 -4.6862537 0.0
SAV-15-04 12 8 03/20/2015 13:03:18 2015-03-20T13:03:18Z 31.275817 -79.356792 70.0 102.25 55.187399 36.651 24.8786 24.8631 1024.9338 24.6314 4.319 91.831 3.56 -4.7330297 0.0
SAV-15-04 12 8 03/20/2015 13:03:18 2015-03-20T13:03:18Z 31.275817 -79.356792 71.0 103.711 55.199345 36.6587 24.8799 24.8642 1024.9421 24.6369 4.2902 91.223 3.4 -4.8972247 0.0
SAV-15-04 12 8 03/20/2015 13:03:18 2015-03-20T13:03:18Z 31.275817 -79.356792 72.0 105.172 55.191323 36.6883 24.8356 24.8196 1024.9838 24.6729 4.2948 91.269 3.24 -4.4121933 0.0
SAV-15-04 12 8 03/20/2015 13:03:18 2015-03-20T13:03:18Z 31.275817 -79.356792 73.0 106.633 55.16699 36.696 24.8033 24.7871 1025.0045 24.6887 4.3069 91.479 3.05 -3.9508818 0.0
SAV-15-04 12 8 03/20/2015 13:03:18 2015-03-20T13:03:18Z 31.275817 -79.356792 74.0 108.094 55.065127 36.7482 24.6454 24.6291 1025.096 24.7762 4.2952 91.014 2.87 -3.8694275 0.0
SAV-15-04 12 8 03/20/2015 13:03:18 2015-03-20T13:03:18Z 31.275817 -79.356792 75.0 109.555 54.760377 36.7316 24.3847 24.3684 1025.1664 24.8424 4.2807 90.295 2.72 -4.775378 0.0
SAV-15-04 12 8 03/20/2015 13:03:18 2015-03-20T13:03:18Z 31.275817 -79.356792 76.0 111.016 54.27642 36.6831 23.9966 23.9801 1025.2521 24.9221 4.2819 89.697 2.58 -3.6131861 0.0
SAV-15-04 12 8 03/20/2015 13:03:18 2015-03-20T13:03:18Z 31.275817 -79.356792 77.0 112.477 53.821136 36.5947 23.6818 23.6653 1025.2825 24.9487 4.3004 89.552 2.46 -3.7619025 0.0
SAV-15-04 12 8 03/20/2015 13:03:18 2015-03-20T13:03:18Z 31.275817 -79.356792 78.0 113.938 53.712142 36.5089 23.6843 23.6677 1025.2196 24.8829 4.3261 90.048 2.33 -3.4076789 0.0
SAV-15-04 12 8 03/20/2015 13:03:18 2015-03-20T13:03:18Z 31.275817 -79.356792 79.0 115.399 53.594556 36.4936 23.593 23.5762 1025.2408 24.8983 4.4491 92.452 2.2 -4.1759085 0.0
SAV-15-04 12 8 03/20/2015 13:03:18 2015-03-20T13:03:18Z 31.275817 -79.356792 80.0 116.86 53.55176 36.4912 23.5557 23.5386 1025.255 24.9075 4.5086 93.627 2.08 -4.6654979 0.0
SAV-15-04 12 8 03/20/2015 13:03:18 2015-03-20T13:03:18Z 31.275817 -79.356792 81.0 118.321 53.425005 36.479 23.4522 23.435 1025.2797 24.9288 4.539 94.083 1.97 -4.470203 0.0
SAV-15-04 12 8 03/20/2015 13:03:18 2015-03-20T13:03:18Z 31.275817 -79.356792 82.0 119.782 53.358798 36.4702 23.4008 23.3835 1025.2914 24.9373 4.5318 93.845 1.88 -4.3209276 0.0
SAV-15-04 12 8 03/20/2015 13:03:18 2015-03-20T13:03:18Z 31.275817 -79.356792 83.0 121.243 53.284773 36.4659 23.3365 23.319 1025.3124 24.9528 4.5456 94.024 1.78 -3.7663462 0.0
SAV-15-04 12 8 03/20/2015 13:03:18 2015-03-20T13:03:18Z 31.275817 -79.356792 84.0 122.704 53.267956 36.458 23.33 23.3122 1025.3125 24.9489 4.5486 94.072 1.7 -4.0646236 0.0
SAV-15-04 12 8 03/20/2015 13:03:18 2015-03-20T13:03:18Z 31.275817 -79.356792 85.0 124.165 53.261065 36.4537 23.3284 23.3105 1025.3132 24.9461 4.5421 93.932 1.61 -4.5779179 0.0
SAV-15-04 12 8 03/20/2015 13:03:18 2015-03-20T13:03:18Z 31.275817 -79.356792 86.0 125.627 53.254681 36.4509 23.3253 23.3071 1025.3173 24.945 4.5216 93.502 1.54 -4.4259154 0.0
SAV-15-04 12 8 03/20/2015 13:03:18 2015-03-20T13:03:18Z 31.275817 -79.356792 87.0 127.087 53.250043 36.4504 23.3211 23.3027 1025.3233 24.9459 4.5265 93.595 1.47 -4.5038569 0.0
SAV-15-04 12 8 03/20/2015 13:03:18 2015-03-20T13:03:18Z 31.275817 -79.356792 88.0 128.549 53.240996 36.4535 23.3084 23.2899 1025.3338 24.952 4.5372 93.797 1.39 -4.3968007 0.0
SAV-15-04 12 8 03/20/2015 13:03:18 2015-03-20T13:03:18Z 31.275817 -79.356792 89.0 130.01 53.231453 36.4552 23.2972 23.2784 1025.3426 24.9566 4.5452 93.946 1.33 -4.1411136 0.0
SAV-15-04 12 8 03/20/2015 13:03:18 2015-03-20T13:03:18Z 31.275817 -79.356792 90.0 131.471 53.220321 36.4687 23.2702 23.2512 1025.3643 24.9748 4.5503 94.015 1.26 -3.6775646 0.0
SAV-15-04 12 8 03/20/2015 13:03:18 2015-03-20T13:03:18Z 31.275817 -79.356792 91.0 132.932 53.207322 36.4675 23.2592 23.2401 1025.3691 24.9772 4.4727 92.394 1.2 -4.2456692 0.0
SAV-15-04 12 8 03/20/2015 13:03:18 2015-03-20T13:03:18Z 31.275817 -79.356792 92.0 134.393 53.248511 36.4437 23.3257 23.3062 1025.3393 24.9398 4.4455 91.926 1.14 -3.7383571 0.0
SAV-15-04 12 8 03/20/2015 13:03:18 2015-03-20T13:03:18Z 31.275817 -79.356792 93.0 135.854 53.702757 36.5119 23.6654 23.6455 1025.2949 24.8917 4.4355 92.296 1.09 -3.3326064 0.0
SAV-15-04 12 8 03/20/2015 13:03:18 2015-03-20T13:03:18Z 31.275817 -79.356792 94.0 137.315 54.024989 36.7013 23.7347 23.7146 1025.4212 25.0149 4.4179 92.141 1.04 -3.264966 0.0
SAV-15-04 12 8 03/20/2015 13:03:18 2015-03-20T13:03:18Z 31.275817 -79.356792 95.0 138.777 54.074991 36.7424 23.7311 23.7108 1025.4567 25.0472 4.2876 89.437 0.995 -3.2632646 0.0
SAV-15-04 12 8 03/20/2015 13:03:18 2015-03-20T13:03:18Z 31.275817 -79.356792 96.0 140.237 54.088447 36.7673 23.713 23.6925 1025.4856 25.0715 4.0913 85.329 0.954 -4.8133593 0.0
SAV-15-04 12 8 03/20/2015 13:03:18 2015-03-20T13:03:18Z 31.275817 -79.356792 97.0 141.699 54.083803 36.7862 23.6855 23.6648 1025.5129 25.094 4.0276 83.968 0.92 -3.7561784 0.0
SAV-15-04 12 8 03/20/2015 13:03:18 2015-03-20T13:03:18Z 31.275817 -79.356792 98.0 143.16 54.072236 36.792 23.6675 23.6466 1025.5262 25.1038 4.0368 84.138 0.882 -3.4574911 0.0
SAV-15-04 12 8 03/20/2015 13:03:18 2015-03-20T13:03:18Z 31.275817 -79.356792 99.0 144.621 53.992871 36.8407 23.5354 23.5144 1025.6067 25.1798 4.0419 84.076 0.85 -3.645974 0.0
SAV-15-04 12 8 03/20/2015 13:03:18 2015-03-20T13:03:18Z 31.275817 -79.356792 100.0 146.082 53.759021 36.8662 23.2884 23.2673 1025.7037 25.2717 4.0518 83.935 0.815 -3.2274407 0.0
SAV-15-04 12 8 03/20/2015 13:03:18 2015-03-20T13:03:18Z 31.275817 -79.356792 101.0 147.544 53.649015 36.8437 23.2131 23.1919 1025.7133 25.2768 4.0261 83.283 0.785 -3.9524204 0.0
SAV-15-04 12 8 03/20/2015 13:03:18 2015-03-20T13:03:18Z 31.275817 -79.356792 102.0 149.005 53.584732 36.8414 23.1561 23.1347 1025.7329 25.2917 3.9995 82.648 0.754 -3.246309 0.0
SAV-15-04 12 8 03/20/2015 13:03:18 2015-03-20T13:03:18Z 31.275817 -79.356792 103.0 150.466 53.530807 36.8399 23.1076 23.086 1025.7499 25.3048 3.9823 82.224 0.729 -2.6859378 0.0
SAV-15-04 12 8 03/20/2015 13:03:18 2015-03-20T13:03:18Z 31.275817 -79.356792 104.0 151.926 53.481916 36.8334 23.0697 23.0479 1025.7611 25.3109 3.9672 81.855 0.706 -3.5896903 0.0
SAV-15-04 12 8 03/20/2015 13:03:18 2015-03-20T13:03:18Z 31.275817 -79.356792 105.0 153.389 53.460155 36.8271 23.0564 23.0344 1025.7657 25.3101 3.9486 81.449 0.682 -2.1665207 0.0
SAV-15-04 12 8 03/20/2015 13:03:18 2015-03-20T13:03:18Z 31.275817 -79.356792 106.0 154.849 53.448512 36.827 23.0454 23.0231 1025.7727 25.3133 3.9474 81.407 0.657 -1.520416 0.0
SAV-15-04 12 8 03/20/2015 13:03:18 2015-03-20T13:03:18Z 31.275817 -79.356792 107.0 156.311 53.434192 36.8252 23.0341 23.0118 1025.7768 25.3152 3.9428 81.296 0.635 -1.5066501 0.0
SAV-15-04 12 8 03/20/2015 13:03:18 2015-03-20T13:03:18Z 31.275817 -79.356792 108.0 157.771 53.393649 36.8348 22.9847 22.9622 1025.803 25.3369 3.9388 81.148 0.614 -2.229626 0.0
SAV-15-04 12 8 03/20/2015 13:03:18 2015-03-20T13:03:18Z 31.275817 -79.356792 109.0 159.233 53.20821 36.8811 22.7572 22.7345 1025.9127 25.438 3.9529 81.14 0.592 -2.6999767 0.0
SAV-15-04 12 8 03/20/2015 13:03:18 2015-03-20T13:03:18Z 31.275817 -79.356792 110.0 160.695 53.096562 36.8443 22.697 22.6741 1025.9058 25.4275 3.9481 80.937 0.572 -3.0992527 0.0
SAV-15-04 12 8 03/20/2015 13:03:18 2015-03-20T13:03:18Z 31.275817 -79.356792 111.0 162.156 53.056746 36.8328 22.6736 22.6506 1025.9064 25.4255 3.9301 80.529 0.55 -3.2714814 0.0
SAV-15-04 12 8 03/20/2015 13:03:18 2015-03-20T13:03:18Z 31.275817 -79.356792 112.0 163.617 53.07128 36.8216 22.7002 22.6771 1025.8922 25.4093 3.8695 79.32 0.534 -3.3609987 0.0
SAV-15-04 12 8 03/20/2015 13:03:18 2015-03-20T13:03:18Z 31.275817 -79.356792 113.0 165.078 53.033244 36.8266 22.6581 22.6347 1025.9157 25.4254 3.8594 79.057 0.517 -3.1455733 0.0
SAV-15-04 12 8 03/20/2015 13:03:18 2015-03-20T13:03:18Z 31.275817 -79.356792 114.0 166.539 52.99245 36.851 22.5909 22.5673 1025.9587 25.4634 3.8868 79.536 0.501 -2.3842554 0.0
SAV-15-04 12 8 03/20/2015 13:03:18 2015-03-20T13:03:18Z 31.275817 -79.356792 115.0 168.001 52.873764 36.8592 22.4708 22.4471 1026.0028 25.504 3.8953 79.546 0.485 -2.9871269 0.0
SAV-15-04 12 8 03/20/2015 13:03:18 2015-03-20T13:03:18Z 31.275817 -79.356792 116.0 169.462 52.81322 36.8265 22.4529 22.4292 1025.9859 25.4843 3.8579 78.742 0.471 -3.0503546 0.0
SAV-15-04 12 8 03/20/2015 13:03:18 2015-03-20T13:03:18Z 31.275817 -79.356792 117.0 170.923 52.772881 36.8362 22.4036 22.3796 1026.0122 25.5059 3.7775 77.04 0.458 -2.0558546 0.0
SAV-15-04 12 8 03/20/2015 13:03:18 2015-03-20T13:03:18Z 31.275817 -79.356792 118.0 172.385 52.719618 36.8286 22.3626 22.3384 1026.0231 25.5119 3.7412 76.239 0.444 -1.5307944 0.0
SAV-15-04 12 8 03/20/2015 13:03:18 2015-03-20T13:03:18Z 31.275817 -79.356792 119.0 173.846 52.687459 36.8268 22.3345 22.3101 1026.0334 25.5186 3.7274 75.92 0.431 -1.3949199 0.0
SAV-15-04 12 8 03/20/2015 13:03:18 2015-03-20T13:03:18Z 31.275817 -79.356792 120.0 175.307 52.637641 36.8353 22.2777 22.2532 1026.0608 25.5413 3.7161 75.619 0.419 -1.0929713 0.0
SAV-15-04 12 8 03/20/2015 13:03:18 2015-03-20T13:03:18Z 31.275817 -79.356792 121.0 176.769 52.562497 36.8276 22.2164 22.1917 1026.0781 25.5529 3.7126 75.461 0.406 -1.8409873 0.0
SAV-15-04 12 8 03/20/2015 13:03:18 2015-03-20T13:03:18Z 31.275817 -79.356792 122.0 178.23 52.541787 36.8284 22.1957 22.1709 1026.0886 25.5594 3.7163 75.511 0.395 -2.3841363 0.0
SAV-15-04 12 8 03/20/2015 13:03:18 2015-03-20T13:03:18Z 31.275817 -79.356792 123.0 179.691 52.519719 36.8172 22.1882 22.1632 1026.0849 25.5531 3.7191 75.553 0.383 -1.5754145 0.0
SAV-15-04 12 8 03/20/2015 13:03:18 2015-03-20T13:03:18Z 31.275817 -79.356792 124.0 181.153 52.502718 36.824 22.1639 22.1388 1026.101 25.5652 3.7046 75.229 0.374 -1.0781548 0.0
SAV-15-04 12 8 03/20/2015 13:03:18 2015-03-20T13:03:18Z 31.275817 -79.356792 125.0 182.614 52.450197 36.8235 22.1151 22.0897 1026.1207 25.5787 3.7186 75.447 0.364 -0.6168239 0.0
SAV-15-04 12 8 03/20/2015 13:03:18 2015-03-20T13:03:18Z 31.275817 -79.356792 126.0 184.075 52.429823 36.8181 22.1021 22.0765 1026.1247 25.5784 3.7263 75.584 0.354 -2.0031284 0.0
SAV-15-04 12 8 03/20/2015 13:03:18 2015-03-20T13:03:18Z 31.275817 -79.356792 127.0 185.537 52.419377 36.8166 22.0937 22.0679 1026.1301 25.5797 3.7268 75.583 0.344 -1.2058623 0.0
SAV-15-04 12 8 03/20/2015 13:03:18 2015-03-20T13:03:18Z 31.275817 -79.356792 128.0 186.998 52.383959 36.83 22.0445 22.0185 1026.1596 25.6039 3.7344 75.677 0.336 -0.5211176 0.0
SAV-15-04 12 8 03/20/2015 13:03:18 2015-03-20T13:03:18Z 31.275817 -79.356792 129.0 188.46 52.327365 36.8274 21.9943 21.9681 1026.1773 25.6161 3.7365 75.651 0.328 -1.9262344 0.0
SAV-15-04 12 8 03/20/2015 13:03:18 2015-03-20T13:03:18Z 31.275817 -79.356792 130.0 189.921 52.300047 36.8181 21.9795 21.9532 1026.1774 25.6133 3.73 75.496 0.321 -1.8503923 0.0
SAV-15-04 12 8 03/20/2015 13:03:18 2015-03-20T13:03:18Z 31.275817 -79.356792 131.0 191.382 52.28071 36.8117 21.9688 21.9425 1026.1777 25.6114 3.7261 75.4 0.313 -1.8804143 0.0
SAV-15-04 12 8 03/20/2015 13:03:18 2015-03-20T13:03:18Z 31.275817 -79.356792 132.0 192.844 52.243613 36.8161 21.9288 21.9022 1026.1967 25.6261 3.7269 75.364 0.306 -1.5857099 0.0
SAV-15-04 12 8 03/20/2015 13:03:18 2015-03-20T13:03:18Z 31.275817 -79.356792 133.0 194.305 52.07618 36.8272 21.7588 21.732 1026.2615 25.6825 3.7505 75.618 0.299 -1.4430007 0.0
SAV-15-04 12 8 03/20/2015 13:03:18 2015-03-20T13:03:18Z 31.275817 -79.356792 134.0 195.767 51.814141 36.7807 21.5682 21.5414 1026.2844 25.7004 3.7721 75.776 0.292 -1.917684 0.0
SAV-15-04 12 8 03/20/2015 13:03:18 2015-03-20T13:03:18Z 31.275817 -79.356792 135.0 197.228 51.744708 36.7398 21.5508 21.5239 1026.2606 25.6742 3.7839 75.971 0.285 -1.9058987 0.0
SAV-15-04 12 8 03/20/2015 13:03:18 2015-03-20T13:03:18Z 31.275817 -79.356792 136.0 198.689 51.708873 36.7204 21.5398 21.5127 1026.2512 25.6625 3.7939 76.148 0.279 -1.9210982 0.0
SAV-15-04 12 8 03/20/2015 13:03:18 2015-03-20T13:03:18Z 31.275817 -79.356792 137.0 200.151 51.710626 36.7408 21.5172 21.4899 1026.2779 25.6843 3.8523 77.298 0.274 -1.2012213 0.0
SAV-15-04 12 8 03/20/2015 13:03:18 2015-03-20T13:03:18Z 31.275817 -79.356792 138.0 201.612 51.506402 36.6957 21.378 21.3507 1026.2883 25.6887 3.8816 77.672 0.268 -2.0605095 0.0
SAV-15-04 12 8 03/20/2015 13:03:18 2015-03-20T13:03:18Z 31.275817 -79.356792 139.0 203.073 51.440487 36.6994 21.3115 21.284 1026.3143 25.71 3.8876 77.702 0.263 -2.4553386 0.0
SAV-15-04 12 8 03/20/2015 13:03:18 2015-03-20T13:03:18Z 31.275817 -79.356792 140.0 204.535 51.274166 36.6844 21.1725 21.1449 1026.3457 25.737 3.9047 77.844 0.258 -0.3208325 0.0
SAV-15-04 12 8 03/20/2015 13:03:18 2015-03-20T13:03:18Z 31.275817 -79.356792 141.0 205.997 51.154488 36.6606 21.0873 21.0596 1026.3562 25.7424 3.9397 78.411 0.253 -1.1296509 0.0
SAV-15-04 12 8 03/20/2015 13:03:18 2015-03-20T13:03:18Z 31.275817 -79.356792 142.0 207.458 50.953766 36.6396 20.9226 20.8949 1026.3902 25.7715 3.9971 79.308 0.249 -1.583823 0.0
SAV-15-04 12 8 03/20/2015 13:03:18 2015-03-20T13:03:18Z 31.275817 -79.356792 143.0 208.919 50.84452 36.5946 20.8718 20.8439 1026.3735 25.7511 4.0534 80.331 0.244 -1.1029591 0.0
SAV-15-04 12 8 03/20/2015 13:03:18 2015-03-20T13:03:18Z 31.275817 -79.356792 144.0 210.381 50.804634 36.5753 20.8563 20.8284 1026.3656 25.7407 4.1204 81.626 0.239 -1.0424296 0.0
SAV-15-04 12 8 03/20/2015 13:03:18 2015-03-20T13:03:18Z 31.275817 -79.356792 145.0 211.843 50.842063 36.5706 20.8968 20.8686 1026.3545 25.7261 4.2503 84.259 0.236 -1.3545302 0.0
SAV-15-04 12 8 03/20/2015 13:03:18 2015-03-20T13:03:18Z 31.275817 -79.356792 146.0 213.304 50.808936 36.5548 20.8828 20.8542 1026.3571 25.718 4.2277 83.782 0.232 -1.8265098 0.0
SAV-15-04 12 8 03/20/2015 13:03:18 2015-03-20T13:03:18Z 31.275817 -79.356792 147.0 214.766 50.960007 36.5608 21.0179 20.989 1026.3284 25.6857 4.2275 83.986 0.228 -1.9931799 0.0
SAV-15-04 12 8 03/20/2015 13:03:18 2015-03-20T13:03:18Z 31.275817 -79.356792 148.0 216.227 51.163835 36.6757 21.0755 21.0464 1026.4033 25.7575 4.2195 83.969 0.223 -2.3054303 0.0
SAV-15-04 12 8 03/20/2015 13:03:18 2015-03-20T13:03:18Z 31.275817 -79.356792 149.0 217.689 51.105726 36.7171 20.9725 20.9433 1026.4657 25.8174 4.1965 83.378 0.22 -2.3384181 0.0
SAV-15-04 12 8 03/20/2015 13:03:18 2015-03-20T13:03:18Z 31.275817 -79.356792 150.0 219.15 50.981932 36.6653 20.9159 20.8867 1026.445 25.7934 4.0416 80.193 0.217 -1.7408435 0.0
SAV-15-04 12 8 03/20/2015 13:03:18 2015-03-20T13:03:18Z 31.275817 -79.356792 151.0 220.612 50.9341 36.648 20.8907 20.8613 1026.4428 25.7872 3.8267 75.887 0.214 -1.0227803 0.0
SAV-15-04 12 8 03/20/2015 13:03:18 2015-03-20T13:03:18Z 31.275817 -79.356792 152.0 222.073 50.920552 36.639 20.8882 20.8587 1026.4392 25.7809 3.7875 75.102 0.211 -1.0167373 0.0
SAV-15-04 12 8 03/20/2015 13:03:18 2015-03-20T13:03:18Z 31.275817 -79.356792 153.0 223.535 50.906476 36.6276 20.8872 20.8572 1026.4407 25.7727 3.8652 76.636 0.208 0.4688764 0.0
SAV-15-04 12 8 03/20/2015 13:03:18 2015-03-20T13:03:18Z 31.275817 -79.356792 154.0 224.997 50.991583 36.6211 20.9743 20.9441 1026.4168 25.744 3.8519 76.491 0.206 -0.5688627 0.0
SAV-15-04 12 8 03/20/2015 13:03:18 2015-03-20T13:03:18Z 31.275817 -79.356792 155.0 226.457 51.129115 36.6877 21.0258 20.9953 1026.4578 25.7807 3.8583 76.717 0.203 -0.5417992 0.0
SAV-15-04 12 8 03/20/2015 13:03:18 2015-03-20T13:03:18Z 31.275817 -79.356792 156.0 227.919 51.147983 36.7016 21.0271 20.9964 1026.4707 25.7909 3.8583 76.726 0.199 -0.5417992 0.0
SAV-15-04 12 8 03/20/2015 13:03:18 2015-03-20T13:03:18Z 31.275817 -79.356792 157.0 229.381 51.157944 36.7067 21.0303 20.9996 1026.4755 25.794 3.802 75.613 0.197 -0.4238015 0.0
SAV-15-04 12 8 03/20/2015 13:03:18 2015-03-20T13:03:18Z 31.275817 -79.356792 158.0 230.843 51.118767 36.6969 21.0048 20.9739 1026.4775 25.7935 3.62 71.957 0.195 -0.167934 0.0
SAV-15-04 12 8 03/20/2015 13:03:18 2015-03-20T13:03:18Z 31.275817 -79.356792 159.0 232.304 51.169693 36.7155 21.0303 20.9991 1026.4912 25.8008 3.5297 70.202 0.194 1.1665298 0.0
SAV-15-04 12 8 03/20/2015 13:03:18 2015-03-20T13:03:18Z 31.275817 -79.356792 160.0 233.765 51.174506 36.7416 21.004 20.9727 1026.5235 25.8279 3.59 71.377 0.191 0.0071522 0.0
SAV-15-04 12 8 03/20/2015 13:03:18 2015-03-20T13:03:18Z 31.275817 -79.356792 161.0 235.227 51.052543 36.7654 20.8614 20.83 1026.5861 25.8852 3.5784 70.974 0.189 -0.0150733 0.0
SAV-15-04 12 8 03/20/2015 13:03:18 2015-03-20T13:03:18Z 31.275817 -79.356792 162.0 236.689 50.94866 36.7236 20.812 20.7804 1026.5711 25.8668 3.5232 69.801 0.188 -0.0094677 0.0
SAV-15-04 12 8 03/20/2015 13:03:18 2015-03-20T13:03:18Z 31.275817 -79.356792 163.0 238.151 50.898619 36.6994 20.7927 20.7611 1026.5606 25.8537 3.4623 68.561 0.185 0.1369384 0.0
SAV-15-04 12 8 03/20/2015 13:03:18 2015-03-20T13:03:18Z 31.275817 -79.356792 164.0 239.613 50.90532 36.6996 20.7983 20.7665 1026.5636 25.8524 3.4699 68.719 0.184 1.0520548 0.0
SAV-15-04 12 8 03/20/2015 13:03:18 2015-03-20T13:03:18Z 31.275817 -79.356792 165.0 241.074 50.809626 36.6954 20.7127 20.6808 1026.5889 25.8724 3.5227 69.654 0.182 0.5456695 0.0
SAV-15-04 12 8 03/20/2015 13:03:18 2015-03-20T13:03:18Z 31.275817 -79.356792 166.0 242.536 50.820423 36.714 20.7008 20.6686 1026.6123 25.89 3.5288 69.767 0.181 0.3771515 0.0
SAV-15-04 12 8 03/20/2015 13:03:18 2015-03-20T13:03:18Z 31.275817 -79.356792 167.0 243.997 50.828567 36.7258 20.6942 20.6617 1026.6288 25.9008 3.5135 69.462 0.178 0.2292482 0.0
SAV-15-04 12 8 03/20/2015 13:03:18 2015-03-20T13:03:18Z 31.275817 -79.356792 168.0 245.459 50.819544 36.7389 20.6702 20.6377 1026.6489 25.9174 3.4738 68.654 0.177 0.2234274 0.0
SAV-15-04 12 8 03/20/2015 13:03:18 2015-03-20T13:03:18Z 31.275817 -79.356792 169.0 246.921 50.764191 36.7407 20.6158 20.5833 1026.6675 25.9335 3.4015 67.158 0.176 0.5485379 0.0
SAV-15-04 12 8 03/20/2015 13:03:18 2015-03-20T13:03:18Z 31.275817 -79.356792 170.0 248.382 50.714642 36.7286 20.5829 20.5502 1026.6703 25.9332 3.3084 65.276 0.175 1.0645573 0.0
SAV-15-04 12 8 03/20/2015 13:03:18 2015-03-20T13:03:18Z 31.275817 -79.356792 171.0 249.844 50.660708 36.7207 20.5409 20.5081 1026.6801 25.9386 3.2972 65.004 0.174 1.3852621 0.0
SAV-15-04 12 8 03/20/2015 13:03:18 2015-03-20T13:03:18Z 31.275817 -79.356792 172.0 251.306 50.570393 36.7431 20.4294 20.3963 1026.7346 25.9858 3.3028 64.991 0.173 1.1628781 0.0
SAV-15-04 12 8 03/20/2015 13:03:18 2015-03-20T13:03:18Z 31.275817 -79.356792 173.0 252.767 50.431928 36.7306 20.3127 20.2796 1026.7624 26.0077 3.2993 64.782 0.171 1.3708757 0.0
SAV-15-04 12 8 03/20/2015 13:03:18 2015-03-20T13:03:18Z 31.275817 -79.356792 174.0 254.229 50.336619 36.7475 20.2032 20.17 1026.8083 26.05 3.2947 64.568 0.17 2.6541924 0.0
SAV-15-04 12 8 03/20/2015 13:03:18 2015-03-20T13:03:18Z 31.275817 -79.356792 175.0 255.691 50.190134 36.7184 20.098 20.0648 1026.8186 26.0559 3.2745 64.039 0.169 2.4497058 0.0
SAV-15-04 12 8 03/20/2015 13:03:18 2015-03-20T13:03:18Z 31.275817 -79.356792 176.0 257.152 50.116876 36.6918 20.0589 20.0256 1026.8122 26.0461 3.2566 63.634 0.168 2.3196492 0.0
SAV-15-04 12 8 03/20/2015 13:03:18 2015-03-20T13:03:18Z 31.275817 -79.356792 177.0 258.614 50.091877 36.6802 20.0484 20.0149 1026.8088 26.0401 3.2478 63.445 0.167 3.2658269 0.0
SAV-15-04 12 8 03/20/2015 13:03:18 2015-03-20T13:03:18Z 31.275817 -79.356792 178.0 260.076 50.037908 36.6828 19.9938 19.9601 1026.8316 26.0566 3.2528 63.479 0.166 2.6371237 0.0
SAV-15-04 12 8 03/20/2015 13:03:18 2015-03-20T13:03:18Z 31.275817 -79.356792 179.0 261.537 49.997501 36.6723 19.9673 19.9336 1026.8341 26.0557 3.2421 63.236 0.166 2.7444681 0.0
SAV-15-04 12 8 03/20/2015 13:03:18 2015-03-20T13:03:18Z 31.275817 -79.356792 180.0 263.0 49.957931 36.6819 19.9183 19.8844 1026.86 26.076 3.227 62.889 0.165 3.1970606 0.0
SAV-15-04 12 8 03/20/2015 13:03:18 2015-03-20T13:03:18Z 31.275817 -79.356792 181.0 264.461 49.871241 36.6711 19.848 19.8139 1026.8772 26.0865 3.2226 62.719 0.164 2.5397449 0.0
SAV-15-04 12 8 03/20/2015 13:03:18 2015-03-20T13:03:18Z 31.275817 -79.356792 182.0 265.924 49.853673 36.6624 19.841 19.8067 1026.8768 26.0817 3.2212 62.68 0.163 2.4858364 0.0
SAV-15-04 12 8 03/20/2015 13:03:18 2015-03-20T13:03:18Z 31.275817 -79.356792 183.0 267.385 49.851093 36.664 19.8365 19.8022 1026.881 26.0841 3.2233 62.717 0.162 2.5648247 0.0
SAV-15-04 12 8 03/20/2015 13:03:18 2015-03-20T13:03:18Z 31.275817 -79.356792 184.0 268.846 49.855074 36.6617 19.8426 19.8081 1026.8805 26.0808 3.2213 62.684 0.162 2.8863056 0.0
SAV-15-04 12 8 03/20/2015 13:03:18 2015-03-20T13:03:18Z 31.275817 -79.356792 185.0 270.308 49.819477 36.6645 19.805 19.7702 1026.8999 26.093 3.2285 62.781 0.162 3.0594901 0.0
SAV-15-04 12 8 03/20/2015 13:03:18 2015-03-20T13:03:18Z 31.275817 -79.356792 186.0 271.771 49.818136 36.6636 19.8044 19.7695 1026.9032 26.0925 3.2375 62.956 0.161 3.014749 0.0
SAV-15-04 12 8 03/20/2015 13:03:18 2015-03-20T13:03:18Z 31.275817 -79.356792 187.0 273.232 49.816245 36.6631 19.8029 19.7678 1026.9067 26.0925 3.2368 62.942 0.16 3.2330585 0.0
SAV-15-04 12 8 03/20/2015 13:03:18 2015-03-20T13:03:18Z 31.275817 -79.356792 188.0 274.693 49.8088 36.6661 19.7917 19.7564 1026.9181 26.0979 3.2437 63.063 0.16 2.8437356 0.0
SAV-15-04 12 8 03/20/2015 13:03:18 2015-03-20T13:03:18Z 31.275817 -79.356792 189.0 276.155 49.794161 36.6625 19.7816 19.7461 1026.9224 26.0978 3.2485 63.144 0.159 1.6644052 0.0
SAV-15-04 12 8 03/20/2015 13:03:18 2015-03-20T13:03:18Z 31.275817 -79.356792 190.0 277.618 49.760775 36.6727 19.738 19.7024 1026.9445 26.1172 3.2552 63.227 0.159 1.8523075 0.0
SAV-15-04 12 8 03/20/2015 13:03:18 2015-03-20T13:03:18Z 31.275817 -79.356792 191.0 279.079 49.733589 36.6527 19.7348 19.6992 1026.9329 26.1027 3.2479 63.074 0.158 2.2366439 0.0
SAV-15-04 12 8 03/20/2015 13:03:18 2015-03-20T13:03:18Z 31.275817 -79.356792 192.0 280.541 49.69767 36.654 19.6986 19.6626 1026.9515 26.1133 3.2518 63.108 0.158 1.8735098 0.0
SAV-15-04 12 8 03/20/2015 13:03:18 2015-03-20T13:03:18Z 31.275817 -79.356792 193.0 282.003 49.66956 36.6461 19.6804 19.6442 1026.9555 26.1122 3.2529 63.106 0.157 2.0650355 0.0
SAV-15-04 12 8 03/20/2015 13:03:18 2015-03-20T13:03:18Z 31.275817 -79.356792 194.0 283.465 49.651106 36.6456 19.6632 19.6269 1026.9634 26.1163 3.2487 63.004 0.157 2.3972941 0.0
SAV-15-04 12 8 03/20/2015 13:03:18 2015-03-20T13:03:18Z 31.275817 -79.356792 195.0 284.926 49.625365 36.6401 19.6447 19.6083 1026.9678 26.117 3.2385 62.782 0.157 2.5744069 0.0
SAV-15-04 12 8 03/20/2015 13:03:18 2015-03-20T13:03:18Z 31.275817 -79.356792 196.0 286.388 49.609484 36.6315 19.6392 19.6026 1026.9654 26.1119 3.2291 62.59 0.156 2.3184725 0.0
SAV-15-04 12 8 03/20/2015 13:03:18 2015-03-20T13:03:18Z 31.275817 -79.356792 197.0 287.85 49.605815 36.6298 19.6373 19.6006 1026.9679 26.1112 3.2198 62.408 0.156 2.0517176 0.0
SAV-15-04 12 8 03/20/2015 13:03:18 2015-03-20T13:03:18Z 31.275817 -79.356792 198.0 289.312 49.575991 36.6374 19.5998 19.5629 1026.9901 26.1268 3.2252 62.472 0.156 2.673707 0.0
SAV-15-04 12 8 03/20/2015 13:03:18 2015-03-20T13:03:18Z 31.275817 -79.356792 199.0 290.774 49.486432 36.6175 19.537 19.5 1026.9957 26.1282 3.2293 62.472 0.155 3.4659423 0.0
SAV-15-04 12 8 03/20/2015 13:03:18 2015-03-20T13:03:18Z 31.275817 -79.356792 200.0 292.236 49.411302 36.6115 19.4722 19.4352 1027.0116 26.1405 3.2281 62.373 0.155 3.6489345 0.0
SAV-15-04 12 8 03/20/2015 13:03:18 2015-03-20T13:03:18Z 31.275817 -79.356792 201.0 293.698 49.36139 36.5839 19.456 19.419 1026.9962 26.1237 3.1787 61.39 0.155 3.4745594 0.0
SAV-15-04 12 8 03/20/2015 13:03:18 2015-03-20T13:03:18Z 31.275817 -79.356792 202.0 295.159 49.315199 36.5763 19.4205 19.3833 1027.0039 26.1272 3.1841 61.452 0.156 3.1908499 0.0
SAV-15-04 12 8 03/20/2015 13:03:18 2015-03-20T13:03:18Z 31.275817 -79.356792 203.0 296.621 49.282166 36.5692 19.3968 19.3595 1027.0077 26.1279 3.1722 61.193 0.159 3.7471731 0.0
SAV-15-04 13 7 03/20/2015 15:48:02 2015-03-20T15:48:02Z 31.303851 -79.607612 2.0 2.921 55.041609 36.4131 25.066 25.0657 1024.3971 24.3895 4.7895 102.006 393.0 -4.661509 0.0
SAV-15-04 13 7 03/20/2015 15:48:02 2015-03-20T15:48:02Z 31.303851 -79.607612 3.0 4.381 54.943415 36.3397 25.0656 25.0648 1024.3502 24.3342 4.5823 97.565 302.0 -4.5620952 0.0
SAV-15-04 13 7 03/20/2015 15:48:02 2015-03-20T15:48:02Z 31.303851 -79.607612 4.0 5.842 54.944203 36.3402 25.0652 25.0642 1024.355 24.3348 4.5532 96.944 251.0 -3.1206991 0.0
SAV-15-04 13 7 03/20/2015 15:48:02 2015-03-20T15:48:02Z 31.303851 -79.607612 5.0 7.303 54.944453 36.3401 25.0652 25.064 1024.3594 24.3348 4.5506 96.889 226.0 -2.1115914 0.0
SAV-15-04 13 7 03/20/2015 15:48:02 2015-03-20T15:48:02Z 31.303851 -79.607612 6.0 8.763 54.944763 36.3398 25.0654 25.0639 1024.3637 24.3346 4.5472 96.818 211.0 -2.9592783 0.0
SAV-15-04 13 7 03/20/2015 15:48:02 2015-03-20T15:48:02Z 31.303851 -79.607612 7.0 10.224 54.945516 36.3401 25.0652 25.0634 1024.3695 24.335 4.5616 97.123 194.0 -3.515724 0.0
SAV-15-04 13 7 03/20/2015 15:48:02 2015-03-20T15:48:02Z 31.303851 -79.607612 8.0 11.684 54.946345 36.3397 25.066 25.064 1024.3733 24.3346 4.5632 97.16 182.0 -3.2750241 0.0
SAV-15-04 13 7 03/20/2015 15:48:02 2015-03-20T15:48:02Z 31.303851 -79.607612 9.0 13.145 54.947179 36.3402 25.0659 25.0638 1024.377 24.3349 4.5609 97.111 173.0 -2.4626568 0.0
SAV-15-04 13 7 03/20/2015 15:48:02 2015-03-20T15:48:02Z 31.303851 -79.607612 10.0 14.605 54.947628 36.3403 25.0658 25.0635 1024.3808 24.3351 4.524 96.324 166.0 -2.3915953 0.0
SAV-15-04 13 7 03/20/2015 15:48:02 2015-03-20T15:48:02Z 31.303851 -79.607612 11.0 16.066 54.947848 36.3401 25.0658 25.0633 1024.3851 24.3351 4.5152 96.137 160.0 -3.5576114 0.0
SAV-15-04 13 7 03/20/2015 15:48:02 2015-03-20T15:48:02Z 31.303851 -79.607612 12.0 17.526 54.949303 36.3406 25.0662 25.0634 1024.3895 24.3354 4.5315 96.485 154.0 -2.5880502 0.0
SAV-15-04 13 7 03/20/2015 15:48:02 2015-03-20T15:48:02Z 31.303851 -79.607612 13.0 18.987 54.949609 36.3404 25.0662 25.0631 1024.3953 24.3353 4.5232 96.308 152.0 -5.1436825 0.0
SAV-15-04 13 7 03/20/2015 15:48:02 2015-03-20T15:48:02Z 31.303851 -79.607612 14.0 20.447 54.950081 36.3404 25.0662 25.0629 1024.3999 24.3354 4.538 96.623 149.0 -8.1553907 0.0
SAV-15-04 13 7 03/20/2015 15:48:02 2015-03-20T15:48:02Z 31.303851 -79.607612 15.0 21.908 54.950792 36.3408 25.0658 25.0623 1024.405 24.3359 4.5483 96.842 145.0 -8.2606063 0.0
SAV-15-04 13 7 03/20/2015 15:48:02 2015-03-20T15:48:02Z 31.303851 -79.607612 16.0 23.368 54.950578 36.3404 25.0659 25.0622 1024.4082 24.3356 4.555 96.985 141.0 -8.2606063 0.0
SAV-15-04 13 7 03/20/2015 15:48:02 2015-03-20T15:48:02Z 31.303851 -79.607612 17.0 24.829 54.950932 36.3403 25.066 25.0622 1024.4108 24.3355 4.5485 96.846 140.0 -8.2606063 0.0
SAV-15-04 13 7 03/20/2015 15:48:02 2015-03-20T15:48:02Z 31.303851 -79.607612 18.0 26.29 54.951254 36.3402 25.0661 25.0621 1024.4146 24.3355 4.5398 96.662 143.0 -8.2606063 0.0
SAV-15-04 13 7 03/20/2015 15:48:02 2015-03-20T15:48:02Z 31.303851 -79.607612 19.0 27.75 54.953128 36.3399 25.0676 25.0633 1024.4194 24.335 4.5269 96.389 145.0 -8.2606063 0.0
SAV-15-04 13 7 03/20/2015 15:48:02 2015-03-20T15:48:02Z 31.303851 -79.607612 20.0 29.211 54.954533 36.3407 25.0674 25.0628 1024.4265 24.3356 4.5539 96.963 137.0 -8.2518812 0.0
SAV-15-04 13 7 03/20/2015 15:48:02 2015-03-20T15:48:02Z 31.303851 -79.607612 21.0 30.672 54.954999 36.3402 25.0679 25.0631 1024.4307 24.3352 4.5661 97.223 129.0 -8.260318 0.0
SAV-15-04 13 7 03/20/2015 15:48:02 2015-03-20T15:48:02Z 31.303851 -79.607612 22.0 32.132 54.955154 36.3409 25.067 25.062 1024.4348 24.336 4.5728 97.366 124.0 -8.2606063 0.0
SAV-15-04 13 7 03/20/2015 15:48:02 2015-03-20T15:48:02Z 31.303851 -79.607612 23.0 33.593 54.955129 36.3408 25.0669 25.0617 1024.4373 24.336 4.5713 97.334 121.0 -8.2606063 0.0
SAV-15-04 13 7 03/20/2015 15:48:02 2015-03-20T15:48:02Z 31.303851 -79.607612 24.0 35.053 54.955123 36.3404 25.067 25.0616 1024.4404 24.3358 4.5619 97.133 125.0 -8.2606063 0.0
SAV-15-04 13 7 03/20/2015 15:48:02 2015-03-20T15:48:02Z 31.303851 -79.607612 25.0 36.514 54.954568 36.3406 25.0656 25.0599 1024.4479 24.3364 4.5483 96.842 124.0 -8.2679207 0.0
SAV-15-04 13 7 03/20/2015 15:48:02 2015-03-20T15:48:02Z 31.303851 -79.607612 26.0 37.975 54.955866 36.3413 25.0654 25.0594 1024.4537 24.3371 4.5606 97.102 117.0 -8.2601964 0.0
SAV-15-04 13 7 03/20/2015 15:48:02 2015-03-20T15:48:02Z 31.303851 -79.607612 27.0 39.435 54.955634 36.3412 25.065 25.0589 1024.4573 24.3372 4.5673 97.246 111.0 -8.2606063 0.0
SAV-15-04 13 7 03/20/2015 15:48:02 2015-03-20T15:48:02Z 31.303851 -79.607612 28.0 40.896 54.955043 36.3408 25.0648 25.0585 1024.4589 24.337 4.5573 97.033 106.0 -8.2670518 0.0
SAV-15-04 13 7 03/20/2015 15:48:02 2015-03-20T15:48:02Z 31.303851 -79.607612 29.0 42.356 54.954933 36.341 25.064 25.0575 1024.4638 24.3375 4.5034 95.884 107.0 -8.2637428 0.0
SAV-15-04 13 7 03/20/2015 15:48:02 2015-03-20T15:48:02Z 31.303851 -79.607612 30.0 43.817 54.955194 36.341 25.0635 25.0567 1024.4712 24.3378 4.5366 96.589 105.0 -8.2690696 0.0
SAV-15-04 13 7 03/20/2015 15:48:02 2015-03-20T15:48:02Z 31.303851 -79.607612 31.0 45.277 54.954934 36.3423 25.0614 25.0543 1024.4765 24.3395 4.5596 97.076 101.0 -8.2611844 0.0
SAV-15-04 13 7 03/20/2015 15:48:02 2015-03-20T15:48:02Z 31.303851 -79.607612 32.0 46.739 54.953425 36.3414 25.0607 25.0535 1024.4798 24.339 4.5712 97.322 97.4 -8.2686263 0.0
SAV-15-04 13 7 03/20/2015 15:48:02 2015-03-20T15:48:02Z 31.303851 -79.607612 33.0 48.199 54.953625 36.3414 25.0605 25.053 1024.4839 24.3392 4.5807 97.523 93.5 -8.2607543 0.0
SAV-15-04 13 7 03/20/2015 15:48:02 2015-03-20T15:48:02Z 31.303851 -79.607612 34.0 49.66 54.954169 36.3416 25.0605 25.0528 1024.4873 24.3394 4.5533 96.94 90.6 -8.2656594 0.0
SAV-15-04 13 7 03/20/2015 15:48:02 2015-03-20T15:48:02Z 31.303851 -79.607612 35.0 51.12 54.953988 36.3428 25.0584 25.0505 1024.4932 24.341 4.5248 96.331 88.7 -8.2742439 0.0
SAV-15-04 13 7 03/20/2015 15:48:02 2015-03-20T15:48:02Z 31.303851 -79.607612 36.0 52.581 54.949808 36.3434 25.0532 25.0451 1024.5012 24.3431 4.523 96.284 86.4 -8.2771309 0.0
SAV-15-04 13 7 03/20/2015 15:48:02 2015-03-20T15:48:02Z 31.303851 -79.607612 37.0 54.042 54.95005 36.3437 25.0526 25.0442 1024.5062 24.3436 4.5287 96.405 83.1 -8.2595366 0.0
SAV-15-04 13 7 03/20/2015 15:48:02 2015-03-20T15:48:02Z 31.303851 -79.607612 38.0 55.502 54.942515 36.3483 25.0396 25.031 1024.5173 24.3511 4.5491 96.82 80.2 -8.2694753 0.0
SAV-15-04 13 7 03/20/2015 15:48:02 2015-03-20T15:48:02Z 31.303851 -79.607612 39.0 56.964 54.935918 36.3453 25.0368 25.028 1024.5202 24.3498 4.5778 97.425 77.2 -8.2672688 0.0
SAV-15-04 13 7 03/20/2015 15:48:02 2015-03-20T15:48:02Z 31.303851 -79.607612 40.0 58.424 54.935893 36.3458 25.0358 25.0269 1024.524 24.3505 4.5701 97.259 74.9 -8.2615502 0.0
SAV-15-04 13 7 03/20/2015 15:48:02 2015-03-20T15:48:02Z 31.303851 -79.607612 41.0 59.885 54.927705 36.348 25.0251 25.016 1024.533 24.3555 4.5505 96.826 72.6 -8.2650529 0.0
SAV-15-04 13 7 03/20/2015 15:48:02 2015-03-20T15:48:02Z 31.303851 -79.607612 42.0 61.346 54.907636 36.3489 25.0048 24.9954 1024.5464 24.3625 4.5478 96.737 70.4 -8.2604262 0.0
SAV-15-04 13 7 03/20/2015 15:48:02 2015-03-20T15:48:02Z 31.303851 -79.607612 43.0 62.806 54.89385 36.3544 24.9847 24.975 1024.5622 24.3729 4.5624 97.016 67.5 -8.2711949 0.0
SAV-15-04 13 7 03/20/2015 15:48:02 2015-03-20T15:48:02Z 31.303851 -79.607612 44.0 64.267 54.86855 36.3543 24.961 24.951 1024.5734 24.3801 4.5787 97.323 64.9 -8.28189 0.0
SAV-15-04 13 7 03/20/2015 15:48:02 2015-03-20T15:48:02Z 31.303851 -79.607612 45.0 65.728 54.825537 36.3865 24.8809 24.8708 1024.6256 24.429 4.5741 97.112 62.2 -8.2617467 0.0
SAV-15-04 13 7 03/20/2015 15:48:02 2015-03-20T15:48:02Z 31.303851 -79.607612 46.0 67.189 54.739792 36.3754 24.815 24.8048 1024.6397 24.4406 4.5699 96.908 59.9 -8.2703022 0.0
SAV-15-04 13 7 03/20/2015 15:48:02 2015-03-20T15:48:02Z 31.303851 -79.607612 47.0 68.65 54.617078 36.3826 24.692 24.6816 1024.6867 24.4835 4.5859 97.047 58.2 -8.2753251 0.0
SAV-15-04 13 7 03/20/2015 15:48:02 2015-03-20T15:48:02Z 31.303851 -79.607612 48.0 70.111 54.407507 36.4765 24.3814 24.3708 1024.8592 24.6486 4.6157 97.215 55.3 -8.3183422 0.0
SAV-15-04 13 7 03/20/2015 15:48:02 2015-03-20T15:48:02Z 31.303851 -79.607612 49.0 71.572 54.243115 36.4547 24.2552 24.2445 1024.8847 24.67 4.6143 96.963 52.7 -8.2704202 0.0
SAV-15-04 13 7 03/20/2015 15:48:02 2015-03-20T15:48:02Z 31.303851 -79.607612 50.0 73.032 54.153037 36.4853 24.134 24.1231 1024.9479 24.7295 4.605 96.583 50.0 -8.2612963 0.0
SAV-15-04 13 7 03/20/2015 15:48:02 2015-03-20T15:48:02Z 31.303851 -79.607612 51.0 74.493 54.0764 36.4718 24.079 24.068 1024.9575 24.7358 4.5961 96.299 47.4 -8.2786939 0.0
SAV-15-04 13 7 03/20/2015 15:48:02 2015-03-20T15:48:02Z 31.303851 -79.607612 52.0 75.954 54.00009 36.4718 24.0079 23.9967 1024.982 24.7571 4.5785 95.814 45.2 -8.2615874 0.0
SAV-15-04 13 7 03/20/2015 15:48:02 2015-03-20T15:48:02Z 31.303851 -79.607612 53.0 77.415 53.743513 36.5061 23.7273 23.7159 1025.0965 24.8665 4.6047 95.915 43.4 -8.2788441 0.0
SAV-15-04 13 7 03/20/2015 15:48:02 2015-03-20T15:48:02Z 31.303851 -79.607612 54.0 78.876 53.608928 36.4664 23.6497 23.6381 1025.0953 24.8594 4.6411 96.522 41.4 -8.269324 0.0
SAV-15-04 13 7 03/20/2015 15:48:02 2015-03-20T15:48:02Z 31.303851 -79.607612 55.0 80.337 53.585689 36.4585 23.6372 23.6253 1025.0978 24.8572 4.7001 97.723 39.4 -8.305496 0.0
SAV-15-04 13 7 03/20/2015 15:48:02 2015-03-20T15:48:02Z 31.303851 -79.607612 56.0 81.798 53.575266 36.457 23.6289 23.6169 1025.1033 24.8586 4.7262 98.252 37.5 -8.2771111 0.0
SAV-15-04 13 7 03/20/2015 15:48:02 2015-03-20T15:48:02Z 31.303851 -79.607612 57.0 83.258 53.557203 36.4603 23.6077 23.5955 1025.1159 24.8674 4.7372 98.446 35.7 -8.2697346 0.0
SAV-15-04 13 7 03/20/2015 15:48:02 2015-03-20T15:48:02Z 31.303851 -79.607612 58.0 84.719 53.525794 36.4566 23.5828 23.5704 1025.1239 24.8719 4.7467 98.598 34.2 -8.2840109 0.0
SAV-15-04 13 7 03/20/2015 15:48:02 2015-03-20T15:48:02Z 31.303851 -79.607612 59.0 86.18 53.515817 36.4535 23.5769 23.5643 1025.1266 24.8714 4.7259 98.155 32.8 -2.7014634 0.0
SAV-15-04 13 7 03/20/2015 15:48:02 2015-03-20T15:48:02Z 31.303851 -79.607612 60.0 87.641 53.469123 36.4629 23.5214 23.5086 1025.1563 24.8949 4.6977 97.48 31.4 0.4297897 0.0
SAV-15-04 13 7 03/20/2015 15:48:02 2015-03-20T15:48:02Z 31.303851 -79.607612 61.0 89.102 53.389767 36.4674 23.4415 23.4285 1025.1885 24.9219 4.7049 97.498 29.9 0.1238388 0.0
SAV-15-04 13 7 03/20/2015 15:48:02 2015-03-20T15:48:02Z 31.303851 -79.607612 62.0 90.563 53.353746 36.4602 23.4164 23.4032 1025.1934 24.9239 4.7222 97.808 28.5 0.1236152 0.0
SAV-15-04 13 7 03/20/2015 15:48:02 2015-03-20T15:48:02Z 31.303851 -79.607612 63.0 92.024 53.318931 36.4589 23.3851 23.3718 1025.2054 24.9321 4.727 97.855 27.3 0.1178214 0.0
SAV-15-04 13 7 03/20/2015 15:48:02 2015-03-20T15:48:02Z 31.303851 -79.607612 64.0 93.484 53.258791 36.477 23.3068 23.2933 1025.2467 24.9688 4.7302 97.798 26.1 0.1237726 0.0
SAV-15-04 13 7 03/20/2015 15:48:02 2015-03-20T15:48:02Z 31.303851 -79.607612 65.0 94.946 53.140411 36.4839 23.1877 23.174 1025.2913 25.0089 4.7392 97.785 24.9 0.1236152 0.0
SAV-15-04 13 7 03/20/2015 15:48:02 2015-03-20T15:48:02Z 31.303851 -79.607612 66.0 96.407 53.02295 36.4787 23.0838 23.07 1025.3227 25.0353 4.7456 97.737 23.8 -0.3858776 0.0
SAV-15-04 13 7 03/20/2015 15:48:02 2015-03-20T15:48:02Z 31.303851 -79.607612 67.0 97.867 52.992795 36.466 23.0707 23.0566 1025.3213 25.0295 4.7445 97.687 22.8 -2.4587218 0.0
SAV-15-04 13 7 03/20/2015 15:48:02 2015-03-20T15:48:02Z 31.303851 -79.607612 68.0 99.329 52.972115 36.4685 23.0479 23.0337 1025.3338 25.0381 4.7361 97.475 21.7 -2.8559927 0.0
SAV-15-04 13 7 03/20/2015 15:48:02 2015-03-20T15:48:02Z 31.303851 -79.607612 69.0 100.789 52.959218 36.4647 23.0401 23.0257 1025.3366 25.0375 4.7352 97.442 20.7 -3.3916362 0.0
SAV-15-04 13 7 03/20/2015 15:48:02 2015-03-20T15:48:02Z 31.303851 -79.607612 70.0 102.251 52.897168 36.4787 22.9648 22.9501 1025.3748 25.0701 4.7472 97.568 19.9 -2.924614 0.0
SAV-15-04 13 7 03/20/2015 15:48:02 2015-03-20T15:48:02Z 31.303851 -79.607612 71.0 103.711 52.837889 36.4649 22.9255 22.9107 1025.3808 25.071 4.7677 97.915 18.9 -3.3090009 0.0
SAV-15-04 13 7 03/20/2015 15:48:02 2015-03-20T15:48:02Z 31.303851 -79.607612 72.0 105.172 52.834126 36.4608 22.9267 22.9116 1025.3806 25.0676 4.761 97.776 18.1 -3.866788 0.0
SAV-15-04 13 7 03/20/2015 15:48:02 2015-03-20T15:48:02Z 31.303851 -79.607612 73.0 106.633 52.826235 36.4592 22.9207 22.9054 1025.3862 25.0682 4.7483 97.505 17.2 -3.1741372 0.0
SAV-15-04 13 7 03/20/2015 15:48:02 2015-03-20T15:48:02Z 31.303851 -79.607612 74.0 108.094 52.812446 36.4588 22.908 22.8925 1025.3935 25.0716 4.749 97.497 16.3 -2.9880363 0.0
SAV-15-04 13 7 03/20/2015 15:48:02 2015-03-20T15:48:02Z 31.303851 -79.607612 75.0 109.555 52.809178 36.4556 22.9085 22.8929 1025.3934 25.0691 4.7368 97.247 15.5 -3.6968654 0.0
SAV-15-04 13 7 03/20/2015 15:48:02 2015-03-20T15:48:02Z 31.303851 -79.607612 76.0 111.016 52.800988 36.4549 22.9012 22.8854 1025.3999 25.0708 4.7543 97.593 14.9 -3.3863394 0.0
SAV-15-04 13 7 03/20/2015 15:48:02 2015-03-20T15:48:02Z 31.303851 -79.607612 77.0 112.478 52.78623 36.4542 22.8876 22.8715 1025.4096 25.0743 4.7612 97.712 14.2 -4.0178485 0.0
SAV-15-04 13 7 03/20/2015 15:48:02 2015-03-20T15:48:02Z 31.303851 -79.607612 78.0 113.938 52.764615 36.4673 22.8513 22.835 1025.4341 25.0948 4.7625 97.683 13.5 -4.0352248 0.0
SAV-15-04 13 7 03/20/2015 15:48:02 2015-03-20T15:48:02Z 31.303851 -79.607612 79.0 115.4 52.704438 36.4645 22.7981 22.7817 1025.451 25.108 4.7437 97.204 12.9 -3.5964903 0.0
SAV-15-04 13 7 03/20/2015 15:48:02 2015-03-20T15:48:02Z 31.303851 -79.607612 80.0 116.861 52.664261 36.4638 22.7608 22.7441 1025.4673 25.1183 4.7221 96.697 12.3 -2.9434518 0.0
SAV-15-04 13 7 03/20/2015 15:48:02 2015-03-20T15:48:02Z 31.303851 -79.607612 81.0 118.322 52.623484 36.4638 22.7221 22.7052 1025.4839 25.1295 4.7112 96.41 11.7 -3.1365435 0.0
SAV-15-04 13 7 03/20/2015 15:48:02 2015-03-20T15:48:02Z 31.303851 -79.607612 82.0 119.781 52.603887 36.4631 22.7043 22.6872 1025.492 25.1342 4.7109 96.373 11.1 -3.1369154 0.0
SAV-15-04 13 7 03/20/2015 15:48:02 2015-03-20T15:48:02Z 31.303851 -79.607612 83.0 121.244 52.569177 36.4779 22.6539 22.6368 1025.5202 25.1599 4.7192 96.466 10.5 -2.8097546 0.0
SAV-15-04 13 7 03/20/2015 15:48:02 2015-03-20T15:48:02Z 31.303851 -79.607612 84.0 122.704 52.517738 36.4805 22.6024 22.5852 1025.5394 25.1767 4.6878 95.741 10.1 -3.5215848 0.0
SAV-15-04 13 7 03/20/2015 15:48:02 2015-03-20T15:48:02Z 31.303851 -79.607612 85.0 124.166 52.266458 36.4678 22.3817 22.3643 1025.5996 25.2303 4.6695 94.991 9.55 -3.9240214 0.0
SAV-15-04 13 7 03/20/2015 15:48:02 2015-03-20T15:48:02Z 31.303851 -79.607612 86.0 125.627 52.213338 36.4709 22.3276 22.31 1025.6229 25.2481 4.6915 95.348 9.03 -4.1261418 0.0
SAV-15-04 13 7 03/20/2015 15:48:02 2015-03-20T15:48:02Z 31.303851 -79.607612 87.0 127.088 52.135755 36.4628 22.2642 22.2464 1025.6387 25.26 4.7142 95.698 8.58 -3.8288071 0.0
SAV-15-04 13 7 03/20/2015 15:48:02 2015-03-20T15:48:02Z 31.303851 -79.607612 88.0 128.549 52.080117 36.4469 22.2306 22.2127 1025.64 25.2575 4.724 95.831 8.19 -8.3417186 0.0
SAV-15-04 13 7 03/20/2015 15:48:02 2015-03-20T15:48:02Z 31.303851 -79.607612 89.0 130.01 52.093602 36.4425 22.2479 22.2297 1025.6378 25.2494 4.7282 95.944 7.79 -8.2702331 0.0
SAV-15-04 13 7 03/20/2015 15:48:02 2015-03-20T15:48:02Z 31.303851 -79.607612 90.0 131.471 52.130037 36.4696 22.2494 22.2309 1025.6632 25.2696 4.7182 95.757 7.42 -8.259852 0.0
SAV-15-04 13 7 03/20/2015 15:48:02 2015-03-20T15:48:02Z 31.303851 -79.607612 91.0 132.933 52.056132 36.4876 22.1582 22.1397 1025.7066 25.3092 4.7143 95.536 7.04 -8.2719593 0.0
SAV-15-04 13 7 03/20/2015 15:48:02 2015-03-20T15:48:02Z 31.303851 -79.607612 92.0 134.393 52.031304 36.4776 22.1466 22.1279 1025.7051 25.3049 4.6823 94.861 6.67 -8.2716965 0.0
SAV-15-04 13 7 03/20/2015 15:48:02 2015-03-20T15:48:02Z 31.303851 -79.607612 93.0 135.855 51.996505 36.4647 22.129 22.1102 1025.7027 25.3001 4.6178 93.518 6.31 -8.26648 0.0
SAV-15-04 13 7 03/20/2015 15:48:02 2015-03-20T15:48:02Z 31.303851 -79.607612 94.0 137.316 51.991142 36.4577 22.132 22.1129 1025.7006 25.294 4.5411 91.967 6.01 -8.2656346 0.0
SAV-15-04 13 7 03/20/2015 15:48:02 2015-03-20T15:48:02Z 31.303851 -79.607612 95.0 138.777 51.933672 36.4505 22.0858 22.0665 1025.7159 25.3017 4.5713 92.499 5.67 -8.2847933 0.0
SAV-15-04 13 7 03/20/2015 15:48:02 2015-03-20T15:48:02Z 31.303851 -79.607612 96.0 140.238 51.929714 36.4486 22.0838 22.0643 1025.7202 25.3008 4.5891 92.856 5.37 -8.2830883 0.0
SAV-15-04 13 7 03/20/2015 15:48:02 2015-03-20T15:48:02Z 31.303851 -79.607612 97.0 141.699 51.936019 36.4506 22.087 22.0673 1025.7245 25.3015 4.5972 93.025 5.1 -8.2773281 0.0
SAV-15-04 13 7 03/20/2015 15:48:02 2015-03-20T15:48:02Z 31.303851 -79.607612 98.0 143.16 51.966499 36.4644 22.0989 22.079 1025.735 25.3087 4.5896 92.899 4.85 -8.2686742 0.0
SAV-15-04 13 7 03/20/2015 15:48:02 2015-03-20T15:48:02Z 31.303851 -79.607612 99.0 144.621 51.995181 36.4836 22.1027 22.0826 1025.7521 25.3223 4.5736 92.591 4.61 -8.2796897 0.0
SAV-15-04 13 7 03/20/2015 15:48:02 2015-03-20T15:48:02Z 31.303851 -79.607612 100.0 146.083 52.004178 36.4906 22.1025 22.0822 1025.7614 25.3277 4.4978 91.059 4.39 -8.2805687 0.0
SAV-15-04 13 7 03/20/2015 15:48:02 2015-03-20T15:48:02Z 31.303851 -79.607612 101.0 147.544 52.00802 36.4857 22.1115 22.091 1025.7598 25.3215 4.4067 89.227 4.18 -8.2742708 0.0
SAV-15-04 13 7 03/20/2015 15:48:02 2015-03-20T15:48:02Z 31.303851 -79.607612 102.0 149.005 52.100172 36.4998 22.1806 22.1599 1025.7549 25.3127 4.3653 88.505 3.98 -8.29259 0.0
SAV-15-04 13 7 03/20/2015 15:48:02 2015-03-20T15:48:02Z 31.303851 -79.607612 103.0 150.467 52.22958 36.5398 22.254 22.233 1025.7688 25.3223 4.3368 88.06 3.78 -8.2742918 0.0
SAV-15-04 13 7 03/20/2015 15:48:02 2015-03-20T15:48:02Z 31.303851 -79.607612 104.0 151.927 52.300792 36.5727 22.2812 22.26 1025.7897 25.3397 4.2601 86.562 3.59 -8.2770188 0.0
SAV-15-04 13 7 03/20/2015 15:48:02 2015-03-20T15:48:02Z 31.303851 -79.607612 105.0 153.388 52.274162 36.5847 22.2416 22.2202 1025.8143 25.3601 4.1359 83.985 3.44 -8.2826712 0.0
SAV-15-04 13 7 03/20/2015 15:48:02 2015-03-20T15:48:02Z 31.303851 -79.607612 106.0 154.85 52.227315 36.5867 22.1945 22.1729 1025.8375 25.3752 4.1094 83.378 3.3 -8.2711172 0.0
SAV-15-04 13 7 03/20/2015 15:48:02 2015-03-20T15:48:02Z 31.303851 -79.607612 107.0 156.311 52.171142 36.6019 22.1236 22.1018 1025.8738 25.4068 4.1294 83.687 3.13 -8.2600743 0.0
SAV-15-04 13 7 03/20/2015 15:48:02 2015-03-20T15:48:02Z 31.303851 -79.607612 108.0 157.772 52.068142 36.6054 22.0227 22.0008 1025.9083 25.4381 4.1466 83.889 2.99 -8.2783326 0.0
SAV-15-04 13 7 03/20/2015 15:48:02 2015-03-20T15:48:02Z 31.303851 -79.607612 109.0 159.233 51.878501 36.5436 21.918 21.896 1025.8934 25.4206 4.1468 83.706 2.87 -8.2674697 0.0
SAV-15-04 13 7 03/20/2015 15:48:02 2015-03-20T15:48:02Z 31.303851 -79.607612 110.0 160.695 51.898728 36.5241 21.9598 21.9376 1025.87 25.394 4.228 85.399 2.77 -8.2687925 0.0
SAV-15-04 13 7 03/20/2015 15:48:02 2015-03-20T15:48:02Z 31.303851 -79.607612 111.0 162.156 51.809864 36.5202 21.8804 21.858 1025.8949 25.4135 4.349 87.716 2.66 -8.2738575 0.0
SAV-15-04 13 7 03/20/2015 15:48:02 2015-03-20T15:48:02Z 31.303851 -79.607612 112.0 163.617 51.769043 36.5061 21.8585 21.836 1025.8935 25.4089 4.3453 87.601 2.55 -8.2836854 0.0
SAV-15-04 13 7 03/20/2015 15:48:02 2015-03-20T15:48:02Z 31.303851 -79.607612 113.0 165.079 51.690755 36.5101 21.7797 21.757 1025.9242 25.4342 4.3629 87.835 2.46 -8.2723566 0.0
SAV-15-04 13 7 03/20/2015 15:48:02 2015-03-20T15:48:02Z 31.303851 -79.607612 114.0 166.54 51.689167 36.5067 21.7817 21.7587 1025.9271 25.4311 4.3821 88.224 2.34 -8.2716387 0.0
SAV-15-04 13 7 03/20/2015 15:48:02 2015-03-20T15:48:02Z 31.303851 -79.607612 115.0 168.001 51.690475 36.508 21.7809 21.7578 1025.9325 25.4323 4.3819 88.218 2.25 -8.259731 0.0
SAV-15-04 13 7 03/20/2015 15:48:02 2015-03-20T15:48:02Z 31.303851 -79.607612 116.0 169.462 51.687576 36.5096 21.7761 21.7528 1025.9382 25.4349 4.3587 87.746 2.17 -8.2853069 0.0
SAV-15-04 13 7 03/20/2015 15:48:02 2015-03-20T15:48:02Z 31.303851 -79.607612 117.0 170.924 51.684456 36.5074 21.7753 21.7519 1025.9403 25.4335 4.3416 87.398 2.09 -8.2770436 0.0
SAV-15-04 13 7 03/20/2015 15:48:02 2015-03-20T15:48:02Z 31.303851 -79.607612 118.0 172.385 51.683194 36.5085 21.7724 21.7488 1025.9462 25.4353 4.334 87.241 2.02 -8.2798027 0.0
SAV-15-04 13 7 03/20/2015 15:48:02 2015-03-20T15:48:02Z 31.303851 -79.607612 119.0 173.847 51.676872 36.5131 21.7607 21.7369 1025.957 25.4421 4.339 87.325 1.95 -8.2897158 0.0
SAV-15-04 13 7 03/20/2015 15:48:02 2015-03-20T15:48:02Z 31.303851 -79.607612 120.0 175.308 51.645391 36.5262 21.715 21.691 1025.9858 25.4649 4.3232 86.943 1.89 -8.276271 0.0
SAV-15-04 13 7 03/20/2015 15:48:02 2015-03-20T15:48:02Z 31.303851 -79.607612 121.0 176.769 51.675834 36.5384 21.7287 21.7044 1025.9971 25.4705 4.3102 86.711 1.81 -8.3020501 0.0
SAV-15-04 13 7 03/20/2015 15:48:02 2015-03-20T15:48:02Z 31.303851 -79.607612 122.0 178.231 51.696074 36.5562 21.7264 21.7019 1026.0153 25.4846 4.2875 86.258 1.74 -8.2632454 0.0
SAV-15-04 13 7 03/20/2015 15:48:02 2015-03-20T15:48:02Z 31.303851 -79.607612 123.0 179.692 51.68873 36.5562 21.7193 21.6947 1026.0196 25.4867 4.2607 85.709 1.67 -8.2682915 0.0
SAV-15-04 13 7 03/20/2015 15:48:02 2015-03-20T15:48:02Z 31.303851 -79.607612 124.0 181.153 51.68557 36.5558 21.7164 21.6917 1026.0234 25.4872 4.1992 84.467 1.63 -8.2869645 0.0
SAV-15-04 13 7 03/20/2015 15:48:02 2015-03-20T15:48:02Z 31.303851 -79.607612 125.0 182.614 51.681492 36.5552 21.7127 21.6877 1026.0296 25.4879 4.1732 83.939 1.58 -8.2890903 0.0
SAV-15-04 13 7 03/20/2015 15:48:02 2015-03-20T15:48:02Z 31.303851 -79.607612 126.0 184.076 51.674309 36.5605 21.6991 21.6738 1026.0441 25.4958 4.1719 83.896 1.53 -8.2584894 0.0
SAV-15-04 13 7 03/20/2015 15:48:02 2015-03-20T15:48:02Z 31.303851 -79.607612 127.0 185.537 51.630663 36.5645 21.653 21.6276 1026.0645 25.5118 4.1804 83.998 1.47 -8.285909 0.0
SAV-15-04 13 7 03/20/2015 15:48:02 2015-03-20T15:48:02Z 31.303851 -79.607612 128.0 186.998 51.604706 36.5544 21.6402 21.6145 1026.064 25.5077 4.1806 83.979 1.41 -8.2933236 0.0
SAV-15-04 13 7 03/20/2015 15:48:02 2015-03-20T15:48:02Z 31.303851 -79.607612 129.0 188.46 51.597155 36.5508 21.637 21.6113 1026.065 25.5059 4.1856 84.072 1.36 -8.2877946 0.0
SAV-15-04 13 7 03/20/2015 15:48:02 2015-03-20T15:48:02Z 31.303851 -79.607612 130.0 189.921 51.582536 36.5483 21.6259 21.6001 1026.0691 25.5071 4.1966 84.276 1.33 -0.6527195 0.0
SAV-15-04 13 7 03/20/2015 15:48:02 2015-03-20T15:48:02Z 31.303851 -79.607612 131.0 191.383 51.554551 36.5471 21.6002 21.574 1026.0846 25.5135 4.2172 84.65 1.29 0.1321315 0.0
SAV-15-04 13 7 03/20/2015 15:48:02 2015-03-20T15:48:02Z 31.303851 -79.607612 132.0 192.844 51.530932 36.5504 21.5737 21.5473 1026.0991 25.5235 4.231 84.888 1.25 0.1236152 0.0
SAV-15-04 13 7 03/20/2015 15:48:02 2015-03-20T15:48:02Z 31.303851 -79.607612 133.0 194.305 51.469032 36.551 21.5145 21.488 1026.1197 25.5404 4.2335 84.848 1.2 0.1236152 0.0
SAV-15-04 13 7 03/20/2015 15:48:02 2015-03-20T15:48:02Z 31.303851 -79.607612 134.0 195.767 51.351749 36.528 21.431 21.4045 1026.1281 25.5461 4.2246 84.533 1.16 0.1155044 0.0
SAV-15-04 13 7 03/20/2015 15:48:02 2015-03-20T15:48:02Z 31.303851 -79.607612 135.0 197.228 51.29063 36.5057 21.3995 21.3728 1026.1223 25.5379 4.2577 85.138 1.13 0.1228418 0.0
SAV-15-04 13 7 03/20/2015 15:48:02 2015-03-20T15:48:02Z 31.303851 -79.607612 136.0 198.689 51.193362 36.4968 21.3178 21.291 1026.1441 25.5538 4.3621 87.092 1.1 0.1236152 0.0
SAV-15-04 13 7 03/20/2015 15:48:02 2015-03-20T15:48:02Z 31.303851 -79.607612 137.0 200.151 51.116097 36.484 21.2596 21.2326 1026.1545 25.5602 4.3977 87.705 1.06 -1.1487546 0.0
SAV-15-04 13 7 03/20/2015 15:48:02 2015-03-20T15:48:02Z 31.303851 -79.607612 138.0 201.613 51.050461 36.4824 21.1992 21.1721 1026.174 25.5756 4.3797 87.251 1.03 -1.2354432 0.0
SAV-15-04 13 7 03/20/2015 15:48:02 2015-03-20T15:48:02Z 31.303851 -79.607612 139.0 203.074 51.017604 36.4724 21.1795 21.1522 1026.1766 25.5735 4.3176 85.98 0.991 -1.0840728 0.0
SAV-15-04 13 7 03/20/2015 15:48:02 2015-03-20T15:48:02Z 31.303851 -79.607612 140.0 204.535 51.008932 36.4782 21.1639 21.1364 1026.1912 25.5823 4.2633 84.876 0.957 -1.3390028 0.0
SAV-15-04 13 7 03/20/2015 15:48:02 2015-03-20T15:48:02Z 31.303851 -79.607612 141.0 205.997 50.961809 36.4913 21.1037 21.0759 1026.2227 25.6089 4.2301 84.131 0.923 -2.1322599 0.0
SAV-15-04 13 7 03/20/2015 15:48:02 2015-03-20T15:48:02Z 31.303851 -79.607612 142.0 207.459 50.929542 36.4786 21.0877 21.0599 1026.2212 25.6036 4.2 83.503 0.892 -1.3675507 0.0
SAV-15-04 13 7 03/20/2015 15:48:02 2015-03-20T15:48:02Z 31.303851 -79.607612 143.0 208.92 50.921511 36.4816 21.0762 21.0482 1026.2306 25.6092 4.1607 82.705 0.856 -0.8399768 0.0
SAV-15-04 13 7 03/20/2015 15:48:02 2015-03-20T15:48:02Z 31.303851 -79.607612 144.0 210.381 50.881819 36.4788 21.0417 21.0135 1026.2414 25.6165 4.1267 81.978 0.829 -0.6770507 0.0
SAV-15-04 13 7 03/20/2015 15:48:02 2015-03-20T15:48:02Z 31.303851 -79.607612 145.0 211.843 50.824821 36.4782 20.9883 20.96 1026.2595 25.6307 4.1125 81.616 0.806 -0.7030182 0.0
SAV-15-04 13 7 03/20/2015 15:48:02 2015-03-20T15:48:02Z 31.303851 -79.607612 146.0 213.305 50.773139 36.4653 20.9541 20.9256 1026.2641 25.6303 4.234 83.971 0.784 -0.7501422 0.0
SAV-15-04 13 7 03/20/2015 15:48:02 2015-03-20T15:48:02Z 31.303851 -79.607612 147.0 214.766 50.759029 36.4626 20.9433 20.9146 1026.2706 25.6313 4.3752 86.752 0.757 -0.7915077 0.0
SAV-15-04 13 7 03/20/2015 15:48:02 2015-03-20T15:48:02Z 31.303851 -79.607612 148.0 216.228 50.7496 36.4651 20.931 20.9021 1026.2808 25.6365 4.4191 87.605 0.732 -2.099165 0.0
SAV-15-04 13 7 03/20/2015 15:48:02 2015-03-20T15:48:02Z 31.303851 -79.607612 149.0 217.689 50.729181 36.4674 20.9085 20.8795 1026.293 25.6445 4.4437 88.058 0.71 -1.5489616 0.0
SAV-15-04 13 7 03/20/2015 15:48:02 2015-03-20T15:48:02Z 31.303851 -79.607612 150.0 219.15 50.719697 36.4613 20.9066 20.8774 1026.2913 25.6404 4.436 87.898 0.684 -1.1349386 0.0
SAV-15-04 13 7 03/20/2015 15:48:02 2015-03-20T15:48:02Z 31.303851 -79.607612 151.0 220.612 50.712789 36.4628 20.8977 20.8684 1026.2994 25.6441 4.3953 87.079 0.667 -1.3002918 0.0
SAV-15-04 13 7 03/20/2015 15:48:02 2015-03-20T15:48:02Z 31.303851 -79.607612 152.0 222.074 50.693294 36.4604 20.8815 20.8519 1026.3087 25.6467 4.3811 86.772 0.647 -2.0283735 0.0
SAV-15-04 13 7 03/20/2015 15:48:02 2015-03-20T15:48:02Z 31.303851 -79.607612 153.0 223.535 50.688601 36.4598 20.8776 20.8478 1026.3121 25.6473 4.3856 86.855 0.628 -2.0086201 0.0
SAV-15-04 13 7 03/20/2015 15:48:02 2015-03-20T15:48:02Z 31.303851 -79.607612 154.0 224.997 50.687822 36.4579 20.8787 20.8488 1026.3138 25.6457 4.394 87.021 0.609 -5.2863669 0.0
SAV-15-04 13 7 03/20/2015 15:48:02 2015-03-20T15:48:02Z 31.303851 -79.607612 155.0 226.458 50.684947 36.459 20.874 20.8438 1026.3222 25.6479 4.4063 87.259 0.595 -8.6305453 0.0
SAV-15-04 13 7 03/20/2015 15:48:02 2015-03-20T15:48:02Z 31.303851 -79.607612 156.0 227.92 50.674637 36.4586 20.8644 20.8341 1026.3283 25.6502 4.418 87.475 0.574 -8.2880695 0.0
SAV-15-04 13 7 03/20/2015 15:48:02 2015-03-20T15:48:02Z 31.303851 -79.607612 157.0 229.382 50.672117 36.4565 20.8642 20.8338 1026.3299 25.6487 4.4209 87.53 0.559 -8.2654201 0.0
SAV-15-04 13 7 03/20/2015 15:48:02 2015-03-20T15:48:02Z 31.303851 -79.607612 158.0 230.844 50.669165 36.4567 20.8608 20.8301 1026.3358 25.6498 4.4175 87.458 0.544 -8.2721193 0.0
SAV-15-04 13 7 03/20/2015 15:48:02 2015-03-20T15:48:02Z 31.303851 -79.607612 159.0 232.305 50.66435 36.4574 20.8548 20.8239 1026.3434 25.652 4.4198 87.494 0.529 -8.2671268 0.0
SAV-15-04 13 7 03/20/2015 15:48:02 2015-03-20T15:48:02Z 31.303851 -79.607612 160.0 233.766 50.655605 36.4577 20.8457 20.8146 1026.3509 25.6548 4.4374 87.829 0.512 -8.2610093 0.0
SAV-15-04 13 7 03/20/2015 15:48:02 2015-03-20T15:48:02Z 31.303851 -79.607612 161.0 235.229 50.649513 36.4561 20.8414 20.8102 1026.3547 25.6548 4.4483 88.037 0.496 -8.2713216 0.0
SAV-15-04 13 7 03/20/2015 15:48:02 2015-03-20T15:48:02Z 31.303851 -79.607612 162.0 236.69 50.646166 36.4558 20.8384 20.807 1026.3578 25.6554 4.4287 87.645 0.482 -8.2658329 0.0
SAV-15-04 13 7 03/20/2015 15:48:02 2015-03-20T15:48:02Z 31.303851 -79.607612 163.0 238.151 50.622362 36.4611 20.8092 20.7776 1026.375 25.6675 4.4197 87.422 0.474 -8.2690615 0.0
SAV-15-04 13 7 03/20/2015 15:48:02 2015-03-20T15:48:02Z 31.303851 -79.607612 164.0 239.613 50.583613 36.4628 20.7699 20.7381 1026.393 25.6796 4.4588 88.134 0.461 -8.2926606 0.0
SAV-15-04 13 7 03/20/2015 15:48:02 2015-03-20T15:48:02Z 31.303851 -79.607612 165.0 241.075 50.561944 36.462 20.7499 20.718 1026.4025 25.6844 4.472 88.363 0.446 -8.2709125 0.0
SAV-15-04 13 7 03/20/2015 15:48:02 2015-03-20T15:48:02Z 31.303851 -79.607612 166.0 242.536 50.527294 36.4672 20.7107 20.6786 1026.421 25.6991 4.4772 88.405 0.434 -8.2687612 0.0
SAV-15-04 13 7 03/20/2015 15:48:02 2015-03-20T15:48:02Z 31.303851 -79.607612 167.0 243.998 50.494809 36.4704 20.6758 20.6435 1026.4376 25.711 4.4742 88.292 0.422 -8.2868022 0.0
SAV-15-04 13 7 03/20/2015 15:48:02 2015-03-20T15:48:02Z 31.303851 -79.607612 168.0 245.46 50.455695 36.4684 20.6408 20.6083 1026.4495 25.7191 4.4691 88.135 0.411 -8.2596843 0.0
SAV-15-04 13 7 03/20/2015 15:48:02 2015-03-20T15:48:02Z 31.303851 -79.607612 169.0 246.921 50.439576 36.4608 20.6341 20.6016 1026.4485 25.7151 4.44 87.548 0.401 -8.2816164 0.0
SAV-15-04 13 7 03/20/2015 15:48:02 2015-03-20T15:48:02Z 31.303851 -79.607612 170.0 248.383 50.419226 36.4594 20.616 20.5833 1026.4568 25.719 4.3719 86.175 0.395 -8.2767015 0.0
SAV-15-04 13 7 03/20/2015 15:48:02 2015-03-20T15:48:02Z 31.303851 -79.607612 171.0 249.845 50.395418 36.4562 20.5966 20.5637 1026.466 25.7218 4.3674 86.055 0.386 -8.2860555 0.0
SAV-15-04 13 7 03/20/2015 15:48:02 2015-03-20T15:48:02Z 31.303851 -79.607612 172.0 251.306 50.391008 36.4596 20.5881 20.5549 1026.475 25.7267 4.3655 86.006 0.376 -8.2855593 0.0
SAV-15-04 13 7 03/20/2015 15:48:02 2015-03-20T15:48:02Z 31.303851 -79.607612 173.0 252.768 50.32077 36.4571 20.5239 20.4907 1026.4956 25.7423 4.3578 85.753 0.366 -8.2855593 0.0
SAV-15-04 13 7 03/20/2015 15:48:02 2015-03-20T15:48:02Z 31.303851 -79.607612 174.0 254.23 50.339346 36.4465 20.5535 20.52 1026.4834 25.7262 4.3331 85.308 0.356 -8.2826233 0.0
SAV-15-04 13 7 03/20/2015 15:48:02 2015-03-20T15:48:02Z 31.303851 -79.607612 175.0 255.691 50.315265 36.4591 20.5158 20.4823 1026.5055 25.746 4.2996 84.596 0.348 -8.2779125 0.0
SAV-15-04 13 7 03/20/2015 15:48:02 2015-03-20T15:48:02Z 31.303851 -79.607612 176.0 257.153 50.158283 36.465 20.3596 20.326 1026.5583 25.7926 4.2774 83.926 0.342 -8.2829299 0.0
SAV-15-04 13 7 03/20/2015 15:48:02 2015-03-20T15:48:02Z 31.303851 -79.607612 177.0 258.614 50.062744 36.4541 20.2811 20.2474 1026.5768 25.8053 4.2581 83.421 0.334 -8.2601558 0.0
SAV-15-04 13 7 03/20/2015 15:48:02 2015-03-20T15:48:02Z 31.303851 -79.607612 178.0 260.076 49.99233 36.4463 20.223 20.1891 1026.5899 25.815 4.2223 82.629 0.327 -8.2688713 0.0
SAV-15-04 13 7 03/20/2015 15:48:02 2015-03-20T15:48:02Z 31.303851 -79.607612 179.0 261.538 49.942526 36.4291 20.1952 20.1613 1026.588 25.8094 4.1726 81.608 0.32 -8.2737373 0.0
SAV-15-04 13 7 03/20/2015 15:48:02 2015-03-20T15:48:02Z 31.303851 -79.607612 180.0 263.0 49.907687 36.4305 20.1601 20.126 1026.6028 25.8198 4.1292 80.707 0.313 -8.2665453 0.0
SAV-15-04 13 7 03/20/2015 15:48:02 2015-03-20T15:48:02Z 31.303851 -79.607612 181.0 264.461 49.805163 36.4305 20.0621 20.0278 1026.6351 25.8459 4.13 80.578 0.306 -8.2688239 0.0
SAV-15-04 13 7 03/20/2015 15:48:02 2015-03-20T15:48:02Z 31.303851 -79.607612 182.0 265.924 49.732752 36.4196 20.0055 19.9711 1026.646 25.8527 4.1293 80.477 0.299 -8.260469 0.0
SAV-15-04 13 7 03/20/2015 15:48:02 2015-03-20T15:48:02Z 31.303851 -79.607612 183.0 267.385 49.65684 36.4145 19.9387 19.9042 1026.6644 25.8666 4.1097 79.996 0.292 -8.2875417 0.0
SAV-15-04 13 7 03/20/2015 15:48:02 2015-03-20T15:48:02Z 31.303851 -79.607612 184.0 268.847 49.593964 36.4017 19.8932 19.8586 1026.6706 25.869 4.0846 79.433 0.285 -8.2944146 0.0
SAV-15-04 13 7 03/20/2015 15:48:02 2015-03-20T15:48:02Z 31.303851 -79.607612 185.0 270.309 49.564256 36.397 19.87 19.8353 1026.6762 25.8715 4.0482 78.692 0.278 -8.2775833 0.0
SAV-15-04 13 7 03/20/2015 15:48:02 2015-03-20T15:48:02Z 31.303851 -79.607612 186.0 271.771 49.450158 36.4007 19.7566 19.7218 1026.7138 25.9043 4.0125 77.837 0.272 -8.2949112 0.0
SAV-15-04 13 7 03/20/2015 15:48:02 2015-03-20T15:48:02Z 31.303851 -79.607612 187.0 273.232 49.303905 36.4053 19.6112 19.5764 1026.7629 25.946 4.0191 77.76 0.264 -8.2698665 0.0
SAV-15-04 13 7 03/20/2015 15:48:02 2015-03-20T15:48:02Z 31.303851 -79.607612 188.0 274.694 49.180435 36.3977 19.5016 19.4667 1026.7909 25.9689 4.0305 77.819 0.257 -8.3104665 0.0
SAV-15-04 13 7 03/20/2015 15:48:02 2015-03-20T15:48:02Z 31.303851 -79.607612 189.0 276.156 49.087894 36.3801 19.433 19.398 1026.8 25.9734 4.035 77.8 0.25 -8.2860691 0.0
SAV-15-04 13 7 03/20/2015 15:48:02 2015-03-20T15:48:02Z 31.303851 -79.607612 190.0 277.618 49.031339 36.3763 19.3831 19.348 1026.8132 25.9835 4.0462 77.942 0.244 -8.2634119 0.0
SAV-15-04 13 7 03/20/2015 15:48:02 2015-03-20T15:48:02Z 31.303851 -79.607612 191.0 279.08 48.969878 36.3631 19.3391 19.3039 1026.818 25.9849 4.0434 77.819 0.237 -8.2975627 0.0
SAV-15-04 13 7 03/20/2015 15:48:02 2015-03-20T15:48:02Z 31.303851 -79.607612 192.0 280.542 48.914446 36.3572 19.2925 19.2572 1026.8294 25.9925 4.0432 77.745 0.232 -8.2725829 0.0
SAV-15-04 13 7 03/20/2015 15:48:02 2015-03-20T15:48:02Z 31.303851 -79.607612 193.0 282.003 48.849511 36.3467 19.2419 19.2066 1026.8386 25.9976 4.0646 78.079 0.227 -8.2827011 0.0
SAV-15-04 13 7 03/20/2015 15:48:02 2015-03-20T15:48:02Z 31.303851 -79.607612 194.0 283.465 48.805771 36.354 19.1909 19.1553 1026.8655 26.0165 4.065 78.017 0.223 -8.2762582 0.0
SAV-15-04 13 7 03/20/2015 15:48:02 2015-03-20T15:48:02Z 31.303851 -79.607612 195.0 284.927 48.726203 36.3642 19.1026 19.0668 1026.9018 26.0471 4.0729 78.046 0.217 -8.2709275 0.0
SAV-15-04 13 7 03/20/2015 15:48:02 2015-03-20T15:48:02Z 31.303851 -79.607612 196.0 286.389 48.636489 36.3583 19.0231 18.9873 1026.921 26.0631 4.077 78.006 0.212 -8.2827965 0.0
SAV-15-04 13 7 03/20/2015 15:48:02 2015-03-20T15:48:02Z 31.303851 -79.607612 197.0 287.851 48.576785 36.332 18.9956 18.9597 1026.9113 26.05 4.069 77.802 0.208 -8.2827868 0.0
SAV-15-04 13 7 03/20/2015 15:48:02 2015-03-20T15:48:02Z 31.303851 -79.607612 198.0 289.313 48.566306 36.329 18.9886 18.9526 1026.9141 26.0496 4.0447 77.326 0.204 -8.2736222 0.0
SAV-15-04 13 7 03/20/2015 15:48:02 2015-03-20T15:48:02Z 31.303851 -79.607612 199.0 290.775 48.539411 36.3304 18.9608 18.9246 1026.9263 26.0578 4.0115 76.652 0.201 -1.4132247 0.0
SAV-15-04 13 7 03/20/2015 15:48:02 2015-03-20T15:48:02Z 31.303851 -79.607612 200.0 292.236 48.496652 36.32 18.9313 18.8952 1026.9285 26.0574 4.0059 76.498 0.199 0.0365694 0.0
SAV-15-04 13 7 03/20/2015 15:48:02 2015-03-20T15:48:02Z 31.303851 -79.607612 201.0 293.698 48.465083 36.3098 18.9123 18.876 1026.9294 26.0545 4.0118 76.58 0.199 1.5744527 0.0
SAV-15-04 13 7 03/20/2015 15:48:02 2015-03-20T15:48:02Z 31.303851 -79.607612 202.0 295.16 48.455429 36.3067 18.9062 18.8697 1026.9329 26.0537 4.0082 76.502 0.196 1.8401722 0.0
SAV-15-04 13 7 03/20/2015 15:48:02 2015-03-20T15:48:02Z 31.303851 -79.607612 203.0 296.622 48.479775 36.3056 18.9304 18.8937 1026.9299 26.0468 3.9975 76.33 0.188 -8.1731708 0.0
SAV-15-04 13 7 03/20/2015 15:48:02 2015-03-20T15:48:02Z 31.303851 -79.607612 204.0 298.084 48.443749 36.303 18.8984 18.8615 1026.9407 26.053 3.9957 76.249 0.182 -4.4210398 0.0
SAV-15-04 13 7 03/20/2015 15:48:02 2015-03-20T15:48:02Z 31.303851 -79.607612 205.0 299.546 48.406417 36.3033 18.8617 18.8247 1026.9547 26.0627 3.9952 76.188 0.178 2.3747762 0.0
SAV-15-04 13 7 03/20/2015 15:48:02 2015-03-20T15:48:02Z 31.303851 -79.607612 206.0 301.008 48.268623 36.2906 18.7434 18.7065 1026.9789 26.0831 3.9569 75.287 0.181 -9.5045132 0.0
SAV-15-04 14 6 03/20/2015 18:33:09 2015-03-20T18:33:09Z 31.316418 -79.862796 2.0 2.921 49.784006 36.3466 20.2162 20.2158 1025.7408 25.7318 5.0177 98.124 892.0 -4.4610637 0.0
SAV-15-04 14 6 03/20/2015 18:33:09 2015-03-20T18:33:09Z 31.316418 -79.862796 3.0 4.381 49.720692 36.3519 20.1492 20.1486 1025.769 25.7538 5.0263 98.176 882.0 -4.2706578 0.0
SAV-15-04 14 6 03/20/2015 18:33:09 2015-03-20T18:33:09Z 31.316418 -79.862796 4.0 5.842 49.697761 36.3493 20.1299 20.129 1025.777 25.7571 5.0317 98.247 771.0 -3.8772314 0.0
SAV-15-04 14 6 03/20/2015 18:33:09 2015-03-20T18:33:09Z 31.316418 -79.862796 5.0 7.303 49.689494 36.348 20.1232 20.1221 1025.7816 25.7579 5.0257 98.116 666.0 -2.9985187 0.0
SAV-15-04 14 6 03/20/2015 18:33:09 2015-03-20T18:33:09Z 31.316418 -79.862796 6.0 8.763 49.678965 36.3496 20.1109 20.1097 1025.7907 25.7624 5.0248 98.077 596.0 -3.4658763 0.0
SAV-15-04 14 6 03/20/2015 18:33:09 2015-03-20T18:33:09Z 31.316418 -79.862796 7.0 10.223 49.669253 36.3489 20.102 20.1006 1025.7976 25.7643 5.0219 98.005 526.0 -4.1959312 0.0
SAV-15-04 14 6 03/20/2015 18:33:09 2015-03-20T18:33:09Z 31.316418 -79.862796 8.0 11.684 49.662439 36.35 20.0939 20.0923 1025.8041 25.7674 5.0198 97.949 506.0 -3.6433305 0.0
SAV-15-04 14 6 03/20/2015 18:33:09 2015-03-20T18:33:09Z 31.316418 -79.862796 9.0 13.144 49.653238 36.3489 20.0858 20.084 1025.8103 25.7688 5.0127 97.795 439.0 -3.7777844 0.0
SAV-15-04 14 6 03/20/2015 18:33:09 2015-03-20T18:33:09Z 31.316418 -79.862796 10.0 14.605 49.6422 36.3532 20.0701 20.0681 1025.8215 25.7762 5.0216 97.944 405.0 -4.4302622 0.0
SAV-15-04 14 6 03/20/2015 18:33:09 2015-03-20T18:33:09Z 31.316418 -79.862796 11.0 16.065 49.609957 36.3578 20.0334 20.0312 1025.8411 25.7896 5.0416 98.271 369.0 -3.9598052 0.0
SAV-15-04 14 6 03/20/2015 18:33:09 2015-03-20T18:33:09Z 31.316418 -79.862796 12.0 17.526 49.598468 36.36 20.0196 20.0173 1025.8495 25.795 5.0286 97.994 353.0 -3.641759 0.0
SAV-15-04 14 6 03/20/2015 18:33:09 2015-03-20T18:33:09Z 31.316418 -79.862796 13.0 18.987 49.570597 36.3647 19.9873 19.9848 1025.8654 25.8072 5.0188 97.749 321.0 -4.5288148 0.0
SAV-15-04 14 6 03/20/2015 18:33:09 2015-03-20T18:33:09Z 31.316418 -79.862796 14.0 20.447 49.54047 36.3733 19.9483 19.9456 1025.8866 25.8241 5.0403 98.102 298.0 -4.2663381 0.0
SAV-15-04 14 6 03/20/2015 18:33:09 2015-03-20T18:33:09Z 31.316418 -79.862796 15.0 21.908 49.430188 36.3888 19.8248 19.8218 1025.9374 25.8688 5.064 98.35 273.0 -3.6379904 0.0
SAV-15-04 14 6 03/20/2015 18:33:09 2015-03-20T18:33:09Z 31.316418 -79.862796 16.0 23.369 49.358991 36.3898 19.7554 19.7523 1025.96 25.8879 5.0325 97.616 261.0 -3.716044 0.0
SAV-15-04 14 6 03/20/2015 18:33:09 2015-03-20T18:33:09Z 31.316418 -79.862796 17.0 24.829 49.332358 36.3855 19.7345 19.7312 1025.9666 25.8902 5.0279 97.486 247.0 -3.949159 0.0
SAV-15-04 14 6 03/20/2015 18:33:09 2015-03-20T18:33:09Z 31.316418 -79.862796 18.0 26.29 49.295853 36.3802 19.7055 19.7021 1025.9735 25.8938 5.0552 97.959 228.0 -4.156341 0.0
SAV-15-04 14 6 03/20/2015 18:33:09 2015-03-20T18:33:09Z 31.316418 -79.862796 19.0 27.75 49.247179 36.3977 19.6384 19.6347 1026.0107 25.9249 5.0791 98.314 218.0 -4.6549831 0.0
SAV-15-04 14 6 03/20/2015 18:33:09 2015-03-20T18:33:09Z 31.316418 -79.862796 20.0 29.211 49.119114 36.4109 19.5005 19.4967 1026.0625 25.9712 5.0873 98.23 206.0 -3.6050662 0.0
SAV-15-04 14 6 03/20/2015 18:33:09 2015-03-20T18:33:09Z 31.316418 -79.862796 21.0 30.672 49.034963 36.404 19.4279 19.4239 1026.0794 25.9849 5.0825 98.001 194.0 -3.7424594 0.0
SAV-15-04 14 6 03/20/2015 18:33:09 2015-03-20T18:33:09Z 31.316418 -79.862796 22.0 32.132 48.953095 36.4082 19.3446 19.3406 1026.1068 26.0098 5.0737 97.686 186.0 -3.6755119 0.0
SAV-15-04 14 6 03/20/2015 18:33:09 2015-03-20T18:33:09Z 31.316418 -79.862796 23.0 33.593 48.728324 36.4491 19.0828 19.0785 1026.2117 26.109 5.1055 97.846 179.0 -4.7212761 0.0
SAV-15-04 14 6 03/20/2015 18:33:09 2015-03-20T18:33:09Z 31.316418 -79.862796 24.0 35.053 48.634361 36.452 18.9891 18.9845 1026.2442 26.1355 5.1123 97.809 165.0 -4.9029558 0.0
SAV-15-04 14 6 03/20/2015 18:33:09 2015-03-20T18:33:09Z 31.316418 -79.862796 25.0 36.514 48.572599 36.457 18.9239 18.9193 1026.2689 26.1561 5.1111 97.67 158.0 -4.8342876 0.0
SAV-15-04 14 6 03/20/2015 18:33:09 2015-03-20T18:33:09Z 31.316418 -79.862796 26.0 37.974 48.498069 36.4422 18.8691 18.8643 1026.2743 26.1588 5.0972 97.296 148.0 -4.0093538 0.0
SAV-15-04 14 6 03/20/2015 18:33:09 2015-03-20T18:33:09Z 31.316418 -79.862796 27.0 39.435 48.426297 36.4464 18.7953 18.7904 1026.3 26.181 5.1071 97.355 138.0 -4.2916424 0.0
SAV-15-04 14 6 03/20/2015 18:33:09 2015-03-20T18:33:09Z 31.316418 -79.862796 28.0 40.896 48.310595 36.4458 18.6845 18.6794 1026.3346 26.2088 5.1042 97.099 127.0 -4.9376167 0.0
SAV-15-04 14 6 03/20/2015 18:33:09 2015-03-20T18:33:09Z 31.316418 -79.862796 29.0 42.357 48.285916 36.4395 18.6677 18.6624 1026.3372 26.2083 5.1142 97.255 118.0 -3.8208422 0.0
SAV-15-04 14 6 03/20/2015 18:33:09 2015-03-20T18:33:09Z 31.316418 -79.862796 30.0 43.818 48.271301 36.434 18.6595 18.6541 1026.339 26.2062 5.115 97.252 110.0 -4.9925235 0.0
SAV-15-04 14 6 03/20/2015 18:33:09 2015-03-20T18:33:09Z 31.316418 -79.862796 31.0 45.278 48.260302 36.4325 18.6501 18.6445 1026.3452 26.2076 5.1096 97.132 102.0 -4.1518435 0.0
SAV-15-04 14 6 03/20/2015 18:33:09 2015-03-20T18:33:09Z 31.316418 -79.862796 32.0 46.739 48.235671 36.4323 18.6263 18.6205 1026.3558 26.2135 5.1106 97.107 93.2 -4.4436357 0.0
SAV-15-04 14 6 03/20/2015 18:33:09 2015-03-20T18:33:09Z 31.316418 -79.862796 33.0 48.2 48.22522 36.4325 18.6157 18.6097 1026.363 26.2164 5.1217 97.299 86.8 -4.4794497 0.0
SAV-15-04 14 6 03/20/2015 18:33:09 2015-03-20T18:33:09Z 31.316418 -79.862796 34.0 49.66 48.199209 36.4318 18.5911 18.585 1026.372 26.2222 5.1208 97.238 81.3 -4.0296766 0.0
SAV-15-04 14 6 03/20/2015 18:33:09 2015-03-20T18:33:09Z 31.316418 -79.862796 35.0 51.121 48.183561 36.431 18.5765 18.5702 1026.3807 26.2252 5.1338 97.458 74.8 -4.4587938 0.0
SAV-15-04 14 6 03/20/2015 18:33:09 2015-03-20T18:33:09Z 31.316418 -79.862796 36.0 52.582 48.176709 36.4281 18.5728 18.5663 1026.3837 26.224 5.1312 97.399 67.9 -4.2043649 0.0
SAV-15-04 14 6 03/20/2015 18:33:09 2015-03-20T18:33:09Z 31.316418 -79.862796 37.0 54.043 48.177401 36.4259 18.5755 18.5688 1026.3859 26.2217 5.123 97.246 62.7 -4.4580248 0.0
SAV-15-04 14 6 03/20/2015 18:33:09 2015-03-20T18:33:09Z 31.316418 -79.862796 38.0 55.503 48.16876 36.4314 18.5606 18.5537 1026.3981 26.2297 5.1287 97.331 57.1 -4.0944441 0.0
SAV-15-04 14 6 03/20/2015 18:33:09 2015-03-20T18:33:09Z 31.316418 -79.862796 39.0 56.963 48.165911 36.4252 18.5645 18.5575 1026.3959 26.2241 5.1208 97.184 50.7 -3.7079739 0.0
SAV-15-04 14 6 03/20/2015 18:33:09 2015-03-20T18:33:09Z 31.316418 -79.862796 40.0 58.424 48.159315 36.4267 18.556 18.5488 1026.404 26.2274 5.1134 97.031 44.2 -4.054225 0.0
SAV-15-04 14 6 03/20/2015 18:33:09 2015-03-20T18:33:09Z 31.316418 -79.862796 41.0 59.885 48.156262 36.4254 18.554 18.5466 1026.4083 26.227 5.1246 97.238 39.0 -3.4423437 0.0
SAV-15-04 14 6 03/20/2015 18:33:09 2015-03-20T18:33:09Z 31.316418 -79.862796 42.0 61.346 48.154759 36.4251 18.5525 18.5449 1026.413 26.2272 5.1139 97.032 35.0 -4.6732214 0.0
SAV-15-04 14 6 03/20/2015 18:33:09 2015-03-20T18:33:09Z 31.316418 -79.862796 43.0 62.807 48.154139 36.4252 18.5514 18.5436 1026.4175 26.2276 5.0875 96.529 31.5 -4.2566944 0.0
SAV-15-04 14 6 03/20/2015 18:33:09 2015-03-20T18:33:09Z 31.316418 -79.862796 44.0 64.267 48.152996 36.4239 18.5512 18.5433 1026.421 26.2267 5.1134 97.02 28.2 -3.6198365 0.0
SAV-15-04 14 6 03/20/2015 18:33:09 2015-03-20T18:33:09Z 31.316418 -79.862796 45.0 65.728 48.151826 36.4246 18.5489 18.5408 1026.427 26.2278 5.1258 97.25 25.3 -3.6684325 0.0
SAV-15-04 14 6 03/20/2015 18:33:09 2015-03-20T18:33:09Z 31.316418 -79.862796 46.0 67.189 48.151261 36.4239 18.5488 18.5406 1026.4296 26.2274 5.1127 97.002 22.8 -3.3938462 0.0
SAV-15-04 14 6 03/20/2015 18:33:09 2015-03-20T18:33:09Z 31.316418 -79.862796 47.0 68.65 48.150199 36.4228 18.5487 18.5403 1026.4321 26.2266 5.1122 96.991 20.4 -3.4057822 0.0
SAV-15-04 14 6 03/20/2015 18:33:09 2015-03-20T18:33:09Z 31.316418 -79.862796 48.0 70.111 48.145415 36.4198 18.5472 18.5388 1026.433 26.2247 5.1182 97.102 14.3 -3.1630522 0.0
SAV-15-04 15 6 03/20/2015 19:13:44 2015-03-20T19:13:44Z 31.304607 -79.864475 2.0 2.921 49.790281 36.3352 20.2354 20.235 1025.7266 25.718 4.4946 87.924 678.0 -4.3156154 0.0
SAV-15-04 15 6 03/20/2015 19:13:44 2015-03-20T19:13:44Z 31.304607 -79.864475 3.0 4.381 49.76049 36.353 20.1858 20.1852 1025.7596 25.7449 4.9997 97.722 565.0 -4.6566633 0.0
SAV-15-04 15 6 03/20/2015 19:13:44 2015-03-20T19:13:44Z 31.304607 -79.864475 4.0 5.842 49.722175 36.3505 20.1518 20.1509 1025.7718 25.7522 5.0256 98.167 479.0 -4.5597889 0.0
SAV-15-04 15 6 03/20/2015 19:13:44 2015-03-20T19:13:44Z 31.304607 -79.864475 5.0 7.303 49.702127 36.3506 20.1322 20.1311 1025.7814 25.7575 5.0269 98.157 411.0 -3.8954346 0.0
SAV-15-04 15 6 03/20/2015 19:13:44 2015-03-20T19:13:44Z 31.304607 -79.864475 6.0 8.763 49.683186 36.3504 20.1138 20.1126 1025.7916 25.7623 5.0203 97.996 384.0 -4.2270706 0.0
SAV-15-04 15 6 03/20/2015 19:13:44 2015-03-20T19:13:44Z 31.304607 -79.864475 7.0 10.224 49.674604 36.3481 20.1081 20.1067 1025.7944 25.7621 5.0249 98.074 325.0 -4.018292 0.0
SAV-15-04 15 6 03/20/2015 19:13:44 2015-03-20T19:13:44Z 31.304607 -79.864475 8.0 11.684 49.668884 36.3483 20.102 20.1004 1025.8005 25.7639 5.0256 98.075 299.0 -3.8200944 0.0
SAV-15-04 15 6 03/20/2015 19:13:44 2015-03-20T19:13:44Z 31.304607 -79.864475 9.0 13.144 49.65496 36.353 20.0826 20.0808 1025.8158 25.7728 5.0258 98.048 278.0 -3.4188202 0.0
SAV-15-04 15 6 03/20/2015 19:13:44 2015-03-20T19:13:44Z 31.304607 -79.864475 10.0 14.605 49.641349 36.3487 20.0743 20.0723 1025.818 25.7718 5.0213 97.944 254.0 -4.1347788 0.0
SAV-15-04 15 6 03/20/2015 19:13:44 2015-03-20T19:13:44Z 31.304607 -79.864475 11.0 16.066 49.627341 36.3539 20.0546 20.0525 1025.8303 25.781 5.0287 98.055 229.0 -3.9894719 0.0
SAV-15-04 15 6 03/20/2015 19:13:44 2015-03-20T19:13:44Z 31.304607 -79.864475 12.0 17.526 49.600555 36.3535 20.0291 20.0268 1025.8418 25.7875 5.0281 97.998 217.0 -4.5078187 0.0
SAV-15-04 15 6 03/20/2015 19:13:44 2015-03-20T19:13:44Z 31.304607 -79.864475 13.0 18.986 49.584215 36.3558 20.0104 20.0078 1025.854 25.7942 5.0305 98.011 201.0 -4.7538604 0.0
SAV-15-04 15 6 03/20/2015 19:13:44 2015-03-20T19:13:44Z 31.304607 -79.864475 14.0 20.447 49.566183 36.3581 19.9902 19.9874 1025.8649 25.8015 5.0362 98.089 188.0 -4.6873495 0.0
SAV-15-04 15 6 03/20/2015 19:13:44 2015-03-20T19:13:44Z 31.304607 -79.864475 15.0 21.908 49.533467 36.3589 19.9578 19.9549 1025.8776 25.8107 5.0365 98.038 175.0 -4.5871519 0.0
SAV-15-04 15 6 03/20/2015 19:13:44 2015-03-20T19:13:44Z 31.304607 -79.864475 16.0 23.368 49.48415 36.3564 19.9132 19.9101 1025.8925 25.8206 5.045 98.121 163.0 -3.7476893 0.0
SAV-15-04 15 6 03/20/2015 19:13:44 2015-03-20T19:13:44Z 31.304607 -79.864475 17.0 24.829 49.448399 36.3611 19.8732 19.8699 1025.9117 25.8349 5.0428 98.009 156.0 -3.3525412 0.0
SAV-15-04 15 6 03/20/2015 19:13:44 2015-03-20T19:13:44Z 31.304607 -79.864475 18.0 26.29 49.391056 36.3604 19.8188 19.8152 1025.9311 25.8488 5.0558 98.163 144.0 -3.2896069 0.0
SAV-15-04 15 6 03/20/2015 19:13:44 2015-03-20T19:13:44Z 31.304607 -79.864475 19.0 27.75 49.362596 36.3492 19.8043 19.8007 1025.9288 25.8442 5.0511 98.04 133.0 -4.2271144 0.0
SAV-15-04 15 6 03/20/2015 19:13:44 2015-03-20T19:13:44Z 31.304607 -79.864475 20.0 29.211 49.335045 36.3491 19.7778 19.774 1025.9396 25.8511 5.0316 97.614 126.0 -4.6135661 0.0
SAV-15-04 15 6 03/20/2015 19:13:44 2015-03-20T19:13:44Z 31.304607 -79.864475 21.0 30.671 49.230014 36.3749 19.6472 19.6432 1026.0007 25.9052 5.0502 97.755 116.0 -4.4005722 0.0
SAV-15-04 15 6 03/20/2015 19:13:44 2015-03-20T19:13:44Z 31.304607 -79.864475 22.0 32.132 49.12775 36.3642 19.5616 19.5574 1026.0184 25.9195 5.0593 97.771 107.0 -4.5408016 0.0
SAV-15-04 15 6 03/20/2015 19:13:44 2015-03-20T19:13:44Z 31.304607 -79.864475 23.0 33.592 49.037622 36.3752 19.4626 19.4583 1026.0555 25.9539 5.0873 98.141 100.0 -4.4927277 0.0
SAV-15-04 15 6 03/20/2015 19:13:44 2015-03-20T19:13:44Z 31.304607 -79.864475 24.0 35.053 48.848056 36.4322 19.2158 19.2113 1026.1698 26.0617 5.1158 98.275 93.4 -4.7818928 0.0
SAV-15-04 15 6 03/20/2015 19:13:44 2015-03-20T19:13:44Z 31.304607 -79.864475 25.0 36.514 48.753331 36.4538 19.1004 19.0958 1026.2198 26.1081 5.1097 97.962 85.9 -4.640555 0.0
SAV-15-04 15 6 03/20/2015 19:13:44 2015-03-20T19:13:44Z 31.304607 -79.864475 26.0 37.974 48.611727 36.4498 18.9693 18.9646 1026.2537 26.1389 5.1092 97.712 80.2 -4.302511 0.0
SAV-15-04 15 6 03/20/2015 19:13:44 2015-03-20T19:13:44Z 31.304607 -79.864475 27.0 39.435 48.39177 36.4807 18.7232 18.7182 1026.3469 26.2257 5.1363 97.8 74.8 -4.6879702 0.0
SAV-15-04 15 6 03/20/2015 19:13:44 2015-03-20T19:13:44Z 31.304607 -79.864475 28.0 40.896 48.241527 36.4688 18.5924 18.5872 1026.3759 26.2499 5.1258 97.356 68.0 -3.9185054 0.0
SAV-15-04 15 6 03/20/2015 19:13:44 2015-03-20T19:13:44Z 31.304607 -79.864475 29.0 42.357 48.187163 36.457 18.5533 18.548 1026.3794 26.2508 5.1133 97.04 62.4 -4.3728297 0.0
SAV-15-04 15 6 03/20/2015 19:13:44 2015-03-20T19:13:44Z 31.304607 -79.864475 30.0 43.817 48.150001 36.4402 18.5361 18.5307 1026.3751 26.2424 5.1269 97.258 57.9 -3.1789195 0.0
SAV-15-04 15 6 03/20/2015 19:13:44 2015-03-20T19:13:44Z 31.304607 -79.864475 31.0 45.278 48.132782 36.44 18.5193 18.5137 1026.3854 26.2465 5.1379 97.436 52.7 -3.925232 0.0
SAV-15-04 15 6 03/20/2015 19:13:44 2015-03-20T19:13:44Z 31.304607 -79.864475 32.0 46.739 48.12204 36.4373 18.5116 18.5057 1026.3897 26.2465 5.1385 97.432 47.9 -4.0038735 0.0
SAV-15-04 15 6 03/20/2015 19:13:44 2015-03-20T19:13:44Z 31.304607 -79.864475 33.0 48.2 48.115393 36.436 18.5065 18.5005 1026.3926 26.2468 5.1464 97.571 43.8 -4.7431423 0.0
SAV-15-04 15 6 03/20/2015 19:13:44 2015-03-20T19:13:44Z 31.304607 -79.864475 34.0 49.661 48.09928 36.435 18.4916 18.4856 1026.3999 26.2498 5.1434 97.488 39.8 -4.3360271 0.0
SAV-15-04 15 6 03/20/2015 19:13:44 2015-03-20T19:13:44Z 31.304607 -79.864475 35.0 51.121 48.075328 36.4336 18.4696 18.4633 1026.4111 26.2544 5.1464 97.502 36.0 -4.2573266 0.0
SAV-15-04 15 6 03/20/2015 19:13:44 2015-03-20T19:13:44Z 31.304607 -79.864475 36.0 52.581 48.069737 36.4352 18.462 18.4554 1026.4192 26.2576 5.144 97.444 32.7 -4.3975928 0.0
SAV-15-04 15 6 03/20/2015 19:13:44 2015-03-20T19:13:44Z 31.304607 -79.864475 37.0 54.042 48.065307 36.4326 18.4603 18.4536 1026.4211 26.2561 5.1447 97.453 29.8 -4.4649349 0.0
SAV-15-04 15 6 03/20/2015 19:13:44 2015-03-20T19:13:44Z 31.304607 -79.864475 38.0 55.503 48.062912 36.4297 18.461 18.4542 1026.4207 26.2537 5.1358 97.285 27.3 -3.5427249 0.0
SAV-15-04 15 6 03/20/2015 19:13:44 2015-03-20T19:13:44Z 31.304607 -79.864475 39.0 56.963 48.061627 36.4298 18.4589 18.4519 1026.4285 26.2544 5.1364 97.293 24.3 -4.1486655 0.0
SAV-15-04 15 6 03/20/2015 19:13:44 2015-03-20T19:13:44Z 31.304607 -79.864475 40.0 58.424 48.057861 36.4289 18.456 18.4487 1026.4323 26.2545 5.1376 97.308 22.0 -4.3710171 0.0
SAV-15-04 15 6 03/20/2015 19:13:44 2015-03-20T19:13:44Z 31.304607 -79.864475 41.0 59.885 48.056328 36.4284 18.4548 18.4475 1026.4354 26.2544 5.1314 97.189 20.2 -3.8908488 0.0
SAV-15-04 15 6 03/20/2015 19:13:44 2015-03-20T19:13:44Z 31.304607 -79.864475 42.0 61.346 48.04673 36.43 18.4432 18.4357 1026.4445 26.2586 5.1272 97.089 18.6 -2.0977002 0.0
SAV-15-04 15 6 03/20/2015 19:13:44 2015-03-20T19:13:44Z 31.304607 -79.864475 43.0 62.807 48.042682 36.4285 18.4407 18.433 1026.4478 26.2581 5.1433 97.388 16.9 -3.6518403 0.0
SAV-15-04 15 6 03/20/2015 19:13:44 2015-03-20T19:13:44Z 31.304607 -79.864475 44.0 64.267 48.038717 36.4268 18.4384 18.4306 1026.451 26.2574 5.1355 97.235 15.4 -4.3907564 0.0
SAV-15-04 15 6 03/20/2015 19:13:44 2015-03-20T19:13:44Z 31.304607 -79.864475 45.0 65.728 48.038878 36.4268 18.4381 18.4301 1026.4562 26.2575 5.1325 97.179 13.9 -4.4080601 0.0
SAV-15-04 15 6 03/20/2015 19:13:44 2015-03-20T19:13:44Z 31.304607 -79.864475 46.0 67.189 48.038892 36.4259 18.4388 18.4306 1026.4586 26.2567 5.1209 96.96 12.8 -4.7221934 0.0
SAV-15-04 15 6 03/20/2015 19:13:44 2015-03-20T19:13:44Z 31.304607 -79.864475 47.0 68.65 48.039052 36.4257 18.4386 18.4302 1026.4634 26.2567 5.1261 97.057 11.7 -4.7976049 0.0
SAV-15-04 15 6 03/20/2015 19:13:44 2015-03-20T19:13:44Z 31.304607 -79.864475 48.0 70.111 48.035203 36.4236 18.4372 18.4288 1026.4633 26.2554 5.1364 97.249 10.8 -4.1652874 0.0
SAV-15-04 16 5 03/21/2015 11:38:39 2015-03-21T11:38:39Z 31.336719 -80.113415 2.0 2.922 49.07722 36.6839 19.1586 19.1584 1026.274 26.2678 8.4982 163.133 24.5 1.1581533 0.0
SAV-15-04 16 5 03/21/2015 11:38:39 2015-03-21T11:38:39Z 31.336719 -80.113415 3.0 4.381 48.719875 36.388 19.1529 19.1522 1026.0596 26.0432 5.1131 98.083 17.2 -1.842358 0.0
SAV-15-04 16 5 03/21/2015 11:38:39 2015-03-21T11:38:39Z 31.336719 -80.113415 4.0 5.842 48.720571 36.3882 19.1529 19.152 1026.0638 26.0435 5.1114 98.051 15.3 -0.9782687 0.0
SAV-15-04 16 5 03/21/2015 11:38:39 2015-03-21T11:38:39Z 31.336719 -80.113415 5.0 7.303 48.721266 36.3881 19.1533 19.1523 1026.0669 26.0433 5.1073 97.973 14.4 -0.6266401 0.0
SAV-15-04 16 5 03/21/2015 11:38:39 2015-03-21T11:38:39Z 31.336719 -80.113415 6.0 8.763 48.72217 36.3878 19.154 19.1528 1026.0722 26.0429 5.1041 97.914 13.2 -0.8269038 0.0
SAV-15-04 16 5 03/21/2015 11:38:39 2015-03-21T11:38:39Z 31.336719 -80.113415 7.0 10.224 48.723228 36.3885 19.1537 19.1523 1026.0782 26.0436 5.1088 98.002 11.9 -0.6456114 0.0
SAV-15-04 16 5 03/21/2015 11:38:39 2015-03-21T11:38:39Z 31.336719 -80.113415 8.0 11.684 48.723327 36.3884 19.1535 19.1519 1026.082 26.0436 5.102 97.873 10.8 -0.3952397 0.0
SAV-15-04 16 5 03/21/2015 11:38:39 2015-03-21T11:38:39Z 31.336719 -80.113415 9.0 13.144 48.723238 36.3883 19.1533 19.1515 1026.0848 26.0436 5.0909 97.659 9.83 -0.3667964 0.0
SAV-15-04 16 5 03/21/2015 11:38:39 2015-03-21T11:38:39Z 31.336719 -80.113415 10.0 14.605 48.725034 36.3883 19.1544 19.1525 1026.0894 26.0434 5.1094 98.015 9.57 -0.6197552 0.0
SAV-15-04 16 5 03/21/2015 11:38:39 2015-03-21T11:38:39Z 31.336719 -80.113415 11.0 16.066 48.726667 36.3879 19.1559 19.1537 1026.0944 26.0428 5.1106 98.041 8.89 -0.7293313 0.0
SAV-15-04 16 5 03/21/2015 11:38:39 2015-03-21T11:38:39Z 31.336719 -80.113415 12.0 17.526 48.722653 36.3956 19.1429 19.1405 1026.1078 26.0521 5.1032 97.88 8.39 -0.3394446 0.0
SAV-15-04 16 5 03/21/2015 11:38:39 2015-03-21T11:38:39Z 31.336719 -80.113415 13.0 18.987 48.704117 36.392 19.129 19.1266 1026.1117 26.0529 5.0908 97.615 7.91 -0.2079454 0.0
SAV-15-04 16 5 03/21/2015 11:38:39 2015-03-21T11:38:39Z 31.336719 -80.113415 14.0 20.447 48.6768 36.407 19.0853 19.0826 1026.1395 26.0757 5.1141 97.992 7.55 -0.0982033 0.0
SAV-15-04 16 5 03/21/2015 11:38:39 2015-03-21T11:38:39Z 31.336719 -80.113415 15.0 21.907 48.627215 36.4085 19.0356 19.0328 1026.1585 26.0898 5.1351 98.305 7.07 -0.8757553 0.0
SAV-15-04 16 5 03/21/2015 11:38:39 2015-03-21T11:38:39Z 31.336719 -80.113415 16.0 23.369 48.517019 36.4422 18.8915 18.8886 1026.225 26.1526 5.1357 98.073 6.66 0.0258036 0.0
SAV-15-04 16 5 03/21/2015 11:38:39 2015-03-21T11:38:39Z 31.336719 -80.113415 17.0 24.829 48.406779 36.4482 18.7789 18.7758 1026.2624 26.186 5.1272 97.71 6.3 -0.421225 0.0
SAV-15-04 16 5 03/21/2015 11:38:39 2015-03-21T11:38:39Z 31.336719 -80.113415 18.0 26.29 48.251735 36.4469 18.6313 18.6279 1026.3047 26.2228 5.1212 97.327 5.97 -0.6878532 0.0
SAV-15-04 16 5 03/21/2015 11:38:39 2015-03-21T11:38:39Z 31.336719 -80.113415 19.0 27.75 48.21535 36.4404 18.6033 18.5998 1026.3111 26.225 5.1253 97.351 5.54 -0.4461582 0.0
SAV-15-04 16 5 03/21/2015 11:38:39 2015-03-21T11:38:39Z 31.336719 -80.113415 20.0 29.211 48.172254 36.4397 18.5625 18.5588 1026.3247 26.2348 5.1347 97.453 5.11 -0.9482099 0.0
SAV-15-04 16 5 03/21/2015 11:38:39 2015-03-21T11:38:39Z 31.336719 -80.113415 21.0 30.671 48.147645 36.4349 18.5438 18.54 1026.3298 26.2359 5.1425 97.565 4.79 -1.4329965 0.0
SAV-15-04 16 5 03/21/2015 11:38:39 2015-03-21T11:38:39Z 31.336719 -80.113415 22.0 32.132 48.132759 36.4323 18.532 18.5279 1026.3363 26.237 5.1318 97.339 4.48 -0.5324028 0.0
SAV-15-04 16 5 03/21/2015 11:38:39 2015-03-21T11:38:39Z 31.336719 -80.113415 23.0 33.592 48.126313 36.431 18.5267 18.5224 1026.3412 26.2374 5.121 97.123 4.14 -0.4218136 0.0
SAV-15-04 16 5 03/21/2015 11:38:39 2015-03-21T11:38:39Z 31.336719 -80.113415 24.0 35.053 48.129069 36.4265 18.534 18.5297 1026.3399 26.2321 5.1322 97.347 3.79 -1.1369453 0.0
SAV-15-04 16 5 03/21/2015 11:38:39 2015-03-21T11:38:39Z 31.336719 -80.113415 25.0 36.514 48.12525 36.4282 18.5281 18.5236 1026.3461 26.235 5.1355 97.4 3.51 -0.4887954 0.0
SAV-15-04 16 5 03/21/2015 11:38:39 2015-03-21T11:38:39Z 31.336719 -80.113415 26.0 37.974 48.115336 36.4283 18.518 18.5133 1026.3545 26.2376 5.1344 97.36 3.27 -0.9759044 0.0
SAV-15-04 16 5 03/21/2015 11:38:39 2015-03-21T11:38:39Z 31.336719 -80.113415 27.0 39.436 48.114866 36.4269 18.5186 18.5136 1026.3581 26.2365 5.1313 97.302 3.02 -2.0173676 0.0
SAV-15-04 16 5 03/21/2015 11:38:39 2015-03-21T11:38:39Z 31.336719 -80.113415 28.0 40.896 48.112749 36.4268 18.5164 18.5113 1026.3621 26.237 5.1233 97.146 2.78 -1.6230699 0.0
SAV-15-04 16 5 03/21/2015 11:38:39 2015-03-21T11:38:39Z 31.336719 -80.113415 29.0 42.357 48.111497 36.4259 18.5158 18.5105 1026.3651 26.2365 5.1094 96.881 2.57 -1.0856836 0.0
SAV-15-04 16 5 03/21/2015 11:38:39 2015-03-21T11:38:39Z 31.336719 -80.113415 30.0 43.817 48.110457 36.4253 18.5149 18.5095 1026.3704 26.2363 5.1234 97.145 2.37 0.2166889 0.0
SAV-15-04 16 5 03/21/2015 11:38:39 2015-03-21T11:38:39Z 31.336719 -80.113415 31.0 45.278 48.110705 36.4251 18.515 18.5094 1026.3744 26.2362 5.1216 97.11 2.18 -1.0154313 0.0
SAV-15-04 16 5 03/21/2015 11:38:39 2015-03-21T11:38:39Z 31.336719 -80.113415 32.0 46.739 48.110159 36.4245 18.5146 18.5089 1026.3787 26.2359 5.1234 97.144 2.01 -0.4479773 0.0
SAV-15-04 16 5 03/21/2015 11:38:39 2015-03-21T11:38:39Z 31.336719 -80.113415 33.0 48.2 48.11053 36.4248 18.5143 18.5084 1026.3827 26.2362 5.1208 97.095 1.84 -0.5453327 0.0
SAV-15-04 16 5 03/21/2015 11:38:39 2015-03-21T11:38:39Z 31.336719 -80.113415 34.0 49.661 48.110661 36.424 18.5149 18.5087 1026.3868 26.2355 5.1371 97.403 1.72 -1.1318164 0.0
SAV-15-04 16 5 03/21/2015 11:38:39 2015-03-21T11:38:39Z 31.336719 -80.113415 35.0 51.121 48.110869 36.4237 18.515 18.5087 1026.391 26.2353 5.1324 97.314 1.6 0.0373643 0.0
SAV-15-04 16 5 03/21/2015 11:38:39 2015-03-21T11:38:39Z 31.336719 -80.113415 36.0 52.582 48.110736 36.4242 18.5139 18.5073 1026.3964 26.236 5.134 97.343 1.46 -0.3467237 0.0
SAV-15-04 16 5 03/21/2015 11:38:39 2015-03-21T11:38:39Z 31.336719 -80.113415 37.0 54.043 48.110531 36.4235 18.5141 18.5075 1026.3991 26.2354 5.1402 97.46 1.33 1.0707799 0.0
SAV-15-04 16 5 03/21/2015 11:38:39 2015-03-21T11:38:39Z 31.336719 -80.113415 38.0 55.503 48.111263 36.4229 18.5149 18.5081 1026.4034 26.2349 5.1305 97.277 1.23 0.7807988 0.0
SAV-15-04 16 5 03/21/2015 11:38:39 2015-03-21T11:38:39Z 31.336719 -80.113415 39.0 56.964 48.111615 36.4231 18.5147 18.5076 1026.4082 26.2351 5.1103 96.895 1.15 -0.4759117 0.0
SAV-15-04 16 5 03/21/2015 11:38:39 2015-03-21T11:38:39Z 31.336719 -80.113415 40.0 58.425 48.112453 36.4237 18.5143 18.507 1026.4136 26.2357 5.1249 97.17 1.07 -0.1237849 0.0
SAV-15-04 16 5 03/21/2015 11:38:39 2015-03-21T11:38:39Z 31.336719 -80.113415 41.0 59.886 48.112705 36.4226 18.5153 18.5079 1026.4168 26.2346 5.137 97.4 0.991 -0.1863776 0.0
SAV-15-04 16 5 03/21/2015 11:38:39 2015-03-21T11:38:39Z 31.336719 -80.113415 42.0 61.346 48.113772 36.4231 18.5155 18.5079 1026.4209 26.235 5.1256 97.186 0.921 -0.0028388 0.0
SAV-15-04 16 5 03/21/2015 11:38:39 2015-03-21T11:38:39Z 31.336719 -80.113415 43.0 62.806 48.113633 36.4223 18.5161 18.5085 1026.4208 26.2343 5.1203 97.085 0.87 -1.0531027 0.0
SAV-15-04 17 4 03/21/2015 13:25:13 2015-03-21T13:25:13Z 31.357388 -80.361986 2.0 2.921 48.143465 36.4348 18.5484 18.548 1026.2431 26.2338 4.8394 91.82 222.8 -4.2118892 0.0
SAV-15-04 17 4 03/21/2015 13:25:13 2015-03-21T13:25:13Z 31.357388 -80.361986 3.0 4.381 48.130673 36.4232 18.5486 18.548 1026.2402 26.2249 5.1739 98.162 171.31 -3.531769 0.0
SAV-15-04 17 4 03/21/2015 13:25:13 2015-03-21T13:25:13Z 31.357388 -80.361986 4.0 5.842 48.132272 36.4249 18.5477 18.5469 1026.2469 26.2265 5.1569 97.839 145.61 -3.4628564 0.0
SAV-15-04 17 4 03/21/2015 13:25:13 2015-03-21T13:25:13Z 31.357388 -80.361986 5.0 7.303 48.13218 36.4251 18.547 18.546 1026.2516 26.2269 5.1513 97.732 125.1 -4.9341865 0.0
SAV-15-04 17 4 03/21/2015 13:25:13 2015-03-21T13:25:13Z 31.357388 -80.361986 6.0 8.763 48.131223 36.4243 18.5465 18.5453 1026.2553 26.2265 5.1406 97.529 108.13 -4.4654253 0.0
SAV-15-04 17 4 03/21/2015 13:25:13 2015-03-21T13:25:13Z 31.357388 -80.361986 7.0 10.223 48.131876 36.4247 18.5462 18.5449 1026.2604 26.2269 5.1447 97.605 97.95 -4.4630896 0.0
SAV-15-04 17 4 03/21/2015 13:25:13 2015-03-21T13:25:13Z 31.357388 -80.361986 8.0 11.684 48.13187 36.4249 18.5456 18.544 1026.2651 26.2273 5.1447 97.604 90.338 -4.5656538 0.0
SAV-15-04 17 4 03/21/2015 13:25:13 2015-03-21T13:25:13Z 31.357388 -80.361986 9.0 13.145 48.131834 36.4244 18.5457 18.544 1026.269 26.2269 5.1422 97.557 79.045 -4.2079631 0.0
SAV-15-04 17 4 03/21/2015 13:25:13 2015-03-21T13:25:13Z 31.357388 -80.361986 10.0 14.605 48.132343 36.4245 18.5457 18.5438 1026.273 26.227 5.131 97.345 71.446 -4.6198712 0.0
SAV-15-04 17 4 03/21/2015 13:25:13 2015-03-21T13:25:13Z 31.357388 -80.361986 11.0 16.066 48.132058 36.4246 18.5448 18.5428 1026.2779 26.2273 5.1308 97.339 65.192 -4.1803468 0.0
SAV-15-04 17 4 03/21/2015 13:25:13 2015-03-21T13:25:13Z 31.357388 -80.361986 12.0 17.526 48.132484 36.4248 18.5445 18.5422 1026.2833 26.2276 5.1486 97.675 60.238 -4.3095334 0.0
SAV-15-04 17 4 03/21/2015 13:25:13 2015-03-21T13:25:13Z 31.357388 -80.361986 13.0 18.987 48.132593 36.4248 18.5442 18.5417 1026.2875 26.2278 5.1641 97.97 56.288 -4.2590673 0.0
SAV-15-04 17 4 03/21/2015 13:25:13 2015-03-21T13:25:13Z 31.357388 -80.361986 14.0 20.447 48.132216 36.4249 18.5433 18.5408 1026.292 26.228 5.1549 97.793 52.247 -4.1323556 0.0
SAV-15-04 17 4 03/21/2015 13:25:13 2015-03-21T13:25:13Z 31.357388 -80.361986 15.0 21.908 48.132641 36.425 18.5432 18.5405 1026.2961 26.2282 5.136 97.434 48.584 -3.8835963 0.0
SAV-15-04 17 4 03/21/2015 13:25:13 2015-03-21T13:25:13Z 31.357388 -80.361986 16.0 23.369 48.132781 36.4242 18.5438 18.5408 1026.2999 26.2275 5.1438 97.583 44.785 -4.8895078 0.0
SAV-15-04 17 4 03/21/2015 13:25:13 2015-03-21T13:25:13Z 31.357388 -80.361986 17.0 24.829 48.134421 36.4253 18.5436 18.5405 1026.3058 26.2285 5.1496 97.694 40.88 -4.8131701 0.0
SAV-15-04 17 4 03/21/2015 13:25:13 2015-03-21T13:25:13Z 31.357388 -80.361986 18.0 26.29 48.134351 36.425 18.5435 18.5401 1026.31 26.2283 5.147 97.643 37.471 -3.4593323 0.0
SAV-15-04 17 4 03/21/2015 13:25:13 2015-03-21T13:25:13Z 31.357388 -80.361986 19.0 27.75 48.13385 36.4249 18.5427 18.5392 1026.3139 26.2285 5.1483 97.668 34.737 -4.3239251 0.0
SAV-15-04 17 4 03/21/2015 13:25:13 2015-03-21T13:25:13Z 31.357388 -80.361986 20.0 29.211 48.134596 36.4261 18.5416 18.5379 1026.3197 26.2297 5.1447 97.598 32.239 -4.6831568 0.0
SAV-15-04 17 4 03/21/2015 13:25:13 2015-03-21T13:25:13Z 31.357388 -80.361986 21.0 30.671 48.129767 36.426 18.5367 18.5328 1026.3257 26.2309 5.1436 97.568 29.569 -4.7356675 0.0
SAV-15-04 17 4 03/21/2015 13:25:13 2015-03-21T13:25:13Z 31.357388 -80.361986 22.0 32.132 48.129983 36.4263 18.5361 18.5321 1026.3302 26.2313 5.1386 97.471 26.831 -4.5734938 0.0
SAV-15-04 17 4 03/21/2015 13:25:13 2015-03-21T13:25:13Z 31.357388 -80.361986 23.0 33.592 48.129958 36.4257 18.5364 18.5322 1026.3334 26.2309 5.146 97.612 24.674 -4.8937711 0.0
SAV-15-04 17 4 03/21/2015 13:25:13 2015-03-21T13:25:13Z 31.357388 -80.361986 24.0 35.053 48.130802 36.4253 18.5371 18.5327 1026.3381 26.2304 5.1291 97.293 22.54 -4.6549718 0.0
SAV-15-04 17 4 03/21/2015 13:25:13 2015-03-21T13:25:13Z 31.357388 -80.361986 25.0 36.514 48.130184 36.4268 18.5343 18.5298 1026.3446 26.2323 5.1397 97.49 20.524 -3.3510629 0.0
SAV-15-04 17 4 03/21/2015 13:25:13 2015-03-21T13:25:13Z 31.357388 -80.361986 26.0 37.975 48.126281 36.4267 18.5304 18.5256 1026.3496 26.2333 5.1441 97.565 18.618 -3.7826227 0.0
SAV-15-04 17 4 03/21/2015 13:25:13 2015-03-21T13:25:13Z 31.357388 -80.361986 27.0 39.436 48.126539 36.4269 18.53 18.5251 1026.3538 26.2336 5.1301 97.299 17.059 -4.8279033 0.0
SAV-15-04 17 4 03/21/2015 13:25:13 2015-03-21T13:25:13Z 31.357388 -80.361986 28.0 40.896 48.123696 36.4272 18.5263 18.5212 1026.3601 26.2348 5.1278 97.249 15.602 -4.2266875 0.0
SAV-15-04 17 4 03/21/2015 13:25:13 2015-03-21T13:25:13Z 31.357388 -80.361986 29.0 42.357 48.124994 36.427 18.5275 18.5222 1026.3638 26.2344 5.118 97.066 14.104 -4.8492342 0.0
SAV-15-04 17 4 03/21/2015 13:25:13 2015-03-21T13:25:13Z 31.357388 -80.361986 30.0 43.818 48.113851 36.4293 18.5137 18.5083 1026.3729 26.2397 5.1292 97.254 12.813 -4.7171822 0.0
SAV-15-04 17 4 03/21/2015 13:25:13 2015-03-21T13:25:13Z 31.357388 -80.361986 31.0 45.278 48.108634 36.4281 18.5096 18.504 1026.3782 26.2399 5.1399 97.449 11.695 -4.3629895 0.0
SAV-15-04 17 4 03/21/2015 13:25:13 2015-03-21T13:25:13Z 31.357388 -80.361986 32.0 46.739 48.108279 36.4277 18.5092 18.5035 1026.3826 26.2397 5.1423 97.493 10.644 -3.5937561 0.0
SAV-15-04 17 4 03/21/2015 13:25:13 2015-03-21T13:25:13Z 31.357388 -80.361986 33.0 48.2 48.107872 36.4274 18.5089 18.5029 1026.3863 26.2396 5.1347 97.349 9.6798 -3.5636829 0.0
SAV-15-04 17 4 03/21/2015 13:25:13 2015-03-21T13:25:13Z 31.357388 -80.361986 34.0 49.661 48.109016 36.4274 18.5095 18.5034 1026.3904 26.2394 5.1338 97.334 8.8338 -4.5016875 0.0
SAV-15-04 17 4 03/21/2015 13:25:13 2015-03-21T13:25:13Z 31.357388 -80.361986 35.0 51.121 48.108671 36.4274 18.5087 18.5023 1026.3955 26.2398 5.145 97.544 8.0314 -4.7425574 0.0
SAV-15-04 17 4 03/21/2015 13:25:13 2015-03-21T13:25:13Z 31.357388 -80.361986 36.0 52.582 48.109046 36.4275 18.5086 18.502 1026.3996 26.2398 5.148 97.601 7.2955 -4.3484042 0.0
SAV-15-04 17 4 03/21/2015 13:25:13 2015-03-21T13:25:13Z 31.357388 -80.361986 37.0 54.043 48.107778 36.4274 18.5071 18.5005 1026.4029 26.2402 5.1375 97.4 6.6708 -4.6920172 0.0
SAV-15-04 17 4 03/21/2015 13:25:13 2015-03-21T13:25:13Z 31.357388 -80.361986 38.0 55.503 48.108655 36.4266 18.5087 18.502 1026.4041 26.2392 5.1238 97.142 6.1847 -4.0599923 0.0
SAV-15-04 18 4 03/21/2015 14:03:45 2015-03-21T14:03:45Z 31.361937 -80.354307 2.0 2.921 64.711225 49.0727 18.5646 18.5643 1035.8587 35.8509 3.5439 75.532 395.0 -4.5425876 0.0
SAV-15-04 18 4 03/21/2015 14:03:45 2015-03-21T14:03:45Z 31.361937 -80.354307 3.0 4.381 48.150577 36.4244 18.5663 18.5656 1026.2373 26.2214 5.1939 98.575 314.0 -4.9632907 0.0
SAV-15-04 18 4 03/21/2015 14:03:45 2015-03-21T14:03:45Z 31.361937 -80.354307 4.0 5.842 48.146757 36.4295 18.5565 18.5556 1026.2487 26.2278 5.1579 97.877 262.0 -4.8995508 0.0
SAV-15-04 18 4 03/21/2015 14:03:45 2015-03-21T14:03:45Z 31.361937 -80.354307 5.0 7.303 48.1333 36.428 18.5448 18.5438 1026.2544 26.2297 5.1544 97.789 229.0 -4.4589972 0.0
SAV-15-04 18 4 03/21/2015 14:03:45 2015-03-21T14:03:45Z 31.361937 -80.354307 6.0 8.763 48.128616 36.4258 18.5423 18.5411 1026.2579 26.2287 5.1519 97.736 200.0 -3.8226481 0.0
SAV-15-04 18 4 03/21/2015 14:03:45 2015-03-21T14:03:45Z 31.361937 -80.354307 7.0 10.223 48.127602 36.4271 18.5394 18.538 1026.2644 26.2304 5.1446 97.592 178.0 -4.1946333 0.0
SAV-15-04 18 4 03/21/2015 14:03:45 2015-03-21T14:03:45Z 31.361937 -80.354307 8.0 11.684 48.125109 36.4272 18.5365 18.535 1026.2691 26.2313 5.1431 97.559 162.0 -4.4090038 0.0
SAV-15-04 18 4 03/21/2015 14:03:45 2015-03-21T14:03:45Z 31.361937 -80.354307 9.0 13.145 48.121213 36.427 18.5325 18.5307 1026.2748 26.2322 5.1384 97.461 148.0 -4.48641 0.0
SAV-15-04 18 4 03/21/2015 14:03:45 2015-03-21T14:03:45Z 31.361937 -80.354307 10.0 14.606 48.121247 36.4267 18.5325 18.5306 1026.279 26.232 5.1383 97.461 134.0 -4.5352554 0.0
SAV-15-04 18 4 03/21/2015 14:03:45 2015-03-21T14:03:45Z 31.361937 -80.354307 11.0 16.066 48.119613 36.4278 18.5293 18.5272 1026.2848 26.2337 5.1159 97.03 122.0 -4.6779146 0.0
SAV-15-04 18 4 03/21/2015 14:03:45 2015-03-21T14:03:45Z 31.361937 -80.354307 12.0 17.526 48.116584 36.4269 18.5269 18.5246 1026.2891 26.2337 5.1276 97.246 110.0 -4.5575747 0.0
SAV-15-04 18 4 03/21/2015 14:03:45 2015-03-21T14:03:45Z 31.361937 -80.354307 13.0 18.987 48.114499 36.4271 18.5241 18.5217 1026.2945 26.2347 5.1434 97.541 101.0 -4.0295082 0.0
SAV-15-04 18 4 03/21/2015 14:03:45 2015-03-21T14:03:45Z 31.361937 -80.354307 14.0 20.447 48.114496 36.4265 18.5245 18.5218 1026.2985 26.2341 5.1517 97.698 93.0 -4.4837491 0.0
SAV-15-04 18 4 03/21/2015 14:03:45 2015-03-21T14:03:45Z 31.361937 -80.354307 15.0 21.908 48.114827 36.4267 18.5241 18.5213 1026.3032 26.2344 5.1333 97.349 86.5 -3.7064768 0.0
SAV-15-04 18 4 03/21/2015 14:03:45 2015-03-21T14:03:45Z 31.361937 -80.354307 16.0 23.369 48.114778 36.4276 18.5226 18.5196 1026.3083 26.2355 5.1378 97.433 79.8 -3.4708915 0.0
SAV-15-04 18 4 03/21/2015 14:03:45 2015-03-21T14:03:45Z 31.361937 -80.354307 17.0 24.829 48.109607 36.4281 18.5166 18.5135 1026.3147 26.2375 5.1419 97.499 73.5 -4.4990165 0.0
SAV-15-04 18 4 03/21/2015 14:03:45 2015-03-21T14:03:45Z 31.361937 -80.354307 18.0 26.29 48.108994 36.4276 18.5162 18.5128 1026.3189 26.2372 5.1496 97.645 67.5 -4.763326 0.0
SAV-15-04 18 4 03/21/2015 14:03:45 2015-03-21T14:03:45Z 31.361937 -80.354307 19.0 27.751 48.107202 36.4275 18.5142 18.5107 1026.3235 26.2377 5.1545 97.733 62.2 -4.8446419 0.0
SAV-15-04 18 4 03/21/2015 14:03:45 2015-03-21T14:03:45Z 31.361937 -80.354307 20.0 29.211 48.107331 36.428 18.5132 18.5095 1026.3296 26.2384 5.1543 97.729 56.8 -4.8966981 0.0
SAV-15-04 18 4 03/21/2015 14:03:45 2015-03-21T14:03:45Z 31.361937 -80.354307 21.0 30.671 48.104166 36.4279 18.5099 18.5061 1026.334 26.2392 5.1498 97.638 52.9 -4.9064569 0.0
SAV-15-04 18 4 03/21/2015 14:03:45 2015-03-21T14:03:45Z 31.361937 -80.354307 22.0 32.132 48.100334 36.4288 18.5048 18.5008 1026.34 26.2412 5.1442 97.522 48.4 -3.9591435 0.0
SAV-15-04 18 4 03/21/2015 14:03:45 2015-03-21T14:03:45Z 31.361937 -80.354307 23.0 33.593 48.092217 36.4299 18.4953 18.4911 1026.348 26.2445 5.1341 97.315 44.2 -3.7117334 0.0
SAV-15-04 18 4 03/21/2015 14:03:45 2015-03-21T14:03:45Z 31.361937 -80.354307 24.0 35.053 48.081947 36.4303 18.4845 18.4801 1026.3556 26.2476 5.1423 97.45 40.3 -4.8528552 0.0
SAV-15-04 18 4 03/21/2015 14:03:45 2015-03-21T14:03:45Z 31.361937 -80.354307 25.0 36.514 48.079482 36.4279 18.4845 18.4799 1026.3584 26.2458 5.1412 97.427 36.8 -4.9002636 0.0
SAV-15-04 18 4 03/21/2015 14:03:45 2015-03-21T14:03:45Z 31.361937 -80.354307 26.0 37.975 48.079658 36.4312 18.4805 18.4758 1026.366 26.2494 5.1435 97.465 33.8 -4.9002636 0.0
SAV-15-04 18 4 03/21/2015 14:03:45 2015-03-21T14:03:45Z 31.361937 -80.354307 27.0 39.436 48.072691 36.429 18.4759 18.471 1026.3694 26.2489 5.1353 97.302 31.0 -4.6275092 0.0
SAV-15-04 18 4 03/21/2015 14:03:45 2015-03-21T14:03:45Z 31.361937 -80.354307 28.0 40.897 48.076018 36.4286 18.479 18.4739 1026.3736 26.2478 5.1131 96.886 28.3 -3.7318396 0.0
SAV-15-04 18 4 03/21/2015 14:03:45 2015-03-21T14:03:45Z 31.361937 -80.354307 29.0 42.357 48.073587 36.4289 18.476 18.4707 1026.3788 26.2488 5.1097 96.816 25.8 -3.545739 0.0
SAV-15-04 18 4 03/21/2015 14:03:45 2015-03-21T14:03:45Z 31.361937 -80.354307 30.0 43.818 48.071659 36.4285 18.4741 18.4686 1026.383 26.2491 5.1208 97.022 23.4 -3.5245281 0.0
SAV-15-04 18 4 03/21/2015 14:03:45 2015-03-21T14:03:45Z 31.361937 -80.354307 31.0 45.278 48.073194 36.4278 18.4759 18.4703 1026.3863 26.2482 5.1409 97.405 21.5 -3.180828 0.0
SAV-15-04 18 4 03/21/2015 14:03:45 2015-03-21T14:03:45Z 31.361937 -80.354307 32.0 46.739 48.074052 36.4283 18.4756 18.4698 1026.392 26.2487 5.1484 97.549 19.5 -3.4030483 0.0
SAV-15-04 18 4 03/21/2015 14:03:45 2015-03-21T14:03:45Z 31.361937 -80.354307 33.0 48.2 48.073084 36.4279 18.4748 18.4689 1026.396 26.2486 5.1496 97.569 17.8 -4.0155741 0.0
SAV-15-04 18 4 03/21/2015 14:03:45 2015-03-21T14:03:45Z 31.361937 -80.354307 34.0 49.66 48.069446 36.4294 18.4693 18.4632 1026.402 26.2511 5.1423 97.423 16.3 -4.3945182 0.0
SAV-15-04 18 4 03/21/2015 14:03:45 2015-03-21T14:03:45Z 31.361937 -80.354307 35.0 51.121 48.064361 36.4289 18.4644 18.4581 1026.4079 26.2521 5.1411 97.39 14.9 -4.9149644 0.0
SAV-15-04 18 4 03/21/2015 14:03:45 2015-03-21T14:03:45Z 31.361937 -80.354307 36.0 52.582 48.063812 36.4286 18.4638 18.4574 1026.4121 26.252 5.1448 97.46 13.5 -4.798801 0.0
SAV-15-04 18 4 03/21/2015 14:03:45 2015-03-21T14:03:45Z 31.361937 -80.354307 37.0 54.043 48.063282 36.4286 18.463 18.4563 1026.4163 26.2522 5.1392 97.35 12.4 -4.2491269 0.0
SAV-15-04 18 4 03/21/2015 14:03:45 2015-03-21T14:03:45Z 31.361937 -80.354307 38.0 55.503 48.062043 36.4284 18.4616 18.4549 1026.4203 26.2525 5.1301 97.177 11.3 -4.2214261 0.0
SAV-15-04 18 4 03/21/2015 14:03:45 2015-03-21T14:03:45Z 31.361937 -80.354307 39.0 56.964 48.053703 36.4276 18.4544 18.4475 1026.423 26.2537 5.133 97.217 10.0 -4.4575562 0.0
SAV-15-16 20 1 06/20/2015 17:53:45 2015-06-20T17:53:45Z 31.419 -81.119 2.0 2.921 56.370002 34.4127 28.936 28.9354 1021.6545 21.6447 4.5695 102.607 1500.0 -3.0236803 0.0
SAV-15-16 20 1 06/20/2015 17:53:45 2015-06-20T17:53:45Z 31.419 -81.119 3.0 4.381 56.289875 34.4719 28.7774 28.7766 1021.7559 21.7419 4.6136 103.37 1000.0 -3.8713431 0.0
SAV-15-16 20 1 06/20/2015 17:53:45 2015-06-20T17:53:45Z 31.419 -81.119 4.0 5.842 55.834422 34.4781 28.3342 28.3331 1021.9114 21.8931 4.6438 103.304 1010.0 -4.8491059 0.0
SAV-15-16 20 1 06/20/2015 17:53:45 2015-06-20T17:53:45Z 31.419 -81.119 5.0 7.303 55.797774 34.5475 28.2037 28.2024 1022.0107 21.9882 4.6735 103.783 823.0 -4.0090033 0.0
SAV-15-16 20 1 06/20/2015 17:53:45 2015-06-20T17:53:45Z 31.419 -81.119 6.0 8.763 55.777841 34.5834 28.1353 28.1338 1022.0644 22.0377 4.6816 103.867 676.0 -3.7169187 0.0
SAV-15-16 20 1 06/20/2015 17:53:45 2015-06-20T17:53:45Z 31.419 -81.119 7.0 10.224 55.770488 34.6183 28.0803 28.0785 1022.113 22.082 4.667 103.47 557.0 -3.3491075 0.0
SAV-15-16 20 1 06/20/2015 17:53:45 2015-06-20T17:53:45Z 31.419 -81.119 8.0 11.684 55.774577 34.6517 28.0382 28.0362 1022.1564 22.1209 4.6811 103.731 450.0 -4.6053978 0.0
SAV-15-16 20 1 06/20/2015 17:53:45 2015-06-20T17:53:45Z 31.419 -81.119 9.0 13.145 55.771588 34.6607 28.0228 28.0206 1022.1724 22.1328 4.6565 103.164 368.0 -4.2083337 0.0
SAV-15-16 20 1 06/20/2015 17:53:45 2015-06-20T17:53:45Z 31.419 -81.119 10.0 14.606 55.771165 34.6648 28.0167 28.0144 1022.1792 22.1379 4.6778 103.629 308.0 -4.2985149 0.0
SAV-15-16 21 1 06/20/2015 18:34:38 2015-06-20T18:34:38Z 31.42615 -81.11495 2.0 2.922 57.021295 34.4698 29.4768 29.4762 1021.5149 21.5063 6.4952 147.113 1660.0 -5.4966513 0.0
SAV-15-16 21 1 06/20/2015 18:34:38 2015-06-20T18:34:38Z 31.42615 -81.11495 3.0 4.381 56.815935 34.3903 29.3919 29.3911 1021.4893 21.4753 4.6407 104.969 1170.0 -2.8960895 0.0
SAV-15-16 21 1 06/20/2015 18:34:38 2015-06-20T18:34:38Z 31.42615 -81.11495 4.0 5.842 56.381799 34.5379 28.7735 28.7724 1021.8115 21.7928 4.6608 104.46 1010.0 -3.6137876 0.0
SAV-15-16 21 1 06/20/2015 18:34:38 2015-06-20T18:34:38Z 31.42615 -81.11495 5.0 7.303 55.886451 34.482 28.378 28.3767 1021.9044 21.8818 4.6785 104.152 761.0 -3.2290986 0.0
SAV-15-16 21 1 06/20/2015 18:34:38 2015-06-20T18:34:38Z 31.42615 -81.11495 6.0 8.763 55.823194 34.4886 28.3082 28.3067 1021.9365 21.9097 4.6964 104.436 626.0 -3.598833 0.0
SAV-15-16 21 1 06/20/2015 18:34:38 2015-06-20T18:34:38Z 31.42615 -81.11495 7.0 10.224 55.759677 34.495 28.2386 28.2369 1021.9669 21.9374 4.7028 104.463 486.0 -3.3482496 0.0
SAV-15-16 21 1 06/20/2015 18:34:38 2015-06-20T18:34:38Z 31.42615 -81.11495 8.0 11.684 55.764598 34.5492 28.1687 28.1668 1022.0351 22.0011 4.6962 104.229 383.0 -3.3878652 0.0
SAV-15-16 22 2 06/20/2015 20:42:55 2015-06-20T20:42:55Z 31.4043 -80.86785 2.0 2.921 56.090963 34.4561 28.6771 28.6767 1021.773 21.7657 4.4572 99.765 397.0 -3.4531382 0.0
SAV-15-16 22 2 06/20/2015 20:42:55 2015-06-20T20:42:55Z 31.4043 -80.86785 3.0 4.381 57.024799 35.0606 28.6649 28.664 1022.2372 22.2214 4.6508 104.354 315.0 -2.2242277 0.0
SAV-15-16 22 2 06/20/2015 20:42:55 2015-06-20T20:42:55Z 31.4043 -80.86785 4.0 5.842 56.947009 35.0602 28.5941 28.593 1022.264 22.2447 4.6524 104.271 319.0 -3.0453814 0.0
SAV-15-16 22 2 06/20/2015 20:42:55 2015-06-20T20:42:55Z 31.4043 -80.86785 5.0 7.303 56.895851 35.0642 28.5402 28.5388 1022.2888 22.2657 4.6789 104.775 380.0 -3.225124 0.0
SAV-15-16 22 2 06/20/2015 20:42:55 2015-06-20T20:42:55Z 31.4043 -80.86785 6.0 8.763 56.460588 35.1609 28.0005 27.999 1022.5432 22.5159 4.7121 104.652 254.0 -2.9641823 0.0
SAV-15-16 22 2 06/20/2015 20:42:55 2015-06-20T20:42:55Z 31.4043 -80.86785 7.0 10.224 56.16835 35.1063 27.7982 27.7964 1022.5735 22.541 4.7157 104.353 180.0 -3.8745899 0.0
SAV-15-16 22 2 06/20/2015 20:42:55 2015-06-20T20:42:55Z 31.4043 -80.86785 8.0 11.684 56.125336 35.0957 27.7715 27.7695 1022.5774 22.5418 4.7323 104.669 158.0 -3.6156111 0.0
SAV-15-16 22 2 06/20/2015 20:42:55 2015-06-20T20:42:55Z 31.4043 -80.86785 9.0 13.145 56.070874 35.0908 27.7263 27.724 1022.5933 22.5529 4.7386 104.727 133.0 -2.9173856 0.0
SAV-15-16 22 2 06/20/2015 20:42:55 2015-06-20T20:42:55Z 31.4043 -80.86785 10.0 14.605 56.021202 35.1332 27.6226 27.6202 1022.6628 22.6184 4.7476 104.771 127.0 -3.4563292 0.0
SAV-15-16 22 2 06/20/2015 20:42:55 2015-06-20T20:42:55Z 31.4043 -80.86785 11.0 16.066 55.878307 35.1979 27.4013 27.3985 1022.7886 22.7389 4.7611 104.727 118.0 -4.1060517 0.0
SAV-15-16 22 2 06/20/2015 20:42:55 2015-06-20T20:42:55Z 31.4043 -80.86785 12.0 17.526 55.853379 35.1886 27.3901 27.3872 1022.7881 22.7355 4.7097 103.571 111.0 -3.6225006 0.0
SAV-15-16 22 2 06/20/2015 20:42:55 2015-06-20T20:42:55Z 31.4043 -80.86785 13.0 18.987 55.819246 35.1988 27.3437 27.3406 1022.8163 22.7583 4.7474 104.326 102.0 -4.0447365 0.0
SAV-15-16 22 2 06/20/2015 20:42:55 2015-06-20T20:42:55Z 31.4043 -80.86785 14.0 20.447 55.804715 35.1992 27.3293 27.326 1022.8244 22.7632 4.7591 104.558 97.9 -3.6186581 0.0
SAV-15-16 22 2 06/20/2015 20:42:55 2015-06-20T20:42:55Z 31.4043 -80.86785 15.0 21.908 55.790775 35.2022 27.3117 27.3081 1022.8373 22.7713 4.7689 104.744 92.2 -4.3779775 0.0
SAV-15-16 22 2 06/20/2015 20:42:55 2015-06-20T20:42:55Z 31.4043 -80.86785 16.0 23.369 55.780978 35.2035 27.3003 27.2966 1022.8457 22.776 4.7521 104.358 86.9 -3.3251469 0.0
SAV-15-16 22 2 06/20/2015 20:42:55 2015-06-20T20:42:55Z 31.4043 -80.86785 17.0 24.829 55.767256 35.2041 27.2864 27.2824 1022.8532 22.781 4.7795 104.936 80.3 -3.6415246 0.0
SAV-15-16 22 2 06/20/2015 20:42:55 2015-06-20T20:42:55Z 31.4043 -80.86785 18.0 26.29 55.766886 35.2029 27.2873 27.2831 1022.856 22.7798 4.7853 105.064 77.7 -3.5178735 0.0
SAV-15-16 23 2 06/20/2015 21:36:32 2015-06-20T21:36:32Z 31.411883 -80.870633 2.0 2.921 57.002934 35.0423 28.6718 28.6713 1022.2152 22.2053 4.7177 105.857 132.0 -4.5506799 0.0
SAV-15-16 23 2 06/20/2015 21:36:32 2015-06-20T21:36:32Z 31.411883 -80.870633 3.0 4.381 56.964483 35.049 28.6261 28.6252 1022.2411 22.2256 4.6703 104.719 112.0 -3.869919 0.0
SAV-15-16 23 2 06/20/2015 21:36:32 2015-06-20T21:36:32Z 31.411883 -80.870633 4.0 5.842 56.917627 35.0422 28.5908 28.5897 1022.2514 22.2323 4.6697 104.641 107.0 -3.6334442 0.0
SAV-15-16 23 2 06/20/2015 21:36:32 2015-06-20T21:36:32Z 31.411883 -80.870633 5.0 7.303 56.711563 35.13 28.2785 28.2772 1022.4243 22.4012 4.6899 104.613 97.2 -3.4583252 0.0
SAV-15-16 23 2 06/20/2015 21:36:32 2015-06-20T21:36:32Z 31.411883 -80.870633 6.0 8.763 56.198669 35.1066 27.8268 27.8253 1022.5595 22.5319 4.6547 103.05 88.4 -5.0170836 0.0
SAV-15-16 23 2 06/20/2015 21:36:32 2015-06-20T21:36:32Z 31.411883 -80.870633 7.0 10.223 56.138176 35.0933 27.7872 27.7854 1022.5668 22.5349 4.6744 103.412 83.5 -4.4843193 0.0
SAV-15-16 23 2 06/20/2015 21:36:32 2015-06-20T21:36:32Z 31.411883 -80.870633 8.0 11.684 56.097023 35.0917 27.7502 27.7482 1022.5817 22.5457 4.7539 105.105 80.1 -4.2390132 0.0
SAV-15-16 23 2 06/20/2015 21:36:32 2015-06-20T21:36:32Z 31.411883 -80.870633 9.0 13.145 56.039832 35.0983 27.687 27.6848 1022.6117 22.5713 4.7495 104.905 76.7 -4.6770713 0.0
SAV-15-16 23 2 06/20/2015 21:36:32 2015-06-20T21:36:32Z 31.411883 -80.870633 10.0 14.605 55.932232 35.1608 27.5019 27.4994 1022.723 22.6784 4.7321 104.238 74.5 -4.8289321 0.0
SAV-15-16 23 2 06/20/2015 21:36:32 2015-06-20T21:36:32Z 31.411883 -80.870633 11.0 16.066 55.849319 35.1783 27.4002 27.3975 1022.7732 22.7245 4.7574 104.632 73.1 -4.6937516 0.0
SAV-15-16 23 2 06/20/2015 21:36:32 2015-06-20T21:36:32Z 31.411883 -80.870633 12.0 17.526 55.815284 35.1817 27.3632 27.3603 1022.792 22.739 4.7639 104.711 72.1 -4.1650124 0.0
SAV-15-16 23 2 06/20/2015 21:36:32 2015-06-20T21:36:32Z 31.411883 -80.870633 13.0 18.986 55.796323 35.1883 27.3362 27.333 1022.8105 22.7527 4.7319 103.967 70.0 -4.6109473 0.0
SAV-15-16 23 2 06/20/2015 21:36:32 2015-06-20T21:36:32Z 31.411883 -80.870633 14.0 20.447 55.782852 35.1917 27.3186 27.3152 1022.8231 22.761 4.7431 104.184 66.8 -4.706919 0.0
SAV-15-16 23 2 06/20/2015 21:36:32 2015-06-20T21:36:32Z 31.411883 -80.870633 15.0 21.908 55.777626 35.1933 27.3112 27.3076 1022.83 22.7647 4.759 104.522 65.9 -4.8269169 0.0
SAV-15-16 23 2 06/20/2015 21:36:32 2015-06-20T21:36:32Z 31.411883 -80.870633 16.0 23.369 55.766555 35.1989 27.2928 27.2889 1022.8453 22.7749 4.7845 105.054 61.8 -4.688749 0.0
SAV-15-16 23 2 06/20/2015 21:36:32 2015-06-20T21:36:32Z 31.411883 -80.870633 17.0 24.829 55.760941 35.2037 27.2808 27.2767 1022.8569 22.7825 4.7823 104.987 57.0 -4.4032178 0.0
SAV-15-16 23 2 06/20/2015 21:36:32 2015-06-20T21:36:32Z 31.411883 -80.870633 18.0 26.29 55.74617 35.2011 27.2702 27.266 1022.86 22.7839 4.7735 104.775 55.1 -4.241645 0.0
SAV-15-16 24 2 06/20/2015 23:14:39 2015-06-20T23:14:39Z 31.40435 -80.869267 2.0 2.921 75.996041 46.8337 28.6493 28.6488 1031.0236 31.0159 3.563 87.167 110.0 -3.7938785 0.0
SAV-15-16 24 2 06/20/2015 23:14:39 2015-06-20T23:14:39Z 31.40435 -80.869267 3.0 4.381 56.94718 35.0212 28.6475 28.6466 1022.2125 22.1977 3.3894 76.013 71.0 -4.5223626 0.0
SAV-15-16 24 2 06/20/2015 23:14:39 2015-06-20T23:14:39Z 31.40435 -80.869267 4.0 5.842 56.946629 35.0231 28.644 28.6429 1022.2194 22.2004 3.6327 81.467 59.6 -4.0011046 0.0
SAV-15-16 24 2 06/20/2015 23:14:39 2015-06-20T23:14:39Z 31.40435 -80.869267 5.0 7.303 56.946401 35.0219 28.6452 28.6438 1022.2217 22.1991 3.8695 86.778 55.6 2.5737006 0.0
SAV-15-16 24 2 06/20/2015 23:14:39 2015-06-20T23:14:39Z 31.40435 -80.869267 6.0 8.763 56.948114 35.0246 28.6426 28.6411 1022.2293 22.202 3.7265 83.568 49.2 5.1953854 0.0
SAV-15-16 24 2 06/20/2015 23:14:39 2015-06-20T23:14:39Z 31.40435 -80.869267 7.0 10.223 56.948833 35.0403 28.6216 28.6198 1022.2524 22.2209 3.4051 76.342 46.3 1.3495526 0.0
SAV-15-16 24 2 06/20/2015 23:14:39 2015-06-20T23:14:39Z 31.40435 -80.869267 8.0 11.684 56.955263 35.0465 28.6189 28.6169 1022.2621 22.2265 3.1836 71.374 43.0 0.194863 0.0
SAV-15-16 24 2 06/20/2015 23:14:39 2015-06-20T23:14:39Z 31.40435 -80.869267 9.0 13.145 56.948161 35.1368 28.4897 28.4875 1022.3771 22.3372 3.0293 67.806 41.0 -2.2834107 0.0
SAV-15-16 24 2 06/20/2015 23:14:39 2015-06-20T23:14:39Z 31.40435 -80.869267 10.0 14.605 56.931955 35.3987 28.1236 28.1211 1022.6988 22.6547 3.3048 73.632 39.5 -4.8442914 0.0
SAV-15-16 24 2 06/20/2015 23:14:39 2015-06-20T23:14:39Z 31.40435 -80.869267 11.0 16.066 56.850717 35.5395 27.8599 27.8572 1022.8958 22.8471 3.9387 87.455 37.5 -4.9998434 0.0
SAV-15-16 24 2 06/20/2015 23:14:39 2015-06-20T23:14:39Z 31.40435 -80.869267 12.0 17.526 56.412989 35.3616 27.6859 27.683 1022.8224 22.7699 4.234 93.652 35.6 -4.8199004 0.0
SAV-15-16 24 2 06/20/2015 23:14:39 2015-06-20T23:14:39Z 31.40435 -80.869267 13.0 18.987 55.935897 35.2136 27.434 27.4308 1022.7976 22.7403 4.706 103.578 31.7 -4.3253338 0.0
SAV-15-16 24 2 06/20/2015 23:14:39 2015-06-20T23:14:39Z 31.40435 -80.869267 14.0 20.447 55.875862 35.2221 27.3659 27.3625 1022.8301 22.7687 4.849 106.611 28.2 -4.8359944 0.0
SAV-15-16 24 2 06/20/2015 23:14:39 2015-06-20T23:14:39Z 31.40435 -80.869267 15.0 21.908 55.840398 35.2274 27.325 27.3215 1022.8512 22.786 4.7793 105.012 26.1 -4.8520575 0.0
SAV-15-16 24 2 06/20/2015 23:14:39 2015-06-20T23:14:39Z 31.40435 -80.869267 16.0 23.369 55.813524 35.2301 27.2959 27.292 1022.8672 22.7974 4.7453 104.215 23.1 -4.9613765 0.0
SAV-15-16 24 2 06/20/2015 23:14:39 2015-06-20T23:14:39Z 31.40435 -80.869267 17.0 24.829 55.804226 35.2301 27.2867 27.2826 1022.8749 22.8004 4.7579 104.478 19.7 -4.5803871 0.0
SAV-15-16 24 2 06/20/2015 23:14:39 2015-06-20T23:14:39Z 31.40435 -80.869267 18.0 26.29 55.800703 35.2275 27.2863 27.282 1022.8776 22.7987 4.7475 104.247 16.8 -4.3159161 0.0
SAV-15-16 24 2 06/20/2015 23:14:39 2015-06-20T23:14:39Z 31.40435 -80.869267 19.0 27.75 55.798446 35.2226 27.2905 27.2861 1022.8743 22.7937 4.7464 104.226 15.4 -4.2266077 0.0
SAV-15-16 25 3 06/21/2015 12:02:35 2015-06-21T12:02:35Z 31.3802 -80.61485 2.0 2.921 56.146187 35.2646 27.5688 27.5683 1022.7427 22.7342 3.8009 83.867 130.0 -1.4952781 0.0
SAV-15-16 25 3 06/21/2015 12:02:35 2015-06-21T12:02:35Z 31.3802 -80.61485 3.0 4.381 56.14749 35.2665 27.567 27.5663 1022.7495 22.7363 4.8558 107.141 115.0 -1.945225 0.0
SAV-15-16 25 3 06/21/2015 12:02:35 2015-06-21T12:02:35Z 31.3802 -80.61485 4.0 5.842 56.144517 35.2665 27.5636 27.5626 1022.7569 22.7375 4.5811 101.074 97.5 -0.6444232 0.0
SAV-15-16 25 3 06/21/2015 12:02:35 2015-06-21T12:02:35Z 31.3802 -80.61485 5.0 7.303 56.144748 35.2668 27.563 27.5617 1022.7615 22.738 4.5729 100.894 79.9 -0.8542412 0.0
SAV-15-16 25 3 06/21/2015 12:02:35 2015-06-21T12:02:35Z 31.3802 -80.61485 6.0 8.763 56.144676 35.2668 27.5626 27.5611 1022.7656 22.7382 4.5864 101.19 76.4 -1.2415859 0.0
SAV-15-16 25 3 06/21/2015 12:02:35 2015-06-21T12:02:35Z 31.3802 -80.61485 7.0 10.223 56.144547 35.2665 27.5624 27.5606 1022.7704 22.7381 4.5619 100.648 66.5 -0.7777979 0.0
SAV-15-16 25 3 06/21/2015 12:02:35 2015-06-21T12:02:35Z 31.3802 -80.61485 8.0 11.684 56.145101 35.2672 27.5616 27.5596 1022.7749 22.739 4.5213 99.754 61.2 -2.2287994 0.0
SAV-15-16 25 3 06/21/2015 12:02:35 2015-06-21T12:02:35Z 31.3802 -80.61485 9.0 13.145 56.144333 35.2703 27.5564 27.5542 1022.7836 22.743 4.5636 100.679 53.9 -1.895923 0.0
SAV-15-16 25 3 06/21/2015 12:02:35 2015-06-21T12:02:35Z 31.3802 -80.61485 10.0 14.605 56.143373 35.2776 27.5454 27.5429 1022.7967 22.7522 4.5714 100.838 50.5 -1.8910966 0.0
SAV-15-16 25 3 06/21/2015 12:02:35 2015-06-21T12:02:35Z 31.3802 -80.61485 11.0 16.066 56.127762 35.3177 27.4772 27.4745 1022.8538 22.8045 4.5635 100.572 44.8 -2.3620885 0.0
SAV-15-16 25 3 06/21/2015 12:02:35 2015-06-21T12:02:35Z 31.3802 -80.61485 12.0 17.526 56.106245 35.356 27.4061 27.4032 1022.909 22.8564 4.55 100.18 44.1 -2.1151364 0.0
SAV-15-16 25 3 06/21/2015 12:02:35 2015-06-21T12:02:35Z 31.3802 -80.61485 13.0 18.987 56.059918 35.4416 27.2492 27.246 1023.0301 22.9715 4.5619 100.229 39.3 -2.6226403 0.0
SAV-15-16 25 3 06/21/2015 12:02:35 2015-06-21T12:02:35Z 31.3802 -80.61485 14.0 20.447 56.025935 35.4862 27.1587 27.1554 1023.0955 23.0342 4.6176 101.329 37.5 -1.0985147 0.0
SAV-15-16 25 3 06/21/2015 12:02:35 2015-06-21T12:02:35Z 31.3802 -80.61485 15.0 21.908 55.955942 35.6107 26.9303 26.9267 1023.2672 23.2012 4.634 101.376 36.7 -2.3113148 0.0
SAV-15-16 25 3 06/21/2015 12:02:35 2015-06-21T12:02:35Z 31.3802 -80.61485 16.0 23.369 55.871001 35.6857 26.7529 26.7491 1023.3845 23.3145 4.6278 100.986 32.9 -2.2546541 0.0
SAV-15-16 25 3 06/21/2015 12:02:35 2015-06-21T12:02:35Z 31.3802 -80.61485 17.0 24.829 55.851774 35.6872 26.7326 26.7286 1023.3963 23.3221 4.6377 101.169 32.4 -1.5305491 0.0
SAV-15-16 25 3 06/21/2015 12:02:35 2015-06-21T12:02:35Z 31.3802 -80.61485 18.0 26.29 55.84671 35.684 26.7316 26.7273 1023.3992 23.3201 4.6244 100.875 29.4 -2.2148613 0.0
SAV-15-16 25 3 06/21/2015 12:02:35 2015-06-21T12:02:35Z 31.3802 -80.61485 19.0 27.75 55.843982 35.6827 26.7304 26.7259 1023.4025 23.3196 4.6268 100.923 27.2 -2.4721875 0.0
SAV-15-16 25 3 06/21/2015 12:02:35 2015-06-21T12:02:35Z 31.3802 -80.61485 20.0 29.211 55.841221 35.6809 26.7296 26.725 1023.4054 23.3185 4.6238 100.855 25.9 -1.994041 0.0
SAV-15-16 25 3 06/21/2015 12:02:35 2015-06-21T12:02:35Z 31.3802 -80.61485 21.0 30.672 55.839553 35.6793 26.7296 26.7247 1023.4098 23.3174 4.6412 101.235 23.4 -3.8462668 0.0
SAV-15-16 25 3 06/21/2015 12:02:35 2015-06-21T12:02:35Z 31.3802 -80.61485 22.0 32.132 55.840116 35.6795 26.7296 26.7245 1023.4129 23.3176 4.6378 101.162 21.9 -2.2213079 0.0
SAV-15-16 25 3 06/21/2015 12:02:35 2015-06-21T12:02:35Z 31.3802 -80.61485 23.0 33.593 55.839146 35.6783 26.7297 26.7243 1023.4172 23.3168 4.6492 101.408 20.6 -1.7846088 0.0
SAV-15-16 25 3 06/21/2015 12:02:35 2015-06-21T12:02:35Z 31.3802 -80.61485 24.0 35.054 55.837145 35.6767 26.7298 26.7244 1023.4178 23.3156 4.6368 101.139 18.9 -2.4648366 0.0
SAV-15-16 26 3 06/21/2015 14:56:57 2015-06-21T14:56:57Z 31.381917 -80.615333 2.0 2.921 56.298745 35.2134 27.7802 27.7797 1022.636 22.627 3.9434 87.291 263.0 2.7480242 0.0
SAV-15-16 26 3 06/21/2015 14:56:57 2015-06-21T14:56:57Z 31.381917 -80.615333 3.0 4.381 56.359704 35.2473 27.7915 27.7906 1022.6647 22.649 4.6433 102.819 197.0 -0.5540488 0.0
SAV-15-16 26 3 06/21/2015 14:56:57 2015-06-21T14:56:57Z 31.381917 -80.615333 4.0 5.842 56.347605 35.2471 27.7802 27.7792 1022.6714 22.6525 4.556 100.868 175.0 -0.5069306 0.0
SAV-15-16 26 3 06/21/2015 14:56:57 2015-06-21T14:56:57Z 31.381917 -80.615333 5.0 7.303 56.319075 35.2485 27.7511 27.7498 1022.6865 22.6632 4.5479 100.641 183.0 -0.976984 0.0
SAV-15-16 26 3 06/21/2015 14:56:57 2015-06-21T14:56:57Z 31.381917 -80.615333 6.0 8.763 56.267029 35.2497 27.7002 27.6986 1022.7089 22.6807 4.5673 100.988 165.0 -0.5378232 0.0
SAV-15-16 26 3 06/21/2015 14:56:57 2015-06-21T14:56:57Z 31.381917 -80.615333 7.0 10.223 56.248478 35.246 27.6874 27.6856 1022.714 22.6821 4.5827 101.304 175.0 -0.1939451 0.0
SAV-15-16 26 3 06/21/2015 14:56:57 2015-06-21T14:56:57Z 31.381917 -80.615333 8.0 11.684 56.210197 35.261 27.631 27.629 1022.7479 22.7118 4.5604 100.728 192.0 0.1483929 0.0
SAV-15-16 26 3 06/21/2015 14:56:57 2015-06-21T14:56:57Z 31.381917 -80.615333 9.0 13.145 56.196398 35.2735 27.6011 27.5988 1022.772 22.731 4.5451 100.346 147.0 -0.6338624 0.0
SAV-15-16 26 3 06/21/2015 14:56:57 2015-06-21T14:56:57Z 31.381917 -80.615333 10.0 14.605 56.190266 35.2847 27.5801 27.5777 1022.7905 22.7463 4.561 100.668 137.0 -0.310729 0.0
SAV-15-16 26 3 06/21/2015 14:56:57 2015-06-21T14:56:57Z 31.381917 -80.615333 11.0 16.066 56.164801 35.3375 27.4858 27.4831 1022.8661 22.8166 4.5623 100.571 153.0 -0.471465 0.0
SAV-15-16 26 3 06/21/2015 14:56:57 2015-06-21T14:56:57Z 31.381917 -80.615333 12.0 17.526 56.138385 35.3887 27.3929 27.3899 1022.9391 22.8853 4.5307 99.751 118.0 -0.4037669 0.0
SAV-15-16 26 3 06/21/2015 14:56:57 2015-06-21T14:56:57Z 31.381917 -80.615333 13.0 18.987 56.115961 35.4088 27.3451 27.342 1022.9728 22.9159 4.5793 100.752 122.0 -1.0152264 0.0
SAV-15-16 26 3 06/21/2015 14:56:57 2015-06-21T14:56:57Z 31.381917 -80.615333 14.0 20.447 56.080843 35.4704 27.2307 27.2273 1023.0616 22.9992 4.6009 101.073 124.0 -0.9654731 0.0
SAV-15-16 26 3 06/21/2015 14:56:57 2015-06-21T14:56:57Z 31.381917 -80.615333 15.0 21.908 55.944459 35.7058 26.7957 26.7921 1023.3824 23.3159 4.6185 100.865 96.9 -1.1352384 0.0
SAV-15-16 26 3 06/21/2015 14:56:57 2015-06-21T14:56:57Z 31.381917 -80.615333 16.0 23.369 55.880091 35.7051 26.7363 26.7325 1023.4041 23.3343 4.6341 101.105 102.0 -0.6873593 0.0
SAV-15-16 26 3 06/21/2015 14:56:57 2015-06-21T14:56:57Z 31.381917 -80.615333 17.0 24.83 55.849216 35.7257 26.6803 26.6762 1023.4434 23.3678 4.6516 101.404 91.4 0.642423 0.0
SAV-15-16 26 3 06/21/2015 14:56:57 2015-06-21T14:56:57Z 31.381917 -80.615333 18.0 26.29 55.83936 35.7261 26.6702 26.666 1023.4505 23.3714 4.6555 101.474 82.8 0.7878314 0.0
SAV-15-16 26 3 06/21/2015 14:56:57 2015-06-21T14:56:57Z 31.381917 -80.615333 19.0 27.75 55.831987 35.7255 26.6637 26.6593 1023.4556 23.373 4.6445 101.223 84.2 -0.1548297 0.0
SAV-15-16 26 3 06/21/2015 14:56:57 2015-06-21T14:56:57Z 31.381917 -80.615333 20.0 29.211 55.825516 35.7269 26.6553 26.6505 1023.4656 23.3769 4.6363 101.029 79.2 -2.1262215 0.0
SAV-15-16 26 3 06/21/2015 14:56:57 2015-06-21T14:56:57Z 31.381917 -80.615333 21.0 30.671 55.825305 35.7253 26.6569 26.6521 1023.4663 23.3751 4.6369 101.045 73.9 -1.6849278 0.0
SAV-15-16 26 3 06/21/2015 14:56:57 2015-06-21T14:56:57Z 31.381917 -80.615333 22.0 32.132 55.823737 35.7231 26.6578 26.6526 1023.4696 23.3734 4.6402 101.117 72.6 -1.0466313 0.0
SAV-15-16 26 3 06/21/2015 14:56:57 2015-06-21T14:56:57Z 31.381917 -80.615333 23.0 33.593 55.822608 35.7231 26.6563 26.6509 1023.4745 23.3739 4.6346 100.993 66.6 -1.1649478 0.0
SAV-15-16 26 3 06/21/2015 14:56:57 2015-06-21T14:56:57Z 31.381917 -80.615333 24.0 35.054 55.82237 35.7249 26.6535 26.6479 1023.4796 23.3762 4.6581 101.501 62.7 -0.3846884 0.0
SAV-15-16 26 3 06/21/2015 14:56:57 2015-06-21T14:56:57Z 31.381917 -80.615333 25.0 36.515 55.815915 35.7208 26.6525 26.6469 1023.4792 23.3735 4.6402 101.107 62.4 -0.5876026 0.0
SAV-15-16 27 4 06/21/2015 16:55:11 2015-06-21T16:55:11Z 31.36005 -80.365833 2.0 2.921 56.832833 35.0919 28.4449 28.4444 1022.3265 22.3177 3.9289 87.859 688.0 0.83865 0.0
SAV-15-16 27 4 06/21/2015 16:55:11 2015-06-21T16:55:11Z 31.36005 -80.365833 3.0 4.381 56.877266 35.0853 28.4951 28.4942 1022.3111 22.2962 4.4591 99.792 492.0 0.3511676 0.0
SAV-15-16 27 4 06/21/2015 16:55:11 2015-06-21T16:55:11Z 31.36005 -80.365833 4.0 5.842 56.836597 35.0946 28.4439 28.4428 1022.3395 22.3202 4.4795 100.17 1460.0 0.1356018 0.0
SAV-15-16 27 4 06/21/2015 16:55:11 2015-06-21T16:55:11Z 31.36005 -80.365833 5.0 7.303 56.790275 35.0936 28.4013 28.4 1022.3567 22.3337 4.4763 100.03 981.0 0.184518 0.0
SAV-15-16 27 4 06/21/2015 16:55:11 2015-06-21T16:55:11Z 31.36005 -80.365833 6.0 8.763 56.704344 35.0938 28.3198 28.3182 1022.3885 22.3607 4.4344 98.959 1090.0 0.2948747 0.0
SAV-15-16 27 4 06/21/2015 16:55:11 2015-06-21T16:55:11Z 31.36005 -80.365833 7.0 10.223 56.695188 35.0904 28.3154 28.3136 1022.3922 22.3597 4.477 99.901 843.0 0.7252592 0.0
SAV-15-16 27 4 06/21/2015 16:55:11 2015-06-21T16:55:11Z 31.36005 -80.365833 8.0 11.684 56.673756 35.0885 28.2974 28.2954 1022.3998 22.3643 4.4773 99.879 836.0 1.1653467 0.0
SAV-15-16 27 4 06/21/2015 16:55:11 2015-06-21T16:55:11Z 31.36005 -80.365833 9.0 13.145 56.661293 35.0878 28.2862 28.2839 1022.4084 22.3676 4.4845 100.021 805.0 0.4201448 0.0
SAV-15-16 27 4 06/21/2015 16:55:11 2015-06-21T16:55:11Z 31.36005 -80.365833 10.0 14.605 56.591585 35.1205 28.1763 28.1738 1022.4725 22.4283 4.4687 99.508 724.0 -0.3253313 0.0
SAV-15-16 27 4 06/21/2015 16:55:11 2015-06-21T16:55:11Z 31.36005 -80.365833 11.0 16.066 56.477144 35.1551 28.022 28.0192 1022.5539 22.505 4.4471 98.795 592.0 0.7837431 0.0
SAV-15-16 27 4 06/21/2015 16:55:11 2015-06-21T16:55:11Z 31.36005 -80.365833 12.0 17.527 56.415882 35.167 27.9479 27.9448 1022.5924 22.5382 4.4882 99.595 558.0 0.2481672 0.0
SAV-15-16 27 4 06/21/2015 16:55:11 2015-06-21T16:55:11Z 31.36005 -80.365833 13.0 18.987 56.399138 35.1681 27.9304 27.9272 1022.6017 22.5449 4.5137 100.134 529.0 0.4374838 0.0
SAV-15-16 27 4 06/21/2015 16:55:11 2015-06-21T16:55:11Z 31.36005 -80.365833 14.0 20.447 56.345096 35.2036 27.8316 27.8282 1022.6662 22.6039 4.5253 100.248 480.0 -1.0762691 0.0
SAV-15-16 27 4 06/21/2015 16:55:11 2015-06-21T16:55:11Z 31.36005 -80.365833 15.0 21.908 56.232114 35.2691 27.6382 27.6345 1022.7814 22.7161 4.495 99.299 442.0 -0.6448063 0.0
SAV-15-16 27 4 06/21/2015 16:55:11 2015-06-21T16:55:11Z 31.36005 -80.365833 16.0 23.369 55.61382 35.8443 26.3097 26.3059 1023.6449 23.5737 4.5774 99.237 400.0 0.2254991 0.0
SAV-15-16 27 4 06/21/2015 16:55:11 2015-06-21T16:55:11Z 31.36005 -80.365833 17.0 24.829 55.164512 35.9313 25.7786 25.7746 1023.8814 23.8063 4.5411 97.631 343.0 1.5102615 0.0
SAV-15-16 27 4 06/21/2015 16:55:11 2015-06-21T16:55:11Z 31.36005 -80.365833 18.0 26.29 55.086213 35.9002 25.7445 25.7404 1023.872 23.7936 4.5244 97.199 333.0 0.1785201 0.0
SAV-15-16 27 4 06/21/2015 16:55:11 2015-06-21T16:55:11Z 31.36005 -80.365833 19.0 27.75 55.053261 35.9491 25.6513 25.647 1023.9427 23.8596 4.5991 98.675 303.0 -0.6744889 0.0
SAV-15-16 27 4 06/21/2015 16:55:11 2015-06-21T16:55:11Z 31.36005 -80.365833 20.0 29.211 55.097493 36.0239 25.5974 25.5928 1024.0205 23.9329 4.5774 98.162 273.0 0.3573616 0.0
SAV-15-16 27 4 06/21/2015 16:55:11 2015-06-21T16:55:11Z 31.36005 -80.365833 21.0 30.671 55.120426 36.0505 25.5847 25.5799 1024.0493 23.957 4.5661 97.914 244.0 -0.2554761 0.0
SAV-15-16 27 4 06/21/2015 16:55:11 2015-06-21T16:55:11Z 31.36005 -80.365833 22.0 32.132 55.123949 36.0548 25.5822 25.5772 1024.057 23.9611 4.5749 98.101 232.0 -0.6907978 0.0
SAV-15-16 27 4 06/21/2015 16:55:11 2015-06-21T16:55:11Z 31.36005 -80.365833 23.0 33.593 55.129732 36.0634 25.5763 25.571 1024.071 23.9695 4.581 98.227 224.0 -1.6783406 0.0
SAV-15-16 27 4 06/21/2015 16:55:11 2015-06-21T16:55:11Z 31.36005 -80.365833 24.0 35.053 55.127814 36.0615 25.5766 25.5712 1024.072 23.968 4.5881 98.38 192.0 0.0215873 0.0
SAV-15-16 27 4 06/21/2015 16:55:11 2015-06-21T16:55:11Z 31.36005 -80.365833 25.0 36.514 55.128446 36.0633 25.5744 25.5687 1024.0792 23.9701 4.5999 98.629 179.0 1.0281401 0.0
SAV-15-16 27 4 06/21/2015 16:55:11 2015-06-21T16:55:11Z 31.36005 -80.365833 26.0 37.975 55.127318 36.063 25.5734 25.5675 1024.0833 23.9702 4.5756 98.107 159.0 -1.4060481 0.0
SAV-15-16 27 4 06/21/2015 16:55:11 2015-06-21T16:55:11Z 31.36005 -80.365833 27.0 39.436 55.127763 36.0621 25.5746 25.5685 1024.0858 23.9693 4.5781 98.162 150.0 -0.7265976 0.0
SAV-15-16 27 4 06/21/2015 16:55:11 2015-06-21T16:55:11Z 31.36005 -80.365833 28.0 40.897 55.126066 36.0612 25.5737 25.5674 1024.0894 23.969 4.5865 98.341 140.0 -0.2397247 0.0
SAV-15-16 27 4 06/21/2015 16:55:11 2015-06-21T16:55:11Z 31.36005 -80.365833 29.0 42.357 55.125822 36.0625 25.5713 25.5648 1024.0966 23.9708 4.5514 97.583 124.0 -0.0084032 0.0
SAV-15-16 27 4 06/21/2015 16:55:11 2015-06-21T16:55:11Z 31.36005 -80.365833 30.0 43.818 55.127413 36.0629 25.572 25.5653 1024.0999 23.9709 4.5583 97.733 117.0 0.3806753 0.0
SAV-15-16 27 4 06/21/2015 16:55:11 2015-06-21T16:55:11Z 31.36005 -80.365833 31.0 45.278 55.123967 36.0602 25.5719 25.565 1024.1014 23.9689 4.572 98.026 105.0 -0.7362761 0.0
SAV-15-16 27 4 06/21/2015 16:55:11 2015-06-21T16:55:11Z 31.36005 -80.365833 32.0 46.739 55.122149 36.0585 25.5717 25.5645 1024.1064 23.9678 4.5798 98.191 99.6 0.4856182 0.0
SAV-15-16 27 4 06/21/2015 16:55:11 2015-06-21T16:55:11Z 31.36005 -80.365833 33.0 48.2 55.122899 36.0586 25.572 25.5646 1024.11 23.9679 4.5694 97.97 90.0 -0.295332 0.0
SAV-15-16 27 4 06/21/2015 16:55:11 2015-06-21T16:55:11Z 31.36005 -80.365833 34.0 49.66 55.122918 36.0581 25.5721 25.5645 1024.1141 23.9676 4.5588 97.742 82.0 -1.3222706 0.0
SAV-15-16 27 4 06/21/2015 16:55:11 2015-06-21T16:55:11Z 31.36005 -80.365833 35.0 51.121 55.123499 36.0581 25.5723 25.5645 1024.118 23.9675 4.5745 98.079 78.4 -0.0508483 0.0
SAV-15-16 27 4 06/21/2015 16:55:11 2015-06-21T16:55:11Z 31.36005 -80.365833 36.0 52.582 55.124839 36.0587 25.5724 25.5643 1024.1231 23.968 4.5603 97.774 71.3 -0.8890001 0.0
SAV-15-16 27 4 06/21/2015 16:55:11 2015-06-21T16:55:11Z 31.36005 -80.365833 37.0 54.043 55.125602 36.0586 25.573 25.5647 1024.1267 23.9678 4.5752 98.095 66.2 -0.9454497 0.0
SAV-15-16 27 4 06/21/2015 16:55:11 2015-06-21T16:55:11Z 31.36005 -80.365833 38.0 55.503 55.131398 36.0581 25.5787 25.5703 1024.1268 23.9657 4.5727 98.05 64.4 -0.2915461 0.0
SAV-15-16 28 5 06/21/2015 18:40:58 2015-06-21T18:40:58Z 31.339183 -80.11225 2.0 2.921 74.284984 45.7474 28.7841 28.7837 1030.1682 30.1605 3.2021 79.016 2150.0 0.6146557 0.0
SAV-15-16 28 5 06/21/2015 18:40:58 2015-06-21T18:40:58Z 31.339183 -80.11225 3.0 4.381 57.30917 35.1708 28.7845 28.7837 1022.2792 22.2645 3.5064 78.877 1460.0 1.4193711 0.0
SAV-15-16 28 5 06/21/2015 18:40:58 2015-06-21T18:40:58Z 31.339183 -80.11225 4.0 5.842 57.313136 35.1718 28.7864 28.7853 1022.2842 22.2647 3.4668 77.991 1270.0 0.8284013 0.0
SAV-15-16 28 5 06/21/2015 18:40:58 2015-06-21T18:40:58Z 31.339183 -80.11225 5.0 7.303 57.313271 35.1712 28.787 28.7856 1022.2878 22.2641 3.3813 76.068 1050.0 -0.2061724 0.0
SAV-15-16 28 5 06/21/2015 18:40:58 2015-06-21T18:40:58Z 31.339183 -80.11225 6.0 8.763 57.311291 35.3815 28.5019 28.5003 1022.5444 22.5168 3.1212 69.977 885.0 -0.0303129 0.0
SAV-15-16 28 5 06/21/2015 18:40:58 2015-06-21T18:40:58Z 31.339183 -80.11225 7.0 10.223 57.307573 35.5517 28.2706 28.2688 1022.7536 22.7213 2.9844 66.719 932.0 -1.0552406 0.0
SAV-15-16 28 5 06/21/2015 18:40:58 2015-06-21T18:40:58Z 31.339183 -80.11225 8.0 11.684 57.265421 35.5874 28.1837 28.1816 1022.8131 22.7768 3.1936 71.308 954.0 0.831981 0.0
SAV-15-16 28 5 06/21/2015 18:40:58 2015-06-21T18:40:58Z 31.339183 -80.11225 9.0 13.145 56.777201 35.2656 28.1563 28.1541 1022.5842 22.5439 3.8417 85.584 773.0 0.3288498 0.0
SAV-15-16 28 5 06/21/2015 18:40:58 2015-06-21T18:40:58Z 31.339183 -80.11225 10.0 14.605 56.631299 35.1703 28.1466 28.1441 1022.5206 22.4755 4.6053 102.53 730.0 0.9153181 0.0
SAV-15-16 28 5 06/21/2015 18:40:58 2015-06-21T18:40:58Z 31.339183 -80.11225 11.0 16.066 56.629688 35.1686 28.1471 28.1443 1022.5231 22.4741 4.629 103.056 648.0 0.0903937 0.0
SAV-15-16 28 5 06/21/2015 18:40:58 2015-06-21T18:40:58Z 31.339183 -80.11225 12.0 17.526 56.64181 35.1744 28.1503 28.1473 1022.5307 22.4775 4.4749 99.633 602.0 0.7368481 0.0
SAV-15-16 28 5 06/21/2015 18:40:58 2015-06-21T18:40:58Z 31.339183 -80.11225 13.0 18.987 56.647381 35.2089 28.1089 28.1056 1022.5746 22.5172 4.5016 100.179 588.0 0.4330514 0.0
SAV-15-16 28 5 06/21/2015 18:40:58 2015-06-21T18:40:58Z 31.339183 -80.11225 14.0 20.447 56.596968 35.2845 27.9601 27.9566 1022.6849 22.6228 4.4731 99.346 564.0 0.2856779 0.0
SAV-15-16 28 5 06/21/2015 18:40:58 2015-06-21T18:40:58Z 31.339183 -80.11225 15.0 21.908 56.517071 35.3683 27.7736 27.77 1022.8124 22.7467 4.4854 99.362 492.0 0.3728988 0.0
SAV-15-16 28 5 06/21/2015 18:40:58 2015-06-21T18:40:58Z 31.339183 -80.11225 16.0 23.369 56.037462 35.955 26.5634 26.5596 1023.6473 23.5766 4.583 99.839 470.0 0.3465134 0.0
SAV-15-16 28 5 06/21/2015 18:40:58 2015-06-21T18:40:58Z 31.339183 -80.11225 17.0 24.829 55.376261 36.2051 25.63 25.6261 1024.1337 24.0591 4.6343 99.537 405.0 0.1080658 0.0
SAV-15-16 28 5 06/21/2015 18:40:58 2015-06-21T18:40:58Z 31.339183 -80.11225 18.0 26.29 55.107146 36.3327 25.2198 25.2157 1024.3619 24.2827 4.7291 100.948 388.0 -0.1313819 0.0
SAV-15-16 28 5 06/21/2015 18:40:58 2015-06-21T18:40:58Z 31.339183 -80.11225 19.0 27.75 55.050867 36.334 25.1657 25.1614 1024.3841 24.3003 4.8125 102.636 399.0 -0.4038128 0.0
SAV-15-16 28 5 06/21/2015 18:40:58 2015-06-21T18:40:58Z 31.339183 -80.11225 20.0 29.211 55.01873 36.3349 25.1343 25.1298 1024.399 24.3107 4.8411 103.191 350.0 -0.3818831 0.0
SAV-15-16 28 5 06/21/2015 18:40:58 2015-06-21T18:40:58Z 31.339183 -80.11225 21.0 30.671 55.010299 36.3269 25.1362 25.1314 1024.3956 24.3042 4.8272 102.895 336.0 -0.2251734 0.0
SAV-15-16 28 5 06/21/2015 18:40:58 2015-06-21T18:40:58Z 31.339183 -80.11225 22.0 32.132 54.983875 36.3338 25.1026 25.0976 1024.4164 24.3198 4.7858 101.958 308.0 -1.3893275 0.0
SAV-15-16 28 5 06/21/2015 18:40:58 2015-06-21T18:40:58Z 31.339183 -80.11225 23.0 33.592 54.97714 36.3281 25.103 25.0979 1024.4156 24.3154 4.799 102.237 295.0 -0.4517433 0.0
SAV-15-16 28 5 06/21/2015 18:40:58 2015-06-21T18:40:58Z 31.339183 -80.11225 24.0 35.053 54.967292 36.3231 25.0997 25.0943 1024.4177 24.3127 4.8273 102.831 268.0 -0.5196642 0.0
SAV-15-16 28 5 06/21/2015 18:40:58 2015-06-21T18:40:58Z 31.339183 -80.11225 25.0 36.514 54.964125 36.3261 25.0927 25.087 1024.4265 24.3172 4.8138 102.534 245.0 -0.8952578 0.0
SAV-15-16 28 5 06/21/2015 18:40:58 2015-06-21T18:40:58Z 31.339183 -80.11225 26.0 37.974 54.960854 36.3241 25.0917 25.0859 1024.4292 24.316 4.7708 101.615 234.0 -0.0735995 0.0
SAV-15-16 28 5 06/21/2015 18:40:58 2015-06-21T18:40:58Z 31.339183 -80.11225 27.0 39.436 54.955572 36.324 25.0865 25.0805 1024.4353 24.3176 4.8078 102.392 219.0 -0.7155414 0.0
SAV-15-16 28 5 06/21/2015 18:40:58 2015-06-21T18:40:58Z 31.339183 -80.11225 28.0 40.896 54.952636 36.3228 25.0848 25.0786 1024.4394 24.3173 4.8073 102.379 197.0 -1.0203409 0.0
SAV-15-16 28 5 06/21/2015 18:40:58 2015-06-21T18:40:58Z 31.339183 -80.11225 29.0 42.357 54.951064 36.3207 25.0856 25.0792 1024.4413 24.3155 4.8096 102.429 187.0 -0.7403809 0.0
SAV-15-16 28 5 06/21/2015 18:40:58 2015-06-21T18:40:58Z 31.339183 -80.11225 30.0 43.818 54.948907 36.3199 25.0841 25.0774 1024.4467 24.3155 4.8182 102.609 174.0 -1.1988498 0.0
SAV-15-16 28 5 06/21/2015 18:40:58 2015-06-21T18:40:58Z 31.339183 -80.11225 31.0 45.278 54.948473 36.3179 25.0859 25.079 1024.4479 24.3135 4.8287 102.833 159.0 -1.1076537 0.0
SAV-15-16 28 5 06/21/2015 18:40:58 2015-06-21T18:40:58Z 31.339183 -80.11225 32.0 46.739 54.9483 36.3171 25.0863 25.0791 1024.4522 24.3128 4.8147 102.535 148.0 -1.5811418 0.0
SAV-15-16 28 5 06/21/2015 18:40:58 2015-06-21T18:40:58Z 31.339183 -80.11225 33.0 48.2 54.947728 36.3172 25.0853 25.0779 1024.4563 24.3132 4.8209 102.665 136.0 -0.7435375 0.0
SAV-15-16 28 5 06/21/2015 18:40:58 2015-06-21T18:40:58Z 31.339183 -80.11225 34.0 49.66 54.946771 36.3165 25.0848 25.0772 1024.4606 24.313 4.8436 103.147 128.0 -0.9146013 0.0
SAV-15-16 28 5 06/21/2015 18:40:58 2015-06-21T18:40:58Z 31.339183 -80.11225 35.0 51.121 54.945191 36.3153 25.0844 25.0766 1024.4638 24.3122 4.8152 102.542 119.0 -0.3653939 0.0
SAV-15-16 28 5 06/21/2015 18:40:58 2015-06-21T18:40:58Z 31.339183 -80.11225 36.0 52.582 54.944696 36.3148 25.0842 25.0762 1024.4679 24.312 4.8013 102.246 109.0 -0.3071162 0.0
SAV-15-16 28 5 06/21/2015 18:40:58 2015-06-21T18:40:58Z 31.339183 -80.11225 37.0 54.043 54.943714 36.3141 25.0837 25.0754 1024.4724 24.3117 4.8262 102.775 100.0 0.2690771 0.0
SAV-15-16 28 5 06/21/2015 18:40:58 2015-06-21T18:40:58Z 31.339183 -80.11225 38.0 55.503 54.943323 36.3132 25.0841 25.0756 1024.4755 24.311 4.8449 103.173 95.7 -0.4541219 0.0
SAV-15-16 28 5 06/21/2015 18:40:58 2015-06-21T18:40:58Z 31.339183 -80.11225 39.0 56.964 54.945483 36.3141 25.0846 25.076 1024.4798 24.3115 4.8287 102.829 88.0 -0.0034587 0.0
SAV-15-16 28 5 06/21/2015 18:40:58 2015-06-21T18:40:58Z 31.339183 -80.11225 40.0 58.425 54.948517 36.3145 25.0865 25.0776 1024.4849 24.3113 4.8064 102.357 79.5 0.3425857 0.0
SAV-15-16 28 5 06/21/2015 18:40:58 2015-06-21T18:40:58Z 31.339183 -80.11225 41.0 59.886 54.9481 36.3146 25.0856 25.0765 1024.4889 24.3117 4.8127 102.49 75.8 -1.1643667 0.0
SAV-15-16 28 5 06/21/2015 18:40:58 2015-06-21T18:40:58Z 31.339183 -80.11225 42.0 61.346 54.94682 36.3146 25.084 25.0747 1024.4936 24.3123 4.7985 102.186 70.2 -0.6849809 0.0
SAV-15-16 28 5 06/21/2015 18:40:58 2015-06-21T18:40:58Z 31.339183 -80.11225 43.0 62.806 54.944591 36.3098 25.0879 25.0785 1024.4896 24.3075 4.8109 102.454 65.8 -1.5583334 0.0
SAV-15-16 29 5 06/21/2015 19:29:21 2015-06-21T19:29:21Z 31.3515 -80.095083 2.0 2.921 57.370562 35.1032 28.9339 28.9332 1022.1762 22.1639 4.6403 104.6 1540.0 -4.0341418 0.0
SAV-15-16 29 5 06/21/2015 19:29:21 2015-06-21T19:29:21Z 31.3515 -80.095083 3.0 4.381 57.329212 35.1286 28.8601 28.8592 1022.2243 22.2077 4.4757 100.783 1200.0 -4.210611 0.0
SAV-15-16 29 5 06/21/2015 19:29:21 2015-06-21T19:29:21Z 31.3515 -80.095083 4.0 5.842 57.204842 35.1696 28.6878 28.6866 1022.3166 22.2959 4.4545 100.049 1210.0 -3.5529392 0.0
SAV-15-16 29 5 06/21/2015 19:29:21 2015-06-21T19:29:21Z 31.3515 -80.095083 5.0 7.303 56.987493 35.1922 28.4533 28.4518 1022.4161 22.3907 4.4526 99.638 860.0 -1.776228 0.0
SAV-15-16 29 5 06/21/2015 19:29:21 2015-06-21T19:29:21Z 31.3515 -80.095083 6.0 8.763 56.882424 35.1969 28.348 28.3464 1022.4582 22.429 4.4559 99.545 946.0 -1.9784259 0.0
SAV-15-16 29 5 06/21/2015 19:29:21 2015-06-21T19:29:21Z 31.3515 -80.095083 7.0 10.224 56.808772 35.1907 28.287 28.2851 1022.4773 22.4445 4.4613 99.563 828.0 -3.2351577 0.0
SAV-15-16 29 5 06/21/2015 19:29:21 2015-06-21T19:29:21Z 31.3515 -80.095083 8.0 11.683 56.754515 35.1856 28.2425 28.2403 1022.4935 22.4553 4.4703 99.687 727.0 -3.3413071 0.0
SAV-15-16 29 5 06/21/2015 19:29:21 2015-06-21T19:29:21Z 31.3515 -80.095083 9.0 13.145 56.714976 35.1919 28.1965 28.1941 1022.518 22.4754 4.497 100.211 647.0 -3.3048597 0.0
SAV-15-16 29 5 06/21/2015 19:29:21 2015-06-21T19:29:21Z 31.3515 -80.095083 10.0 14.605 56.701225 35.1848 28.1928 28.1903 1022.5167 22.4713 4.4895 100.034 601.0 -4.2146262 0.0
SAV-15-16 29 5 06/21/2015 19:29:21 2015-06-21T19:29:21Z 31.3515 -80.095083 11.0 16.066 56.68828 35.1847 28.1804 28.1775 1022.5253 22.4754 4.4843 99.898 597.0 -3.4231807 0.0
SAV-15-16 29 5 06/21/2015 19:29:21 2015-06-21T19:29:21Z 31.3515 -80.095083 12.0 17.526 56.660997 35.1838 28.1555 28.1525 1022.5377 22.4829 4.4616 99.352 483.0 -3.3748625 0.0
SAV-15-16 29 5 06/21/2015 19:29:21 2015-06-21T19:29:21Z 31.3515 -80.095083 13.0 18.986 56.639718 35.1833 28.1358 28.1325 1022.5479 22.4891 4.4676 99.452 508.0 -3.4187713 0.0
SAV-15-16 29 5 06/21/2015 19:29:21 2015-06-21T19:29:21Z 31.3515 -80.095083 14.0 20.447 56.626982 35.1824 28.1246 28.1211 1022.5551 22.4922 4.4831 99.778 433.0 -3.730838 0.0
SAV-15-16 29 5 06/21/2015 19:29:21 2015-06-21T19:29:21Z 31.3515 -80.095083 15.0 21.908 56.631273 35.1911 28.1166 28.1128 1022.5697 22.5014 4.483 99.767 417.0 -3.9380236 0.0
SAV-15-16 29 5 06/21/2015 19:29:21 2015-06-21T19:29:21Z 31.3515 -80.095083 16.0 23.369 56.645749 35.2134 28.0999 28.0959 1022.5954 22.5237 4.4705 99.476 373.0 -3.5287509 0.0
SAV-15-16 29 5 06/21/2015 19:29:21 2015-06-21T19:29:21Z 31.3515 -80.095083 17.0 24.829 56.627121 35.2458 28.0389 28.0347 1022.6429 22.5681 4.4977 100.0 386.0 -4.2662304 0.0
SAV-15-16 29 5 06/21/2015 19:29:21 2015-06-21T19:29:21Z 31.3515 -80.095083 18.0 26.29 56.548961 35.3239 27.8609 27.8565 1022.7649 22.6852 4.5226 100.303 322.0 -4.2265889 0.0
SAV-15-16 29 5 06/21/2015 19:29:21 2015-06-21T19:29:21Z 31.3515 -80.095083 19.0 27.75 56.256519 35.8674 26.8788 26.8742 1023.4948 23.4106 4.5781 100.207 335.0 -3.0668802 0.0
SAV-15-16 29 5 06/21/2015 19:29:21 2015-06-21T19:29:21Z 31.3515 -80.095083 20.0 29.211 55.344065 36.3896 25.3671 25.3624 1024.3698 24.2804 4.6425 99.379 268.0 -3.1090757 0.0
SAV-15-16 29 5 06/21/2015 19:29:21 2015-06-21T19:29:21Z 31.3515 -80.095083 21.0 30.671 55.148285 36.3542 25.2297 25.2248 1024.3903 24.2961 4.6723 99.767 275.0 -4.2658358 0.0
SAV-15-16 29 5 06/21/2015 19:29:21 2015-06-21T19:29:21Z 31.3515 -80.095083 22.0 32.132 55.084942 36.3655 25.1566 25.1516 1024.4252 24.3272 4.7309 100.899 258.0 -3.6269065 0.0
SAV-15-16 29 5 06/21/2015 19:29:21 2015-06-21T19:29:21Z 31.3515 -80.095083 23.0 33.593 55.053822 36.3558 25.1395 25.1343 1024.4262 24.3252 4.7816 101.946 253.0 -3.4480751 0.0
SAV-15-16 29 5 06/21/2015 19:29:21 2015-06-21T19:29:21Z 31.3515 -80.095083 24.0 35.053 55.034928 36.3451 25.135 25.1295 1024.4243 24.3185 4.8267 102.893 229.0 -4.0547911 0.0
SAV-15-16 29 5 06/21/2015 19:29:21 2015-06-21T19:29:21Z 31.3515 -80.095083 25.0 36.514 55.008708 36.3455 25.1098 25.104 1024.4374 24.3266 4.8185 102.673 210.0 -2.6433894 0.0
SAV-15-16 29 5 06/21/2015 19:29:21 2015-06-21T19:29:21Z 31.3515 -80.095083 26.0 37.975 54.999569 36.3411 25.1064 25.1005 1024.4388 24.3244 4.8387 103.095 196.0 -2.2344331 0.0
SAV-15-16 29 5 06/21/2015 19:29:21 2015-06-21T19:29:21Z 31.3515 -80.095083 27.0 39.436 54.998167 36.3424 25.1031 25.097 1024.4444 24.3265 4.8451 103.228 188.0 -3.6309152 0.0
SAV-15-16 29 5 06/21/2015 19:29:21 2015-06-21T19:29:21Z 31.3515 -80.095083 28.0 40.896 54.989644 36.3428 25.0941 25.0876 1024.4545 24.3296 4.8262 102.808 158.0 -3.6406984 0.0
SAV-15-16 29 5 06/21/2015 19:29:21 2015-06-21T19:29:21Z 31.3515 -80.095083 29.0 42.357 54.985206 36.338 25.0956 25.0889 1024.4545 24.3256 4.8005 102.261 162.0 -2.9378329 0.0
SAV-15-16 29 5 06/21/2015 19:29:21 2015-06-21T19:29:21Z 31.3515 -80.095083 30.0 43.818 54.986949 36.3377 25.0973 25.0906 1024.4559 24.3249 4.8042 102.344 150.0 -2.5946684 0.0
SAV-15-16 29 5 06/21/2015 19:29:21 2015-06-21T19:29:21Z 31.3515 -80.095083 31.0 45.278 54.984275 36.3346 25.0983 25.0913 1024.4574 24.3223 4.8221 102.725 138.0 -3.1200439 0.0
SAV-15-16 29 5 06/21/2015 19:29:21 2015-06-21T19:29:21Z 31.3515 -80.095083 32.0 46.739 54.976689 36.3304 25.0959 25.0886 1024.4612 24.32 4.8222 102.72 124.0 -3.4164313 0.0
SAV-15-16 29 5 06/21/2015 19:29:21 2015-06-21T19:29:21Z 31.3515 -80.095083 33.0 48.2 54.976693 36.3278 25.0988 25.0914 1024.4619 24.3172 4.8265 102.815 117.0 -3.4502074 0.0
SAV-15-16 29 5 06/21/2015 19:29:21 2015-06-21T19:29:21Z 31.3515 -80.095083 34.0 49.66 54.982241 36.3284 25.1029 25.0953 1024.4641 24.3164 4.7959 102.171 109.0 -3.4845247 0.0
SAV-15-16 29 5 06/21/2015 19:29:21 2015-06-21T19:29:21Z 31.3515 -80.095083 35.0 51.121 54.983413 36.3272 25.105 25.0972 1024.4671 24.3149 4.7985 102.228 101.0 -2.9754007 0.0
SAV-15-16 29 5 06/21/2015 19:29:21 2015-06-21T19:29:21Z 31.3515 -80.095083 36.0 52.582 54.98214 36.326 25.105 25.0969 1024.4706 24.3141 4.8021 102.304 94.5 -2.3701805 0.0
SAV-15-16 29 5 06/21/2015 19:29:21 2015-06-21T19:29:21Z 31.3515 -80.095083 37.0 54.043 54.979575 36.3242 25.1045 25.0963 1024.4726 24.3129 4.8121 102.517 86.1 -2.7913222 0.0
SAV-15-16 29 5 06/21/2015 19:29:21 2015-06-21T19:29:21Z 31.3515 -80.095083 38.0 55.503 54.975457 36.322 25.103 25.0946 1024.4753 24.3118 4.8025 102.308 80.7 -2.5048552 0.0
SAV-15-16 29 5 06/21/2015 19:29:21 2015-06-21T19:29:21Z 31.3515 -80.095083 39.0 56.964 54.972116 36.3199 25.1021 25.0934 1024.4784 24.3106 4.8305 102.901 73.3 -2.3051427 0.0
SAV-15-16 29 5 06/21/2015 19:29:21 2015-06-21T19:29:21Z 31.3515 -80.095083 40.0 58.425 54.96503 36.3157 25.1006 25.0917 1024.4789 24.3078 4.8194 102.659 68.9 -2.9380314 0.0
SAV-15-16 29 5 06/21/2015 19:29:21 2015-06-21T19:29:21Z 31.3515 -80.095083 41.0 59.886 54.968678 36.3115 25.109 25.1001 1024.4747 24.3021 4.84 103.111 64.8 -3.2894247 0.0
SAV-15-16 30 7 06/21/2015 22:34:29 2015-06-21T22:34:29Z 31.3035 -79.61 2.0 2.921 70.63173 42.9008 29.6294 29.6289 1027.7575 27.7496 3.807 91.465 590.0 -2.2296204 0.0
SAV-15-16 30 7 06/21/2015 22:34:29 2015-06-21T22:34:29Z 31.3035 -79.61 3.0 4.381 59.650388 36.33 29.3937 29.3928 1022.9468 22.9306 4.3415 99.266 588.0 -0.9503328 0.0
SAV-15-16 30 7 06/21/2015 22:34:29 2015-06-21T22:34:29Z 31.3035 -79.61 4.0 5.842 59.367004 36.3094 29.1628 29.1616 1023.0141 22.9933 4.3334 98.7 413.0 -1.1382579 0.0
SAV-15-16 30 7 06/21/2015 22:34:29 2015-06-21T22:34:29Z 31.3035 -79.61 5.0 7.303 59.306887 36.2892 29.1345 29.1331 1023.0123 22.9877 4.3314 98.598 429.0 -1.4817449 0.0
SAV-15-16 30 7 06/21/2015 22:34:29 2015-06-21T22:34:29Z 31.3035 -79.61 6.0 8.763 59.284709 36.2846 29.1199 29.1183 1023.0177 22.9892 4.3478 98.947 385.0 -1.0970138 0.0
SAV-15-16 30 7 06/21/2015 22:34:29 2015-06-21T22:34:29Z 31.3035 -79.61 7.0 10.223 59.261359 36.2814 29.1025 29.1005 1023.026 22.9928 4.3659 99.33 375.0 -0.3702969 0.0
SAV-15-16 30 7 06/21/2015 22:34:29 2015-06-21T22:34:29Z 31.3035 -79.61 8.0 11.684 59.244603 36.2774 29.092 29.0898 1023.0312 22.9934 4.344 98.811 310.0 -1.5748083 0.0
SAV-15-16 30 7 06/21/2015 22:34:29 2015-06-21T22:34:29Z 31.3035 -79.61 9.0 13.144 59.232675 36.2748 29.0842 29.0818 1023.0359 22.9942 4.3338 98.565 337.0 -1.3635407 0.0
SAV-15-16 30 7 06/21/2015 22:34:29 2015-06-21T22:34:29Z 31.3035 -79.61 10.0 14.605 59.22505 36.2746 29.0772 29.0746 1023.0419 22.9964 4.3416 98.733 334.0 -0.6979372 0.0
SAV-15-16 30 7 06/21/2015 22:34:29 2015-06-21T22:34:29Z 31.3035 -79.61 11.0 16.066 59.218466 36.2735 29.0723 29.0695 1023.0469 22.9973 4.3522 98.966 303.0 -0.1971303 0.0
SAV-15-16 30 7 06/21/2015 22:34:29 2015-06-21T22:34:29Z 31.3035 -79.61 12.0 17.526 59.201543 36.2731 29.057 29.0538 1023.0569 23.0023 4.3304 98.444 276.0 0.0926658 0.0
SAV-15-16 30 7 06/21/2015 22:34:29 2015-06-21T22:34:29Z 31.3035 -79.61 13.0 18.987 59.186019 36.2704 29.046 29.0425 1023.0626 23.004 4.3131 98.032 275.0 -1.0186487 0.0
SAV-15-16 30 7 06/21/2015 22:34:29 2015-06-21T22:34:29Z 31.3035 -79.61 14.0 20.447 59.176939 36.2693 29.0387 29.0351 1023.0681 23.0057 4.3269 98.334 284.0 -1.7967819 0.0
SAV-15-16 30 7 06/21/2015 22:34:29 2015-06-21T22:34:29Z 31.3035 -79.61 15.0 21.908 59.167944 36.2676 29.0325 29.0286 1023.0732 23.0066 4.3551 98.966 251.0 -0.3305621 0.0
SAV-15-16 30 7 06/21/2015 22:34:29 2015-06-21T22:34:29Z 31.3035 -79.61 16.0 23.368 59.163372 36.2667 29.0291 29.025 1023.0782 23.0071 4.3585 99.035 256.0 -0.9648901 0.0
SAV-15-16 30 7 06/21/2015 22:34:29 2015-06-21T22:34:29Z 31.3035 -79.61 17.0 24.829 59.159108 36.2664 29.0251 29.0208 1023.0836 23.0084 4.3536 98.917 236.0 -2.0457765 0.0
SAV-15-16 30 7 06/21/2015 22:34:29 2015-06-21T22:34:29Z 31.3035 -79.61 18.0 26.29 59.153297 36.2653 29.0209 29.0163 1023.0886 23.009 4.345 98.716 232.0 -2.0605753 0.0
SAV-15-16 30 7 06/21/2015 22:34:29 2015-06-21T22:34:29Z 31.3035 -79.61 19.0 27.751 59.148847 36.2656 29.0161 29.0112 1023.0947 23.0109 4.3481 98.778 219.0 -0.6479228 0.0
SAV-15-16 30 7 06/21/2015 22:34:29 2015-06-21T22:34:29Z 31.3035 -79.61 20.0 29.211 59.141935 36.2635 29.012 29.0069 1023.0991 23.0109 4.3448 98.695 203.0 -0.178374 0.0
SAV-15-16 30 7 06/21/2015 22:34:29 2015-06-21T22:34:29Z 31.3035 -79.61 21.0 30.671 59.141092 36.2633 29.0112 29.0059 1023.1029 23.0111 4.3444 98.685 197.0 -0.7505007 0.0
SAV-15-16 30 7 06/21/2015 22:34:29 2015-06-21T22:34:29Z 31.3035 -79.61 22.0 32.132 59.140311 36.2636 29.0099 29.0043 1023.1075 23.0117 4.3544 98.91 193.0 -1.6792133 0.0
SAV-15-16 30 7 06/21/2015 22:34:29 2015-06-21T22:34:29Z 31.3035 -79.61 23.0 33.592 59.128348 36.2653 28.9962 28.9903 1023.1186 23.0177 4.3321 98.383 176.0 -1.6369975 0.0
SAV-15-16 30 7 06/21/2015 22:34:29 2015-06-21T22:34:29Z 31.3035 -79.61 24.0 35.053 59.103376 36.264 28.9748 28.9687 1023.1289 23.024 4.3533 98.829 187.0 -1.6300368 0.0
SAV-15-16 30 7 06/21/2015 22:34:29 2015-06-21T22:34:29Z 31.3035 -79.61 25.0 36.514 59.079956 36.2585 28.9602 28.9538 1023.1346 23.0249 4.3596 98.947 163.0 -1.7462621 0.0
SAV-15-16 30 7 06/21/2015 22:34:29 2015-06-21T22:34:29Z 31.3035 -79.61 26.0 37.974 59.071651 36.2555 28.9562 28.9497 1023.1374 23.024 4.3783 99.362 160.0 -1.5722383 0.0
SAV-15-16 30 7 06/21/2015 22:34:29 2015-06-21T22:34:29Z 31.3035 -79.61 27.0 39.435 59.065726 36.2541 28.9523 28.9456 1023.1415 23.0243 4.3698 99.163 160.0 -0.3458891 0.0
SAV-15-16 30 7 06/21/2015 22:34:29 2015-06-21T22:34:29Z 31.3035 -79.61 28.0 40.896 59.052111 36.2527 28.9413 28.9343 1023.1486 23.0271 4.3729 99.213 149.0 -0.515406 0.0
SAV-15-16 30 7 06/21/2015 22:34:29 2015-06-21T22:34:29Z 31.3035 -79.61 29.0 42.356 59.033536 36.2494 28.9284 28.9211 1023.1545 23.029 4.3528 98.735 142.0 -0.867308 0.0
SAV-15-16 30 7 06/21/2015 22:34:29 2015-06-21T22:34:29Z 31.3035 -79.61 30.0 43.817 58.995592 36.2487 28.8942 28.8867 1023.1706 23.04 4.3535 98.696 138.0 -1.5923691 0.0
SAV-15-16 30 7 06/21/2015 22:34:29 2015-06-21T22:34:29Z 31.3035 -79.61 31.0 45.278 58.948713 36.2451 28.8559 28.8481 1023.1851 23.0502 4.3689 98.982 140.0 -1.9606164 0.0
SAV-15-16 30 7 06/21/2015 22:34:29 2015-06-21T22:34:29Z 31.3035 -79.61 32.0 46.739 58.920674 36.2435 28.8319 28.8239 1023.1961 23.0571 4.3729 99.034 129.0 -1.5455371 0.0
SAV-15-16 30 7 06/21/2015 22:34:29 2015-06-21T22:34:29Z 31.3035 -79.61 33.0 48.199 58.895742 36.2416 28.8114 28.8032 1023.2055 23.0626 4.3712 98.961 121.0 -0.8654686 0.0
SAV-15-16 30 7 06/21/2015 22:34:29 2015-06-21T22:34:29Z 31.3035 -79.61 34.0 49.66 58.838388 36.2402 28.7605 28.7521 1023.2252 23.0786 4.3725 98.908 120.0 -0.6892976 0.0
SAV-15-16 30 7 06/21/2015 22:34:29 2015-06-21T22:34:29Z 31.3035 -79.61 35.0 51.12 58.77637 36.2377 28.7068 28.6982 1023.2454 23.0947 4.3825 99.048 112.0 -0.7375285 0.0
SAV-15-16 30 7 06/21/2015 22:34:29 2015-06-21T22:34:29Z 31.3035 -79.61 36.0 52.581 58.728495 36.2311 28.6712 28.6624 1023.2573 23.1017 4.4094 99.594 112.0 -0.9339266 0.0
SAV-15-16 30 7 06/21/2015 22:34:29 2015-06-21T22:34:29Z 31.3035 -79.61 37.0 54.042 58.702574 36.2306 28.6479 28.6387 1023.2693 23.1092 4.4221 99.844 105.0 -0.9393405 0.0
SAV-15-16 30 7 06/21/2015 22:34:29 2015-06-21T22:34:29Z 31.3035 -79.61 38.0 55.503 58.64243 36.2738 28.536 28.5266 1023.3436 23.179 4.4362 100.005 103.0 -1.4076769 0.0
SAV-15-16 30 7 06/21/2015 22:34:29 2015-06-21T22:34:29Z 31.3035 -79.61 39.0 56.963 58.491075 36.3122 28.3474 28.3377 1023.4396 23.2705 4.4194 99.342 97.6 -1.3525104 0.0
SAV-15-16 30 7 06/21/2015 22:34:29 2015-06-21T22:34:29Z 31.3035 -79.61 40.0 58.424 58.41726 36.3182 28.2719 28.262 1023.4729 23.3 4.4258 99.367 91.9 -1.2097143 0.0
SAV-15-16 30 7 06/21/2015 22:34:29 2015-06-21T22:34:29Z 31.3035 -79.61 41.0 59.885 58.399841 36.326 28.2455 28.2355 1023.4906 23.3146 4.4328 99.488 88.3 -1.3615702 0.0
SAV-15-16 30 7 06/21/2015 22:34:29 2015-06-21T22:34:29Z 31.3035 -79.61 42.0 61.346 58.405521 36.3474 28.2225 28.2123 1023.5192 23.3384 4.5085 101.161 85.7 -1.1052318 0.0
SAV-15-16 30 7 06/21/2015 22:34:29 2015-06-21T22:34:29Z 31.3035 -79.61 43.0 62.806 58.269283 36.3862 28.0473 28.0369 1023.6116 23.4254 4.521 101.175 81.3 -1.0722961 0.0
SAV-15-16 30 7 06/21/2015 22:34:29 2015-06-21T22:34:29Z 31.3035 -79.61 44.0 64.268 58.111059 36.3811 27.9092 27.8985 1023.6564 23.467 4.4945 100.352 78.0 -1.4958719 0.0
SAV-15-16 30 7 06/21/2015 22:34:29 2015-06-21T22:34:29Z 31.3035 -79.61 45.0 65.729 57.988437 36.3416 27.8478 27.837 1023.6509 23.4574 4.4878 100.08 74.9 -0.6695479 0.0
SAV-15-16 30 7 06/21/2015 22:34:29 2015-06-21T22:34:29Z 31.3035 -79.61 46.0 67.189 57.908077 36.3379 27.7787 27.7676 1023.676 23.4773 4.4972 100.175 71.4 -0.8619168 0.0
SAV-15-16 30 7 06/21/2015 22:34:29 2015-06-21T22:34:29Z 31.3035 -79.61 47.0 68.65 57.814013 36.3396 27.6901 27.6788 1023.71 23.5076 4.5038 100.178 67.6 -0.8615463 0.0
SAV-15-16 30 7 06/21/2015 22:34:29 2015-06-21T22:34:29Z 31.3035 -79.61 48.0 70.111 57.733294 36.3299 27.6284 27.6168 1023.7272 23.5205 4.5381 100.831 63.6 -0.7476099 0.0
SAV-15-16 30 7 06/21/2015 22:34:29 2015-06-21T22:34:29Z 31.3035 -79.61 49.0 71.572 57.681597 36.3284 27.5824 27.5707 1023.7459 23.5344 4.5348 100.684 60.4 -0.8595916 0.0
SAV-15-16 30 7 06/21/2015 22:34:29 2015-06-21T22:34:29Z 31.3035 -79.61 50.0 73.033 57.659794 36.3243 27.5674 27.5554 1023.752 23.5363 4.5324 100.601 57.8 -2.2337046 0.0
SAV-15-16 30 7 06/21/2015 22:34:29 2015-06-21T22:34:29Z 31.3035 -79.61 51.0 74.493 57.639515 36.3299 27.5414 27.5292 1023.7681 23.549 4.5267 100.437 55.6 -1.5642785 0.0
SAV-15-16 30 7 06/21/2015 22:34:29 2015-06-21T22:34:29Z 31.3035 -79.61 52.0 75.954 57.561836 36.3366 27.4612 27.4489 1023.8031 23.5801 4.5281 100.339 52.8 0.13581 0.0
SAV-15-16 30 7 06/21/2015 22:34:29 2015-06-21T22:34:29Z 31.3035 -79.61 53.0 77.415 57.522531 36.3293 27.4341 27.4214 1023.8118 23.5835 4.5281 100.289 50.0 -0.9998434 0.0
SAV-15-16 30 7 06/21/2015 22:34:29 2015-06-21T22:34:29Z 31.3035 -79.61 54.0 78.876 57.487327 36.3326 27.3972 27.3843 1023.8313 23.598 4.513 99.897 47.2 -0.8474322 0.0
SAV-15-16 30 7 06/21/2015 22:34:29 2015-06-21T22:34:29Z 31.3035 -79.61 55.0 80.337 57.425168 36.3342 27.3378 27.3247 1023.8554 23.6185 4.4945 99.39 44.9 -0.1234509 0.0
SAV-15-16 30 7 06/21/2015 22:34:29 2015-06-21T22:34:29Z 31.3035 -79.61 56.0 81.798 57.346286 36.3202 27.2832 27.27 1023.8657 23.6256 4.4931 99.263 42.5 -1.4073675 0.0
SAV-15-16 30 7 06/21/2015 22:34:29 2015-06-21T22:34:29Z 31.3035 -79.61 57.0 83.258 57.289204 36.3147 27.2374 27.2239 1023.8816 23.6364 4.4671 98.611 40.4 0.3597454 0.0
SAV-15-16 30 7 06/21/2015 22:34:29 2015-06-21T22:34:29Z 31.3035 -79.61 58.0 84.719 57.242521 36.3304 27.174 27.1603 1023.9188 23.6687 4.4661 98.495 38.4 -0.2953322 0.0
SAV-15-16 30 7 06/21/2015 22:34:29 2015-06-21T22:34:29Z 31.3035 -79.61 59.0 86.18 57.20637 36.331 27.1398 27.1258 1023.9339 23.6803 4.4384 97.828 36.2 -0.2828109 0.0
SAV-15-16 30 7 06/21/2015 22:34:29 2015-06-21T22:34:29Z 31.3035 -79.61 60.0 87.641 57.2081 36.3335 27.1378 27.1236 1023.9404 23.6828 4.4268 97.572 34.4 -0.8902551 0.0
SAV-15-16 30 7 06/21/2015 22:34:29 2015-06-21T22:34:29Z 31.3035 -79.61 61.0 89.102 57.195065 36.3418 27.1147 27.1003 1023.9587 23.6966 4.4324 97.661 32.7 -2.0996888 0.0
SAV-15-16 30 7 06/21/2015 22:34:29 2015-06-21T22:34:29Z 31.3035 -79.61 62.0 90.563 57.164937 36.3407 27.0882 27.0735 1023.9706 23.7044 4.4202 97.35 31.2 -1.9060785 0.0
SAV-15-16 30 7 06/21/2015 22:34:29 2015-06-21T22:34:29Z 31.3035 -79.61 63.0 92.024 57.141291 36.3444 27.0613 27.0465 1023.9864 23.7158 4.395 96.755 29.5 -2.1120304 0.0
SAV-15-16 30 7 06/21/2015 22:34:29 2015-06-21T22:34:29Z 31.3035 -79.61 64.0 93.485 57.114575 36.3434 27.0377 27.0226 1023.997 23.7228 4.3876 96.554 27.9 -1.6972769 0.0
SAV-15-16 30 7 06/21/2015 22:34:29 2015-06-21T22:34:29Z 31.3035 -79.61 65.0 94.946 57.090278 36.3422 27.0165 27.0012 1024.0083 23.7287 4.4055 96.912 26.3 -1.2291227 0.0
SAV-15-16 30 7 06/21/2015 22:34:29 2015-06-21T22:34:29Z 31.3035 -79.61 66.0 96.407 57.052676 36.3483 26.9737 26.9581 1024.0316 23.7472 4.4094 96.932 24.9 -0.7403356 0.0
SAV-15-16 30 7 06/21/2015 22:34:29 2015-06-21T22:34:29Z 31.3035 -79.61 67.0 97.867 57.02586 36.3513 26.9448 26.9291 1024.0473 23.7588 4.3916 96.499 23.6 -0.5240879 0.0
SAV-15-16 30 7 06/21/2015 22:34:29 2015-06-21T22:34:29Z 31.3035 -79.61 68.0 99.328 57.001757 36.3527 26.9206 26.9047 1024.0593 23.7676 4.3901 96.427 22.4 -0.6493941 0.0
SAV-15-16 30 7 06/21/2015 22:34:29 2015-06-21T22:34:29Z 31.3035 -79.61 69.0 100.789 56.989923 36.3506 26.9121 26.896 1024.0642 23.7689 4.3899 96.408 21.4 -1.5891075 0.0
SAV-15-16 30 7 06/21/2015 22:34:29 2015-06-21T22:34:29Z 31.3035 -79.61 70.0 102.25 56.972727 36.3518 26.8943 26.8779 1024.0759 23.7755 4.371 95.965 20.3 -1.4010237 0.0
SAV-15-16 30 7 06/21/2015 22:34:29 2015-06-21T22:34:29Z 31.3035 -79.61 71.0 103.711 56.946561 36.3607 26.8585 26.8419 1024.0989 23.7938 4.365 95.78 19.0 -1.5446434 0.0
SAV-15-16 30 7 06/21/2015 22:34:29 2015-06-21T22:34:29Z 31.3035 -79.61 72.0 105.172 56.885076 36.3521 26.8126 26.7957 1024.1115 23.802 4.3597 95.589 18.0 -2.0762017 0.0
SAV-15-16 30 7 06/21/2015 22:34:29 2015-06-21T22:34:29Z 31.3035 -79.61 73.0 106.634 56.85601 36.3478 26.7911 26.774 1024.119 23.8057 4.3377 95.069 17.2 -1.4486805 0.0
SAV-15-16 30 7 06/21/2015 22:34:29 2015-06-21T22:34:29Z 31.3035 -79.61 74.0 108.095 56.84531 36.3463 26.7827 26.7655 1024.1248 23.8073 4.3536 95.403 16.3 -1.7461363 0.0
SAV-15-16 30 7 06/21/2015 22:34:29 2015-06-21T22:34:29Z 31.3035 -79.61 75.0 109.555 56.810499 36.355 26.7392 26.7218 1024.1494 23.8278 4.3758 95.825 15.4 -3.342592 0.0
SAV-15-16 30 7 06/21/2015 22:34:29 2015-06-21T22:34:29Z 31.3035 -79.61 76.0 111.016 56.774615 36.3508 26.7112 26.6936 1024.1595 23.8336 4.3629 95.496 14.5 -2.4406237 0.0
SAV-15-16 30 7 06/21/2015 22:34:29 2015-06-21T22:34:29Z 31.3035 -79.61 77.0 112.478 56.729932 36.3575 26.6613 26.6434 1024.1851 23.8547 4.3398 94.915 13.7 -2.131106 0.0
SAV-15-16 30 7 06/21/2015 22:34:29 2015-06-21T22:34:29Z 31.3035 -79.61 78.0 113.938 56.653828 36.3645 26.5821 26.564 1024.2199 23.8852 4.3499 95.015 13.0 -2.0466328 0.0
SAV-15-16 30 7 06/21/2015 22:34:29 2015-06-21T22:34:29Z 31.3035 -79.61 79.0 115.399 56.603869 36.3688 26.5303 26.512 1024.2438 23.905 4.3502 94.943 12.3 -2.530797 0.0
SAV-15-16 30 7 06/21/2015 22:34:29 2015-06-21T22:34:29Z 31.3035 -79.61 80.0 116.86 56.515569 36.3719 26.4448 26.4262 1024.278 23.9345 4.3205 94.161 11.6 -3.0083027 0.0
SAV-15-16 30 7 06/21/2015 22:34:29 2015-06-21T22:34:29Z 31.3035 -79.61 81.0 118.321 56.433536 36.3669 26.3753 26.3566 1024.3001 23.9527 4.3174 93.983 11.0 -2.2345553 0.0
SAV-15-16 30 7 06/21/2015 22:34:29 2015-06-21T22:34:29Z 31.3035 -79.61 82.0 119.782 56.359116 36.3663 26.3071 26.2882 1024.3256 23.974 4.3283 94.114 10.3 -0.9230475 0.0
SAV-15-16 30 7 06/21/2015 22:34:29 2015-06-21T22:34:29Z 31.3035 -79.61 83.0 121.244 56.310491 36.3683 26.2593 26.2402 1024.3471 23.9906 4.2886 93.176 9.75 -1.2926753 0.0
SAV-15-16 30 7 06/21/2015 22:34:29 2015-06-21T22:34:29Z 31.3035 -79.61 84.0 122.704 56.323115 36.3779 26.2585 26.2392 1024.3586 23.9981 4.2635 92.635 9.16 -2.2993056 0.0
SAV-15-16 30 7 06/21/2015 22:34:29 2015-06-21T22:34:29Z 31.3035 -79.61 85.0 124.165 56.297476 36.3819 26.2295 26.21 1024.3751 24.0104 4.2454 92.2 8.62 -1.5218359 0.0
SAV-15-16 30 7 06/21/2015 22:34:29 2015-06-21T22:34:29Z 31.3035 -79.61 86.0 125.627 56.238675 36.3793 26.1782 26.1585 1024.3935 24.0246 4.2549 92.326 8.06 -2.3789536 0.0
SAV-15-16 30 7 06/21/2015 22:34:29 2015-06-21T22:34:29Z 31.3035 -79.61 87.0 127.088 56.180895 36.3753 26.1296 26.1097 1024.4107 24.037 4.2701 92.579 7.51 -1.6471996 0.0
SAV-15-16 30 7 06/21/2015 22:34:29 2015-06-21T22:34:29Z 31.3035 -79.61 88.0 128.549 56.155551 36.3777 26.1029 26.0828 1024.4248 24.0472 4.2803 92.759 7.05 -2.1756069 0.0
SAV-15-16 30 7 06/21/2015 22:34:29 2015-06-21T22:34:29Z 31.3035 -79.61 89.0 130.01 56.144249 36.3863 26.0812 26.0609 1024.4421 24.0606 4.2584 92.256 6.6 -2.4582958 0.0
SAV-15-16 30 7 06/21/2015 22:34:29 2015-06-21T22:34:29Z 31.3035 -79.61 90.0 131.471 56.145752 36.4101 26.0523 26.0317 1024.4737 24.0877 4.2093 91.159 6.2 -2.4322958 0.0
SAV-15-16 30 7 06/21/2015 22:34:29 2015-06-21T22:34:29Z 31.3035 -79.61 91.0 132.933 56.13551 36.411 26.0413 26.0205 1024.4823 24.0919 4.1766 90.434 5.76 -1.9852987 0.0
SAV-15-16 30 7 06/21/2015 22:34:29 2015-06-21T22:34:29Z 31.3035 -79.61 92.0 134.393 56.097963 36.4295 25.9831 25.9622 1024.5186 24.1242 4.1651 90.108 5.4 -1.8860111 0.0
SAV-15-16 30 7 06/21/2015 22:34:29 2015-06-21T22:34:29Z 31.3035 -79.61 93.0 135.855 56.010134 36.4367 25.8927 25.8716 1024.5571 24.158 4.1616 89.899 5.02 -1.6571004 0.0
SAV-15-16 30 7 06/21/2015 22:34:29 2015-06-21T22:34:29Z 31.3035 -79.61 94.0 137.315 55.88581 36.4529 25.7575 25.7363 1024.6164 24.2124 4.1927 90.376 4.67 -1.5184453 0.0
SAV-15-16 30 7 06/21/2015 22:34:29 2015-06-21T22:34:29Z 31.3035 -79.61 95.0 138.777 55.800699 36.4681 25.6599 25.6384 1024.6624 24.2543 4.2133 90.678 4.34 -1.1849531 0.0
SAV-15-16 30 7 06/21/2015 22:34:29 2015-06-21T22:34:29Z 31.3035 -79.61 96.0 140.238 55.567778 36.4768 25.4339 25.4123 1024.7437 24.331 4.2826 91.825 4.01 -0.8630165 0.0
SAV-15-16 30 7 06/21/2015 22:34:29 2015-06-21T22:34:29Z 31.3035 -79.61 97.0 141.699 55.345699 36.4714 25.2355 25.2138 1024.8046 24.3881 4.34 92.742 3.73 -1.1256134 0.0
SAV-15-16 30 7 06/21/2015 22:34:29 2015-06-21T22:34:29Z 31.3035 -79.61 98.0 143.16 55.102269 36.4586 25.0261 25.0044 1024.8636 24.4426 4.3812 93.283 3.44 -0.7408554 0.0
SAV-15-16 30 7 06/21/2015 22:34:29 2015-06-21T22:34:29Z 31.3035 -79.61 99.0 144.621